<?xml version="1.0" encoding="UTF-8" standalone="no" ?>
<gpx xmlns="http://www.topografix.com/GPX/1/1" xmlns:xsi="http://www.w3.org/2001/XMLSchema-instance" xsi:schemaLocation="http://www.topografix.com/GPX/1/1 http://www.topografix.com/GPX/1/1/gpx.xsd" version="1.1" creator="VisuGPX - https://www.visugpx.com">
  <metadata>
    <name>ROUE DES FORTS 40 KM</name>
  </metadata>
  <trk>
    <name><![CDATA[Rando 40 definitifbis]]></name>
    <trkseg>
      <trkpt lat="48.14782" lon="6.45182">
        <ele>410.290857</ele>
        <time>2022-07-12T13:31:03.208Z</time>
      </trkpt>
      <trkpt lat="48.14774" lon="6.45172">
        <ele>410.290857</ele>
        <time>2022-07-12T13:31:04.064Z</time>
      </trkpt>
      <trkpt lat="48.14772" lon="6.45192">
        <ele>410.290857</ele>
        <time>2022-07-12T13:31:08.061Z</time>
      </trkpt>
      <trkpt lat="48.14768" lon="6.45208">
        <ele>410.290857</ele>
        <time>2022-07-12T13:31:09.796Z</time>
      </trkpt>
      <trkpt lat="48.14766" lon="6.45225">
        <ele>410.290857</ele>
        <time>2022-07-12T13:31:11.799Z</time>
      </trkpt>
      <trkpt lat="48.14763" lon="6.45242">
        <ele>410.290857</ele>
        <time>2022-07-12T13:31:13.802Z</time>
      </trkpt>
      <trkpt lat="48.14762" lon="6.4526">
        <ele>410.290857</ele>
        <time>2022-07-12T13:31:15.826Z</time>
      </trkpt>
      <trkpt lat="48.14772" lon="6.4527">
        <ele>410.290857</ele>
        <time>2022-07-12T13:31:17.829Z</time>
      </trkpt>
      <trkpt lat="48.14787" lon="6.45275">
        <ele>410.028507</ele>
        <time>2022-07-12T13:31:19.822Z</time>
      </trkpt>
      <trkpt lat="48.148" lon="6.45279">
        <ele>409.588599</ele>
        <time>2022-07-12T13:31:21.830Z</time>
      </trkpt>
      <trkpt lat="48.14814" lon="6.45283">
        <ele>409.135105</ele>
        <time>2022-07-12T13:31:23.823Z</time>
      </trkpt>
      <trkpt lat="48.14829" lon="6.4528">
        <ele>408.673521</ele>
        <time>2022-07-12T13:31:25.831Z</time>
      </trkpt>
      <trkpt lat="48.1484" lon="6.45269">
        <ele>408.240213</ele>
        <time>2022-07-12T13:31:27.829Z</time>
      </trkpt>
      <trkpt lat="48.14849" lon="6.45254">
        <ele>407.798481</ele>
        <time>2022-07-12T13:31:29.834Z</time>
      </trkpt>
      <trkpt lat="48.14861" lon="6.45249">
        <ele>407.407809</ele>
        <time>2022-07-12T13:31:32.829Z</time>
      </trkpt>
      <trkpt lat="48.14871" lon="6.45262">
        <ele>406.993054</ele>
        <time>2022-07-12T13:31:35.849Z</time>
      </trkpt>
      <trkpt lat="48.1488" lon="6.45278">
        <ele>406.548161</ele>
        <time>2022-07-12T13:31:37.840Z</time>
      </trkpt>
      <trkpt lat="48.14876" lon="6.45294">
        <ele>406.179906</ele>
        <time>2022-07-12T13:31:41.851Z</time>
      </trkpt>
      <trkpt lat="48.1487" lon="6.45305">
        <ele>405.874305</ele>
        <time>2022-07-12T13:31:43.844Z</time>
      </trkpt>
      <trkpt lat="48.14862" lon="6.45317">
        <ele>405.503021</ele>
        <time>2022-07-12T13:31:45.838Z</time>
      </trkpt>
      <trkpt lat="48.14853" lon="6.4533">
        <ele>405.104857</ele>
        <time>2022-07-12T13:31:47.859Z</time>
      </trkpt>
      <trkpt lat="48.14844" lon="6.45345">
        <ele>404.692068</ele>
        <time>2022-07-12T13:31:49.856Z</time>
      </trkpt>
      <trkpt lat="48.14835" lon="6.45359">
        <ele>404.78447</ele>
        <time>2022-07-12T13:31:51.854Z</time>
      </trkpt>
      <trkpt lat="48.14826" lon="6.45373">
        <ele>405.123323</ele>
        <time>2022-07-12T13:31:53.833Z</time>
      </trkpt>
      <trkpt lat="48.13917" lon="6.4697">
        <ele>443.276242</ele>
        <time>2022-07-12T13:37:21.415Z</time>
      </trkpt>
      <trkpt lat="48.13911" lon="6.46982">
        <ele>443.67106</ele>
        <time>2022-07-12T13:37:23.371Z</time>
      </trkpt>
      <trkpt lat="48.13901" lon="6.46981">
        <ele>444.083176</ele>
        <time>2022-07-12T13:37:26.378Z</time>
      </trkpt>
      <trkpt lat="48.1389" lon="6.46981">
        <ele>444.611433</ele>
        <time>2022-07-12T13:37:29.398Z</time>
      </trkpt>
      <trkpt lat="48.1388" lon="6.46981">
        <ele>445.139617</ele>
        <time>2022-07-12T13:37:32.418Z</time>
      </trkpt>
      <trkpt lat="48.13867" lon="6.46986">
        <ele>445.780733</ele>
        <time>2022-07-12T13:37:34.340Z</time>
      </trkpt>
      <trkpt lat="48.13856" lon="6.4698">
        <ele>446.387341</ele>
        <time>2022-07-12T13:37:37.842Z</time>
      </trkpt>
      <trkpt lat="48.13847" lon="6.46974">
        <ele>446.883864</ele>
        <time>2022-07-12T13:37:39.813Z</time>
      </trkpt>
      <trkpt lat="48.13838" lon="6.46967">
        <ele>447.366886</ele>
        <time>2022-07-12T13:37:41.835Z</time>
      </trkpt>
      <trkpt lat="48.13827" lon="6.46957">
        <ele>448.005338</ele>
        <time>2022-07-12T13:37:44.838Z</time>
      </trkpt>
      <trkpt lat="48.13819" lon="6.46951">
        <ele>448.466032</ele>
        <time>2022-07-12T13:37:46.878Z</time>
      </trkpt>
      <trkpt lat="48.1381" lon="6.46944">
        <ele>448.956131</ele>
        <time>2022-07-12T13:37:48.849Z</time>
      </trkpt>
      <trkpt lat="48.13801" lon="6.46935">
        <ele>449.480585</ele>
        <time>2022-07-12T13:37:50.831Z</time>
      </trkpt>
      <trkpt lat="48.13794" lon="6.46924">
        <ele>449.985989</ele>
        <time>2022-07-12T13:37:52.867Z</time>
      </trkpt>
      <trkpt lat="48.13788" lon="6.46914">
        <ele>450.435571</ele>
        <time>2022-07-12T13:37:54.878Z</time>
      </trkpt>
      <trkpt lat="48.13782" lon="6.46902">
        <ele>450.925986</ele>
        <time>2022-07-12T13:37:56.841Z</time>
      </trkpt>
      <trkpt lat="48.13775" lon="6.46887">
        <ele>451.516363</ele>
        <time>2022-07-12T13:37:58.843Z</time>
      </trkpt>
      <trkpt lat="48.13769" lon="6.46874">
        <ele>452.037093</ele>
        <time>2022-07-12T13:38:00.860Z</time>
      </trkpt>
      <trkpt lat="48.13763" lon="6.46864">
        <ele>452.501338</ele>
        <time>2022-07-12T13:38:02.910Z</time>
      </trkpt>
      <trkpt lat="48.13757" lon="6.46852">
        <ele>452.770136</ele>
        <time>2022-07-12T13:38:04.855Z</time>
      </trkpt>
      <trkpt lat="48.13752" lon="6.46841">
        <ele>452.711415</ele>
        <time>2022-07-12T13:38:06.852Z</time>
      </trkpt>
      <trkpt lat="48.13746" lon="6.46822">
        <ele>452.627636</ele>
        <time>2022-07-12T13:38:09.872Z</time>
      </trkpt>
      <trkpt lat="48.13742" lon="6.46807">
        <ele>452.559432</ele>
        <time>2022-07-12T13:38:11.870Z</time>
      </trkpt>
      <trkpt lat="48.13739" lon="6.46792">
        <ele>452.496776</ele>
        <time>2022-07-12T13:38:13.867Z</time>
      </trkpt>
      <trkpt lat="48.13735" lon="6.4678">
        <ele>452.441082</ele>
        <time>2022-07-12T13:38:35.850Z</time>
      </trkpt>
      <trkpt lat="48.13734" lon="6.46762">
        <ele>452.369816</ele>
        <time>2022-07-12T13:38:40.818Z</time>
      </trkpt>
      <trkpt lat="48.1373" lon="6.46747">
        <ele>452.301158</ele>
        <time>2022-07-12T13:38:42.882Z</time>
      </trkpt>
      <trkpt lat="48.13725" lon="6.46731">
        <ele>452.229592</ele>
        <time>2022-07-12T13:38:44.853Z</time>
      </trkpt>
      <trkpt lat="48.13717" lon="6.46717">
        <ele>452.152195</ele>
        <time>2022-07-12T13:38:46.801Z</time>
      </trkpt>
      <trkpt lat="48.13708" lon="6.46703">
        <ele>452.07632</ele>
        <time>2022-07-12T13:38:48.822Z</time>
      </trkpt>
      <trkpt lat="48.137" lon="6.46691">
        <ele>452.004241</ele>
        <time>2022-07-12T13:38:50.810Z</time>
      </trkpt>
      <trkpt lat="48.13692" lon="6.46679">
        <ele>451.932252</ele>
        <time>2022-07-12T13:38:52.809Z</time>
      </trkpt>
      <trkpt lat="48.13681" lon="6.46669">
        <ele>451.857118</ele>
        <time>2022-07-12T13:38:54.825Z</time>
      </trkpt>
      <trkpt lat="48.13671" lon="6.46659">
        <ele>451.782157</ele>
        <time>2022-07-12T13:38:56.831Z</time>
      </trkpt>
      <trkpt lat="48.13659" lon="6.4665">
        <ele>451.697779</ele>
        <time>2022-07-12T13:38:58.835Z</time>
      </trkpt>
      <trkpt lat="48.13646" lon="6.46646">
        <ele>452.039294</ele>
        <time>2022-07-12T13:39:00.829Z</time>
      </trkpt>
      <trkpt lat="48.13632" lon="6.46647">
        <ele>452.478402</ele>
        <time>2022-07-12T13:39:02.828Z</time>
      </trkpt>
      <trkpt lat="48.1362" lon="6.46652">
        <ele>452.885282</ele>
        <time>2022-07-12T13:39:04.834Z</time>
      </trkpt>
      <trkpt lat="48.13608" lon="6.46658">
        <ele>453.277472</ele>
        <time>2022-07-12T13:39:06.840Z</time>
      </trkpt>
      <trkpt lat="48.13599" lon="6.46664">
        <ele>453.587624</ele>
        <time>2022-07-12T13:39:08.832Z</time>
      </trkpt>
      <trkpt lat="48.13588" lon="6.46667">
        <ele>453.94514</ele>
        <time>2022-07-12T13:39:10.842Z</time>
      </trkpt>
      <trkpt lat="48.13577" lon="6.46669">
        <ele>454.280183</ele>
        <time>2022-07-12T13:39:12.838Z</time>
      </trkpt>
      <trkpt lat="48.13567" lon="6.46667">
        <ele>454.603558</ele>
        <time>2022-07-12T13:39:14.836Z</time>
      </trkpt>
      <trkpt lat="48.13553" lon="6.46668">
        <ele>455.029135</ele>
        <time>2022-07-12T13:39:16.859Z</time>
      </trkpt>
      <trkpt lat="48.13541" lon="6.4667">
        <ele>455.419414</ele>
        <time>2022-07-12T13:39:18.849Z</time>
      </trkpt>
      <trkpt lat="48.1353" lon="6.46673">
        <ele>455.77072</ele>
        <time>2022-07-12T13:39:20.839Z</time>
      </trkpt>
      <trkpt lat="48.13519" lon="6.46678">
        <ele>456.149072</ele>
        <time>2022-07-12T13:39:23.854Z</time>
      </trkpt>
      <trkpt lat="48.13505" lon="6.46678">
        <ele>456.571003</ele>
        <time>2022-07-12T13:39:26.833Z</time>
      </trkpt>
      <trkpt lat="48.13496" lon="6.46676">
        <ele>456.868643</ele>
        <time>2022-07-12T13:39:28.839Z</time>
      </trkpt>
      <trkpt lat="48.13486" lon="6.46672">
        <ele>457.176313</ele>
        <time>2022-07-12T13:39:30.822Z</time>
      </trkpt>
      <trkpt lat="48.13477" lon="6.46667">
        <ele>457.267457</ele>
        <time>2022-07-12T13:39:32.825Z</time>
      </trkpt>
      <trkpt lat="48.13467" lon="6.4666">
        <ele>457.037389</ele>
        <time>2022-07-12T13:39:34.843Z</time>
      </trkpt>
      <trkpt lat="48.13456" lon="6.46653">
        <ele>456.807135</ele>
        <time>2022-07-12T13:39:36.839Z</time>
      </trkpt>
      <trkpt lat="48.13445" lon="6.46643">
        <ele>456.555609</ele>
        <time>2022-07-12T13:39:38.836Z</time>
      </trkpt>
      <trkpt lat="48.13435" lon="6.46634">
        <ele>456.319798</ele>
        <time>2022-07-12T13:39:40.837Z</time>
      </trkpt>
      <trkpt lat="48.13425" lon="6.46623">
        <ele>456.073943</ele>
        <time>2022-07-12T13:39:42.807Z</time>
      </trkpt>
      <trkpt lat="48.13416" lon="6.46612">
        <ele>455.843664</ele>
        <time>2022-07-12T13:39:44.833Z</time>
      </trkpt>
      <trkpt lat="48.13408" lon="6.46598">
        <ele>455.60363</ele>
        <time>2022-07-12T13:39:46.823Z</time>
      </trkpt>
      <trkpt lat="48.134" lon="6.46584">
        <ele>455.36142</ele>
        <time>2022-07-12T13:39:48.839Z</time>
      </trkpt>
      <trkpt lat="48.13391" lon="6.46569">
        <ele>455.100661</ele>
        <time>2022-07-12T13:39:50.839Z</time>
      </trkpt>
      <trkpt lat="48.13383" lon="6.46551">
        <ele>454.817069</ele>
        <time>2022-07-12T13:39:52.829Z</time>
      </trkpt>
      <trkpt lat="48.13375" lon="6.46532">
        <ele>454.522433</ele>
        <time>2022-07-12T13:39:54.839Z</time>
      </trkpt>
      <trkpt lat="48.13369" lon="6.46515">
        <ele>454.26607</ele>
        <time>2022-07-12T13:39:56.817Z</time>
      </trkpt>
      <trkpt lat="48.13365" lon="6.46495">
        <ele>453.999241</ele>
        <time>2022-07-12T13:39:58.814Z</time>
      </trkpt>
      <trkpt lat="48.13363" lon="6.46474">
        <ele>453.982258</ele>
        <time>2022-07-12T13:40:00.834Z</time>
      </trkpt>
      <trkpt lat="48.13362" lon="6.46453">
        <ele>454.556669</ele>
        <time>2022-07-12T13:40:02.872Z</time>
      </trkpt>
      <trkpt lat="48.13363" lon="6.46433">
        <ele>455.108753</ele>
        <time>2022-07-12T13:40:04.845Z</time>
      </trkpt>
      <trkpt lat="48.13364" lon="6.46414">
        <ele>455.630612</ele>
        <time>2022-07-12T13:40:06.839Z</time>
      </trkpt>
      <trkpt lat="48.13366" lon="6.46394">
        <ele>456.184635</ele>
        <time>2022-07-12T13:40:08.837Z</time>
      </trkpt>
      <trkpt lat="48.13366" lon="6.46372">
        <ele>456.789113</ele>
        <time>2022-07-12T13:40:10.834Z</time>
      </trkpt>
      <trkpt lat="48.13359" lon="6.46355">
        <ele>457.362653</ele>
        <time>2022-07-12T13:40:12.835Z</time>
      </trkpt>
      <trkpt lat="48.13347" lon="6.46344">
        <ele>457.954992</ele>
        <time>2022-07-12T13:40:14.811Z</time>
      </trkpt>
      <trkpt lat="48.13334" lon="6.46339">
        <ele>458.476247</ele>
        <time>2022-07-12T13:40:16.841Z</time>
      </trkpt>
      <trkpt lat="48.13323" lon="6.46333">
        <ele>458.953483</ele>
        <time>2022-07-12T13:40:18.842Z</time>
      </trkpt>
      <trkpt lat="48.13315" lon="6.46329">
        <ele>459.335271</ele>
        <time>2022-07-12T13:40:20.851Z</time>
      </trkpt>
      <trkpt lat="48.13305" lon="6.46324">
        <ele>459.761033</ele>
        <time>2022-07-12T13:40:22.835Z</time>
      </trkpt>
      <trkpt lat="48.13295" lon="6.46317">
        <ele>460.201621</ele>
        <time>2022-07-12T13:40:25.831Z</time>
      </trkpt>
      <trkpt lat="48.13286" lon="6.46306">
        <ele>460.687539</ele>
        <time>2022-07-12T13:40:28.839Z</time>
      </trkpt>
      <trkpt lat="48.13277" lon="6.46293">
        <ele>461.187402</ele>
        <time>2022-07-12T13:40:31.834Z</time>
      </trkpt>
      <trkpt lat="48.13269" lon="6.4628">
        <ele>461.400456</ele>
        <time>2022-07-12T13:40:33.844Z</time>
      </trkpt>
      <trkpt lat="48.1326" lon="6.46268">
        <ele>461.609222</ele>
        <time>2022-07-12T13:40:35.847Z</time>
      </trkpt>
      <trkpt lat="48.13252" lon="6.46258">
        <ele>461.792363</ele>
        <time>2022-07-12T13:40:37.835Z</time>
      </trkpt>
      <trkpt lat="48.13245" lon="6.46247">
        <ele>461.954662</ele>
        <time>2022-07-12T13:40:39.844Z</time>
      </trkpt>
      <trkpt lat="48.1324" lon="6.46235">
        <ele>462.129044</ele>
        <time>2022-07-12T13:40:41.837Z</time>
      </trkpt>
      <trkpt lat="48.13232" lon="6.46219">
        <ele>462.351117</ele>
        <time>2022-07-12T13:40:43.828Z</time>
      </trkpt>
      <trkpt lat="48.13225" lon="6.46203">
        <ele>462.570987</ele>
        <time>2022-07-12T13:40:45.835Z</time>
      </trkpt>
      <trkpt lat="48.13218" lon="6.46188">
        <ele>462.785151</ele>
        <time>2022-07-12T13:40:47.847Z</time>
      </trkpt>
      <trkpt lat="48.13211" lon="6.46173">
        <ele>462.979429</ele>
        <time>2022-07-12T13:40:49.837Z</time>
      </trkpt>
      <trkpt lat="48.13205" lon="6.46157">
        <ele>463.192926</ele>
        <time>2022-07-12T13:40:51.832Z</time>
      </trkpt>
      <trkpt lat="48.13199" lon="6.4614">
        <ele>463.411461</ele>
        <time>2022-07-12T13:40:53.847Z</time>
      </trkpt>
      <trkpt lat="48.13194" lon="6.4612">
        <ele>463.661929</ele>
        <time>2022-07-12T13:40:55.836Z</time>
      </trkpt>
      <trkpt lat="48.13189" lon="6.46101">
        <ele>463.891056</ele>
        <time>2022-07-12T13:40:57.840Z</time>
      </trkpt>
      <trkpt lat="48.13187" lon="6.46081">
        <ele>464.11572</ele>
        <time>2022-07-12T13:40:59.839Z</time>
      </trkpt>
      <trkpt lat="48.13184" lon="6.4606">
        <ele>464.181314</ele>
        <time>2022-07-12T13:41:01.818Z</time>
      </trkpt>
      <trkpt lat="48.13183" lon="6.46041">
        <ele>463.923533</ele>
        <time>2022-07-12T13:41:03.826Z</time>
      </trkpt>
      <trkpt lat="48.13181" lon="6.46021">
        <ele>463.67084</ele>
        <time>2022-07-12T13:41:05.833Z</time>
      </trkpt>
      <trkpt lat="48.13179" lon="6.46">
        <ele>463.400488</ele>
        <time>2022-07-12T13:41:07.849Z</time>
      </trkpt>
      <trkpt lat="48.13177" lon="6.45977">
        <ele>463.099716</ele>
        <time>2022-07-12T13:41:09.847Z</time>
      </trkpt>
      <trkpt lat="48.13177" lon="6.45957">
        <ele>462.832315</ele>
        <time>2022-07-12T13:41:11.851Z</time>
      </trkpt>
      <trkpt lat="48.13177" lon="6.45936">
        <ele>462.57297</ele>
        <time>2022-07-12T13:41:13.830Z</time>
      </trkpt>
      <trkpt lat="48.13179" lon="6.45917">
        <ele>462.32354</ele>
        <time>2022-07-12T13:41:15.841Z</time>
      </trkpt>
      <trkpt lat="48.13182" lon="6.45898">
        <ele>462.067436</ele>
        <time>2022-07-12T13:41:17.844Z</time>
      </trkpt>
      <trkpt lat="48.13185" lon="6.45878">
        <ele>461.798741</ele>
        <time>2022-07-12T13:41:19.829Z</time>
      </trkpt>
      <trkpt lat="48.13188" lon="6.45857">
        <ele>461.525871</ele>
        <time>2022-07-12T13:41:21.854Z</time>
      </trkpt>
      <trkpt lat="48.1319" lon="6.45836">
        <ele>461.251439</ele>
        <time>2022-07-12T13:41:23.842Z</time>
      </trkpt>
      <trkpt lat="48.13188" lon="6.45816">
        <ele>460.997469</ele>
        <time>2022-07-12T13:41:25.835Z</time>
      </trkpt>
      <trkpt lat="48.13177" lon="6.45804">
        <ele>460.856725</ele>
        <time>2022-07-12T13:41:27.843Z</time>
      </trkpt>
      <trkpt lat="48.13163" lon="6.45794">
        <ele>461.111883</ele>
        <time>2022-07-12T13:41:29.831Z</time>
      </trkpt>
      <trkpt lat="48.1315" lon="6.45784">
        <ele>461.357601</ele>
        <time>2022-07-12T13:41:31.842Z</time>
      </trkpt>
      <trkpt lat="48.13137" lon="6.45774">
        <ele>461.596664</ele>
        <time>2022-07-12T13:41:33.837Z</time>
      </trkpt>
      <trkpt lat="48.13125" lon="6.45762">
        <ele>461.845209</ele>
        <time>2022-07-12T13:41:35.846Z</time>
      </trkpt>
      <trkpt lat="48.13114" lon="6.45746">
        <ele>462.093745</ele>
        <time>2022-07-12T13:41:37.835Z</time>
      </trkpt>
      <trkpt lat="48.13105" lon="6.45728">
        <ele>462.343678</ele>
        <time>2022-07-12T13:41:39.837Z</time>
      </trkpt>
      <trkpt lat="48.13097" lon="6.4571">
        <ele>462.590332</ele>
        <time>2022-07-12T13:41:41.830Z</time>
      </trkpt>
      <trkpt lat="48.1309" lon="6.45694">
        <ele>462.808235</ele>
        <time>2022-07-12T13:41:43.832Z</time>
      </trkpt>
      <trkpt lat="48.13083" lon="6.45679">
        <ele>463.003127</ele>
        <time>2022-07-12T13:41:45.827Z</time>
      </trkpt>
      <trkpt lat="48.13072" lon="6.45669">
        <ele>463.210919</ele>
        <time>2022-07-12T13:41:47.843Z</time>
      </trkpt>
      <trkpt lat="48.1306" lon="6.45668">
        <ele>463.421853</ele>
        <time>2022-07-12T13:41:49.833Z</time>
      </trkpt>
      <trkpt lat="48.13049" lon="6.45678">
        <ele>463.633586</ele>
        <time>2022-07-12T13:41:51.838Z</time>
      </trkpt>
      <trkpt lat="48.1304" lon="6.45689">
        <ele>463.888892</ele>
        <time>2022-07-12T13:41:53.841Z</time>
      </trkpt>
      <trkpt lat="48.13035" lon="6.45702">
        <ele>464.493866</ele>
        <time>2022-07-12T13:41:55.837Z</time>
      </trkpt>
      <trkpt lat="48.1303" lon="6.45714">
        <ele>465.083911</ele>
        <time>2022-07-12T13:41:57.849Z</time>
      </trkpt>
      <trkpt lat="48.13024" lon="6.45726">
        <ele>465.718676</ele>
        <time>2022-07-12T13:41:59.838Z</time>
      </trkpt>
      <trkpt lat="48.13017" lon="6.45738">
        <ele>466.36257</ele>
        <time>2022-07-12T13:42:01.860Z</time>
      </trkpt>
      <trkpt lat="48.13007" lon="6.45744">
        <ele>467.016718</ele>
        <time>2022-07-12T13:42:03.831Z</time>
      </trkpt>
      <trkpt lat="48.12998" lon="6.45745">
        <ele>467.610259</ele>
        <time>2022-07-12T13:42:05.857Z</time>
      </trkpt>
      <trkpt lat="48.12988" lon="6.45744">
        <ele>468.235698</ele>
        <time>2022-07-12T13:42:07.838Z</time>
      </trkpt>
      <trkpt lat="48.12978" lon="6.45743">
        <ele>468.841365</ele>
        <time>2022-07-12T13:42:09.839Z</time>
      </trkpt>
      <trkpt lat="48.12968" lon="6.45743">
        <ele>469.434676</ele>
        <time>2022-07-12T13:42:11.855Z</time>
      </trkpt>
      <trkpt lat="48.12958" lon="6.45743">
        <ele>470.052795</ele>
        <time>2022-07-12T13:42:13.861Z</time>
      </trkpt>
      <trkpt lat="48.12949" lon="6.45741">
        <ele>470.649195</ele>
        <time>2022-07-12T13:42:15.862Z</time>
      </trkpt>
      <trkpt lat="48.12939" lon="6.45739">
        <ele>471.232302</ele>
        <time>2022-07-12T13:42:17.855Z</time>
      </trkpt>
      <trkpt lat="48.12931" lon="6.45734">
        <ele>471.812704</ele>
        <time>2022-07-12T13:42:19.855Z</time>
      </trkpt>
      <trkpt lat="48.12921" lon="6.45729">
        <ele>472.455023</ele>
        <time>2022-07-12T13:42:21.870Z</time>
      </trkpt>
      <trkpt lat="48.12912" lon="6.45724">
        <ele>473.044613</ele>
        <time>2022-07-12T13:42:23.844Z</time>
      </trkpt>
      <trkpt lat="48.12902" lon="6.4572">
        <ele>473.650717</ele>
        <time>2022-07-12T13:42:25.839Z</time>
      </trkpt>
      <trkpt lat="48.12893" lon="6.45717">
        <ele>474.228285</ele>
        <time>2022-07-12T13:42:27.834Z</time>
      </trkpt>
      <trkpt lat="48.12882" lon="6.45714">
        <ele>474.910376</ele>
        <time>2022-07-12T13:42:30.861Z</time>
      </trkpt>
      <trkpt lat="48.12872" lon="6.45711">
        <ele>474.764576</ele>
        <time>2022-07-12T13:42:33.859Z</time>
      </trkpt>
      <trkpt lat="48.1286" lon="6.45707">
        <ele>474.574071</ele>
        <time>2022-07-12T13:42:36.853Z</time>
      </trkpt>
      <trkpt lat="48.12851" lon="6.45703">
        <ele>474.43971</ele>
        <time>2022-07-12T13:42:38.870Z</time>
      </trkpt>
      <trkpt lat="48.12843" lon="6.45696">
        <ele>474.293522</ele>
        <time>2022-07-12T13:42:40.867Z</time>
      </trkpt>
      <trkpt lat="48.12835" lon="6.45688">
        <ele>474.150875</ele>
        <time>2022-07-12T13:42:42.839Z</time>
      </trkpt>
      <trkpt lat="48.12827" lon="6.4568">
        <ele>474.014434</ele>
        <time>2022-07-12T13:42:44.885Z</time>
      </trkpt>
      <trkpt lat="48.12819" lon="6.45672">
        <ele>473.866962</ele>
        <time>2022-07-12T13:42:46.863Z</time>
      </trkpt>
      <trkpt lat="48.12811" lon="6.45662">
        <ele>473.712582</ele>
        <time>2022-07-12T13:42:48.859Z</time>
      </trkpt>
      <trkpt lat="48.12804" lon="6.45653">
        <ele>473.574325</ele>
        <time>2022-07-12T13:42:50.851Z</time>
      </trkpt>
      <trkpt lat="48.12794" lon="6.45641">
        <ele>473.382065</ele>
        <time>2022-07-12T13:42:53.847Z</time>
      </trkpt>
      <trkpt lat="48.12785" lon="6.45632">
        <ele>473.220094</ele>
        <time>2022-07-12T13:42:56.864Z</time>
      </trkpt>
      <trkpt lat="48.12779" lon="6.45644">
        <ele>473.079557</ele>
        <time>2022-07-12T13:42:59.863Z</time>
      </trkpt>
      <trkpt lat="48.12771" lon="6.45658">
        <ele>472.895271</ele>
        <time>2022-07-12T13:43:01.840Z</time>
      </trkpt>
      <trkpt lat="48.12764" lon="6.45671">
        <ele>472.722252</ele>
        <time>2022-07-12T13:43:03.839Z</time>
      </trkpt>
      <trkpt lat="48.12757" lon="6.45683">
        <ele>472.56636</ele>
        <time>2022-07-12T13:43:05.839Z</time>
      </trkpt>
      <trkpt lat="48.12751" lon="6.45695">
        <ele>472.418045</ele>
        <time>2022-07-12T13:43:07.862Z</time>
      </trkpt>
      <trkpt lat="48.12743" lon="6.45701">
        <ele>472.284338</ele>
        <time>2022-07-12T13:43:09.846Z</time>
      </trkpt>
      <trkpt lat="48.12734" lon="6.45699">
        <ele>471.871495</ele>
        <time>2022-07-12T13:43:11.845Z</time>
      </trkpt>
      <trkpt lat="48.12722" lon="6.45692">
        <ele>471.127256</ele>
        <time>2022-07-12T13:43:13.823Z</time>
      </trkpt>
      <trkpt lat="48.1271" lon="6.45684">
        <ele>470.393063</ele>
        <time>2022-07-12T13:43:15.848Z</time>
      </trkpt>
      <trkpt lat="48.12698" lon="6.45676">
        <ele>469.612434</ele>
        <time>2022-07-12T13:43:17.842Z</time>
      </trkpt>
      <trkpt lat="48.12687" lon="6.45666">
        <ele>468.842745</ele>
        <time>2022-07-12T13:43:19.850Z</time>
      </trkpt>
      <trkpt lat="48.12679" lon="6.45649">
        <ele>468.063653</ele>
        <time>2022-07-12T13:43:21.813Z</time>
      </trkpt>
      <trkpt lat="48.12673" lon="6.45631">
        <ele>467.283346</ele>
        <time>2022-07-12T13:43:23.834Z</time>
      </trkpt>
      <trkpt lat="48.1267" lon="6.45612">
        <ele>466.512038</ele>
        <time>2022-07-12T13:43:25.824Z</time>
      </trkpt>
      <trkpt lat="48.1267" lon="6.45593">
        <ele>465.759452</ele>
        <time>2022-07-12T13:43:27.837Z</time>
      </trkpt>
      <trkpt lat="48.12671" lon="6.45574">
        <ele>465.020242</ele>
        <time>2022-07-12T13:43:29.821Z</time>
      </trkpt>
      <trkpt lat="48.12672" lon="6.45558">
        <ele>464.367115</ele>
        <time>2022-07-12T13:43:31.815Z</time>
      </trkpt>
      <trkpt lat="48.12675" lon="6.45541">
        <ele>463.69726</ele>
        <time>2022-07-12T13:43:34.820Z</time>
      </trkpt>
      <trkpt lat="48.12677" lon="6.45528">
        <ele>463.16439</ele>
        <time>2022-07-12T13:43:39.825Z</time>
      </trkpt>
      <trkpt lat="48.12676" lon="6.45512">
        <ele>462.555148</ele>
        <time>2022-07-12T13:43:44.838Z</time>
      </trkpt>
      <trkpt lat="48.12666" lon="6.45518">
        <ele>461.927361</ele>
        <time>2022-07-12T13:43:50.822Z</time>
      </trkpt>
      <trkpt lat="48.12657" lon="6.45533">
        <ele>462.375771</ele>
        <time>2022-07-12T13:43:53.845Z</time>
      </trkpt>
      <trkpt lat="48.12648" lon="6.45545">
        <ele>463.145368</ele>
        <time>2022-07-12T13:43:56.828Z</time>
      </trkpt>
      <trkpt lat="48.12639" lon="6.45555">
        <ele>463.861144</ele>
        <time>2022-07-12T13:43:58.823Z</time>
      </trkpt>
      <trkpt lat="48.12628" lon="6.4556">
        <ele>464.586482</ele>
        <time>2022-07-12T13:44:00.820Z</time>
      </trkpt>
      <trkpt lat="48.12616" lon="6.45562">
        <ele>465.374965</ele>
        <time>2022-07-12T13:44:02.823Z</time>
      </trkpt>
      <trkpt lat="48.12604" lon="6.45563">
        <ele>466.086391</ele>
        <time>2022-07-12T13:44:04.837Z</time>
      </trkpt>
      <trkpt lat="48.12595" lon="6.45563">
        <ele>466.708015</ele>
        <time>2022-07-12T13:44:08.863Z</time>
      </trkpt>
      <trkpt lat="48.12596" lon="6.45542">
        <ele>467.602879</ele>
        <time>2022-07-12T13:44:26.834Z</time>
      </trkpt>
      <trkpt lat="48.12597" lon="6.45526">
        <ele>468.284413</ele>
        <time>2022-07-12T13:44:31.819Z</time>
      </trkpt>
      <trkpt lat="48.12601" lon="6.45512">
        <ele>468.9269</ele>
        <time>2022-07-12T13:44:38.816Z</time>
      </trkpt>
      <trkpt lat="48.12602" lon="6.45497">
        <ele>469.546112</ele>
        <time>2022-07-12T13:44:43.830Z</time>
      </trkpt>
      <trkpt lat="48.12601" lon="6.45482">
        <ele>470.191437</ele>
        <time>2022-07-12T13:44:51.838Z</time>
      </trkpt>
      <trkpt lat="48.12596" lon="6.45471">
        <ele>470.776959</ele>
        <time>2022-07-12T13:44:55.812Z</time>
      </trkpt>
      <trkpt lat="48.1259" lon="6.45459">
        <ele>471.385966</ele>
        <time>2022-07-12T13:44:59.837Z</time>
      </trkpt>
      <trkpt lat="48.12584" lon="6.45445">
        <ele>472.107619</ele>
        <time>2022-07-12T13:45:03.831Z</time>
      </trkpt>
      <trkpt lat="48.12577" lon="6.45434">
        <ele>472.739949</ele>
        <time>2022-07-12T13:45:06.859Z</time>
      </trkpt>
      <trkpt lat="48.12572" lon="6.4542">
        <ele>472.963781</ele>
        <time>2022-07-12T13:45:09.844Z</time>
      </trkpt>
      <trkpt lat="48.12568" lon="6.45407">
        <ele>472.584617</ele>
        <time>2022-07-12T13:45:12.840Z</time>
      </trkpt>
      <trkpt lat="48.12565" lon="6.45392">
        <ele>472.141701</ele>
        <time>2022-07-12T13:45:15.858Z</time>
      </trkpt>
      <trkpt lat="48.12562" lon="6.45375">
        <ele>471.679204</ele>
        <time>2022-07-12T13:45:18.830Z</time>
      </trkpt>
      <trkpt lat="48.12558" lon="6.4536">
        <ele>471.215643</ele>
        <time>2022-07-12T13:45:22.834Z</time>
      </trkpt>
      <trkpt lat="48.12553" lon="6.45344">
        <ele>470.733618</ele>
        <time>2022-07-12T13:45:25.825Z</time>
      </trkpt>
      <trkpt lat="48.12545" lon="6.45324">
        <ele>470.120928</ele>
        <time>2022-07-12T13:45:28.839Z</time>
      </trkpt>
      <trkpt lat="48.12542" lon="6.4531">
        <ele>469.720461</ele>
        <time>2022-07-12T13:45:30.820Z</time>
      </trkpt>
      <trkpt lat="48.12537" lon="6.45294">
        <ele>469.238742</ele>
        <time>2022-07-12T13:45:33.816Z</time>
      </trkpt>
      <trkpt lat="48.12528" lon="6.45282">
        <ele>468.749159</ele>
        <time>2022-07-12T13:45:36.818Z</time>
      </trkpt>
      <trkpt lat="48.12515" lon="6.45274">
        <ele>468.191021</ele>
        <time>2022-07-12T13:45:39.825Z</time>
      </trkpt>
      <trkpt lat="48.12504" lon="6.45268">
        <ele>467.715499</ele>
        <time>2022-07-12T13:45:41.808Z</time>
      </trkpt>
      <trkpt lat="48.1249" lon="6.45262">
        <ele>467.095515</ele>
        <time>2022-07-12T13:45:43.830Z</time>
      </trkpt>
      <trkpt lat="48.12475" lon="6.45254">
        <ele>466.460533</ele>
        <time>2022-07-12T13:45:45.831Z</time>
      </trkpt>
      <trkpt lat="48.12464" lon="6.45248">
        <ele>465.968668</ele>
        <time>2022-07-12T13:45:47.826Z</time>
      </trkpt>
      <trkpt lat="48.12454" lon="6.45243">
        <ele>465.662258</ele>
        <time>2022-07-12T13:45:49.803Z</time>
      </trkpt>
      <trkpt lat="48.12445" lon="6.45251">
        <ele>465.425469</ele>
        <time>2022-07-12T13:45:51.816Z</time>
      </trkpt>
      <trkpt lat="48.12442" lon="6.45267">
        <ele>465.181088</ele>
        <time>2022-07-12T13:45:53.814Z</time>
      </trkpt>
      <trkpt lat="48.12442" lon="6.45285">
        <ele>464.916944</ele>
        <time>2022-07-12T13:45:55.811Z</time>
      </trkpt>
      <trkpt lat="48.1244" lon="6.45301">
        <ele>464.691275</ele>
        <time>2022-07-12T13:45:57.809Z</time>
      </trkpt>
      <trkpt lat="48.12437" lon="6.45318">
        <ele>464.430707</ele>
        <time>2022-07-12T13:45:59.815Z</time>
      </trkpt>
      <trkpt lat="48.12433" lon="6.45332">
        <ele>464.207453</ele>
        <time>2022-07-12T13:46:01.814Z</time>
      </trkpt>
      <trkpt lat="48.12429" lon="6.45345">
        <ele>463.998132</ele>
        <time>2022-07-12T13:46:03.830Z</time>
      </trkpt>
      <trkpt lat="48.12423" lon="6.45358">
        <ele>463.76749</ele>
        <time>2022-07-12T13:46:05.835Z</time>
      </trkpt>
      <trkpt lat="48.12417" lon="6.4537">
        <ele>463.543948</ele>
        <time>2022-07-12T13:46:07.815Z</time>
      </trkpt>
      <trkpt lat="48.12409" lon="6.45386">
        <ele>463.261087</ele>
        <time>2022-07-12T13:46:09.829Z</time>
      </trkpt>
      <trkpt lat="48.12403" lon="6.45401">
        <ele>462.992832</ele>
        <time>2022-07-12T13:46:11.841Z</time>
      </trkpt>
      <trkpt lat="48.12397" lon="6.45417">
        <ele>462.729192</ele>
        <time>2022-07-12T13:46:13.836Z</time>
      </trkpt>
      <trkpt lat="48.12392" lon="6.45436">
        <ele>462.428435</ele>
        <time>2022-07-12T13:46:15.823Z</time>
      </trkpt>
      <trkpt lat="48.12384" lon="6.45453">
        <ele>462.126771</ele>
        <time>2022-07-12T13:46:17.816Z</time>
      </trkpt>
      <trkpt lat="48.12373" lon="6.45466">
        <ele>461.87316</ele>
        <time>2022-07-12T13:46:19.816Z</time>
      </trkpt>
      <trkpt lat="48.1236" lon="6.45466">
        <ele>461.905866</ele>
        <time>2022-07-12T13:46:21.818Z</time>
      </trkpt>
      <trkpt lat="48.12346" lon="6.45462">
        <ele>461.940557</ele>
        <time>2022-07-12T13:46:23.820Z</time>
      </trkpt>
      <trkpt lat="48.12335" lon="6.45455">
        <ele>461.971001</ele>
        <time>2022-07-12T13:46:25.830Z</time>
      </trkpt>
      <trkpt lat="48.12323" lon="6.45449">
        <ele>462.002789</ele>
        <time>2022-07-12T13:46:27.836Z</time>
      </trkpt>
      <trkpt lat="48.12313" lon="6.45442">
        <ele>462.030454</ele>
        <time>2022-07-12T13:46:29.825Z</time>
      </trkpt>
      <trkpt lat="48.123" lon="6.45433">
        <ele>462.066106</ele>
        <time>2022-07-12T13:46:32.830Z</time>
      </trkpt>
      <trkpt lat="48.1229" lon="6.45425">
        <ele>462.094689</ele>
        <time>2022-07-12T13:46:35.817Z</time>
      </trkpt>
      <trkpt lat="48.12279" lon="6.45422">
        <ele>462.122444</ele>
        <time>2022-07-12T13:46:37.826Z</time>
      </trkpt>
      <trkpt lat="48.12266" lon="6.45418">
        <ele>462.154834</ele>
        <time>2022-07-12T13:46:39.852Z</time>
      </trkpt>
      <trkpt lat="48.12252" lon="6.45414">
        <ele>462.189246</ele>
        <time>2022-07-12T13:46:41.824Z</time>
      </trkpt>
      <trkpt lat="48.1224" lon="6.45409">
        <ele>462.221821</ele>
        <time>2022-07-12T13:46:43.850Z</time>
      </trkpt>
      <trkpt lat="48.12228" lon="6.45405">
        <ele>462.252956</ele>
        <time>2022-07-12T13:46:45.815Z</time>
      </trkpt>
      <trkpt lat="48.12217" lon="6.45401">
        <ele>462.279314</ele>
        <time>2022-07-12T13:46:47.813Z</time>
      </trkpt>
      <trkpt lat="48.12205" lon="6.45395">
        <ele>462.312459</ele>
        <time>2022-07-12T13:46:50.832Z</time>
      </trkpt>
      <trkpt lat="48.12194" lon="6.4539">
        <ele>462.256656</ele>
        <time>2022-07-12T13:46:52.824Z</time>
      </trkpt>
      <trkpt lat="48.12181" lon="6.45385">
        <ele>462.176595</ele>
        <time>2022-07-12T13:46:54.843Z</time>
      </trkpt>
      <trkpt lat="48.12165" lon="6.45386">
        <ele>462.073252</ele>
        <time>2022-07-12T13:46:56.842Z</time>
      </trkpt>
      <trkpt lat="48.12152" lon="6.45388">
        <ele>461.990457</ele>
        <time>2022-07-12T13:46:58.825Z</time>
      </trkpt>
      <trkpt lat="48.12139" lon="6.45392">
        <ele>461.905334</ele>
        <time>2022-07-12T13:47:00.831Z</time>
      </trkpt>
      <trkpt lat="48.12125" lon="6.45393">
        <ele>461.81686</ele>
        <time>2022-07-12T13:47:02.832Z</time>
      </trkpt>
      <trkpt lat="48.1211" lon="6.45394">
        <ele>461.724299</ele>
        <time>2022-07-12T13:47:04.822Z</time>
      </trkpt>
      <trkpt lat="48.12095" lon="6.45391">
        <ele>461.627417</ele>
        <time>2022-07-12T13:47:06.828Z</time>
      </trkpt>
      <trkpt lat="48.12079" lon="6.45386">
        <ele>461.51937</ele>
        <time>2022-07-12T13:47:08.832Z</time>
      </trkpt>
      <trkpt lat="48.12064" lon="6.45378">
        <ele>461.422462</ele>
        <time>2022-07-12T13:47:10.832Z</time>
      </trkpt>
      <trkpt lat="48.12047" lon="6.45373">
        <ele>461.312884</ele>
        <time>2022-07-12T13:47:12.819Z</time>
      </trkpt>
      <trkpt lat="48.12032" lon="6.45369">
        <ele>461.21678</ele>
        <time>2022-07-12T13:47:14.825Z</time>
      </trkpt>
      <trkpt lat="48.12019" lon="6.45368">
        <ele>461.587436</ele>
        <time>2022-07-12T13:47:16.819Z</time>
      </trkpt>
      <trkpt lat="48.12009" lon="6.45368">
        <ele>462.118623</ele>
        <time>2022-07-12T13:47:18.835Z</time>
      </trkpt>
      <trkpt lat="48.12003" lon="6.45355">
        <ele>462.660399</ele>
        <time>2022-07-12T13:47:23.832Z</time>
      </trkpt>
      <trkpt lat="48.12007" lon="6.45342">
        <ele>463.169505</ele>
        <time>2022-07-12T13:47:28.853Z</time>
      </trkpt>
      <trkpt lat="48.12009" lon="6.45329">
        <ele>463.671067</ele>
        <time>2022-07-12T13:47:33.831Z</time>
      </trkpt>
      <trkpt lat="48.12011" lon="6.45312">
        <ele>464.281415</ele>
        <time>2022-07-12T13:47:38.827Z</time>
      </trkpt>
      <trkpt lat="48.12014" lon="6.45297">
        <ele>464.853621</ele>
        <time>2022-07-12T13:47:44.842Z</time>
      </trkpt>
      <trkpt lat="48.12016" lon="6.4528">
        <ele>465.461119</ele>
        <time>2022-07-12T13:47:49.815Z</time>
      </trkpt>
      <trkpt lat="48.12015" lon="6.45267">
        <ele>465.965933</ele>
        <time>2022-07-12T13:47:52.841Z</time>
      </trkpt>
      <trkpt lat="48.12015" lon="6.45249">
        <ele>466.593404</ele>
        <time>2022-07-12T13:47:55.831Z</time>
      </trkpt>
      <trkpt lat="48.12014" lon="6.45233">
        <ele>467.190823</ele>
        <time>2022-07-12T13:47:58.829Z</time>
      </trkpt>
      <trkpt lat="48.12015" lon="6.45216">
        <ele>467.788242</ele>
        <time>2022-07-12T13:48:01.828Z</time>
      </trkpt>
      <trkpt lat="48.12015" lon="6.45199">
        <ele>468.403454</ele>
        <time>2022-07-12T13:48:04.826Z</time>
      </trkpt>
      <trkpt lat="48.12014" lon="6.45184">
        <ele>468.963858</ele>
        <time>2022-07-12T13:48:08.830Z</time>
      </trkpt>
      <trkpt lat="48.12013" lon="6.45169">
        <ele>469.498508</ele>
        <time>2022-07-12T13:48:12.832Z</time>
      </trkpt>
      <trkpt lat="48.12011" lon="6.45149">
        <ele>470.243797</ele>
        <time>2022-07-12T13:48:14.812Z</time>
      </trkpt>
      <trkpt lat="48.1201" lon="6.45135">
        <ele>470.744567</ele>
        <time>2022-07-12T13:48:16.865Z</time>
      </trkpt>
      <trkpt lat="48.12008" lon="6.45118">
        <ele>471.442875</ele>
        <time>2022-07-12T13:48:19.827Z</time>
      </trkpt>
      <trkpt lat="48.12006" lon="6.45104">
        <ele>472.017961</ele>
        <time>2022-07-12T13:48:22.843Z</time>
      </trkpt>
      <trkpt lat="48.12007" lon="6.45087">
        <ele>472.701427</ele>
        <time>2022-07-12T13:48:26.838Z</time>
      </trkpt>
      <trkpt lat="48.12007" lon="6.45071">
        <ele>473.323724</ele>
        <time>2022-07-12T13:48:30.823Z</time>
      </trkpt>
      <trkpt lat="48.12008" lon="6.45055">
        <ele>473.990892</ele>
        <time>2022-07-12T13:48:34.825Z</time>
      </trkpt>
      <trkpt lat="48.12009" lon="6.45037">
        <ele>474.726293</ele>
        <time>2022-07-12T13:48:38.828Z</time>
      </trkpt>
      <trkpt lat="48.12007" lon="6.45019">
        <ele>475.449683</ele>
        <time>2022-07-12T13:48:42.813Z</time>
      </trkpt>
      <trkpt lat="48.12006" lon="6.45005">
        <ele>476.02975</ele>
        <time>2022-07-12T13:48:45.823Z</time>
      </trkpt>
      <trkpt lat="48.12001" lon="6.44992">
        <ele>476.654705</ele>
        <time>2022-07-12T13:48:49.835Z</time>
      </trkpt>
      <trkpt lat="48.11991" lon="6.44993">
        <ele>477.278809</ele>
        <time>2022-07-12T13:48:53.822Z</time>
      </trkpt>
      <trkpt lat="48.11983" lon="6.45002">
        <ele>477.906494</ele>
        <time>2022-07-12T13:48:56.815Z</time>
      </trkpt>
      <trkpt lat="48.11975" lon="6.45009">
        <ele>478.48516</ele>
        <time>2022-07-12T13:48:58.827Z</time>
      </trkpt>
      <trkpt lat="48.11967" lon="6.45018">
        <ele>479.053226</ele>
        <time>2022-07-12T13:49:00.845Z</time>
      </trkpt>
      <trkpt lat="48.11958" lon="6.45028">
        <ele>479.749879</ele>
        <time>2022-07-12T13:49:03.834Z</time>
      </trkpt>
      <trkpt lat="48.11949" lon="6.45037">
        <ele>480.398305</ele>
        <time>2022-07-12T13:49:06.832Z</time>
      </trkpt>
      <trkpt lat="48.1194" lon="6.45044">
        <ele>481.010023</ele>
        <time>2022-07-12T13:49:08.823Z</time>
      </trkpt>
      <trkpt lat="48.11932" lon="6.45052">
        <ele>481.626148</ele>
        <time>2022-07-12T13:49:10.825Z</time>
      </trkpt>
      <trkpt lat="48.11922" lon="6.45062">
        <ele>481.535532</ele>
        <time>2022-07-12T13:49:12.845Z</time>
      </trkpt>
      <trkpt lat="48.11918" lon="6.45077">
        <ele>481.027172</ele>
        <time>2022-07-12T13:49:14.829Z</time>
      </trkpt>
      <trkpt lat="48.11917" lon="6.45094">
        <ele>480.524714</ele>
        <time>2022-07-12T13:49:16.839Z</time>
      </trkpt>
      <trkpt lat="48.11919" lon="6.45114">
        <ele>479.897959</ele>
        <time>2022-07-12T13:49:18.821Z</time>
      </trkpt>
      <trkpt lat="48.11916" lon="6.45138">
        <ele>479.184523</ele>
        <time>2022-07-12T13:49:20.835Z</time>
      </trkpt>
      <trkpt lat="48.11911" lon="6.45159">
        <ele>478.502607</ele>
        <time>2022-07-12T13:49:22.830Z</time>
      </trkpt>
      <trkpt lat="48.11903" lon="6.45175">
        <ele>477.916406</ele>
        <time>2022-07-12T13:49:24.835Z</time>
      </trkpt>
      <trkpt lat="48.11893" lon="6.45177">
        <ele>477.443621</ele>
        <time>2022-07-12T13:49:26.825Z</time>
      </trkpt>
      <trkpt lat="48.11882" lon="6.45169">
        <ele>476.914176</ele>
        <time>2022-07-12T13:49:28.822Z</time>
      </trkpt>
      <trkpt lat="48.1187" lon="6.45163">
        <ele>476.342289</ele>
        <time>2022-07-12T13:49:30.844Z</time>
      </trkpt>
      <trkpt lat="48.11857" lon="6.45161">
        <ele>475.734968</ele>
        <time>2022-07-12T13:49:32.828Z</time>
      </trkpt>
      <trkpt lat="48.11843" lon="6.45168">
        <ele>475.074666</ele>
        <time>2022-07-12T13:49:34.836Z</time>
      </trkpt>
      <trkpt lat="48.11835" lon="6.45174">
        <ele>474.667393</ele>
        <time>2022-07-12T13:49:35.816Z</time>
      </trkpt>
      <trkpt lat="48.1182" lon="6.45185">
        <ele>473.910914</ele>
        <time>2022-07-12T13:49:37.816Z</time>
      </trkpt>
      <trkpt lat="48.11804" lon="6.4519">
        <ele>473.400628</ele>
        <time>2022-07-12T13:49:39.826Z</time>
      </trkpt>
      <trkpt lat="48.1179" lon="6.45194">
        <ele>472.997609</ele>
        <time>2022-07-12T13:49:41.818Z</time>
      </trkpt>
      <trkpt lat="48.11777" lon="6.45198">
        <ele>472.625768</ele>
        <time>2022-07-12T13:49:43.823Z</time>
      </trkpt>
      <trkpt lat="48.11763" lon="6.45207">
        <ele>472.223062</ele>
        <time>2022-07-12T13:49:45.821Z</time>
      </trkpt>
      <trkpt lat="48.11749" lon="6.45215">
        <ele>471.79974</ele>
        <time>2022-07-12T13:49:47.826Z</time>
      </trkpt>
      <trkpt lat="48.11734" lon="6.45221">
        <ele>471.378497</ele>
        <time>2022-07-12T13:49:49.831Z</time>
      </trkpt>
      <trkpt lat="48.11725" lon="6.45229">
        <ele>471.083567</ele>
        <time>2022-07-12T13:49:51.826Z</time>
      </trkpt>
      <trkpt lat="48.11714" lon="6.45235">
        <ele>470.75196</ele>
        <time>2022-07-12T13:49:53.817Z</time>
      </trkpt>
      <trkpt lat="48.11702" lon="6.45234">
        <ele>470.412733</ele>
        <time>2022-07-12T13:49:55.836Z</time>
      </trkpt>
      <trkpt lat="48.11691" lon="6.45231">
        <ele>470.106985</ele>
        <time>2022-07-12T13:49:57.856Z</time>
      </trkpt>
      <trkpt lat="48.11682" lon="6.45225">
        <ele>469.829775</ele>
        <time>2022-07-12T13:49:59.858Z</time>
      </trkpt>
      <trkpt lat="48.11671" lon="6.4522">
        <ele>469.525954</ele>
        <time>2022-07-12T13:50:02.872Z</time>
      </trkpt>
      <trkpt lat="48.11661" lon="6.45217">
        <ele>469.231792</ele>
        <time>2022-07-12T13:50:05.863Z</time>
      </trkpt>
      <trkpt lat="48.11651" lon="6.45208">
        <ele>468.914468</ele>
        <time>2022-07-12T13:50:10.836Z</time>
      </trkpt>
      <trkpt lat="48.11643" lon="6.45201">
        <ele>468.992628</ele>
        <time>2022-07-12T13:50:13.841Z</time>
      </trkpt>
      <trkpt lat="48.11635" lon="6.45193">
        <ele>469.507512</ele>
        <time>2022-07-12T13:50:17.868Z</time>
      </trkpt>
      <trkpt lat="48.11628" lon="6.45182">
        <ele>470.073964</ele>
        <time>2022-07-12T13:50:22.831Z</time>
      </trkpt>
      <trkpt lat="48.11622" lon="6.45168">
        <ele>470.678955</ele>
        <time>2022-07-12T13:50:26.847Z</time>
      </trkpt>
      <trkpt lat="48.11615" lon="6.45153">
        <ele>471.317082</ele>
        <time>2022-07-12T13:50:30.851Z</time>
      </trkpt>
      <trkpt lat="48.11607" lon="6.45139">
        <ele>471.992247</ele>
        <time>2022-07-12T13:50:33.841Z</time>
      </trkpt>
      <trkpt lat="48.11601" lon="6.45129">
        <ele>472.501449</ele>
        <time>2022-07-12T13:50:36.852Z</time>
      </trkpt>
      <trkpt lat="48.11595" lon="6.45117">
        <ele>473.019285</ele>
        <time>2022-07-12T13:50:39.837Z</time>
      </trkpt>
      <trkpt lat="48.11588" lon="6.451">
        <ele>473.750762</ele>
        <time>2022-07-12T13:50:43.827Z</time>
      </trkpt>
      <trkpt lat="48.11581" lon="6.45087">
        <ele>474.362026</ele>
        <time>2022-07-12T13:50:45.836Z</time>
      </trkpt>
      <trkpt lat="48.11575" lon="6.45076">
        <ele>474.877139</ele>
        <time>2022-07-12T13:50:47.846Z</time>
      </trkpt>
      <trkpt lat="48.11568" lon="6.45061">
        <ele>475.540508</ele>
        <time>2022-07-12T13:50:50.827Z</time>
      </trkpt>
      <trkpt lat="48.11562" lon="6.45046">
        <ele>476.173029</ele>
        <time>2022-07-12T13:50:53.837Z</time>
      </trkpt>
      <trkpt lat="48.11557" lon="6.45029">
        <ele>476.831471</ele>
        <time>2022-07-12T13:50:56.840Z</time>
      </trkpt>
      <trkpt lat="48.11553" lon="6.45016">
        <ele>477.369284</ele>
        <time>2022-07-12T13:50:58.841Z</time>
      </trkpt>
      <trkpt lat="48.1155" lon="6.45002">
        <ele>477.904801</ele>
        <time>2022-07-12T13:51:00.836Z</time>
      </trkpt>
      <trkpt lat="48.11547" lon="6.44987">
        <ele>478.483252</ele>
        <time>2022-07-12T13:51:02.814Z</time>
      </trkpt>
      <trkpt lat="48.11543" lon="6.44967">
        <ele>479.38237</ele>
        <time>2022-07-12T13:51:05.812Z</time>
      </trkpt>
      <trkpt lat="48.11541" lon="6.44949">
        <ele>480.196154</ele>
        <time>2022-07-12T13:51:08.814Z</time>
      </trkpt>
      <trkpt lat="48.1154" lon="6.44933">
        <ele>480.932019</ele>
        <time>2022-07-12T13:51:11.845Z</time>
      </trkpt>
      <trkpt lat="48.11542" lon="6.44915">
        <ele>481.771972</ele>
        <time>2022-07-12T13:51:14.825Z</time>
      </trkpt>
      <trkpt lat="48.11543" lon="6.44896">
        <ele>482.623969</ele>
        <time>2022-07-12T13:51:17.832Z</time>
      </trkpt>
      <trkpt lat="48.11544" lon="6.44879">
        <ele>483.40613</ele>
        <time>2022-07-12T13:51:19.838Z</time>
      </trkpt>
      <trkpt lat="48.11544" lon="6.44863">
        <ele>484.103543</ele>
        <time>2022-07-12T13:51:21.841Z</time>
      </trkpt>
      <trkpt lat="48.11543" lon="6.44847">
        <ele>484.842924</ele>
        <time>2022-07-12T13:51:23.862Z</time>
      </trkpt>
      <trkpt lat="48.11542" lon="6.44831">
        <ele>485.57103</ele>
        <time>2022-07-12T13:51:25.827Z</time>
      </trkpt>
      <trkpt lat="48.11541" lon="6.44815">
        <ele>486.322309</ele>
        <time>2022-07-12T13:51:27.832Z</time>
      </trkpt>
      <trkpt lat="48.11541" lon="6.44797">
        <ele>487.116833</ele>
        <time>2022-07-12T13:51:30.849Z</time>
      </trkpt>
      <trkpt lat="48.1155" lon="6.44803">
        <ele>487.760089</ele>
        <time>2022-07-12T13:51:35.821Z</time>
      </trkpt>
      <trkpt lat="48.11557" lon="6.44814">
        <ele>488.446311</ele>
        <time>2022-07-12T13:51:39.828Z</time>
      </trkpt>
      <trkpt lat="48.11565" lon="6.44821">
        <ele>489.079704</ele>
        <time>2022-07-12T13:51:43.844Z</time>
      </trkpt>
      <trkpt lat="48.11573" lon="6.4483">
        <ele>489.725526</ele>
        <time>2022-07-12T13:51:47.810Z</time>
      </trkpt>
      <trkpt lat="48.1158" lon="6.44839">
        <ele>490.360581</ele>
        <time>2022-07-12T13:51:51.832Z</time>
      </trkpt>
      <trkpt lat="48.1159" lon="6.44849">
        <ele>491.519754</ele>
        <time>2022-07-12T13:51:55.848Z</time>
      </trkpt>
      <trkpt lat="48.11598" lon="6.44859">
        <ele>492.674407</ele>
        <time>2022-07-12T13:51:58.826Z</time>
      </trkpt>
      <trkpt lat="48.11605" lon="6.44869">
        <ele>493.727725</ele>
        <time>2022-07-12T13:52:01.815Z</time>
      </trkpt>
      <trkpt lat="48.11613" lon="6.44882">
        <ele>495.020674</ele>
        <time>2022-07-12T13:52:05.832Z</time>
      </trkpt>
      <trkpt lat="48.11621" lon="6.44895">
        <ele>496.338347</ele>
        <time>2022-07-12T13:52:09.843Z</time>
      </trkpt>
      <trkpt lat="48.11627" lon="6.44908">
        <ele>497.554192</ele>
        <time>2022-07-12T13:52:13.827Z</time>
      </trkpt>
      <trkpt lat="48.11633" lon="6.44921">
        <ele>498.657621</ele>
        <time>2022-07-12T13:52:17.816Z</time>
      </trkpt>
      <trkpt lat="48.11643" lon="6.44919">
        <ele>499.816135</ele>
        <time>2022-07-12T13:52:25.813Z</time>
      </trkpt>
      <trkpt lat="48.11657" lon="6.44914">
        <ele>501.366287</ele>
        <time>2022-07-12T13:52:35.830Z</time>
      </trkpt>
      <trkpt lat="48.11664" lon="6.44923">
        <ele>502.391283</ele>
        <time>2022-07-12T13:52:40.827Z</time>
      </trkpt>
      <trkpt lat="48.1167" lon="6.44935">
        <ele>503.519971</ele>
        <time>2022-07-12T13:52:45.829Z</time>
      </trkpt>
      <trkpt lat="48.11675" lon="6.44948">
        <ele>504.673751</ele>
        <time>2022-07-12T13:52:49.844Z</time>
      </trkpt>
      <trkpt lat="48.11685" lon="6.44961">
        <ele>506.08056</ele>
        <time>2022-07-12T13:52:55.846Z</time>
      </trkpt>
      <trkpt lat="48.11694" lon="6.44968">
        <ele>507.199296</ele>
        <time>2022-07-12T13:52:59.855Z</time>
      </trkpt>
      <trkpt lat="48.11702" lon="6.44979">
        <ele>508.43996</ele>
        <time>2022-07-12T13:53:03.846Z</time>
      </trkpt>
      <trkpt lat="48.1171" lon="6.4499">
        <ele>509.646168</ele>
        <time>2022-07-12T13:53:08.851Z</time>
      </trkpt>
      <trkpt lat="48.11718" lon="6.44998">
        <ele>510.710706</ele>
        <time>2022-07-12T13:53:13.864Z</time>
      </trkpt>
      <trkpt lat="48.11726" lon="6.45004">
        <ele>511.563927</ele>
        <time>2022-07-12T13:53:17.857Z</time>
      </trkpt>
      <trkpt lat="48.11737" lon="6.45004">
        <ele>512.51227</ele>
        <time>2022-07-12T13:53:22.835Z</time>
      </trkpt>
      <trkpt lat="48.11746" lon="6.45">
        <ele>513.356223</ele>
        <time>2022-07-12T13:53:28.835Z</time>
      </trkpt>
      <trkpt lat="48.11756" lon="6.45002">
        <ele>514.250987</ele>
        <time>2022-07-12T13:53:33.831Z</time>
      </trkpt>
      <trkpt lat="48.11768" lon="6.45006">
        <ele>515.309515</ele>
        <time>2022-07-12T13:53:37.841Z</time>
      </trkpt>
      <trkpt lat="48.11775" lon="6.45014">
        <ele>516.110708</ele>
        <time>2022-07-12T13:53:40.852Z</time>
      </trkpt>
      <trkpt lat="48.11785" lon="6.45012">
        <ele>516.953354</ele>
        <time>2022-07-12T13:53:45.839Z</time>
      </trkpt>
      <trkpt lat="48.11791" lon="6.44998">
        <ele>517.942544</ele>
        <time>2022-07-12T13:53:50.829Z</time>
      </trkpt>
      <trkpt lat="48.11796" lon="6.44984">
        <ele>518.816025</ele>
        <time>2022-07-12T13:53:55.832Z</time>
      </trkpt>
      <trkpt lat="48.11794" lon="6.44971">
        <ele>519.618524</ele>
        <time>2022-07-12T13:53:59.838Z</time>
      </trkpt>
      <trkpt lat="48.11791" lon="6.44958">
        <ele>520.418761</ele>
        <time>2022-07-12T13:54:03.827Z</time>
      </trkpt>
      <trkpt lat="48.1179" lon="6.44943">
        <ele>521.293782</ele>
        <time>2022-07-12T13:54:08.826Z</time>
      </trkpt>
      <trkpt lat="48.11793" lon="6.44927">
        <ele>522.301233</ele>
        <time>2022-07-12T13:54:12.834Z</time>
      </trkpt>
      <trkpt lat="48.11787" lon="6.44913">
        <ele>523.266454</ele>
        <time>2022-07-12T13:54:16.853Z</time>
      </trkpt>
      <trkpt lat="48.11783" lon="6.44897">
        <ele>524.261985</ele>
        <time>2022-07-12T13:54:20.840Z</time>
      </trkpt>
      <trkpt lat="48.11779" lon="6.4488">
        <ele>525.303889</ele>
        <time>2022-07-12T13:54:24.835Z</time>
      </trkpt>
      <trkpt lat="48.11779" lon="6.44862">
        <ele>526.36454</ele>
        <time>2022-07-12T13:54:28.850Z</time>
      </trkpt>
      <trkpt lat="48.11781" lon="6.44848">
        <ele>526.610024</ele>
        <time>2022-07-12T13:54:31.845Z</time>
      </trkpt>
      <trkpt lat="48.11785" lon="6.44836">
        <ele>526.649507</ele>
        <time>2022-07-12T13:54:34.835Z</time>
      </trkpt>
      <trkpt lat="48.11788" lon="6.44822">
        <ele>526.691446</ele>
        <time>2022-07-12T13:54:37.840Z</time>
      </trkpt>
      <trkpt lat="48.11792" lon="6.44806">
        <ele>526.742801</ele>
        <time>2022-07-12T13:54:40.823Z</time>
      </trkpt>
      <trkpt lat="48.11796" lon="6.4479">
        <ele>526.79275</ele>
        <time>2022-07-12T13:54:43.841Z</time>
      </trkpt>
      <trkpt lat="48.11802" lon="6.44775">
        <ele>526.843354</ele>
        <time>2022-07-12T13:54:45.863Z</time>
      </trkpt>
      <trkpt lat="48.11809" lon="6.4476">
        <ele>526.89832</ele>
        <time>2022-07-12T13:54:48.855Z</time>
      </trkpt>
      <trkpt lat="48.11817" lon="6.44746">
        <ele>526.950684</ele>
        <time>2022-07-12T13:54:51.844Z</time>
      </trkpt>
      <trkpt lat="48.11825" lon="6.44731">
        <ele>527.007857</ele>
        <time>2022-07-12T13:54:54.850Z</time>
      </trkpt>
      <trkpt lat="48.11832" lon="6.44716">
        <ele>527.061497</ele>
        <time>2022-07-12T13:54:57.848Z</time>
      </trkpt>
      <trkpt lat="48.11838" lon="6.44705">
        <ele>527.101307</ele>
        <time>2022-07-12T13:54:59.832Z</time>
      </trkpt>
      <trkpt lat="48.11843" lon="6.44694">
        <ele>527.141661</ele>
        <time>2022-07-12T13:55:01.845Z</time>
      </trkpt>
      <trkpt lat="48.11849" lon="6.44682">
        <ele>527.186125</ele>
        <time>2022-07-12T13:55:03.838Z</time>
      </trkpt>
      <trkpt lat="48.11855" lon="6.44668">
        <ele>527.234668</ele>
        <time>2022-07-12T13:55:05.844Z</time>
      </trkpt>
      <trkpt lat="48.11861" lon="6.44656">
        <ele>527.276287</ele>
        <time>2022-07-12T13:55:07.837Z</time>
      </trkpt>
      <trkpt lat="48.11868" lon="6.44644">
        <ele>527.322321</ele>
        <time>2022-07-12T13:55:09.848Z</time>
      </trkpt>
      <trkpt lat="48.11873" lon="6.44633">
        <ele>527.363097</ele>
        <time>2022-07-12T13:55:11.842Z</time>
      </trkpt>
      <trkpt lat="48.11878" lon="6.44621">
        <ele>527.563406</ele>
        <time>2022-07-12T13:55:13.839Z</time>
      </trkpt>
      <trkpt lat="48.11883" lon="6.44606">
        <ele>527.799395</ele>
        <time>2022-07-12T13:55:15.837Z</time>
      </trkpt>
      <trkpt lat="48.11892" lon="6.44601">
        <ele>528.005034</ele>
        <time>2022-07-12T13:55:18.848Z</time>
      </trkpt>
      <trkpt lat="48.11899" lon="6.44608">
        <ele>528.205469</ele>
        <time>2022-07-12T13:55:21.825Z</time>
      </trkpt>
      <trkpt lat="48.11909" lon="6.44616">
        <ele>528.448243</ele>
        <time>2022-07-12T13:55:24.837Z</time>
      </trkpt>
      <trkpt lat="48.11918" lon="6.44625">
        <ele>528.691072</ele>
        <time>2022-07-12T13:55:27.835Z</time>
      </trkpt>
      <trkpt lat="48.11925" lon="6.44636">
        <ele>528.918997</ele>
        <time>2022-07-12T13:55:30.839Z</time>
      </trkpt>
      <trkpt lat="48.11932" lon="6.44647">
        <ele>529.143766</ele>
        <time>2022-07-12T13:55:33.828Z</time>
      </trkpt>
      <trkpt lat="48.11942" lon="6.44655">
        <ele>529.397195</ele>
        <time>2022-07-12T13:55:38.833Z</time>
      </trkpt>
      <trkpt lat="48.11953" lon="6.44665">
        <ele>529.67194</ele>
        <time>2022-07-12T13:55:42.840Z</time>
      </trkpt>
      <trkpt lat="48.11962" lon="6.44673">
        <ele>529.903226</ele>
        <time>2022-07-12T13:55:45.818Z</time>
      </trkpt>
      <trkpt lat="48.11973" lon="6.44679">
        <ele>530.165849</ele>
        <time>2022-07-12T13:55:48.832Z</time>
      </trkpt>
      <trkpt lat="48.11984" lon="6.44689">
        <ele>530.4551</ele>
        <time>2022-07-12T13:55:51.842Z</time>
      </trkpt>
      <trkpt lat="48.11992" lon="6.44696">
        <ele>530.670379</ele>
        <time>2022-07-12T13:55:53.846Z</time>
      </trkpt>
      <trkpt lat="48.12002" lon="6.44707">
        <ele>530.939071</ele>
        <time>2022-07-12T13:55:56.844Z</time>
      </trkpt>
      <trkpt lat="48.12012" lon="6.44717">
        <ele>531.196943</ele>
        <time>2022-07-12T13:55:59.827Z</time>
      </trkpt>
      <trkpt lat="48.1202" lon="6.44723">
        <ele>531.398752</ele>
        <time>2022-07-12T13:56:01.836Z</time>
      </trkpt>
      <trkpt lat="48.12029" lon="6.44731">
        <ele>531.608761</ele>
        <time>2022-07-12T13:56:03.868Z</time>
      </trkpt>
      <trkpt lat="48.12042" lon="6.4474">
        <ele>531.885936</ele>
        <time>2022-07-12T13:56:06.833Z</time>
      </trkpt>
      <trkpt lat="48.12051" lon="6.44745">
        <ele>532.085246</ele>
        <time>2022-07-12T13:56:08.827Z</time>
      </trkpt>
      <trkpt lat="48.12061" lon="6.44753">
        <ele>532.314644</ele>
        <time>2022-07-12T13:56:10.837Z</time>
      </trkpt>
      <trkpt lat="48.12074" lon="6.44761">
        <ele>532.58692</ele>
        <time>2022-07-12T13:56:13.842Z</time>
      </trkpt>
      <trkpt lat="48.12085" lon="6.44769">
        <ele>532.832546</ele>
        <time>2022-07-12T13:56:16.841Z</time>
      </trkpt>
      <trkpt lat="48.12094" lon="6.44777">
        <ele>533.051198</ele>
        <time>2022-07-12T13:56:19.827Z</time>
      </trkpt>
      <trkpt lat="48.12104" lon="6.44784">
        <ele>533.260364</ele>
        <time>2022-07-12T13:56:21.841Z</time>
      </trkpt>
      <trkpt lat="48.12113" lon="6.44789">
        <ele>533.454517</ele>
        <time>2022-07-12T13:56:23.830Z</time>
      </trkpt>
      <trkpt lat="48.12123" lon="6.44795">
        <ele>533.666963</ele>
        <time>2022-07-12T13:56:25.828Z</time>
      </trkpt>
      <trkpt lat="48.12133" lon="6.448">
        <ele>533.883216</ele>
        <time>2022-07-12T13:56:27.828Z</time>
      </trkpt>
      <trkpt lat="48.12145" lon="6.44804">
        <ele>534.140151</ele>
        <time>2022-07-12T13:56:30.836Z</time>
      </trkpt>
      <trkpt lat="48.12159" lon="6.448">
        <ele>534.424029</ele>
        <time>2022-07-12T13:56:33.830Z</time>
      </trkpt>
      <trkpt lat="48.1217" lon="6.44798">
        <ele>534.647304</ele>
        <time>2022-07-12T13:56:35.845Z</time>
      </trkpt>
      <trkpt lat="48.1218" lon="6.44796">
        <ele>534.835136</ele>
        <time>2022-07-12T13:56:37.848Z</time>
      </trkpt>
      <trkpt lat="48.12189" lon="6.44794">
        <ele>535.002825</ele>
        <time>2022-07-12T13:56:39.845Z</time>
      </trkpt>
      <trkpt lat="48.12203" lon="6.44788">
        <ele>535.214148</ele>
        <time>2022-07-12T13:56:42.858Z</time>
      </trkpt>
      <trkpt lat="48.12217" lon="6.44783">
        <ele>535.42713</ele>
        <time>2022-07-12T13:56:45.864Z</time>
      </trkpt>
      <trkpt lat="48.12228" lon="6.44775">
        <ele>535.615249</ele>
        <time>2022-07-12T13:56:48.852Z</time>
      </trkpt>
      <trkpt lat="48.12236" lon="6.44765">
        <ele>535.762143</ele>
        <time>2022-07-12T13:56:50.846Z</time>
      </trkpt>
      <trkpt lat="48.12246" lon="6.44753">
        <ele>535.94722</ele>
        <time>2022-07-12T13:56:52.843Z</time>
      </trkpt>
      <trkpt lat="48.12254" lon="6.44744">
        <ele>536.10033</ele>
        <time>2022-07-12T13:56:54.840Z</time>
      </trkpt>
      <trkpt lat="48.12263" lon="6.44738">
        <ele>536.238035</ele>
        <time>2022-07-12T13:56:56.826Z</time>
      </trkpt>
      <trkpt lat="48.12273" lon="6.44733">
        <ele>536.392272</ele>
        <time>2022-07-12T13:56:58.841Z</time>
      </trkpt>
      <trkpt lat="48.12282" lon="6.4473">
        <ele>536.52772</ele>
        <time>2022-07-12T13:57:00.816Z</time>
      </trkpt>
      <trkpt lat="48.12294" lon="6.4473">
        <ele>536.701472</ele>
        <time>2022-07-12T13:57:03.827Z</time>
      </trkpt>
      <trkpt lat="48.12306" lon="6.44731">
        <ele>536.878466</ele>
        <time>2022-07-12T13:57:05.815Z</time>
      </trkpt>
      <trkpt lat="48.12317" lon="6.44734">
        <ele>537.048425</ele>
        <time>2022-07-12T13:57:07.836Z</time>
      </trkpt>
      <trkpt lat="48.12329" lon="6.44736">
        <ele>537.215795</ele>
        <time>2022-07-12T13:57:09.844Z</time>
      </trkpt>
      <trkpt lat="48.12341" lon="6.44738">
        <ele>537.399449</ele>
        <time>2022-07-12T13:57:11.839Z</time>
      </trkpt>
      <trkpt lat="48.12354" lon="6.44743">
        <ele>537.623489</ele>
        <time>2022-07-12T13:57:13.867Z</time>
      </trkpt>
      <trkpt lat="48.12366" lon="6.44749">
        <ele>538.641076</ele>
        <time>2022-07-12T13:57:15.835Z</time>
      </trkpt>
      <trkpt lat="48.12378" lon="6.44756">
        <ele>539.762552</ele>
        <time>2022-07-12T13:57:17.819Z</time>
      </trkpt>
      <trkpt lat="48.1239" lon="6.44758">
        <ele>540.79581</ele>
        <time>2022-07-12T13:57:19.839Z</time>
      </trkpt>
      <trkpt lat="48.12399" lon="6.44757">
        <ele>541.603763</ele>
        <time>2022-07-12T13:57:21.843Z</time>
      </trkpt>
      <trkpt lat="48.1241" lon="6.44755">
        <ele>542.481963</ele>
        <time>2022-07-12T13:57:24.855Z</time>
      </trkpt>
      <trkpt lat="48.12419" lon="6.44751">
        <ele>543.280832</ele>
        <time>2022-07-12T13:57:27.844Z</time>
      </trkpt>
      <trkpt lat="48.1243" lon="6.44747">
        <ele>544.234721</ele>
        <time>2022-07-12T13:57:32.853Z</time>
      </trkpt>
      <trkpt lat="48.12439" lon="6.44738">
        <ele>545.137759</ele>
        <time>2022-07-12T13:57:36.849Z</time>
      </trkpt>
      <trkpt lat="48.12445" lon="6.44725">
        <ele>546.09543</ele>
        <time>2022-07-12T13:57:39.847Z</time>
      </trkpt>
      <trkpt lat="48.12443" lon="6.4471">
        <ele>546.958238</ele>
        <time>2022-07-12T13:57:42.839Z</time>
      </trkpt>
      <trkpt lat="48.12437" lon="6.44698">
        <ele>547.846308</ele>
        <time>2022-07-12T13:57:45.869Z</time>
      </trkpt>
      <trkpt lat="48.12429" lon="6.44688">
        <ele>548.737197</ele>
        <time>2022-07-12T13:57:48.878Z</time>
      </trkpt>
      <trkpt lat="48.1242" lon="6.44677">
        <ele>549.675298</ele>
        <time>2022-07-12T13:57:51.875Z</time>
      </trkpt>
      <trkpt lat="48.12411" lon="6.44666">
        <ele>550.680782</ele>
        <time>2022-07-12T13:57:54.840Z</time>
      </trkpt>
      <trkpt lat="48.12401" lon="6.44657">
        <ele>551.636194</ele>
        <time>2022-07-12T13:57:57.865Z</time>
      </trkpt>
      <trkpt lat="48.12394" lon="6.44647">
        <ele>552.444206</ele>
        <time>2022-07-12T13:58:00.866Z</time>
      </trkpt>
      <trkpt lat="48.12387" lon="6.44638">
        <ele>552.968202</ele>
        <time>2022-07-12T13:58:04.846Z</time>
      </trkpt>
      <trkpt lat="48.12379" lon="6.44626">
        <ele>553.261817</ele>
        <time>2022-07-12T13:58:08.830Z</time>
      </trkpt>
      <trkpt lat="48.12372" lon="6.44617">
        <ele>553.497611</ele>
        <time>2022-07-12T13:58:11.852Z</time>
      </trkpt>
      <trkpt lat="48.12365" lon="6.44608">
        <ele>553.728776</ele>
        <time>2022-07-12T13:58:15.855Z</time>
      </trkpt>
      <trkpt lat="48.12357" lon="6.44597">
        <ele>554.014151</ele>
        <time>2022-07-12T13:58:18.851Z</time>
      </trkpt>
      <trkpt lat="48.1235" lon="6.44587">
        <ele>554.250372</ele>
        <time>2022-07-12T13:58:21.837Z</time>
      </trkpt>
      <trkpt lat="48.12343" lon="6.44576">
        <ele>554.511766</ele>
        <time>2022-07-12T13:58:24.863Z</time>
      </trkpt>
      <trkpt lat="48.12334" lon="6.44562">
        <ele>554.836503</ele>
        <time>2022-07-12T13:58:28.839Z</time>
      </trkpt>
      <trkpt lat="48.12327" lon="6.44553">
        <ele>555.067914</ele>
        <time>2022-07-12T13:58:31.851Z</time>
      </trkpt>
      <trkpt lat="48.12318" lon="6.44544">
        <ele>555.338267</ele>
        <time>2022-07-12T13:58:34.841Z</time>
      </trkpt>
      <trkpt lat="48.12311" lon="6.44537">
        <ele>555.565019</ele>
        <time>2022-07-12T13:58:36.853Z</time>
      </trkpt>
      <trkpt lat="48.12303" lon="6.44523">
        <ele>555.869094</ele>
        <time>2022-07-12T13:58:39.855Z</time>
      </trkpt>
      <trkpt lat="48.12296" lon="6.4451">
        <ele>556.144903</ele>
        <time>2022-07-12T13:58:42.856Z</time>
      </trkpt>
      <trkpt lat="48.12291" lon="6.44499">
        <ele>556.385033</ele>
        <time>2022-07-12T13:58:44.860Z</time>
      </trkpt>
      <trkpt lat="48.12283" lon="6.44486">
        <ele>556.683902</ele>
        <time>2022-07-12T13:58:47.861Z</time>
      </trkpt>
      <trkpt lat="48.12274" lon="6.4447">
        <ele>557.024693</ele>
        <time>2022-07-12T13:58:50.847Z</time>
      </trkpt>
      <trkpt lat="48.12271" lon="6.44454">
        <ele>557.314576</ele>
        <time>2022-07-12T13:58:53.843Z</time>
      </trkpt>
      <trkpt lat="48.12271" lon="6.44439">
        <ele>557.022938</ele>
        <time>2022-07-12T13:58:55.830Z</time>
      </trkpt>
      <trkpt lat="48.12268" lon="6.44425">
        <ele>556.295236</ele>
        <time>2022-07-12T13:58:57.814Z</time>
      </trkpt>
      <trkpt lat="48.12263" lon="6.44406">
        <ele>555.333491</ele>
        <time>2022-07-12T13:58:59.831Z</time>
      </trkpt>
      <trkpt lat="48.12257" lon="6.44389">
        <ele>554.407252</ele>
        <time>2022-07-12T13:59:01.836Z</time>
      </trkpt>
      <trkpt lat="48.12247" lon="6.44384">
        <ele>553.669377</ele>
        <time>2022-07-12T13:59:04.857Z</time>
      </trkpt>
      <trkpt lat="48.12235" lon="6.44386">
        <ele>552.841387</ele>
        <time>2022-07-12T13:59:06.844Z</time>
      </trkpt>
      <trkpt lat="48.12223" lon="6.4439">
        <ele>551.976608</ele>
        <time>2022-07-12T13:59:08.841Z</time>
      </trkpt>
      <trkpt lat="48.12213" lon="6.44399">
        <ele>551.124733</ele>
        <time>2022-07-12T13:59:10.839Z</time>
      </trkpt>
      <trkpt lat="48.12203" lon="6.44403">
        <ele>550.418518</ele>
        <time>2022-07-12T13:59:12.858Z</time>
      </trkpt>
      <trkpt lat="48.12193" lon="6.44406">
        <ele>549.641717</ele>
        <time>2022-07-12T13:59:14.834Z</time>
      </trkpt>
      <trkpt lat="48.12181" lon="6.44416">
        <ele>548.653265</ele>
        <time>2022-07-12T13:59:16.850Z</time>
      </trkpt>
      <trkpt lat="48.1217" lon="6.44414">
        <ele>547.915076</ele>
        <time>2022-07-12T13:59:20.844Z</time>
      </trkpt>
      <trkpt lat="48.1216" lon="6.4441">
        <ele>547.162268</ele>
        <time>2022-07-12T13:59:23.837Z</time>
      </trkpt>
      <trkpt lat="48.12145" lon="6.44403">
        <ele>546.051563</ele>
        <time>2022-07-12T13:59:26.834Z</time>
      </trkpt>
      <trkpt lat="48.12132" lon="6.44396">
        <ele>545.032846</ele>
        <time>2022-07-12T13:59:28.854Z</time>
      </trkpt>
      <trkpt lat="48.12116" lon="6.44387">
        <ele>543.45308</ele>
        <time>2022-07-12T13:59:30.865Z</time>
      </trkpt>
      <trkpt lat="48.121" lon="6.44377">
        <ele>541.597949</ele>
        <time>2022-07-12T13:59:32.841Z</time>
      </trkpt>
      <trkpt lat="48.12085" lon="6.44369">
        <ele>539.854879</ele>
        <time>2022-07-12T13:59:34.842Z</time>
      </trkpt>
      <trkpt lat="48.12072" lon="6.44359">
        <ele>538.211394</ele>
        <time>2022-07-12T13:59:36.848Z</time>
      </trkpt>
      <trkpt lat="48.1206" lon="6.44349">
        <ele>536.789694</ele>
        <time>2022-07-12T13:59:38.855Z</time>
      </trkpt>
      <trkpt lat="48.12045" lon="6.44339">
        <ele>535.05562</ele>
        <time>2022-07-12T13:59:40.867Z</time>
      </trkpt>
      <trkpt lat="48.12031" lon="6.44328">
        <ele>533.292899</ele>
        <time>2022-07-12T13:59:42.853Z</time>
      </trkpt>
      <trkpt lat="48.12016" lon="6.44316">
        <ele>531.487341</ele>
        <time>2022-07-12T13:59:44.828Z</time>
      </trkpt>
      <trkpt lat="48.12001" lon="6.44305">
        <ele>529.679487</ele>
        <time>2022-07-12T13:59:46.817Z</time>
      </trkpt>
      <trkpt lat="48.11985" lon="6.44293">
        <ele>527.697631</ele>
        <time>2022-07-12T13:59:48.844Z</time>
      </trkpt>
      <trkpt lat="48.11969" lon="6.44283">
        <ele>525.812431</ele>
        <time>2022-07-12T13:59:50.833Z</time>
      </trkpt>
      <trkpt lat="48.11953" lon="6.44274">
        <ele>523.58997</ele>
        <time>2022-07-12T13:59:52.834Z</time>
      </trkpt>
      <trkpt lat="48.11939" lon="6.44265">
        <ele>521.36887</ele>
        <time>2022-07-12T13:59:54.840Z</time>
      </trkpt>
      <trkpt lat="48.11925" lon="6.44256">
        <ele>519.097383</ele>
        <time>2022-07-12T13:59:56.835Z</time>
      </trkpt>
      <trkpt lat="48.11911" lon="6.44247">
        <ele>516.922722</ele>
        <time>2022-07-12T13:59:58.868Z</time>
      </trkpt>
      <trkpt lat="48.11899" lon="6.44239">
        <ele>514.88759</ele>
        <time>2022-07-12T14:00:00.858Z</time>
      </trkpt>
      <trkpt lat="48.1189" lon="6.44237">
        <ele>513.525135</ele>
        <time>2022-07-12T14:00:02.821Z</time>
      </trkpt>
      <trkpt lat="48.11882" lon="6.44247">
        <ele>512.103954</ele>
        <time>2022-07-12T14:00:04.846Z</time>
      </trkpt>
      <trkpt lat="48.11871" lon="6.44256">
        <ele>510.211108</ele>
        <time>2022-07-12T14:00:06.850Z</time>
      </trkpt>
      <trkpt lat="48.11857" lon="6.44266">
        <ele>507.928522</ele>
        <time>2022-07-12T14:00:08.829Z</time>
      </trkpt>
      <trkpt lat="48.11842" lon="6.44278">
        <ele>505.492446</ele>
        <time>2022-07-12T14:00:10.851Z</time>
      </trkpt>
      <trkpt lat="48.11829" lon="6.44288">
        <ele>503.342264</ele>
        <time>2022-07-12T14:00:12.844Z</time>
      </trkpt>
      <trkpt lat="48.11814" lon="6.44284">
        <ele>500.999007</ele>
        <time>2022-07-12T14:00:14.832Z</time>
      </trkpt>
      <trkpt lat="48.11798" lon="6.44274">
        <ele>498.562414</ele>
        <time>2022-07-12T14:00:16.820Z</time>
      </trkpt>
      <trkpt lat="48.11789" lon="6.44254">
        <ele>497.742883</ele>
        <time>2022-07-12T14:00:18.822Z</time>
      </trkpt>
      <trkpt lat="48.11781" lon="6.44234">
        <ele>496.92294</ele>
        <time>2022-07-12T14:00:20.818Z</time>
      </trkpt>
      <trkpt lat="48.11774" lon="6.44212">
        <ele>496.087352</ele>
        <time>2022-07-12T14:00:22.832Z</time>
      </trkpt>
      <trkpt lat="48.11767" lon="6.44189">
        <ele>495.227736</ele>
        <time>2022-07-12T14:00:24.833Z</time>
      </trkpt>
      <trkpt lat="48.11764" lon="6.44176">
        <ele>494.764471</ele>
        <time>2022-07-12T14:00:25.835Z</time>
      </trkpt>
      <trkpt lat="48.11757" lon="6.44153">
        <ele>493.910528</ele>
        <time>2022-07-12T14:00:27.833Z</time>
      </trkpt>
      <trkpt lat="48.1175" lon="6.44139">
        <ele>493.29335</ele>
        <time>2022-07-12T14:00:29.822Z</time>
      </trkpt>
      <trkpt lat="48.11738" lon="6.44136">
        <ele>492.66337</ele>
        <time>2022-07-12T14:00:31.841Z</time>
      </trkpt>
      <trkpt lat="48.11728" lon="6.44133">
        <ele>492.116115</ele>
        <time>2022-07-12T14:00:33.824Z</time>
      </trkpt>
      <trkpt lat="48.11726" lon="6.44115">
        <ele>491.510548</ele>
        <time>2022-07-12T14:00:36.854Z</time>
      </trkpt>
      <trkpt lat="48.11732" lon="6.44104">
        <ele>491.02445</ele>
        <time>2022-07-12T14:00:38.848Z</time>
      </trkpt>
      <trkpt lat="48.11741" lon="6.44094">
        <ele>490.446303</ele>
        <time>2022-07-12T14:00:40.835Z</time>
      </trkpt>
      <trkpt lat="48.11748" lon="6.44081">
        <ele>489.87709</ele>
        <time>2022-07-12T14:00:42.838Z</time>
      </trkpt>
      <trkpt lat="48.11753" lon="6.44066">
        <ele>489.37883</ele>
        <time>2022-07-12T14:00:44.823Z</time>
      </trkpt>
      <trkpt lat="48.11755" lon="6.44048">
        <ele>489.780466</ele>
        <time>2022-07-12T14:00:46.821Z</time>
      </trkpt>
      <trkpt lat="48.11756" lon="6.44031">
        <ele>490.178778</ele>
        <time>2022-07-12T14:00:48.825Z</time>
      </trkpt>
      <trkpt lat="48.11759" lon="6.44014">
        <ele>490.582869</ele>
        <time>2022-07-12T14:00:50.835Z</time>
      </trkpt>
      <trkpt lat="48.11762" lon="6.43999">
        <ele>490.950095</ele>
        <time>2022-07-12T14:00:52.820Z</time>
      </trkpt>
      <trkpt lat="48.1176" lon="6.43985">
        <ele>491.26261</ele>
        <time>2022-07-12T14:00:54.805Z</time>
      </trkpt>
      <trkpt lat="48.11751" lon="6.43977">
        <ele>491.617428</ele>
        <time>2022-07-12T14:00:56.827Z</time>
      </trkpt>
      <trkpt lat="48.11744" lon="6.43963">
        <ele>492.013628</ele>
        <time>2022-07-12T14:00:58.815Z</time>
      </trkpt>
      <trkpt lat="48.1174" lon="6.43947">
        <ele>492.423392</ele>
        <time>2022-07-12T14:01:00.826Z</time>
      </trkpt>
      <trkpt lat="48.11738" lon="6.43931">
        <ele>492.794011</ele>
        <time>2022-07-12T14:01:02.818Z</time>
      </trkpt>
      <trkpt lat="48.11735" lon="6.43912">
        <ele>493.233798</ele>
        <time>2022-07-12T14:01:05.826Z</time>
      </trkpt>
      <trkpt lat="48.11734" lon="6.43898">
        <ele>493.553715</ele>
        <time>2022-07-12T14:01:07.846Z</time>
      </trkpt>
      <trkpt lat="48.11731" lon="6.43882">
        <ele>493.94073</ele>
        <time>2022-07-12T14:01:10.826Z</time>
      </trkpt>
      <trkpt lat="48.11726" lon="6.43867">
        <ele>494.327917</ele>
        <time>2022-07-12T14:01:13.863Z</time>
      </trkpt>
      <trkpt lat="48.11721" lon="6.43851">
        <ele>494.742716</ele>
        <time>2022-07-12T14:01:16.799Z</time>
      </trkpt>
      <trkpt lat="48.11722" lon="6.43833">
        <ele>495.147663</ele>
        <time>2022-07-12T14:01:19.832Z</time>
      </trkpt>
      <trkpt lat="48.11719" lon="6.43817">
        <ele>495.519608</ele>
        <time>2022-07-12T14:01:23.826Z</time>
      </trkpt>
      <trkpt lat="48.11708" lon="6.43805">
        <ele>495.950172</ele>
        <time>2022-07-12T14:01:26.845Z</time>
      </trkpt>
      <trkpt lat="48.11707" lon="6.43791">
        <ele>496.257413</ele>
        <time>2022-07-12T14:01:30.818Z</time>
      </trkpt>
      <trkpt lat="48.11707" lon="6.43776">
        <ele>496.577817</ele>
        <time>2022-07-12T14:01:33.832Z</time>
      </trkpt>
      <trkpt lat="48.1171" lon="6.43762">
        <ele>496.898865</ele>
        <time>2022-07-12T14:01:37.833Z</time>
      </trkpt>
      <trkpt lat="48.11713" lon="6.43747">
        <ele>497.237562</ele>
        <time>2022-07-12T14:01:41.827Z</time>
      </trkpt>
      <trkpt lat="48.11716" lon="6.43733">
        <ele>497.557655</ele>
        <time>2022-07-12T14:01:44.833Z</time>
      </trkpt>
      <trkpt lat="48.1172" lon="6.43717">
        <ele>497.938268</ele>
        <time>2022-07-12T14:01:48.819Z</time>
      </trkpt>
      <trkpt lat="48.11723" lon="6.43702">
        <ele>498.253024</ele>
        <time>2022-07-12T14:01:51.832Z</time>
      </trkpt>
      <trkpt lat="48.11725" lon="6.43686">
        <ele>498.622159</ele>
        <time>2022-07-12T14:01:54.834Z</time>
      </trkpt>
      <trkpt lat="48.11727" lon="6.43671">
        <ele>498.938878</ele>
        <time>2022-07-12T14:01:57.828Z</time>
      </trkpt>
      <trkpt lat="48.11724" lon="6.43657">
        <ele>499.25445</ele>
        <time>2022-07-12T14:02:00.824Z</time>
      </trkpt>
      <trkpt lat="48.11722" lon="6.4364">
        <ele>499.627534</ele>
        <time>2022-07-12T14:02:03.823Z</time>
      </trkpt>
      <trkpt lat="48.11717" lon="6.43627">
        <ele>499.944743</ele>
        <time>2022-07-12T14:02:06.827Z</time>
      </trkpt>
      <trkpt lat="48.11711" lon="6.43616">
        <ele>500.271931</ele>
        <time>2022-07-12T14:02:09.833Z</time>
      </trkpt>
      <trkpt lat="48.11703" lon="6.43606">
        <ele>500.605666</ele>
        <time>2022-07-12T14:02:12.822Z</time>
      </trkpt>
      <trkpt lat="48.11695" lon="6.43597">
        <ele>500.938936</ele>
        <time>2022-07-12T14:02:15.831Z</time>
      </trkpt>
      <trkpt lat="48.11687" lon="6.43584">
        <ele>501.295492</ele>
        <time>2022-07-12T14:02:18.827Z</time>
      </trkpt>
      <trkpt lat="48.1168" lon="6.43569">
        <ele>501.198243</ele>
        <time>2022-07-12T14:02:21.836Z</time>
      </trkpt>
      <trkpt lat="48.11674" lon="6.43557">
        <ele>501.08623</ele>
        <time>2022-07-12T14:02:23.831Z</time>
      </trkpt>
      <trkpt lat="48.11668" lon="6.43542">
        <ele>500.936094</ele>
        <time>2022-07-12T14:02:26.860Z</time>
      </trkpt>
      <trkpt lat="48.1166" lon="6.43535">
        <ele>500.82489</ele>
        <time>2022-07-12T14:02:28.834Z</time>
      </trkpt>
      <trkpt lat="48.1165" lon="6.43536">
        <ele>500.700171</ele>
        <time>2022-07-12T14:02:31.834Z</time>
      </trkpt>
      <trkpt lat="48.11649" lon="6.43519">
        <ele>500.563673</ele>
        <time>2022-07-12T14:02:36.828Z</time>
      </trkpt>
      <trkpt lat="48.11644" lon="6.43506">
        <ele>500.440684</ele>
        <time>2022-07-12T14:02:39.856Z</time>
      </trkpt>
      <trkpt lat="48.11632" lon="6.43498">
        <ele>500.281714</ele>
        <time>2022-07-12T14:02:42.810Z</time>
      </trkpt>
      <trkpt lat="48.11619" lon="6.43488">
        <ele>500.105239</ele>
        <time>2022-07-12T14:02:45.843Z</time>
      </trkpt>
      <trkpt lat="48.11609" lon="6.43479">
        <ele>499.956933</ele>
        <time>2022-07-12T14:02:48.820Z</time>
      </trkpt>
      <trkpt lat="48.11599" lon="6.43467">
        <ele>499.809136</ele>
        <time>2022-07-12T14:02:51.835Z</time>
      </trkpt>
      <trkpt lat="48.1159" lon="6.43466">
        <ele>499.697588</ele>
        <time>2022-07-12T14:02:54.826Z</time>
      </trkpt>
      <trkpt lat="48.11581" lon="6.43462">
        <ele>499.572955</ele>
        <time>2022-07-12T14:02:57.831Z</time>
      </trkpt>
      <trkpt lat="48.11571" lon="6.43464">
        <ele>499.459306</ele>
        <time>2022-07-12T14:03:01.836Z</time>
      </trkpt>
      <trkpt lat="48.11564" lon="6.43471">
        <ele>499.345103</ele>
        <time>2022-07-12T14:03:05.822Z</time>
      </trkpt>
      <trkpt lat="48.11555" lon="6.43461">
        <ele>499.207105</ele>
        <time>2022-07-12T14:03:08.855Z</time>
      </trkpt>
      <trkpt lat="48.11547" lon="6.43447">
        <ele>498.685072</ele>
        <time>2022-07-12T14:03:11.840Z</time>
      </trkpt>
      <trkpt lat="48.11535" lon="6.4344">
        <ele>497.843378</ele>
        <time>2022-07-12T14:03:14.838Z</time>
      </trkpt>
      <trkpt lat="48.11522" lon="6.43432">
        <ele>496.982426</ele>
        <time>2022-07-12T14:03:17.841Z</time>
      </trkpt>
      <trkpt lat="48.11511" lon="6.43423">
        <ele>496.122946</ele>
        <time>2022-07-12T14:03:19.835Z</time>
      </trkpt>
      <trkpt lat="48.11499" lon="6.43413">
        <ele>495.258201</ele>
        <time>2022-07-12T14:03:21.831Z</time>
      </trkpt>
      <trkpt lat="48.11491" lon="6.43405">
        <ele>494.58991</ele>
        <time>2022-07-12T14:03:23.830Z</time>
      </trkpt>
      <trkpt lat="48.11486" lon="6.43392">
        <ele>493.968656</ele>
        <time>2022-07-12T14:03:25.819Z</time>
      </trkpt>
      <trkpt lat="48.11481" lon="6.43378">
        <ele>493.269039</ele>
        <time>2022-07-12T14:03:27.807Z</time>
      </trkpt>
      <trkpt lat="48.11475" lon="6.43368">
        <ele>492.669752</ele>
        <time>2022-07-12T14:03:29.831Z</time>
      </trkpt>
      <trkpt lat="48.11463" lon="6.43369">
        <ele>491.847152</ele>
        <time>2022-07-12T14:03:32.821Z</time>
      </trkpt>
      <trkpt lat="48.11454" lon="6.4338">
        <ele>491.104895</ele>
        <time>2022-07-12T14:03:35.829Z</time>
      </trkpt>
      <trkpt lat="48.11449" lon="6.43393">
        <ele>490.454916</ele>
        <time>2022-07-12T14:03:37.831Z</time>
      </trkpt>
      <trkpt lat="48.11444" lon="6.43406">
        <ele>489.770505</ele>
        <time>2022-07-12T14:03:39.839Z</time>
      </trkpt>
      <trkpt lat="48.1144" lon="6.43421">
        <ele>489.051959</ele>
        <time>2022-07-12T14:03:41.837Z</time>
      </trkpt>
      <trkpt lat="48.11435" lon="6.43439">
        <ele>488.258884</ele>
        <time>2022-07-12T14:03:43.824Z</time>
      </trkpt>
      <trkpt lat="48.11431" lon="6.43457">
        <ele>487.397475</ele>
        <time>2022-07-12T14:03:45.852Z</time>
      </trkpt>
      <trkpt lat="48.11426" lon="6.43477">
        <ele>486.550979</ele>
        <time>2022-07-12T14:03:47.841Z</time>
      </trkpt>
      <trkpt lat="48.11422" lon="6.43496">
        <ele>485.735007</ele>
        <time>2022-07-12T14:03:49.831Z</time>
      </trkpt>
      <trkpt lat="48.11417" lon="6.43515">
        <ele>484.92843</ele>
        <time>2022-07-12T14:03:51.839Z</time>
      </trkpt>
      <trkpt lat="48.11413" lon="6.43533">
        <ele>484.149943</ele>
        <time>2022-07-12T14:03:53.825Z</time>
      </trkpt>
      <trkpt lat="48.11407" lon="6.43549">
        <ele>483.446207</ele>
        <time>2022-07-12T14:03:55.833Z</time>
      </trkpt>
      <trkpt lat="48.11398" lon="6.43557">
        <ele>482.810929</ele>
        <time>2022-07-12T14:03:57.817Z</time>
      </trkpt>
      <trkpt lat="48.11386" lon="6.43554">
        <ele>482.0815</ele>
        <time>2022-07-12T14:03:59.820Z</time>
      </trkpt>
      <trkpt lat="48.11373" lon="6.43551">
        <ele>481.280349</ele>
        <time>2022-07-12T14:04:01.842Z</time>
      </trkpt>
      <trkpt lat="48.11359" lon="6.43546">
        <ele>480.408912</ele>
        <time>2022-07-12T14:04:03.824Z</time>
      </trkpt>
      <trkpt lat="48.11343" lon="6.43542">
        <ele>479.474513</ele>
        <time>2022-07-12T14:04:05.846Z</time>
      </trkpt>
      <trkpt lat="48.11328" lon="6.43539">
        <ele>478.511698</ele>
        <time>2022-07-12T14:04:07.863Z</time>
      </trkpt>
      <trkpt lat="48.11311" lon="6.43534">
        <ele>477.501962</ele>
        <time>2022-07-12T14:04:09.844Z</time>
      </trkpt>
      <trkpt lat="48.11294" lon="6.4353">
        <ele>476.503125</ele>
        <time>2022-07-12T14:04:11.843Z</time>
      </trkpt>
      <trkpt lat="48.11276" lon="6.43524">
        <ele>475.845632</ele>
        <time>2022-07-12T14:04:13.839Z</time>
      </trkpt>
      <trkpt lat="48.11259" lon="6.43519">
        <ele>475.182302</ele>
        <time>2022-07-12T14:04:15.820Z</time>
      </trkpt>
      <trkpt lat="48.1125" lon="6.43517">
        <ele>474.847446</ele>
        <time>2022-07-12T14:04:16.832Z</time>
      </trkpt>
      <trkpt lat="48.11241" lon="6.43515">
        <ele>474.513018</ele>
        <time>2022-07-12T14:04:17.854Z</time>
      </trkpt>
      <trkpt lat="48.11224" lon="6.4351">
        <ele>473.856493</ele>
        <time>2022-07-12T14:04:19.836Z</time>
      </trkpt>
      <trkpt lat="48.11206" lon="6.43505">
        <ele>473.211185</ele>
        <time>2022-07-12T14:04:21.832Z</time>
      </trkpt>
      <trkpt lat="48.1119" lon="6.43501">
        <ele>472.590161</ele>
        <time>2022-07-12T14:04:23.854Z</time>
      </trkpt>
      <trkpt lat="48.11173" lon="6.43496">
        <ele>471.969136</ele>
        <time>2022-07-12T14:04:25.844Z</time>
      </trkpt>
      <trkpt lat="48.11157" lon="6.43492">
        <ele>471.34168</ele>
        <time>2022-07-12T14:04:27.820Z</time>
      </trkpt>
      <trkpt lat="48.1114" lon="6.43488">
        <ele>470.711389</ele>
        <time>2022-07-12T14:04:29.826Z</time>
      </trkpt>
      <trkpt lat="48.11123" lon="6.43483">
        <ele>470.071706</ele>
        <time>2022-07-12T14:04:31.840Z</time>
      </trkpt>
      <trkpt lat="48.11106" lon="6.43478">
        <ele>469.752715</ele>
        <time>2022-07-12T14:04:33.830Z</time>
      </trkpt>
      <trkpt lat="48.11088" lon="6.43473">
        <ele>469.528759</ele>
        <time>2022-07-12T14:04:35.844Z</time>
      </trkpt>
      <trkpt lat="48.11071" lon="6.43468">
        <ele>469.305379</ele>
        <time>2022-07-12T14:04:37.828Z</time>
      </trkpt>
      <trkpt lat="48.11054" lon="6.43461">
        <ele>469.084214</ele>
        <time>2022-07-12T14:04:39.838Z</time>
      </trkpt>
      <trkpt lat="48.11038" lon="6.43455">
        <ele>468.86836</ele>
        <time>2022-07-12T14:04:41.839Z</time>
      </trkpt>
      <trkpt lat="48.11022" lon="6.43449">
        <ele>468.65994</ele>
        <time>2022-07-12T14:04:43.835Z</time>
      </trkpt>
      <trkpt lat="48.11006" lon="6.43444">
        <ele>468.456612</ele>
        <time>2022-07-12T14:04:45.809Z</time>
      </trkpt>
      <trkpt lat="48.10993" lon="6.43437">
        <ele>468.280514</ele>
        <time>2022-07-12T14:04:47.843Z</time>
      </trkpt>
      <trkpt lat="48.10984" lon="6.43425">
        <ele>468.131321</ele>
        <time>2022-07-12T14:04:49.838Z</time>
      </trkpt>
      <trkpt lat="48.10982" lon="6.43411">
        <ele>468.002576</ele>
        <time>2022-07-12T14:04:51.813Z</time>
      </trkpt>
      <trkpt lat="48.10985" lon="6.43395">
        <ele>467.863258</ele>
        <time>2022-07-12T14:04:53.819Z</time>
      </trkpt>
      <trkpt lat="48.1099" lon="6.43378">
        <ele>467.707098</ele>
        <time>2022-07-12T14:04:55.826Z</time>
      </trkpt>
      <trkpt lat="48.10994" lon="6.4336">
        <ele>467.332303</ele>
        <time>2022-07-12T14:04:57.812Z</time>
      </trkpt>
      <trkpt lat="48.10999" lon="6.43342">
        <ele>466.814191</ele>
        <time>2022-07-12T14:04:59.847Z</time>
      </trkpt>
      <trkpt lat="48.11004" lon="6.43323">
        <ele>466.258167</ele>
        <time>2022-07-12T14:05:01.828Z</time>
      </trkpt>
      <trkpt lat="48.11009" lon="6.43302">
        <ele>465.670301</ele>
        <time>2022-07-12T14:05:03.834Z</time>
      </trkpt>
      <trkpt lat="48.11015" lon="6.4328">
        <ele>465.040562</ele>
        <time>2022-07-12T14:05:05.856Z</time>
      </trkpt>
      <trkpt lat="48.11021" lon="6.43257">
        <ele>464.388588</ele>
        <time>2022-07-12T14:05:07.839Z</time>
      </trkpt>
      <trkpt lat="48.11027" lon="6.43235">
        <ele>463.729136</ele>
        <time>2022-07-12T14:05:09.836Z</time>
      </trkpt>
      <trkpt lat="48.11032" lon="6.43212">
        <ele>463.09258</ele>
        <time>2022-07-12T14:05:11.820Z</time>
      </trkpt>
      <trkpt lat="48.11037" lon="6.43193">
        <ele>462.544074</ele>
        <time>2022-07-12T14:05:13.825Z</time>
      </trkpt>
      <trkpt lat="48.11041" lon="6.4318">
        <ele>462.151337</ele>
        <time>2022-07-12T14:05:15.816Z</time>
      </trkpt>
      <trkpt lat="48.11036" lon="6.43167">
        <ele>461.753801</ele>
        <time>2022-07-12T14:05:19.797Z</time>
      </trkpt>
      <trkpt lat="48.11015" lon="6.43155">
        <ele>460.862645</ele>
        <time>2022-07-12T14:05:56.842Z</time>
      </trkpt>
      <trkpt lat="48.11006" lon="6.4315">
        <ele>460.464941</ele>
        <time>2022-07-12T14:05:58.838Z</time>
      </trkpt>
      <trkpt lat="48.10995" lon="6.43143">
        <ele>459.826545</ele>
        <time>2022-07-12T14:06:00.814Z</time>
      </trkpt>
      <trkpt lat="48.10984" lon="6.43137">
        <ele>459.097978</ele>
        <time>2022-07-12T14:06:02.805Z</time>
      </trkpt>
      <trkpt lat="48.10971" lon="6.43129">
        <ele>458.299283</ele>
        <time>2022-07-12T14:06:04.813Z</time>
      </trkpt>
      <trkpt lat="48.10957" lon="6.43121">
        <ele>457.470043</ele>
        <time>2022-07-12T14:06:06.817Z</time>
      </trkpt>
      <trkpt lat="48.10943" lon="6.43113">
        <ele>456.595225</ele>
        <time>2022-07-12T14:06:08.814Z</time>
      </trkpt>
      <trkpt lat="48.1093" lon="6.43107">
        <ele>455.814506</ele>
        <time>2022-07-12T14:06:10.819Z</time>
      </trkpt>
      <trkpt lat="48.10917" lon="6.431">
        <ele>455.024213</ele>
        <time>2022-07-12T14:06:12.805Z</time>
      </trkpt>
      <trkpt lat="48.10903" lon="6.43091">
        <ele>454.166877</ele>
        <time>2022-07-12T14:06:14.797Z</time>
      </trkpt>
      <trkpt lat="48.10891" lon="6.43082">
        <ele>453.397762</ele>
        <time>2022-07-12T14:06:16.799Z</time>
      </trkpt>
      <trkpt lat="48.10884" lon="6.43068">
        <ele>452.732353</ele>
        <time>2022-07-12T14:06:19.809Z</time>
      </trkpt>
      <trkpt lat="48.10888" lon="6.43055">
        <ele>452.172024</ele>
        <time>2022-07-12T14:06:21.822Z</time>
      </trkpt>
      <trkpt lat="48.10895" lon="6.4304">
        <ele>451.4878</ele>
        <time>2022-07-12T14:06:23.830Z</time>
      </trkpt>
      <trkpt lat="48.10902" lon="6.43024">
        <ele>450.73652</ele>
        <time>2022-07-12T14:06:25.807Z</time>
      </trkpt>
      <trkpt lat="48.1091" lon="6.43005">
        <ele>450.025074</ele>
        <time>2022-07-12T14:06:27.832Z</time>
      </trkpt>
      <trkpt lat="48.10918" lon="6.42986">
        <ele>449.648373</ele>
        <time>2022-07-12T14:06:29.816Z</time>
      </trkpt>
      <trkpt lat="48.10927" lon="6.42967">
        <ele>449.267593</ele>
        <time>2022-07-12T14:06:31.821Z</time>
      </trkpt>
      <trkpt lat="48.10936" lon="6.42946">
        <ele>448.867686</ele>
        <time>2022-07-12T14:06:33.811Z</time>
      </trkpt>
      <trkpt lat="48.10945" lon="6.42925">
        <ele>448.443225</ele>
        <time>2022-07-12T14:06:35.817Z</time>
      </trkpt>
      <trkpt lat="48.10954" lon="6.42903">
        <ele>448.014333</ele>
        <time>2022-07-12T14:06:37.814Z</time>
      </trkpt>
      <trkpt lat="48.10963" lon="6.42879">
        <ele>447.576664</ele>
        <time>2022-07-12T14:06:39.794Z</time>
      </trkpt>
      <trkpt lat="48.10968" lon="6.42868">
        <ele>447.356668</ele>
        <time>2022-07-12T14:06:40.806Z</time>
      </trkpt>
      <trkpt lat="48.10977" lon="6.42846">
        <ele>446.922569</ele>
        <time>2022-07-12T14:06:42.812Z</time>
      </trkpt>
      <trkpt lat="48.10987" lon="6.42825">
        <ele>446.507619</ele>
        <time>2022-07-12T14:06:44.831Z</time>
      </trkpt>
      <trkpt lat="48.10998" lon="6.42806">
        <ele>446.102318</ele>
        <time>2022-07-12T14:06:46.827Z</time>
      </trkpt>
      <trkpt lat="48.11009" lon="6.42789">
        <ele>445.703987</ele>
        <time>2022-07-12T14:06:48.812Z</time>
      </trkpt>
      <trkpt lat="48.1102" lon="6.42773">
        <ele>446.546872</ele>
        <time>2022-07-12T14:06:50.810Z</time>
      </trkpt>
      <trkpt lat="48.11031" lon="6.42757">
        <ele>447.42147</ele>
        <time>2022-07-12T14:06:52.805Z</time>
      </trkpt>
      <trkpt lat="48.11042" lon="6.42742">
        <ele>448.226849</ele>
        <time>2022-07-12T14:06:54.813Z</time>
      </trkpt>
      <trkpt lat="48.11052" lon="6.4273">
        <ele>448.990381</ele>
        <time>2022-07-12T14:06:56.802Z</time>
      </trkpt>
      <trkpt lat="48.11061" lon="6.42719">
        <ele>449.647434</ele>
        <time>2022-07-12T14:06:58.805Z</time>
      </trkpt>
      <trkpt lat="48.11071" lon="6.42711">
        <ele>450.253458</ele>
        <time>2022-07-12T14:07:00.827Z</time>
      </trkpt>
      <trkpt lat="48.11079" lon="6.42704">
        <ele>450.781784</ele>
        <time>2022-07-12T14:07:02.816Z</time>
      </trkpt>
      <trkpt lat="48.11086" lon="6.42696">
        <ele>451.305881</ele>
        <time>2022-07-12T14:07:04.834Z</time>
      </trkpt>
      <trkpt lat="48.11094" lon="6.42687">
        <ele>451.838712</ele>
        <time>2022-07-12T14:07:06.824Z</time>
      </trkpt>
      <trkpt lat="48.11104" lon="6.42674">
        <ele>452.593549</ele>
        <time>2022-07-12T14:07:09.819Z</time>
      </trkpt>
      <trkpt lat="48.11111" lon="6.42665">
        <ele>453.108085</ele>
        <time>2022-07-12T14:07:11.847Z</time>
      </trkpt>
      <trkpt lat="48.11117" lon="6.42655">
        <ele>453.618345</ele>
        <time>2022-07-12T14:07:13.856Z</time>
      </trkpt>
      <trkpt lat="48.11124" lon="6.42645">
        <ele>454.155187</ele>
        <time>2022-07-12T14:07:15.813Z</time>
      </trkpt>
      <trkpt lat="48.11132" lon="6.42632">
        <ele>454.84958</ele>
        <time>2022-07-12T14:07:18.808Z</time>
      </trkpt>
      <trkpt lat="48.1114" lon="6.42619">
        <ele>455.497388</ele>
        <time>2022-07-12T14:07:21.814Z</time>
      </trkpt>
      <trkpt lat="48.11145" lon="6.42609">
        <ele>456.110261</ele>
        <time>2022-07-12T14:07:23.814Z</time>
      </trkpt>
      <trkpt lat="48.11154" lon="6.42595">
        <ele>457.421673</ele>
        <time>2022-07-12T14:07:26.818Z</time>
      </trkpt>
      <trkpt lat="48.11161" lon="6.42579">
        <ele>458.725555</ele>
        <time>2022-07-12T14:07:29.811Z</time>
      </trkpt>
      <trkpt lat="48.11169" lon="6.42566">
        <ele>459.935882</ele>
        <time>2022-07-12T14:07:32.825Z</time>
      </trkpt>
      <trkpt lat="48.11177" lon="6.42552">
        <ele>461.216867</ele>
        <time>2022-07-12T14:07:35.803Z</time>
      </trkpt>
      <trkpt lat="48.11184" lon="6.42539">
        <ele>462.349918</ele>
        <time>2022-07-12T14:07:38.812Z</time>
      </trkpt>
      <trkpt lat="48.11191" lon="6.42526">
        <ele>463.511005</ele>
        <time>2022-07-12T14:07:41.812Z</time>
      </trkpt>
      <trkpt lat="48.11198" lon="6.42514">
        <ele>464.560632</ele>
        <time>2022-07-12T14:07:44.805Z</time>
      </trkpt>
      <trkpt lat="48.11205" lon="6.42502">
        <ele>465.660246</ele>
        <time>2022-07-12T14:07:47.812Z</time>
      </trkpt>
      <trkpt lat="48.11211" lon="6.42489">
        <ele>466.794163</ele>
        <time>2022-07-12T14:07:50.807Z</time>
      </trkpt>
      <trkpt lat="48.11218" lon="6.42477">
        <ele>467.888281</ele>
        <time>2022-07-12T14:07:53.812Z</time>
      </trkpt>
      <trkpt lat="48.11225" lon="6.42464">
        <ele>468.98079</ele>
        <time>2022-07-12T14:07:57.830Z</time>
      </trkpt>
      <trkpt lat="48.1123" lon="6.42452">
        <ele>469.974935</ele>
        <time>2022-07-12T14:08:01.807Z</time>
      </trkpt>
      <trkpt lat="48.11237" lon="6.42439">
        <ele>471.128131</ele>
        <time>2022-07-12T14:08:05.828Z</time>
      </trkpt>
      <trkpt lat="48.11243" lon="6.42428">
        <ele>472.071867</ele>
        <time>2022-07-12T14:08:10.815Z</time>
      </trkpt>
      <trkpt lat="48.1125" lon="6.42417">
        <ele>473.113198</ele>
        <time>2022-07-12T14:08:14.805Z</time>
      </trkpt>
      <trkpt lat="48.11257" lon="6.42406">
        <ele>474.182983</ele>
        <time>2022-07-12T14:08:18.812Z</time>
      </trkpt>
      <trkpt lat="48.11262" lon="6.42393">
        <ele>475.052809</ele>
        <time>2022-07-12T14:08:22.794Z</time>
      </trkpt>
      <trkpt lat="48.11268" lon="6.4238">
        <ele>475.964648</ele>
        <time>2022-07-12T14:08:27.790Z</time>
      </trkpt>
      <trkpt lat="48.11276" lon="6.4237">
        <ele>476.809198</ele>
        <time>2022-07-12T14:08:31.830Z</time>
      </trkpt>
      <trkpt lat="48.11284" lon="6.4236">
        <ele>477.713543</ele>
        <time>2022-07-12T14:08:35.826Z</time>
      </trkpt>
      <trkpt lat="48.11292" lon="6.42353">
        <ele>478.457114</ele>
        <time>2022-07-12T14:08:39.805Z</time>
      </trkpt>
      <trkpt lat="48.11301" lon="6.42347">
        <ele>479.273302</ele>
        <time>2022-07-12T14:08:43.812Z</time>
      </trkpt>
      <trkpt lat="48.1131" lon="6.4234">
        <ele>480.145342</ele>
        <time>2022-07-12T14:08:47.808Z</time>
      </trkpt>
      <trkpt lat="48.11319" lon="6.42332">
        <ele>480.990615</ele>
        <time>2022-07-12T14:08:51.820Z</time>
      </trkpt>
      <trkpt lat="48.11327" lon="6.42322">
        <ele>481.862216</ele>
        <time>2022-07-12T14:08:55.811Z</time>
      </trkpt>
      <trkpt lat="48.11333" lon="6.42312">
        <ele>482.612831</ele>
        <time>2022-07-12T14:08:58.809Z</time>
      </trkpt>
      <trkpt lat="48.11343" lon="6.42298">
        <ele>483.733462</ele>
        <time>2022-07-12T14:09:02.821Z</time>
      </trkpt>
      <trkpt lat="48.11349" lon="6.42288">
        <ele>484.493911</ele>
        <time>2022-07-12T14:09:05.827Z</time>
      </trkpt>
      <trkpt lat="48.11356" lon="6.42279">
        <ele>485.262476</ele>
        <time>2022-07-12T14:09:08.837Z</time>
      </trkpt>
      <trkpt lat="48.11362" lon="6.42269">
        <ele>486.013371</ele>
        <time>2022-07-12T14:09:11.827Z</time>
      </trkpt>
      <trkpt lat="48.11369" lon="6.42255">
        <ele>487.010869</ele>
        <time>2022-07-12T14:09:15.832Z</time>
      </trkpt>
      <trkpt lat="48.11374" lon="6.42243">
        <ele>487.788009</ele>
        <time>2022-07-12T14:09:18.798Z</time>
      </trkpt>
      <trkpt lat="48.1138" lon="6.42229">
        <ele>488.686187</ele>
        <time>2022-07-12T14:09:21.813Z</time>
      </trkpt>
      <trkpt lat="48.11386" lon="6.42214">
        <ele>489.473929</ele>
        <time>2022-07-12T14:09:24.811Z</time>
      </trkpt>
      <trkpt lat="48.11392" lon="6.42198">
        <ele>489.87203</ele>
        <time>2022-07-12T14:09:27.805Z</time>
      </trkpt>
      <trkpt lat="48.11399" lon="6.42183">
        <ele>490.280422</ele>
        <time>2022-07-12T14:09:30.820Z</time>
      </trkpt>
      <trkpt lat="48.11407" lon="6.42166">
        <ele>490.717599</ele>
        <time>2022-07-12T14:09:33.851Z</time>
      </trkpt>
      <trkpt lat="48.11412" lon="6.42155">
        <ele>491.012656</ele>
        <time>2022-07-12T14:09:35.833Z</time>
      </trkpt>
      <trkpt lat="48.1142" lon="6.42138">
        <ele>491.453466</ele>
        <time>2022-07-12T14:09:38.837Z</time>
      </trkpt>
      <trkpt lat="48.11425" lon="6.42126">
        <ele>491.752234</ele>
        <time>2022-07-12T14:09:40.830Z</time>
      </trkpt>
      <trkpt lat="48.11429" lon="6.42113">
        <ele>492.061343</ele>
        <time>2022-07-12T14:09:42.843Z</time>
      </trkpt>
      <trkpt lat="48.11434" lon="6.42101">
        <ele>492.376273</ele>
        <time>2022-07-12T14:09:44.834Z</time>
      </trkpt>
      <trkpt lat="48.11439" lon="6.42089">
        <ele>492.687646</ele>
        <time>2022-07-12T14:09:46.841Z</time>
      </trkpt>
      <trkpt lat="48.11444" lon="6.42077">
        <ele>492.997312</ele>
        <time>2022-07-12T14:09:48.844Z</time>
      </trkpt>
      <trkpt lat="48.11449" lon="6.42064">
        <ele>493.310873</ele>
        <time>2022-07-12T14:09:50.827Z</time>
      </trkpt>
      <trkpt lat="48.11454" lon="6.42052">
        <ele>493.624434</ele>
        <time>2022-07-12T14:09:52.844Z</time>
      </trkpt>
      <trkpt lat="48.11459" lon="6.42039">
        <ele>493.945025</ele>
        <time>2022-07-12T14:09:54.815Z</time>
      </trkpt>
      <trkpt lat="48.11464" lon="6.42026">
        <ele>494.26933</ele>
        <time>2022-07-12T14:09:56.824Z</time>
      </trkpt>
      <trkpt lat="48.11469" lon="6.42014">
        <ele>494.580702</ele>
        <time>2022-07-12T14:09:58.851Z</time>
      </trkpt>
      <trkpt lat="48.11474" lon="6.42002">
        <ele>494.884102</ele>
        <time>2022-07-12T14:10:00.828Z</time>
      </trkpt>
      <trkpt lat="48.11478" lon="6.41989">
        <ele>495.182241</ele>
        <time>2022-07-12T14:10:02.845Z</time>
      </trkpt>
      <trkpt lat="48.11482" lon="6.41971">
        <ele>495.486663</ele>
        <time>2022-07-12T14:10:05.824Z</time>
      </trkpt>
      <trkpt lat="48.11484" lon="6.41956">
        <ele>495.746119</ele>
        <time>2022-07-12T14:10:08.837Z</time>
      </trkpt>
      <trkpt lat="48.11486" lon="6.41941">
        <ele>495.99846</ele>
        <time>2022-07-12T14:10:11.858Z</time>
      </trkpt>
      <trkpt lat="48.11487" lon="6.41926">
        <ele>496.244826</ele>
        <time>2022-07-12T14:10:14.858Z</time>
      </trkpt>
      <trkpt lat="48.11489" lon="6.41911">
        <ele>496.497166</ele>
        <time>2022-07-12T14:10:17.862Z</time>
      </trkpt>
      <trkpt lat="48.1149" lon="6.41893">
        <ele>496.782802</ele>
        <time>2022-07-12T14:10:20.825Z</time>
      </trkpt>
      <trkpt lat="48.11491" lon="6.41875">
        <ele>497.091096</ele>
        <time>2022-07-12T14:10:23.821Z</time>
      </trkpt>
      <trkpt lat="48.11491" lon="6.41854">
        <ele>497.425254</ele>
        <time>2022-07-12T14:10:26.809Z</time>
      </trkpt>
      <trkpt lat="48.1149" lon="6.41839">
        <ele>497.668815</ele>
        <time>2022-07-12T14:10:28.847Z</time>
      </trkpt>
      <trkpt lat="48.1149" lon="6.41824">
        <ele>497.919913</ele>
        <time>2022-07-12T14:10:30.821Z</time>
      </trkpt>
      <trkpt lat="48.11489" lon="6.41809">
        <ele>498.169087</ele>
        <time>2022-07-12T14:10:32.837Z</time>
      </trkpt>
      <trkpt lat="48.11488" lon="6.41794">
        <ele>498.416761</ele>
        <time>2022-07-12T14:10:34.827Z</time>
      </trkpt>
      <trkpt lat="48.11488" lon="6.41779">
        <ele>498.665633</ele>
        <time>2022-07-12T14:10:36.837Z</time>
      </trkpt>
      <trkpt lat="48.11489" lon="6.41763">
        <ele>498.913852</ele>
        <time>2022-07-12T14:10:38.825Z</time>
      </trkpt>
      <trkpt lat="48.11491" lon="6.41749">
        <ele>499.158386</ele>
        <time>2022-07-12T14:10:40.824Z</time>
      </trkpt>
      <trkpt lat="48.11494" lon="6.41733">
        <ele>499.422655</ele>
        <time>2022-07-12T14:10:42.829Z</time>
      </trkpt>
      <trkpt lat="48.11498" lon="6.41716">
        <ele>499.484149</ele>
        <time>2022-07-12T14:10:44.839Z</time>
      </trkpt>
      <trkpt lat="48.11502" lon="6.41698">
        <ele>499.220325</ele>
        <time>2022-07-12T14:10:46.854Z</time>
      </trkpt>
      <trkpt lat="48.11508" lon="6.41679">
        <ele>498.940398</ele>
        <time>2022-07-12T14:10:48.880Z</time>
      </trkpt>
      <trkpt lat="48.11514" lon="6.41659">
        <ele>498.641015</ele>
        <time>2022-07-12T14:10:50.848Z</time>
      </trkpt>
      <trkpt lat="48.11521" lon="6.4164">
        <ele>498.348286</ele>
        <time>2022-07-12T14:10:52.840Z</time>
      </trkpt>
      <trkpt lat="48.11527" lon="6.4162">
        <ele>498.050794</ele>
        <time>2022-07-12T14:10:54.807Z</time>
      </trkpt>
      <trkpt lat="48.11533" lon="6.416">
        <ele>497.751497</ele>
        <time>2022-07-12T14:10:56.842Z</time>
      </trkpt>
      <trkpt lat="48.11538" lon="6.41579">
        <ele>497.451062</ele>
        <time>2022-07-12T14:10:58.823Z</time>
      </trkpt>
      <trkpt lat="48.11542" lon="6.41558">
        <ele>497.150284</ele>
        <time>2022-07-12T14:11:00.832Z</time>
      </trkpt>
      <trkpt lat="48.11544" lon="6.41536">
        <ele>496.852954</ele>
        <time>2022-07-12T14:11:02.825Z</time>
      </trkpt>
      <trkpt lat="48.11545" lon="6.41514">
        <ele>496.55099</ele>
        <time>2022-07-12T14:11:04.819Z</time>
      </trkpt>
      <trkpt lat="48.11546" lon="6.41492">
        <ele>496.250237</ele>
        <time>2022-07-12T14:11:06.828Z</time>
      </trkpt>
      <trkpt lat="48.11546" lon="6.4147">
        <ele>495.959272</ele>
        <time>2022-07-12T14:11:08.816Z</time>
      </trkpt>
      <trkpt lat="48.11546" lon="6.41449">
        <ele>495.869315</ele>
        <time>2022-07-12T14:11:10.827Z</time>
      </trkpt>
      <trkpt lat="48.11544" lon="6.41427">
        <ele>495.800702</ele>
        <time>2022-07-12T14:11:12.822Z</time>
      </trkpt>
      <trkpt lat="48.11544" lon="6.41406">
        <ele>495.733795</ele>
        <time>2022-07-12T14:11:14.827Z</time>
      </trkpt>
      <trkpt lat="48.11542" lon="6.41384">
        <ele>495.66545</ele>
        <time>2022-07-12T14:11:16.838Z</time>
      </trkpt>
      <trkpt lat="48.11541" lon="6.41363">
        <ele>495.598929</ele>
        <time>2022-07-12T14:11:18.825Z</time>
      </trkpt>
      <trkpt lat="48.1154" lon="6.41342">
        <ele>495.533899</ele>
        <time>2022-07-12T14:11:20.850Z</time>
      </trkpt>
      <trkpt lat="48.1154" lon="6.41322">
        <ele>495.470217</ele>
        <time>2022-07-12T14:11:22.820Z</time>
      </trkpt>
      <trkpt lat="48.11542" lon="6.41301">
        <ele>495.40285</ele>
        <time>2022-07-12T14:11:24.834Z</time>
      </trkpt>
      <trkpt lat="48.11545" lon="6.41278">
        <ele>495.331715</ele>
        <time>2022-07-12T14:11:26.803Z</time>
      </trkpt>
      <trkpt lat="48.11548" lon="6.41255">
        <ele>495.257763</ele>
        <time>2022-07-12T14:11:28.842Z</time>
      </trkpt>
      <trkpt lat="48.11553" lon="6.41232">
        <ele>495.182528</ele>
        <time>2022-07-12T14:11:30.856Z</time>
      </trkpt>
      <trkpt lat="48.11558" lon="6.41209">
        <ele>495.107444</ele>
        <time>2022-07-12T14:11:32.840Z</time>
      </trkpt>
      <trkpt lat="48.11564" lon="6.41188">
        <ele>495.144774</ele>
        <time>2022-07-12T14:11:34.845Z</time>
      </trkpt>
      <trkpt lat="48.11571" lon="6.41167">
        <ele>495.22751</ele>
        <time>2022-07-12T14:11:36.839Z</time>
      </trkpt>
      <trkpt lat="48.11579" lon="6.41147">
        <ele>495.309821</ele>
        <time>2022-07-12T14:11:38.838Z</time>
      </trkpt>
      <trkpt lat="48.11587" lon="6.41127">
        <ele>495.39121</ele>
        <time>2022-07-12T14:11:40.831Z</time>
      </trkpt>
      <trkpt lat="48.11595" lon="6.41108">
        <ele>495.471282</ele>
        <time>2022-07-12T14:11:42.834Z</time>
      </trkpt>
      <trkpt lat="48.11603" lon="6.4109">
        <ele>495.548976</ele>
        <time>2022-07-12T14:11:44.855Z</time>
      </trkpt>
      <trkpt lat="48.11611" lon="6.41071">
        <ele>495.628439</ele>
        <time>2022-07-12T14:11:46.851Z</time>
      </trkpt>
      <trkpt lat="48.11619" lon="6.41052">
        <ele>495.708269</ele>
        <time>2022-07-12T14:11:48.854Z</time>
      </trkpt>
      <trkpt lat="48.11627" lon="6.41033">
        <ele>495.788739</ele>
        <time>2022-07-12T14:11:50.844Z</time>
      </trkpt>
      <trkpt lat="48.11634" lon="6.41013">
        <ele>495.868364</ele>
        <time>2022-07-12T14:11:52.861Z</time>
      </trkpt>
      <trkpt lat="48.11641" lon="6.40994">
        <ele>495.947462</ele>
        <time>2022-07-12T14:11:54.850Z</time>
      </trkpt>
      <trkpt lat="48.11648" lon="6.40974">
        <ele>496.02585</ele>
        <time>2022-07-12T14:11:56.854Z</time>
      </trkpt>
      <trkpt lat="48.11655" lon="6.40955">
        <ele>496.199773</ele>
        <time>2022-07-12T14:11:58.859Z</time>
      </trkpt>
      <trkpt lat="48.11662" lon="6.40936">
        <ele>496.403418</ele>
        <time>2022-07-12T14:12:00.843Z</time>
      </trkpt>
      <trkpt lat="48.11669" lon="6.40916">
        <ele>496.6032</ele>
        <time>2022-07-12T14:12:02.878Z</time>
      </trkpt>
      <trkpt lat="48.11676" lon="6.40897">
        <ele>496.802982</ele>
        <time>2022-07-12T14:12:04.839Z</time>
      </trkpt>
      <trkpt lat="48.11683" lon="6.40878">
        <ele>497.002916</ele>
        <time>2022-07-12T14:12:06.837Z</time>
      </trkpt>
      <trkpt lat="48.1169" lon="6.40858">
        <ele>497.208818</ele>
        <time>2022-07-12T14:12:08.848Z</time>
      </trkpt>
      <trkpt lat="48.11698" lon="6.40839">
        <ele>497.410859</ele>
        <time>2022-07-12T14:12:10.853Z</time>
      </trkpt>
      <trkpt lat="48.11705" lon="6.4082">
        <ele>497.611647</ele>
        <time>2022-07-12T14:12:12.850Z</time>
      </trkpt>
      <trkpt lat="48.11712" lon="6.40801">
        <ele>497.807204</ele>
        <time>2022-07-12T14:12:14.836Z</time>
      </trkpt>
      <trkpt lat="48.11719" lon="6.40783">
        <ele>497.999812</ele>
        <time>2022-07-12T14:12:16.847Z</time>
      </trkpt>
      <trkpt lat="48.11726" lon="6.40765">
        <ele>498.188471</ele>
        <time>2022-07-12T14:12:18.846Z</time>
      </trkpt>
      <trkpt lat="48.11733" lon="6.40747">
        <ele>498.376344</ele>
        <time>2022-07-12T14:12:20.833Z</time>
      </trkpt>
      <trkpt lat="48.1174" lon="6.4073">
        <ele>498.717887</ele>
        <time>2022-07-12T14:12:22.862Z</time>
      </trkpt>
      <trkpt lat="48.11748" lon="6.40712">
        <ele>499.3899</ele>
        <time>2022-07-12T14:12:24.847Z</time>
      </trkpt>
      <trkpt lat="48.11755" lon="6.40694">
        <ele>500.059194</ele>
        <time>2022-07-12T14:12:26.834Z</time>
      </trkpt>
      <trkpt lat="48.11763" lon="6.40677">
        <ele>500.728343</ele>
        <time>2022-07-12T14:12:28.832Z</time>
      </trkpt>
      <trkpt lat="48.1177" lon="6.40659">
        <ele>501.38736</ele>
        <time>2022-07-12T14:12:30.834Z</time>
      </trkpt>
      <trkpt lat="48.11777" lon="6.40643">
        <ele>502.005788</ele>
        <time>2022-07-12T14:12:32.850Z</time>
      </trkpt>
      <trkpt lat="48.11782" lon="6.40628">
        <ele>502.563889</ele>
        <time>2022-07-12T14:12:34.826Z</time>
      </trkpt>
      <trkpt lat="48.11784" lon="6.40611">
        <ele>503.097804</ele>
        <time>2022-07-12T14:12:36.831Z</time>
      </trkpt>
      <trkpt lat="48.11786" lon="6.40594">
        <ele>503.644695</ele>
        <time>2022-07-12T14:12:38.829Z</time>
      </trkpt>
      <trkpt lat="48.11789" lon="6.40579">
        <ele>504.164126</ele>
        <time>2022-07-12T14:12:40.850Z</time>
      </trkpt>
      <trkpt lat="48.11789" lon="6.40563">
        <ele>504.673772</ele>
        <time>2022-07-12T14:12:42.850Z</time>
      </trkpt>
      <trkpt lat="48.1179" lon="6.40547">
        <ele>505.166933</ele>
        <time>2022-07-12T14:12:44.835Z</time>
      </trkpt>
      <trkpt lat="48.11796" lon="6.40535">
        <ele>505.654706</ele>
        <time>2022-07-12T14:12:47.831Z</time>
      </trkpt>
      <trkpt lat="48.11804" lon="6.40527">
        <ele>506.138173</ele>
        <time>2022-07-12T14:12:51.820Z</time>
      </trkpt>
      <trkpt lat="48.11813" lon="6.40527">
        <ele>506.579856</ele>
        <time>2022-07-12T14:12:54.829Z</time>
      </trkpt>
      <trkpt lat="48.11824" lon="6.40522">
        <ele>507.120639</ele>
        <time>2022-07-12T14:12:57.821Z</time>
      </trkpt>
      <trkpt lat="48.1183" lon="6.40505">
        <ele>507.11033</ele>
        <time>2022-07-12T14:13:00.821Z</time>
      </trkpt>
      <trkpt lat="48.11829" lon="6.40485">
        <ele>507.08097</ele>
        <time>2022-07-12T14:13:03.843Z</time>
      </trkpt>
      <trkpt lat="48.11825" lon="6.40469">
        <ele>507.055263</ele>
        <time>2022-07-12T14:13:06.821Z</time>
      </trkpt>
      <trkpt lat="48.11818" lon="6.40453">
        <ele>507.028963</ele>
        <time>2022-07-12T14:13:09.853Z</time>
      </trkpt>
      <trkpt lat="48.11808" lon="6.40441">
        <ele>506.999869</ele>
        <time>2022-07-12T14:13:12.808Z</time>
      </trkpt>
      <trkpt lat="48.118" lon="6.40433">
        <ele>506.979167</ele>
        <time>2022-07-12T14:13:14.822Z</time>
      </trkpt>
      <trkpt lat="48.11791" lon="6.40427">
        <ele>506.958862</ele>
        <time>2022-07-12T14:13:16.825Z</time>
      </trkpt>
      <trkpt lat="48.11781" lon="6.40421">
        <ele>506.93476</ele>
        <time>2022-07-12T14:13:18.828Z</time>
      </trkpt>
      <trkpt lat="48.1177" lon="6.40416">
        <ele>506.908686</ele>
        <time>2022-07-12T14:13:20.828Z</time>
      </trkpt>
      <trkpt lat="48.11758" lon="6.40413">
        <ele>506.882777</ele>
        <time>2022-07-12T14:13:22.797Z</time>
      </trkpt>
      <trkpt lat="48.11746" lon="6.40408">
        <ele>506.855574</ele>
        <time>2022-07-12T14:13:24.833Z</time>
      </trkpt>
      <trkpt lat="48.11733" lon="6.40403">
        <ele>506.825231</ele>
        <time>2022-07-12T14:13:26.837Z</time>
      </trkpt>
      <trkpt lat="48.11718" lon="6.40393">
        <ele>506.791117</ele>
        <time>2022-07-12T14:13:28.823Z</time>
      </trkpt>
      <trkpt lat="48.11704" lon="6.40381">
        <ele>506.754948</ele>
        <time>2022-07-12T14:13:30.812Z</time>
      </trkpt>
      <trkpt lat="48.11688" lon="6.40372">
        <ele>505.943764</ele>
        <time>2022-07-12T14:13:32.815Z</time>
      </trkpt>
      <trkpt lat="48.11673" lon="6.40363">
        <ele>504.855302</ele>
        <time>2022-07-12T14:13:34.821Z</time>
      </trkpt>
      <trkpt lat="48.11658" lon="6.40353">
        <ele>503.751775</ele>
        <time>2022-07-12T14:13:36.844Z</time>
      </trkpt>
      <trkpt lat="48.11642" lon="6.40343">
        <ele>502.626865</ele>
        <time>2022-07-12T14:13:38.835Z</time>
      </trkpt>
      <trkpt lat="48.11634" lon="6.40337">
        <ele>502.026169</ele>
        <time>2022-07-12T14:13:39.820Z</time>
      </trkpt>
      <trkpt lat="48.11625" lon="6.4033">
        <ele>501.368258</ele>
        <time>2022-07-12T14:13:40.837Z</time>
      </trkpt>
      <trkpt lat="48.11615" lon="6.40323">
        <ele>500.676927</ele>
        <time>2022-07-12T14:13:41.834Z</time>
      </trkpt>
      <trkpt lat="48.11606" lon="6.40316">
        <ele>500.009264</ele>
        <time>2022-07-12T14:13:42.830Z</time>
      </trkpt>
      <trkpt lat="48.11597" lon="6.40309">
        <ele>499.345572</ele>
        <time>2022-07-12T14:13:43.841Z</time>
      </trkpt>
      <trkpt lat="48.11589" lon="6.40301">
        <ele>498.682184</ele>
        <time>2022-07-12T14:13:44.818Z</time>
      </trkpt>
      <trkpt lat="48.11582" lon="6.40291">
        <ele>498.04815</ele>
        <time>2022-07-12T14:13:45.833Z</time>
      </trkpt>
      <trkpt lat="48.11576" lon="6.4028">
        <ele>497.395445</ele>
        <time>2022-07-12T14:13:46.843Z</time>
      </trkpt>
      <trkpt lat="48.11565" lon="6.40259">
        <ele>496.215167</ele>
        <time>2022-07-12T14:13:48.829Z</time>
      </trkpt>
      <trkpt lat="48.11555" lon="6.40239">
        <ele>495.106823</ele>
        <time>2022-07-12T14:13:50.853Z</time>
      </trkpt>
      <trkpt lat="48.11545" lon="6.40219">
        <ele>495.056786</ele>
        <time>2022-07-12T14:13:52.840Z</time>
      </trkpt>
      <trkpt lat="48.11546" lon="6.40198">
        <ele>495.264525</ele>
        <time>2022-07-12T14:13:54.830Z</time>
      </trkpt>
      <trkpt lat="48.11555" lon="6.4018">
        <ele>495.49216</ele>
        <time>2022-07-12T14:13:56.825Z</time>
      </trkpt>
      <trkpt lat="48.11563" lon="6.40163">
        <ele>495.70287</ele>
        <time>2022-07-12T14:13:58.835Z</time>
      </trkpt>
      <trkpt lat="48.11571" lon="6.40147">
        <ele>495.907647</ele>
        <time>2022-07-12T14:14:00.849Z</time>
      </trkpt>
      <trkpt lat="48.11579" lon="6.4013">
        <ele>496.113128</ele>
        <time>2022-07-12T14:14:02.846Z</time>
      </trkpt>
      <trkpt lat="48.11585" lon="6.40115">
        <ele>496.286835</ele>
        <time>2022-07-12T14:14:04.832Z</time>
      </trkpt>
      <trkpt lat="48.11592" lon="6.401">
        <ele>496.475513</ele>
        <time>2022-07-12T14:14:06.844Z</time>
      </trkpt>
      <trkpt lat="48.11598" lon="6.40085">
        <ele>496.650012</ele>
        <time>2022-07-12T14:14:08.836Z</time>
      </trkpt>
      <trkpt lat="48.11603" lon="6.40074">
        <ele>496.78536</ele>
        <time>2022-07-12T14:14:10.837Z</time>
      </trkpt>
      <trkpt lat="48.11615" lon="6.40076">
        <ele>496.964807</ele>
        <time>2022-07-12T14:14:13.829Z</time>
      </trkpt>
      <trkpt lat="48.11616" lon="6.40092">
        <ele>497.125684</ele>
        <time>2022-07-12T14:14:16.834Z</time>
      </trkpt>
      <trkpt lat="48.11615" lon="6.40113">
        <ele>497.334821</ele>
        <time>2022-07-12T14:14:19.843Z</time>
      </trkpt>
      <trkpt lat="48.11613" lon="6.4013">
        <ele>497.510653</ele>
        <time>2022-07-12T14:14:21.815Z</time>
      </trkpt>
      <trkpt lat="48.11606" lon="6.40146">
        <ele>497.934643</ele>
        <time>2022-07-12T14:14:23.822Z</time>
      </trkpt>
      <trkpt lat="48.116" lon="6.40162">
        <ele>498.535213</ele>
        <time>2022-07-12T14:14:25.827Z</time>
      </trkpt>
      <trkpt lat="48.11595" lon="6.4018">
        <ele>499.143122</ele>
        <time>2022-07-12T14:14:27.826Z</time>
      </trkpt>
      <trkpt lat="48.11599" lon="6.40198">
        <ele>499.739749</ele>
        <time>2022-07-12T14:14:29.828Z</time>
      </trkpt>
      <trkpt lat="48.11605" lon="6.40209">
        <ele>500.2299</ele>
        <time>2022-07-12T14:14:31.828Z</time>
      </trkpt>
      <trkpt lat="48.11611" lon="6.40224">
        <ele>500.74955</ele>
        <time>2022-07-12T14:14:33.836Z</time>
      </trkpt>
      <trkpt lat="48.11618" lon="6.40239">
        <ele>501.353743</ele>
        <time>2022-07-12T14:14:36.835Z</time>
      </trkpt>
      <trkpt lat="48.11627" lon="6.40245">
        <ele>501.825347</ele>
        <time>2022-07-12T14:14:39.827Z</time>
      </trkpt>
      <trkpt lat="48.11638" lon="6.40235">
        <ele>502.41521</ele>
        <time>2022-07-12T14:14:42.826Z</time>
      </trkpt>
      <trkpt lat="48.11644" lon="6.40225">
        <ele>502.851131</ele>
        <time>2022-07-12T14:14:44.829Z</time>
      </trkpt>
      <trkpt lat="48.11651" lon="6.40213">
        <ele>503.357137</ele>
        <time>2022-07-12T14:14:46.847Z</time>
      </trkpt>
      <trkpt lat="48.11658" lon="6.40198">
        <ele>503.950202</ele>
        <time>2022-07-12T14:14:49.840Z</time>
      </trkpt>
      <trkpt lat="48.11665" lon="6.40181">
        <ele>504.570035</ele>
        <time>2022-07-12T14:14:52.845Z</time>
      </trkpt>
      <trkpt lat="48.11669" lon="6.40168">
        <ele>505.025672</ele>
        <time>2022-07-12T14:14:54.819Z</time>
      </trkpt>
      <trkpt lat="48.11676" lon="6.40156">
        <ele>505.526169</ele>
        <time>2022-07-12T14:14:56.816Z</time>
      </trkpt>
      <trkpt lat="48.11682" lon="6.40145">
        <ele>506.00365</ele>
        <time>2022-07-12T14:14:58.822Z</time>
      </trkpt>
      <trkpt lat="48.11688" lon="6.40134">
        <ele>505.810386</ele>
        <time>2022-07-12T14:15:00.829Z</time>
      </trkpt>
      <trkpt lat="48.11693" lon="6.40121">
        <ele>505.31448</ele>
        <time>2022-07-12T14:15:02.838Z</time>
      </trkpt>
      <trkpt lat="48.11699" lon="6.40108">
        <ele>504.784148</ele>
        <time>2022-07-12T14:15:04.834Z</time>
      </trkpt>
      <trkpt lat="48.11706" lon="6.40098">
        <ele>504.262628</ele>
        <time>2022-07-12T14:15:06.835Z</time>
      </trkpt>
      <trkpt lat="48.11715" lon="6.40092">
        <ele>503.758302</ele>
        <time>2022-07-12T14:15:08.858Z</time>
      </trkpt>
      <trkpt lat="48.11726" lon="6.40086">
        <ele>503.138247</ele>
        <time>2022-07-12T14:15:11.838Z</time>
      </trkpt>
      <trkpt lat="48.11737" lon="6.40081">
        <ele>502.57074</ele>
        <time>2022-07-12T14:15:14.822Z</time>
      </trkpt>
      <trkpt lat="48.11745" lon="6.4007">
        <ele>501.97129</ele>
        <time>2022-07-12T14:15:16.841Z</time>
      </trkpt>
      <trkpt lat="48.11744" lon="6.40054">
        <ele>501.433052</ele>
        <time>2022-07-12T14:15:19.833Z</time>
      </trkpt>
      <trkpt lat="48.11732" lon="6.40045">
        <ele>500.72934</ele>
        <time>2022-07-12T14:15:21.815Z</time>
      </trkpt>
      <trkpt lat="48.1172" lon="6.40038">
        <ele>500.056665</ele>
        <time>2022-07-12T14:15:23.850Z</time>
      </trkpt>
      <trkpt lat="48.11708" lon="6.40029">
        <ele>499.359111</ele>
        <time>2022-07-12T14:15:25.834Z</time>
      </trkpt>
      <trkpt lat="48.11696" lon="6.40015">
        <ele>498.575994</ele>
        <time>2022-07-12T14:15:27.821Z</time>
      </trkpt>
      <trkpt lat="48.11688" lon="6.39999">
        <ele>497.848049</ele>
        <time>2022-07-12T14:15:29.825Z</time>
      </trkpt>
      <trkpt lat="48.11677" lon="6.39985">
        <ele>497.10961</ele>
        <time>2022-07-12T14:15:31.835Z</time>
      </trkpt>
      <trkpt lat="48.11666" lon="6.39974">
        <ele>496.569545</ele>
        <time>2022-07-12T14:15:33.836Z</time>
      </trkpt>
      <trkpt lat="48.11657" lon="6.39967">
        <ele>496.26137</ele>
        <time>2022-07-12T14:15:35.820Z</time>
      </trkpt>
      <trkpt lat="48.11656" lon="6.39953">
        <ele>495.95797</ele>
        <time>2022-07-12T14:15:38.839Z</time>
      </trkpt>
      <trkpt lat="48.11661" lon="6.39937">
        <ele>495.576463</ele>
        <time>2022-07-12T14:15:41.828Z</time>
      </trkpt>
      <trkpt lat="48.11669" lon="6.39927">
        <ele>495.225462</ele>
        <time>2022-07-12T14:15:44.872Z</time>
      </trkpt>
      <trkpt lat="48.11677" lon="6.39917">
        <ele>494.893496</ele>
        <time>2022-07-12T14:15:48.820Z</time>
      </trkpt>
      <trkpt lat="48.11686" lon="6.3991">
        <ele>494.559595</ele>
        <time>2022-07-12T14:15:51.843Z</time>
      </trkpt>
      <trkpt lat="48.11695" lon="6.399">
        <ele>494.222452</ele>
        <time>2022-07-12T14:15:55.840Z</time>
      </trkpt>
      <trkpt lat="48.11704" lon="6.39899">
        <ele>493.914136</ele>
        <time>2022-07-12T14:15:59.838Z</time>
      </trkpt>
      <trkpt lat="48.11715" lon="6.39892">
        <ele>493.523456</ele>
        <time>2022-07-12T14:16:03.835Z</time>
      </trkpt>
      <trkpt lat="48.11724" lon="6.39879">
        <ele>493.117588</ele>
        <time>2022-07-12T14:16:06.865Z</time>
      </trkpt>
      <trkpt lat="48.11733" lon="6.39867">
        <ele>492.727262</ele>
        <time>2022-07-12T14:16:08.830Z</time>
      </trkpt>
      <trkpt lat="48.11742" lon="6.3986">
        <ele>492.412093</ele>
        <time>2022-07-12T14:16:10.828Z</time>
      </trkpt>
      <trkpt lat="48.11751" lon="6.39848">
        <ele>492.021767</ele>
        <time>2022-07-12T14:16:13.848Z</time>
      </trkpt>
      <trkpt lat="48.11753" lon="6.39834">
        <ele>491.717276</ele>
        <time>2022-07-12T14:16:16.839Z</time>
      </trkpt>
      <trkpt lat="48.11754" lon="6.39815">
        <ele>491.312164</ele>
        <time>2022-07-12T14:16:19.846Z</time>
      </trkpt>
      <trkpt lat="48.11755" lon="6.39801">
        <ele>491.041872</ele>
        <time>2022-07-12T14:16:21.846Z</time>
      </trkpt>
      <trkpt lat="48.11756" lon="6.39784">
        <ele>491.828451</ele>
        <time>2022-07-12T14:16:23.822Z</time>
      </trkpt>
      <trkpt lat="48.11757" lon="6.39767">
        <ele>492.607881</ele>
        <time>2022-07-12T14:16:25.840Z</time>
      </trkpt>
      <trkpt lat="48.11761" lon="6.39751">
        <ele>493.392613</ele>
        <time>2022-07-12T14:16:28.848Z</time>
      </trkpt>
      <trkpt lat="48.11771" lon="6.39747">
        <ele>494.100319</ele>
        <time>2022-07-12T14:16:31.833Z</time>
      </trkpt>
      <trkpt lat="48.11781" lon="6.39746">
        <ele>494.768102</ele>
        <time>2022-07-12T14:16:34.869Z</time>
      </trkpt>
      <trkpt lat="48.1179" lon="6.39742">
        <ele>495.395369</ele>
        <time>2022-07-12T14:16:37.821Z</time>
      </trkpt>
      <trkpt lat="48.11797" lon="6.39733">
        <ele>496.041347</ele>
        <time>2022-07-12T14:16:40.821Z</time>
      </trkpt>
      <trkpt lat="48.11803" lon="6.39721">
        <ele>496.693198</ele>
        <time>2022-07-12T14:16:43.812Z</time>
      </trkpt>
      <trkpt lat="48.11808" lon="6.3971">
        <ele>497.317675</ele>
        <time>2022-07-12T14:16:46.820Z</time>
      </trkpt>
      <trkpt lat="48.11814" lon="6.39699">
        <ele>497.963995</ele>
        <time>2022-07-12T14:16:49.829Z</time>
      </trkpt>
      <trkpt lat="48.11819" lon="6.39687">
        <ele>498.604493</ele>
        <time>2022-07-12T14:16:52.830Z</time>
      </trkpt>
      <trkpt lat="48.11827" lon="6.39678">
        <ele>499.281152</ele>
        <time>2022-07-12T14:16:55.826Z</time>
      </trkpt>
      <trkpt lat="48.11836" lon="6.3967">
        <ele>499.993464</ele>
        <time>2022-07-12T14:16:58.824Z</time>
      </trkpt>
      <trkpt lat="48.11845" lon="6.39664">
        <ele>500.66583</ele>
        <time>2022-07-12T14:17:01.836Z</time>
      </trkpt>
      <trkpt lat="48.11854" lon="6.39658">
        <ele>501.330382</ele>
        <time>2022-07-12T14:17:04.821Z</time>
      </trkpt>
      <trkpt lat="48.11863" lon="6.39653">
        <ele>501.987424</ele>
        <time>2022-07-12T14:17:07.825Z</time>
      </trkpt>
      <trkpt lat="48.11872" lon="6.39646">
        <ele>502.679759</ele>
        <time>2022-07-12T14:17:10.828Z</time>
      </trkpt>
      <trkpt lat="48.11882" lon="6.39638">
        <ele>503.160187</ele>
        <time>2022-07-12T14:17:13.842Z</time>
      </trkpt>
      <trkpt lat="48.11893" lon="6.3963">
        <ele>502.683769</ele>
        <time>2022-07-12T14:17:16.853Z</time>
      </trkpt>
      <trkpt lat="48.11901" lon="6.39625">
        <ele>502.33622</ele>
        <time>2022-07-12T14:17:18.854Z</time>
      </trkpt>
      <trkpt lat="48.1191" lon="6.39621">
        <ele>501.976167</ele>
        <time>2022-07-12T14:17:20.847Z</time>
      </trkpt>
      <trkpt lat="48.11919" lon="6.39617">
        <ele>501.611225</ele>
        <time>2022-07-12T14:17:22.841Z</time>
      </trkpt>
      <trkpt lat="48.11929" lon="6.39613">
        <ele>501.226386</ele>
        <time>2022-07-12T14:17:24.853Z</time>
      </trkpt>
      <trkpt lat="48.1194" lon="6.3961">
        <ele>500.800062</ele>
        <time>2022-07-12T14:17:26.845Z</time>
      </trkpt>
      <trkpt lat="48.11952" lon="6.39606">
        <ele>500.333806</ele>
        <time>2022-07-12T14:17:28.856Z</time>
      </trkpt>
      <trkpt lat="48.11965" lon="6.39602">
        <ele>499.813553</ele>
        <time>2022-07-12T14:17:30.864Z</time>
      </trkpt>
      <trkpt lat="48.11979" lon="6.39598">
        <ele>499.249149</ele>
        <time>2022-07-12T14:17:32.837Z</time>
      </trkpt>
      <trkpt lat="48.11995" lon="6.39595">
        <ele>498.648891</ele>
        <time>2022-07-12T14:17:34.833Z</time>
      </trkpt>
      <trkpt lat="48.1201" lon="6.39593">
        <ele>498.03613</ele>
        <time>2022-07-12T14:17:36.849Z</time>
      </trkpt>
      <trkpt lat="48.12023" lon="6.39592">
        <ele>497.552416</ele>
        <time>2022-07-12T14:17:38.847Z</time>
      </trkpt>
      <trkpt lat="48.12032" lon="6.39585">
        <ele>497.150348</ele>
        <time>2022-07-12T14:17:41.818Z</time>
      </trkpt>
      <trkpt lat="48.12035" lon="6.39564">
        <ele>496.598836</ele>
        <time>2022-07-12T14:17:44.841Z</time>
      </trkpt>
      <trkpt lat="48.12032" lon="6.39546">
        <ele>496.216954</ele>
        <time>2022-07-12T14:17:46.847Z</time>
      </trkpt>
      <trkpt lat="48.12026" lon="6.39528">
        <ele>495.962336</ele>
        <time>2022-07-12T14:17:48.810Z</time>
      </trkpt>
      <trkpt lat="48.1202" lon="6.39509">
        <ele>495.693339</ele>
        <time>2022-07-12T14:17:50.831Z</time>
      </trkpt>
      <trkpt lat="48.12013" lon="6.39489">
        <ele>495.408361</ele>
        <time>2022-07-12T14:17:52.834Z</time>
      </trkpt>
      <trkpt lat="48.12005" lon="6.39469">
        <ele>495.115168</ele>
        <time>2022-07-12T14:17:54.840Z</time>
      </trkpt>
      <trkpt lat="48.11998" lon="6.39448">
        <ele>494.813453</ele>
        <time>2022-07-12T14:17:56.844Z</time>
      </trkpt>
      <trkpt lat="48.11992" lon="6.39429">
        <ele>494.553141</ele>
        <time>2022-07-12T14:17:58.844Z</time>
      </trkpt>
      <trkpt lat="48.11988" lon="6.39409">
        <ele>494.284198</ele>
        <time>2022-07-12T14:18:00.842Z</time>
      </trkpt>
      <trkpt lat="48.11985" lon="6.39388">
        <ele>494.008942</ele>
        <time>2022-07-12T14:18:02.848Z</time>
      </trkpt>
      <trkpt lat="48.11986" lon="6.39366">
        <ele>493.730985</ele>
        <time>2022-07-12T14:18:04.822Z</time>
      </trkpt>
      <trkpt lat="48.11987" lon="6.39344">
        <ele>493.45393</ele>
        <time>2022-07-12T14:18:06.821Z</time>
      </trkpt>
      <trkpt lat="48.1199" lon="6.39323">
        <ele>493.176565</ele>
        <time>2022-07-12T14:18:08.824Z</time>
      </trkpt>
      <trkpt lat="48.11996" lon="6.39302">
        <ele>492.89414</ele>
        <time>2022-07-12T14:18:10.831Z</time>
      </trkpt>
      <trkpt lat="48.12003" lon="6.39282">
        <ele>492.924955</ele>
        <time>2022-07-12T14:18:12.832Z</time>
      </trkpt>
      <trkpt lat="48.12009" lon="6.39262">
        <ele>492.956646</ele>
        <time>2022-07-12T14:18:14.825Z</time>
      </trkpt>
      <trkpt lat="48.12015" lon="6.39243">
        <ele>492.987578</ele>
        <time>2022-07-12T14:18:16.828Z</time>
      </trkpt>
      <trkpt lat="48.12022" lon="6.39224">
        <ele>493.018223</ele>
        <time>2022-07-12T14:18:18.851Z</time>
      </trkpt>
      <trkpt lat="48.12028" lon="6.39206">
        <ele>493.046854</ele>
        <time>2022-07-12T14:18:20.842Z</time>
      </trkpt>
      <trkpt lat="48.12033" lon="6.39187">
        <ele>493.076372</ele>
        <time>2022-07-12T14:18:22.842Z</time>
      </trkpt>
      <trkpt lat="48.1204" lon="6.39167">
        <ele>493.108778</ele>
        <time>2022-07-12T14:18:24.828Z</time>
      </trkpt>
      <trkpt lat="48.12045" lon="6.39146">
        <ele>493.140094</ele>
        <time>2022-07-12T14:18:26.844Z</time>
      </trkpt>
      <trkpt lat="48.12053" lon="6.39129">
        <ele>493.170649</ele>
        <time>2022-07-12T14:18:28.832Z</time>
      </trkpt>
      <trkpt lat="48.12063" lon="6.39112">
        <ele>493.201827</ele>
        <time>2022-07-12T14:18:30.835Z</time>
      </trkpt>
      <trkpt lat="48.12073" lon="6.39098">
        <ele>493.230923</ele>
        <time>2022-07-12T14:18:32.854Z</time>
      </trkpt>
      <trkpt lat="48.12083" lon="6.39084">
        <ele>493.260645</ele>
        <time>2022-07-12T14:18:34.844Z</time>
      </trkpt>
      <trkpt lat="48.12094" lon="6.39071">
        <ele>493.275832</ele>
        <time>2022-07-12T14:18:36.818Z</time>
      </trkpt>
      <trkpt lat="48.12104" lon="6.39057">
        <ele>493.269479</ele>
        <time>2022-07-12T14:18:38.824Z</time>
      </trkpt>
      <trkpt lat="48.12115" lon="6.39043">
        <ele>493.2632</ele>
        <time>2022-07-12T14:18:40.844Z</time>
      </trkpt>
      <trkpt lat="48.12126" lon="6.39033">
        <ele>493.257084</ele>
        <time>2022-07-12T14:18:42.836Z</time>
      </trkpt>
      <trkpt lat="48.12139" lon="6.39027">
        <ele>493.251181</ele>
        <time>2022-07-12T14:18:44.822Z</time>
      </trkpt>
      <trkpt lat="48.12151" lon="6.39021">
        <ele>493.245346</ele>
        <time>2022-07-12T14:18:46.826Z</time>
      </trkpt>
      <trkpt lat="48.12163" lon="6.39015">
        <ele>493.239701</ele>
        <time>2022-07-12T14:18:48.865Z</time>
      </trkpt>
      <trkpt lat="48.12174" lon="6.39009">
        <ele>493.234271</ele>
        <time>2022-07-12T14:18:50.844Z</time>
      </trkpt>
      <trkpt lat="48.12185" lon="6.39004">
        <ele>493.229012</ele>
        <time>2022-07-12T14:18:52.822Z</time>
      </trkpt>
      <trkpt lat="48.12196" lon="6.38998">
        <ele>493.223877</ele>
        <time>2022-07-12T14:18:54.826Z</time>
      </trkpt>
      <trkpt lat="48.12205" lon="6.38991">
        <ele>493.219361</ele>
        <time>2022-07-12T14:18:56.824Z</time>
      </trkpt>
      <trkpt lat="48.12215" lon="6.38986">
        <ele>493.214485</ele>
        <time>2022-07-12T14:18:58.833Z</time>
      </trkpt>
      <trkpt lat="48.12225" lon="6.38973">
        <ele>493.208527</ele>
        <time>2022-07-12T14:19:00.827Z</time>
      </trkpt>
      <trkpt lat="48.12232" lon="6.3896">
        <ele>493.203485</ele>
        <time>2022-07-12T14:19:02.811Z</time>
      </trkpt>
      <trkpt lat="48.12238" lon="6.38946">
        <ele>493.198442</ele>
        <time>2022-07-12T14:19:05.825Z</time>
      </trkpt>
      <trkpt lat="48.12249" lon="6.38955">
        <ele>492.832877</ele>
        <time>2022-07-12T14:19:08.837Z</time>
      </trkpt>
      <trkpt lat="48.12261" lon="6.38958">
        <ele>492.374688</ele>
        <time>2022-07-12T14:19:10.837Z</time>
      </trkpt>
      <trkpt lat="48.12275" lon="6.38962">
        <ele>491.854956</ele>
        <time>2022-07-12T14:19:12.821Z</time>
      </trkpt>
      <trkpt lat="48.12288" lon="6.38967">
        <ele>491.313425</ele>
        <time>2022-07-12T14:19:14.846Z</time>
      </trkpt>
      <trkpt lat="48.12299" lon="6.38972">
        <ele>490.898407</ele>
        <time>2022-07-12T14:19:16.823Z</time>
      </trkpt>
      <trkpt lat="48.1231" lon="6.38977">
        <ele>490.434811</ele>
        <time>2022-07-12T14:19:18.819Z</time>
      </trkpt>
      <trkpt lat="48.12322" lon="6.38984">
        <ele>489.962303</ele>
        <time>2022-07-12T14:19:20.828Z</time>
      </trkpt>
      <trkpt lat="48.12332" lon="6.38991">
        <ele>489.510914</ele>
        <time>2022-07-12T14:19:22.823Z</time>
      </trkpt>
      <trkpt lat="48.12343" lon="6.38997">
        <ele>489.077524</ele>
        <time>2022-07-12T14:19:24.827Z</time>
      </trkpt>
      <trkpt lat="48.12355" lon="6.39001">
        <ele>488.595811</ele>
        <time>2022-07-12T14:19:26.823Z</time>
      </trkpt>
      <trkpt lat="48.12368" lon="6.39003">
        <ele>488.123048</ele>
        <time>2022-07-12T14:19:28.827Z</time>
      </trkpt>
      <trkpt lat="48.12381" lon="6.39012">
        <ele>487.558074</ele>
        <time>2022-07-12T14:19:30.819Z</time>
      </trkpt>
      <trkpt lat="48.12395" lon="6.3902">
        <ele>486.981821</ele>
        <time>2022-07-12T14:19:32.838Z</time>
      </trkpt>
      <trkpt lat="48.12406" lon="6.39027">
        <ele>486.526229</ele>
        <time>2022-07-12T14:19:34.829Z</time>
      </trkpt>
      <trkpt lat="48.12417" lon="6.39033">
        <ele>486.185906</ele>
        <time>2022-07-12T14:19:36.838Z</time>
      </trkpt>
      <trkpt lat="48.12427" lon="6.3904">
        <ele>485.940424</ele>
        <time>2022-07-12T14:19:38.829Z</time>
      </trkpt>
      <trkpt lat="48.1244" lon="6.39046">
        <ele>485.649965</ele>
        <time>2022-07-12T14:19:40.818Z</time>
      </trkpt>
      <trkpt lat="48.12453" lon="6.39053">
        <ele>485.366816</ele>
        <time>2022-07-12T14:19:42.833Z</time>
      </trkpt>
      <trkpt lat="48.12464" lon="6.39059">
        <ele>485.110388</ele>
        <time>2022-07-12T14:19:44.817Z</time>
      </trkpt>
      <trkpt lat="48.12478" lon="6.39068">
        <ele>484.773458</ele>
        <time>2022-07-12T14:19:46.814Z</time>
      </trkpt>
      <trkpt lat="48.12492" lon="6.39077">
        <ele>484.439927</ele>
        <time>2022-07-12T14:19:48.833Z</time>
      </trkpt>
      <trkpt lat="48.12508" lon="6.39085">
        <ele>484.085833</ele>
        <time>2022-07-12T14:19:50.828Z</time>
      </trkpt>
      <trkpt lat="48.12521" lon="6.3909">
        <ele>483.793335</ele>
        <time>2022-07-12T14:19:52.838Z</time>
      </trkpt>
      <trkpt lat="48.12535" lon="6.39099">
        <ele>483.468014</ele>
        <time>2022-07-12T14:19:54.827Z</time>
      </trkpt>
      <trkpt lat="48.12548" lon="6.39106">
        <ele>483.167686</ele>
        <time>2022-07-12T14:19:56.826Z</time>
      </trkpt>
      <trkpt lat="48.12559" lon="6.39116">
        <ele>482.888314</ele>
        <time>2022-07-12T14:19:58.846Z</time>
      </trkpt>
      <trkpt lat="48.12569" lon="6.39129">
        <ele>482.606393</ele>
        <time>2022-07-12T14:20:00.826Z</time>
      </trkpt>
      <trkpt lat="48.12575" lon="6.39142">
        <ele>482.433288</ele>
        <time>2022-07-12T14:20:02.811Z</time>
      </trkpt>
      <trkpt lat="48.12593" lon="6.39164">
        <ele>482.413634</ele>
        <time>2022-07-12T14:20:23.820Z</time>
      </trkpt>
      <trkpt lat="48.12604" lon="6.39164">
        <ele>482.403831</ele>
        <time>2022-07-12T14:20:27.846Z</time>
      </trkpt>
      <trkpt lat="48.12612" lon="6.39152">
        <ele>482.394443</ele>
        <time>2022-07-12T14:20:29.845Z</time>
      </trkpt>
      <trkpt lat="48.12619" lon="6.39137">
        <ele>482.383804</ele>
        <time>2022-07-12T14:20:31.828Z</time>
      </trkpt>
      <trkpt lat="48.12625" lon="6.39122">
        <ele>482.373724</ele>
        <time>2022-07-12T14:20:33.848Z</time>
      </trkpt>
      <trkpt lat="48.1263" lon="6.39105">
        <ele>482.363258</ele>
        <time>2022-07-12T14:20:35.830Z</time>
      </trkpt>
      <trkpt lat="48.12633" lon="6.39087">
        <ele>482.352283</ele>
        <time>2022-07-12T14:20:37.840Z</time>
      </trkpt>
      <trkpt lat="48.12635" lon="6.3907">
        <ele>482.342509</ele>
        <time>2022-07-12T14:20:39.815Z</time>
      </trkpt>
      <trkpt lat="48.12636" lon="6.39054">
        <ele>482.333274</ele>
        <time>2022-07-12T14:20:41.818Z</time>
      </trkpt>
      <trkpt lat="48.12637" lon="6.3904">
        <ele>482.3251</ele>
        <time>2022-07-12T14:20:43.829Z</time>
      </trkpt>
      <trkpt lat="48.12638" lon="6.39024">
        <ele>482.316263</ele>
        <time>2022-07-12T14:20:45.832Z</time>
      </trkpt>
      <trkpt lat="48.12639" lon="6.39009">
        <ele>482.307281</ele>
        <time>2022-07-12T14:20:47.814Z</time>
      </trkpt>
      <trkpt lat="48.12644" lon="6.38995">
        <ele>482.298209</ele>
        <time>2022-07-12T14:20:50.828Z</time>
      </trkpt>
      <trkpt lat="48.12656" lon="6.38991">
        <ele>482.288064</ele>
        <time>2022-07-12T14:20:53.820Z</time>
      </trkpt>
      <trkpt lat="48.12666" lon="6.38981">
        <ele>482.393971</ele>
        <time>2022-07-12T14:20:56.815Z</time>
      </trkpt>
      <trkpt lat="48.12673" lon="6.38972">
        <ele>482.652061</ele>
        <time>2022-07-12T14:20:58.827Z</time>
      </trkpt>
      <trkpt lat="48.12681" lon="6.38964">
        <ele>482.941036</ele>
        <time>2022-07-12T14:21:00.857Z</time>
      </trkpt>
      <trkpt lat="48.1269" lon="6.38958">
        <ele>483.20522</ele>
        <time>2022-07-12T14:21:02.823Z</time>
      </trkpt>
      <trkpt lat="48.12701" lon="6.38951">
        <ele>483.536207</ele>
        <time>2022-07-12T14:21:05.828Z</time>
      </trkpt>
      <trkpt lat="48.12713" lon="6.38951">
        <ele>483.876029</ele>
        <time>2022-07-12T14:21:08.822Z</time>
      </trkpt>
      <trkpt lat="48.12722" lon="6.38952">
        <ele>484.130123</ele>
        <time>2022-07-12T14:21:10.813Z</time>
      </trkpt>
      <trkpt lat="48.12732" lon="6.38951">
        <ele>484.414466</ele>
        <time>2022-07-12T14:21:12.819Z</time>
      </trkpt>
      <trkpt lat="48.12746" lon="6.38951">
        <ele>484.798982</ele>
        <time>2022-07-12T14:21:15.848Z</time>
      </trkpt>
      <trkpt lat="48.12758" lon="6.38948">
        <ele>485.127129</ele>
        <time>2022-07-12T14:21:18.826Z</time>
      </trkpt>
      <trkpt lat="48.12768" lon="6.38944">
        <ele>485.420039</ele>
        <time>2022-07-12T14:21:21.851Z</time>
      </trkpt>
      <trkpt lat="48.1278" lon="6.38938">
        <ele>485.773258</ele>
        <time>2022-07-12T14:21:24.847Z</time>
      </trkpt>
      <trkpt lat="48.12791" lon="6.38935">
        <ele>486.079484</ele>
        <time>2022-07-12T14:21:26.845Z</time>
      </trkpt>
      <trkpt lat="48.12801" lon="6.38933">
        <ele>486.371475</ele>
        <time>2022-07-12T14:21:29.824Z</time>
      </trkpt>
      <trkpt lat="48.12812" lon="6.38934">
        <ele>486.684965</ele>
        <time>2022-07-12T14:21:32.840Z</time>
      </trkpt>
      <trkpt lat="48.12824" lon="6.38934">
        <ele>486.999642</ele>
        <time>2022-07-12T14:21:36.848Z</time>
      </trkpt>
      <trkpt lat="48.12836" lon="6.38935">
        <ele>487.31735</ele>
        <time>2022-07-12T14:21:40.833Z</time>
      </trkpt>
      <trkpt lat="48.12845" lon="6.38937">
        <ele>487.484131</ele>
        <time>2022-07-12T14:21:42.824Z</time>
      </trkpt>
      <trkpt lat="48.12857" lon="6.38936">
        <ele>487.692804</ele>
        <time>2022-07-12T14:21:45.833Z</time>
      </trkpt>
      <trkpt lat="48.1287" lon="6.38938">
        <ele>487.916664</ele>
        <time>2022-07-12T14:21:48.807Z</time>
      </trkpt>
      <trkpt lat="48.12884" lon="6.3894">
        <ele>488.157209</ele>
        <time>2022-07-12T14:21:51.826Z</time>
      </trkpt>
      <trkpt lat="48.12893" lon="6.38941">
        <ele>488.318226</ele>
        <time>2022-07-12T14:21:53.826Z</time>
      </trkpt>
      <trkpt lat="48.12902" lon="6.38943">
        <ele>488.481564</ele>
        <time>2022-07-12T14:21:55.825Z</time>
      </trkpt>
      <trkpt lat="48.12912" lon="6.38946">
        <ele>488.645009</ele>
        <time>2022-07-12T14:21:57.832Z</time>
      </trkpt>
      <trkpt lat="48.12925" lon="6.38949">
        <ele>488.87302</ele>
        <time>2022-07-12T14:22:00.850Z</time>
      </trkpt>
      <trkpt lat="48.12938" lon="6.38954">
        <ele>489.112819</ele>
        <time>2022-07-12T14:22:03.844Z</time>
      </trkpt>
      <trkpt lat="48.12948" lon="6.38961">
        <ele>489.312483</ele>
        <time>2022-07-12T14:22:06.828Z</time>
      </trkpt>
      <trkpt lat="48.12956" lon="6.38967">
        <ele>489.469062</ele>
        <time>2022-07-12T14:22:08.827Z</time>
      </trkpt>
      <trkpt lat="48.12967" lon="6.38974">
        <ele>489.67478</ele>
        <time>2022-07-12T14:22:11.826Z</time>
      </trkpt>
      <trkpt lat="48.12977" lon="6.38981">
        <ele>489.857792</ele>
        <time>2022-07-12T14:22:14.834Z</time>
      </trkpt>
      <trkpt lat="48.12988" lon="6.38989">
        <ele>490.076582</ele>
        <time>2022-07-12T14:22:17.823Z</time>
      </trkpt>
      <trkpt lat="48.12999" lon="6.38995">
        <ele>490.277652</ele>
        <time>2022-07-12T14:22:20.823Z</time>
      </trkpt>
      <trkpt lat="48.13011" lon="6.39004">
        <ele>490.923532</ele>
        <time>2022-07-12T14:22:23.825Z</time>
      </trkpt>
      <trkpt lat="48.1302" lon="6.39009">
        <ele>491.87648</ele>
        <time>2022-07-12T14:22:25.836Z</time>
      </trkpt>
      <trkpt lat="48.13031" lon="6.39014">
        <ele>493.006683</ele>
        <time>2022-07-12T14:22:28.814Z</time>
      </trkpt>
      <trkpt lat="48.13042" lon="6.39023">
        <ele>494.276622</ele>
        <time>2022-07-12T14:22:30.819Z</time>
      </trkpt>
      <trkpt lat="48.13051" lon="6.39034">
        <ele>495.379228</ele>
        <time>2022-07-12T14:22:33.825Z</time>
      </trkpt>
      <trkpt lat="48.13058" lon="6.39042">
        <ele>496.315679</ele>
        <time>2022-07-12T14:22:36.833Z</time>
      </trkpt>
      <trkpt lat="48.13067" lon="6.39052">
        <ele>497.366945</ele>
        <time>2022-07-12T14:22:39.817Z</time>
      </trkpt>
      <trkpt lat="48.13077" lon="6.39062">
        <ele>498.510981</ele>
        <time>2022-07-12T14:22:43.827Z</time>
      </trkpt>
      <trkpt lat="48.13088" lon="6.39072">
        <ele>499.796838</ele>
        <time>2022-07-12T14:22:47.831Z</time>
      </trkpt>
      <trkpt lat="48.13097" lon="6.39083">
        <ele>500.96573</ele>
        <time>2022-07-12T14:22:51.821Z</time>
      </trkpt>
      <trkpt lat="48.13107" lon="6.39092">
        <ele>502.102742</ele>
        <time>2022-07-12T14:22:55.843Z</time>
      </trkpt>
      <trkpt lat="48.13117" lon="6.39102">
        <ele>503.261138</ele>
        <time>2022-07-12T14:22:59.841Z</time>
      </trkpt>
      <trkpt lat="48.13128" lon="6.39109">
        <ele>504.422556</ele>
        <time>2022-07-12T14:23:02.829Z</time>
      </trkpt>
      <trkpt lat="48.13136" lon="6.39116">
        <ele>505.349063</ele>
        <time>2022-07-12T14:23:04.835Z</time>
      </trkpt>
      <trkpt lat="48.13144" lon="6.39128">
        <ele>506.517671</ele>
        <time>2022-07-12T14:23:07.845Z</time>
      </trkpt>
      <trkpt lat="48.13153" lon="6.39138">
        <ele>507.573079</ele>
        <time>2022-07-12T14:23:10.829Z</time>
      </trkpt>
      <trkpt lat="48.1316" lon="6.39149">
        <ele>508.441312</ele>
        <time>2022-07-12T14:23:13.825Z</time>
      </trkpt>
      <trkpt lat="48.13167" lon="6.3916">
        <ele>509.229689</ele>
        <time>2022-07-12T14:23:16.825Z</time>
      </trkpt>
      <trkpt lat="48.13174" lon="6.39171">
        <ele>510.026934</ele>
        <time>2022-07-12T14:23:19.849Z</time>
      </trkpt>
      <trkpt lat="48.13181" lon="6.39184">
        <ele>510.855384</ele>
        <time>2022-07-12T14:23:22.834Z</time>
      </trkpt>
      <trkpt lat="48.13186" lon="6.39197">
        <ele>511.607146</ele>
        <time>2022-07-12T14:23:26.838Z</time>
      </trkpt>
      <trkpt lat="48.13191" lon="6.39212">
        <ele>512.443871</ele>
        <time>2022-07-12T14:23:30.823Z</time>
      </trkpt>
      <trkpt lat="48.13198" lon="6.39225">
        <ele>513.329508</ele>
        <time>2022-07-12T14:23:34.841Z</time>
      </trkpt>
      <trkpt lat="48.13205" lon="6.3924">
        <ele>514.204644</ele>
        <time>2022-07-12T14:23:38.827Z</time>
      </trkpt>
      <trkpt lat="48.13212" lon="6.39253">
        <ele>515.087063</ele>
        <time>2022-07-12T14:23:42.838Z</time>
      </trkpt>
      <trkpt lat="48.13203" lon="6.39283">
        <ele>516.719312</ele>
        <time>2022-07-12T14:24:07.848Z</time>
      </trkpt>
      <trkpt lat="48.13196" lon="6.39296">
        <ele>517.586065</ele>
        <time>2022-07-12T14:24:10.852Z</time>
      </trkpt>
      <trkpt lat="48.13195" lon="6.39313">
        <ele>518.450395</ele>
        <time>2022-07-12T14:24:13.847Z</time>
      </trkpt>
      <trkpt lat="48.13193" lon="6.39332">
        <ele>519.44705</ele>
        <time>2022-07-12T14:24:16.827Z</time>
      </trkpt>
      <trkpt lat="48.13193" lon="6.39346">
        <ele>520.144833</ele>
        <time>2022-07-12T14:24:18.815Z</time>
      </trkpt>
      <trkpt lat="48.13194" lon="6.3936">
        <ele>520.848472</ele>
        <time>2022-07-12T14:24:20.834Z</time>
      </trkpt>
      <trkpt lat="48.13195" lon="6.39375">
        <ele>521.620724</ele>
        <time>2022-07-12T14:24:22.810Z</time>
      </trkpt>
      <trkpt lat="48.13197" lon="6.39389">
        <ele>521.74355</ele>
        <time>2022-07-12T14:24:24.818Z</time>
      </trkpt>
      <trkpt lat="48.13197" lon="6.39403">
        <ele>521.764027</ele>
        <time>2022-07-12T14:24:26.835Z</time>
      </trkpt>
      <trkpt lat="48.13197" lon="6.39417">
        <ele>521.783779</ele>
        <time>2022-07-12T14:24:28.840Z</time>
      </trkpt>
      <trkpt lat="48.13197" lon="6.39432">
        <ele>521.805708</ele>
        <time>2022-07-12T14:24:30.834Z</time>
      </trkpt>
      <trkpt lat="48.13197" lon="6.39448">
        <ele>521.829379</ele>
        <time>2022-07-12T14:24:32.806Z</time>
      </trkpt>
      <trkpt lat="48.13196" lon="6.39466">
        <ele>521.855841</ele>
        <time>2022-07-12T14:24:34.828Z</time>
      </trkpt>
      <trkpt lat="48.13194" lon="6.39485">
        <ele>521.884131</ele>
        <time>2022-07-12T14:24:36.832Z</time>
      </trkpt>
      <trkpt lat="48.1319" lon="6.39503">
        <ele>521.910786</ele>
        <time>2022-07-12T14:24:38.848Z</time>
      </trkpt>
      <trkpt lat="48.13186" lon="6.39521">
        <ele>521.939097</ele>
        <time>2022-07-12T14:24:40.819Z</time>
      </trkpt>
      <trkpt lat="48.13181" lon="6.3954">
        <ele>521.967692</ele>
        <time>2022-07-12T14:24:42.828Z</time>
      </trkpt>
      <trkpt lat="48.13176" lon="6.39561">
        <ele>522.001188</ele>
        <time>2022-07-12T14:24:44.836Z</time>
      </trkpt>
      <trkpt lat="48.13172" lon="6.39582">
        <ele>522.032621</ele>
        <time>2022-07-12T14:24:46.833Z</time>
      </trkpt>
      <trkpt lat="48.13168" lon="6.39601">
        <ele>522.061349</ele>
        <time>2022-07-12T14:24:48.841Z</time>
      </trkpt>
      <trkpt lat="48.13165" lon="6.39617">
        <ele>522.085801</ele>
        <time>2022-07-12T14:24:50.802Z</time>
      </trkpt>
      <trkpt lat="48.13162" lon="6.39632">
        <ele>522.108222</ele>
        <time>2022-07-12T14:24:52.813Z</time>
      </trkpt>
      <trkpt lat="48.1316" lon="6.39647">
        <ele>521.925744</ele>
        <time>2022-07-12T14:24:54.828Z</time>
      </trkpt>
      <trkpt lat="48.13158" lon="6.39663">
        <ele>521.561544</ele>
        <time>2022-07-12T14:24:56.812Z</time>
      </trkpt>
      <trkpt lat="48.13157" lon="6.3968">
        <ele>521.186706</ele>
        <time>2022-07-12T14:24:58.834Z</time>
      </trkpt>
      <trkpt lat="48.13157" lon="6.39696">
        <ele>520.832747</ele>
        <time>2022-07-12T14:25:00.827Z</time>
      </trkpt>
      <trkpt lat="48.13156" lon="6.39716">
        <ele>520.397554</ele>
        <time>2022-07-12T14:25:02.827Z</time>
      </trkpt>
      <trkpt lat="48.13156" lon="6.39735">
        <ele>519.986945</ele>
        <time>2022-07-12T14:25:04.840Z</time>
      </trkpt>
      <trkpt lat="48.13156" lon="6.39752">
        <ele>519.60894</ele>
        <time>2022-07-12T14:25:06.832Z</time>
      </trkpt>
      <trkpt lat="48.13152" lon="6.39765">
        <ele>519.286232</ele>
        <time>2022-07-12T14:25:09.841Z</time>
      </trkpt>
      <trkpt lat="48.13143" lon="6.39761">
        <ele>518.986501</ele>
        <time>2022-07-12T14:25:12.831Z</time>
      </trkpt>
      <trkpt lat="48.13137" lon="6.39748">
        <ele>518.639439</ele>
        <time>2022-07-12T14:25:15.821Z</time>
      </trkpt>
      <trkpt lat="48.13129" lon="6.39735">
        <ele>518.238502</ele>
        <time>2022-07-12T14:25:18.847Z</time>
      </trkpt>
      <trkpt lat="48.13116" lon="6.39729">
        <ele>517.796203</ele>
        <time>2022-07-12T14:25:21.836Z</time>
      </trkpt>
      <trkpt lat="48.13105" lon="6.39723">
        <ele>517.416539</ele>
        <time>2022-07-12T14:25:24.820Z</time>
      </trkpt>
      <trkpt lat="48.13097" lon="6.39717">
        <ele>517.108526</ele>
        <time>2022-07-12T14:25:27.842Z</time>
      </trkpt>
      <trkpt lat="48.13087" lon="6.3971">
        <ele>516.760297</ele>
        <time>2022-07-12T14:25:31.821Z</time>
      </trkpt>
      <trkpt lat="48.13081" lon="6.39697">
        <ele>516.403858</ele>
        <time>2022-07-12T14:25:35.811Z</time>
      </trkpt>
      <trkpt lat="48.13076" lon="6.39685">
        <ele>516.068959</ele>
        <time>2022-07-12T14:25:38.817Z</time>
      </trkpt>
      <trkpt lat="48.13067" lon="6.39682">
        <ele>515.710916</ele>
        <time>2022-07-12T14:25:40.820Z</time>
      </trkpt>
      <trkpt lat="48.13056" lon="6.39682">
        <ele>515.308963</ele>
        <time>2022-07-12T14:25:42.823Z</time>
      </trkpt>
      <trkpt lat="48.13043" lon="6.39681">
        <ele>514.815565</ele>
        <time>2022-07-12T14:25:44.827Z</time>
      </trkpt>
      <trkpt lat="48.1303" lon="6.39682">
        <ele>514.314343</ele>
        <time>2022-07-12T14:25:46.813Z</time>
      </trkpt>
      <trkpt lat="48.13017" lon="6.39681">
        <ele>513.797294</ele>
        <time>2022-07-12T14:25:48.814Z</time>
      </trkpt>
      <trkpt lat="48.13004" lon="6.39678">
        <ele>513.312324</ele>
        <time>2022-07-12T14:25:50.819Z</time>
      </trkpt>
      <trkpt lat="48.12994" lon="6.39669">
        <ele>512.869635</ele>
        <time>2022-07-12T14:25:52.799Z</time>
      </trkpt>
      <trkpt lat="48.12984" lon="6.39662">
        <ele>512.431672</ele>
        <time>2022-07-12T14:25:54.814Z</time>
      </trkpt>
      <trkpt lat="48.12972" lon="6.39655">
        <ele>511.942464</ele>
        <time>2022-07-12T14:25:56.842Z</time>
      </trkpt>
      <trkpt lat="48.1296" lon="6.39647">
        <ele>511.43067</ele>
        <time>2022-07-12T14:25:58.835Z</time>
      </trkpt>
      <trkpt lat="48.12948" lon="6.3964">
        <ele>510.944501</ele>
        <time>2022-07-12T14:26:00.817Z</time>
      </trkpt>
      <trkpt lat="48.12935" lon="6.39635">
        <ele>510.438622</ele>
        <time>2022-07-12T14:26:02.818Z</time>
      </trkpt>
      <trkpt lat="48.12922" lon="6.39628">
        <ele>509.90644</ele>
        <time>2022-07-12T14:26:04.814Z</time>
      </trkpt>
      <trkpt lat="48.1291" lon="6.39624">
        <ele>509.443189</ele>
        <time>2022-07-12T14:26:06.821Z</time>
      </trkpt>
      <trkpt lat="48.129" lon="6.39624">
        <ele>508.721621</ele>
        <time>2022-07-12T14:26:08.813Z</time>
      </trkpt>
      <trkpt lat="48.12888" lon="6.39623">
        <ele>507.682486</ele>
        <time>2022-07-12T14:26:10.810Z</time>
      </trkpt>
      <trkpt lat="48.12877" lon="6.39625">
        <ele>506.65543</ele>
        <time>2022-07-12T14:26:12.814Z</time>
      </trkpt>
      <trkpt lat="48.12867" lon="6.39629">
        <ele>505.731459</ele>
        <time>2022-07-12T14:26:14.813Z</time>
      </trkpt>
      <trkpt lat="48.12859" lon="6.39636">
        <ele>504.899203</ele>
        <time>2022-07-12T14:26:17.845Z</time>
      </trkpt>
      <trkpt lat="48.12852" lon="6.39644">
        <ele>504.060979</ele>
        <time>2022-07-12T14:26:22.811Z</time>
      </trkpt>
      <trkpt lat="48.12842" lon="6.39672">
        <ele>502.172204</ele>
        <time>2022-07-12T14:26:51.824Z</time>
      </trkpt>
      <trkpt lat="48.12842" lon="6.39689">
        <ele>501.111246</ele>
        <time>2022-07-12T14:27:05.824Z</time>
      </trkpt>
      <trkpt lat="48.12843" lon="6.39704">
        <ele>500.207058</ele>
        <time>2022-07-12T14:27:10.837Z</time>
      </trkpt>
      <trkpt lat="48.12845" lon="6.39718">
        <ele>499.358754</ele>
        <time>2022-07-12T14:27:14.820Z</time>
      </trkpt>
      <trkpt lat="48.12833" lon="6.39736">
        <ele>497.872858</ele>
        <time>2022-07-12T14:27:41.824Z</time>
      </trkpt>
      <trkpt lat="48.12824" lon="6.39747">
        <ele>496.763407</ele>
        <time>2022-07-12T14:27:48.822Z</time>
      </trkpt>
      <trkpt lat="48.12826" lon="6.39762">
        <ele>495.847755</ele>
        <time>2022-07-12T14:27:51.809Z</time>
      </trkpt>
      <trkpt lat="48.12828" lon="6.39776">
        <ele>494.984973</ele>
        <time>2022-07-12T14:27:54.807Z</time>
      </trkpt>
      <trkpt lat="48.12831" lon="6.3979">
        <ele>494.086236</ele>
        <time>2022-07-12T14:27:57.835Z</time>
      </trkpt>
      <trkpt lat="48.12832" lon="6.39805">
        <ele>493.188027</ele>
        <time>2022-07-12T14:28:00.808Z</time>
      </trkpt>
      <trkpt lat="48.12835" lon="6.3982">
        <ele>493.800384</ele>
        <time>2022-07-12T14:28:04.827Z</time>
      </trkpt>
      <trkpt lat="48.12837" lon="6.39834">
        <ele>494.569623</ele>
        <time>2022-07-12T14:28:08.830Z</time>
      </trkpt>
      <trkpt lat="48.1284" lon="6.3985">
        <ele>495.466448</ele>
        <time>2022-07-12T14:28:13.829Z</time>
      </trkpt>
      <trkpt lat="48.12845" lon="6.39862">
        <ele>496.273364</ele>
        <time>2022-07-12T14:28:17.824Z</time>
      </trkpt>
      <trkpt lat="48.1285" lon="6.39876">
        <ele>497.140486</ele>
        <time>2022-07-12T14:28:22.820Z</time>
      </trkpt>
      <trkpt lat="48.12852" lon="6.3989">
        <ele>497.916445</ele>
        <time>2022-07-12T14:28:25.815Z</time>
      </trkpt>
      <trkpt lat="48.12856" lon="6.39906">
        <ele>498.836741</ele>
        <time>2022-07-12T14:28:29.819Z</time>
      </trkpt>
      <trkpt lat="48.12857" lon="6.39923">
        <ele>499.768716</ele>
        <time>2022-07-12T14:28:33.816Z</time>
      </trkpt>
      <trkpt lat="48.12858" lon="6.39938">
        <ele>500.573639</ele>
        <time>2022-07-12T14:28:37.827Z</time>
      </trkpt>
      <trkpt lat="48.12861" lon="6.39954">
        <ele>501.47776</ele>
        <time>2022-07-12T14:28:41.824Z</time>
      </trkpt>
      <trkpt lat="48.12863" lon="6.39969">
        <ele>502.326262</ele>
        <time>2022-07-12T14:28:45.830Z</time>
      </trkpt>
      <trkpt lat="48.12864" lon="6.39984">
        <ele>503.163856</ele>
        <time>2022-07-12T14:28:49.835Z</time>
      </trkpt>
      <trkpt lat="48.12867" lon="6.39998">
        <ele>503.975809</ele>
        <time>2022-07-12T14:28:53.834Z</time>
      </trkpt>
      <trkpt lat="48.12869" lon="6.40013">
        <ele>504.83343</ele>
        <time>2022-07-12T14:28:58.835Z</time>
      </trkpt>
      <trkpt lat="48.12871" lon="6.40028">
        <ele>505.6198</ele>
        <time>2022-07-12T14:29:03.827Z</time>
      </trkpt>
      <trkpt lat="48.12873" lon="6.40041">
        <ele>506.386366</ele>
        <time>2022-07-12T14:29:08.817Z</time>
      </trkpt>
      <trkpt lat="48.12876" lon="6.40055">
        <ele>507.194073</ele>
        <time>2022-07-12T14:29:13.822Z</time>
      </trkpt>
      <trkpt lat="48.1288" lon="6.4007">
        <ele>507.838257</ele>
        <time>2022-07-12T14:29:17.833Z</time>
      </trkpt>
      <trkpt lat="48.12884" lon="6.40087">
        <ele>507.91172</ele>
        <time>2022-07-12T14:29:21.823Z</time>
      </trkpt>
      <trkpt lat="48.12887" lon="6.40104">
        <ele>507.98383</ele>
        <time>2022-07-12T14:29:25.836Z</time>
      </trkpt>
      <trkpt lat="48.1289" lon="6.40118">
        <ele>508.043038</ele>
        <time>2022-07-12T14:29:28.824Z</time>
      </trkpt>
      <trkpt lat="48.12893" lon="6.40135">
        <ele>508.114472</ele>
        <time>2022-07-12T14:29:30.815Z</time>
      </trkpt>
      <trkpt lat="48.12895" lon="6.40149">
        <ele>508.172048</ele>
        <time>2022-07-12T14:29:33.830Z</time>
      </trkpt>
      <trkpt lat="48.12899" lon="6.40166">
        <ele>508.244564</ele>
        <time>2022-07-12T14:29:36.824Z</time>
      </trkpt>
      <trkpt lat="48.12905" lon="6.4018">
        <ele>508.313938</ele>
        <time>2022-07-12T14:29:41.815Z</time>
      </trkpt>
      <trkpt lat="48.12914" lon="6.40175">
        <ele>508.375567</ele>
        <time>2022-07-12T14:29:47.838Z</time>
      </trkpt>
      <trkpt lat="48.12919" lon="6.40156">
        <ele>508.458135</ele>
        <time>2022-07-12T14:29:50.815Z</time>
      </trkpt>
      <trkpt lat="48.12925" lon="6.40138">
        <ele>508.538415</ele>
        <time>2022-07-12T14:29:53.830Z</time>
      </trkpt>
      <trkpt lat="48.12928" lon="6.40124">
        <ele>508.599941</ele>
        <time>2022-07-12T14:29:55.825Z</time>
      </trkpt>
      <trkpt lat="48.12932" lon="6.40111">
        <ele>508.65765</ele>
        <time>2022-07-12T14:29:57.826Z</time>
      </trkpt>
      <trkpt lat="48.12938" lon="6.40098">
        <ele>508.720589</ele>
        <time>2022-07-12T14:29:59.824Z</time>
      </trkpt>
      <trkpt lat="48.12945" lon="6.40086">
        <ele>508.788264</ele>
        <time>2022-07-12T14:30:01.835Z</time>
      </trkpt>
      <trkpt lat="48.12957" lon="6.40074">
        <ele>508.873598</ele>
        <time>2022-07-12T14:30:04.818Z</time>
      </trkpt>
      <trkpt lat="48.12965" lon="6.40062">
        <ele>508.714755</ele>
        <time>2022-07-12T14:30:06.818Z</time>
      </trkpt>
      <trkpt lat="48.12975" lon="6.40051">
        <ele>508.234764</ele>
        <time>2022-07-12T14:30:08.822Z</time>
      </trkpt>
      <trkpt lat="48.12983" lon="6.40039">
        <ele>507.771058</ele>
        <time>2022-07-12T14:30:10.826Z</time>
      </trkpt>
      <trkpt lat="48.12991" lon="6.40027">
        <ele>507.301984</ele>
        <time>2022-07-12T14:30:12.823Z</time>
      </trkpt>
      <trkpt lat="48.12999" lon="6.40014">
        <ele>506.839619</ele>
        <time>2022-07-12T14:30:14.824Z</time>
      </trkpt>
      <trkpt lat="48.13008" lon="6.40003">
        <ele>506.397451</ele>
        <time>2022-07-12T14:30:16.813Z</time>
      </trkpt>
      <trkpt lat="48.13016" lon="6.39995">
        <ele>506.003453</ele>
        <time>2022-07-12T14:30:18.836Z</time>
      </trkpt>
      <trkpt lat="48.13025" lon="6.39992">
        <ele>505.608048</ele>
        <time>2022-07-12T14:30:20.817Z</time>
      </trkpt>
      <trkpt lat="48.13037" lon="6.39995">
        <ele>505.119737</ele>
        <time>2022-07-12T14:30:22.821Z</time>
      </trkpt>
      <trkpt lat="48.13049" lon="6.39999">
        <ele>504.635421</ele>
        <time>2022-07-12T14:30:24.831Z</time>
      </trkpt>
      <trkpt lat="48.13058" lon="6.40005">
        <ele>504.250845</ele>
        <time>2022-07-12T14:30:26.828Z</time>
      </trkpt>
      <trkpt lat="48.13059" lon="6.40019">
        <ele>503.883205</ele>
        <time>2022-07-12T14:30:28.819Z</time>
      </trkpt>
      <trkpt lat="48.13055" lon="6.40039">
        <ele>503.329902</ele>
        <time>2022-07-12T14:30:30.822Z</time>
      </trkpt>
      <trkpt lat="48.13055" lon="6.40058">
        <ele>502.817519</ele>
        <time>2022-07-12T14:30:32.837Z</time>
      </trkpt>
      <trkpt lat="48.13055" lon="6.40073">
        <ele>502.412142</ele>
        <time>2022-07-12T14:30:34.820Z</time>
      </trkpt>
      <trkpt lat="48.13056" lon="6.40091">
        <ele>501.925762</ele>
        <time>2022-07-12T14:30:36.836Z</time>
      </trkpt>
      <trkpt lat="48.13057" lon="6.40105">
        <ele>501.631113</ele>
        <time>2022-07-12T14:30:38.834Z</time>
      </trkpt>
      <trkpt lat="48.13061" lon="6.40117">
        <ele>501.473851</ele>
        <time>2022-07-12T14:30:40.834Z</time>
      </trkpt>
      <trkpt lat="48.13072" lon="6.4012">
        <ele>501.287231</ele>
        <time>2022-07-12T14:30:43.812Z</time>
      </trkpt>
      <trkpt lat="48.13082" lon="6.40122">
        <ele>501.121515</ele>
        <time>2022-07-12T14:30:45.818Z</time>
      </trkpt>
      <trkpt lat="48.13092" lon="6.40124">
        <ele>500.942723</ele>
        <time>2022-07-12T14:30:47.825Z</time>
      </trkpt>
      <trkpt lat="48.13106" lon="6.40127">
        <ele>500.709981</ele>
        <time>2022-07-12T14:30:49.810Z</time>
      </trkpt>
      <trkpt lat="48.13118" lon="6.40131">
        <ele>500.505368</ele>
        <time>2022-07-12T14:30:51.822Z</time>
      </trkpt>
      <trkpt lat="48.13128" lon="6.40136">
        <ele>500.313139</ele>
        <time>2022-07-12T14:30:53.835Z</time>
      </trkpt>
      <trkpt lat="48.13138" lon="6.40142">
        <ele>500.138829</ele>
        <time>2022-07-12T14:30:55.829Z</time>
      </trkpt>
      <trkpt lat="48.13145" lon="6.40151">
        <ele>499.979968</ele>
        <time>2022-07-12T14:30:57.816Z</time>
      </trkpt>
      <trkpt lat="48.13152" lon="6.40163">
        <ele>499.805909</ele>
        <time>2022-07-12T14:30:59.838Z</time>
      </trkpt>
      <trkpt lat="48.13158" lon="6.40181">
        <ele>499.569208</ele>
        <time>2022-07-12T14:31:01.826Z</time>
      </trkpt>
      <trkpt lat="48.13165" lon="6.402">
        <ele>499.326943</ele>
        <time>2022-07-12T14:31:03.830Z</time>
      </trkpt>
      <trkpt lat="48.1317" lon="6.40219">
        <ele>499.102968</ele>
        <time>2022-07-12T14:31:05.803Z</time>
      </trkpt>
      <trkpt lat="48.13172" lon="6.40237">
        <ele>498.888596</ele>
        <time>2022-07-12T14:31:07.814Z</time>
      </trkpt>
      <trkpt lat="48.13176" lon="6.40255">
        <ele>498.67661</ele>
        <time>2022-07-12T14:31:09.809Z</time>
      </trkpt>
      <trkpt lat="48.13182" lon="6.40266">
        <ele>498.441682</ele>
        <time>2022-07-12T14:31:11.824Z</time>
      </trkpt>
      <trkpt lat="48.1319" lon="6.40278">
        <ele>498.155291</ele>
        <time>2022-07-12T14:31:13.818Z</time>
      </trkpt>
      <trkpt lat="48.13198" lon="6.40286">
        <ele>497.907122</ele>
        <time>2022-07-12T14:31:15.821Z</time>
      </trkpt>
      <trkpt lat="48.13205" lon="6.40295">
        <ele>497.662051</ele>
        <time>2022-07-12T14:31:17.839Z</time>
      </trkpt>
      <trkpt lat="48.1321" lon="6.40309">
        <ele>497.385622</ele>
        <time>2022-07-12T14:31:19.809Z</time>
      </trkpt>
      <trkpt lat="48.13209" lon="6.40326">
        <ele>497.083473</ele>
        <time>2022-07-12T14:31:21.831Z</time>
      </trkpt>
      <trkpt lat="48.13208" lon="6.40348">
        <ele>496.712661</ele>
        <time>2022-07-12T14:31:23.824Z</time>
      </trkpt>
      <trkpt lat="48.13203" lon="6.4036">
        <ele>496.473414</ele>
        <time>2022-07-12T14:31:24.833Z</time>
      </trkpt>
      <trkpt lat="48.13194" lon="6.40381">
        <ele>496.031251</ele>
        <time>2022-07-12T14:31:26.803Z</time>
      </trkpt>
      <trkpt lat="48.13189" lon="6.40402">
        <ele>495.644465</ele>
        <time>2022-07-12T14:31:28.824Z</time>
      </trkpt>
      <trkpt lat="48.13187" lon="6.40423">
        <ele>495.27473</ele>
        <time>2022-07-12T14:31:30.815Z</time>
      </trkpt>
      <trkpt lat="48.13187" lon="6.40446">
        <ele>494.875847</ele>
        <time>2022-07-12T14:31:32.822Z</time>
      </trkpt>
      <trkpt lat="48.13191" lon="6.40467">
        <ele>494.497118</ele>
        <time>2022-07-12T14:31:34.815Z</time>
      </trkpt>
      <trkpt lat="48.13196" lon="6.40488">
        <ele>494.123482</ele>
        <time>2022-07-12T14:31:36.815Z</time>
      </trkpt>
      <trkpt lat="48.13202" lon="6.40507">
        <ele>493.785898</ele>
        <time>2022-07-12T14:31:38.823Z</time>
      </trkpt>
      <trkpt lat="48.13209" lon="6.40524">
        <ele>493.462272</ele>
        <time>2022-07-12T14:31:40.819Z</time>
      </trkpt>
      <trkpt lat="48.13218" lon="6.40539">
        <ele>493.146217</ele>
        <time>2022-07-12T14:31:42.809Z</time>
      </trkpt>
      <trkpt lat="48.13228" lon="6.40554">
        <ele>492.82243</ele>
        <time>2022-07-12T14:31:44.811Z</time>
      </trkpt>
      <trkpt lat="48.13238" lon="6.40567">
        <ele>492.505609</ele>
        <time>2022-07-12T14:31:46.815Z</time>
      </trkpt>
      <trkpt lat="48.1325" lon="6.40581">
        <ele>492.154615</ele>
        <time>2022-07-12T14:31:48.827Z</time>
      </trkpt>
      <trkpt lat="48.1326" lon="6.40597">
        <ele>491.799797</ele>
        <time>2022-07-12T14:31:50.815Z</time>
      </trkpt>
      <trkpt lat="48.13272" lon="6.40611">
        <ele>491.458735</ele>
        <time>2022-07-12T14:31:52.832Z</time>
      </trkpt>
      <trkpt lat="48.13283" lon="6.40625">
        <ele>491.101817</ele>
        <time>2022-07-12T14:31:54.838Z</time>
      </trkpt>
      <trkpt lat="48.13295" lon="6.40642">
        <ele>490.719623</ele>
        <time>2022-07-12T14:31:56.824Z</time>
      </trkpt>
      <trkpt lat="48.13305" lon="6.40655">
        <ele>490.406898</ele>
        <time>2022-07-12T14:31:58.833Z</time>
      </trkpt>
      <trkpt lat="48.13316" lon="6.40669">
        <ele>490.07347</ele>
        <time>2022-07-12T14:32:00.837Z</time>
      </trkpt>
      <trkpt lat="48.13326" lon="6.40681">
        <ele>489.761174</ele>
        <time>2022-07-12T14:32:02.836Z</time>
      </trkpt>
      <trkpt lat="48.13337" lon="6.40693">
        <ele>489.029405</ele>
        <time>2022-07-12T14:32:04.824Z</time>
      </trkpt>
      <trkpt lat="48.13348" lon="6.40704">
        <ele>488.290408</ele>
        <time>2022-07-12T14:32:06.826Z</time>
      </trkpt>
      <trkpt lat="48.13359" lon="6.40716">
        <ele>487.547328</ele>
        <time>2022-07-12T14:32:08.826Z</time>
      </trkpt>
      <trkpt lat="48.1337" lon="6.40729">
        <ele>486.755763</ele>
        <time>2022-07-12T14:32:10.822Z</time>
      </trkpt>
      <trkpt lat="48.13382" lon="6.40739">
        <ele>486.012373</ele>
        <time>2022-07-12T14:32:12.826Z</time>
      </trkpt>
      <trkpt lat="48.13395" lon="6.40742">
        <ele>485.254019</ele>
        <time>2022-07-12T14:32:14.850Z</time>
      </trkpt>
      <trkpt lat="48.13411" lon="6.40735">
        <ele>484.37079</ele>
        <time>2022-07-12T14:32:16.818Z</time>
      </trkpt>
      <trkpt lat="48.13428" lon="6.40727">
        <ele>483.375053</ele>
        <time>2022-07-12T14:32:18.825Z</time>
      </trkpt>
      <trkpt lat="48.13445" lon="6.40718">
        <ele>482.351427</ele>
        <time>2022-07-12T14:32:20.833Z</time>
      </trkpt>
      <trkpt lat="48.13463" lon="6.40704">
        <ele>481.232777</ele>
        <time>2022-07-12T14:32:22.840Z</time>
      </trkpt>
      <trkpt lat="48.13472" lon="6.40698">
        <ele>480.703753</ele>
        <time>2022-07-12T14:32:23.830Z</time>
      </trkpt>
      <trkpt lat="48.1348" lon="6.40691">
        <ele>480.201254</ele>
        <time>2022-07-12T14:32:24.818Z</time>
      </trkpt>
      <trkpt lat="48.13489" lon="6.40685">
        <ele>479.681236</ele>
        <time>2022-07-12T14:32:25.844Z</time>
      </trkpt>
      <trkpt lat="48.13497" lon="6.40679">
        <ele>479.303184</ele>
        <time>2022-07-12T14:32:26.821Z</time>
      </trkpt>
      <trkpt lat="48.13515" lon="6.40674">
        <ele>478.571621</ele>
        <time>2022-07-12T14:32:28.824Z</time>
      </trkpt>
      <trkpt lat="48.13532" lon="6.40675">
        <ele>477.870967</ele>
        <time>2022-07-12T14:32:30.808Z</time>
      </trkpt>
      <trkpt lat="48.13541" lon="6.40677">
        <ele>477.499655</ele>
        <time>2022-07-12T14:32:31.823Z</time>
      </trkpt>
      <trkpt lat="48.1355" lon="6.4068">
        <ele>477.125336</ele>
        <time>2022-07-12T14:32:32.812Z</time>
      </trkpt>
      <trkpt lat="48.13559" lon="6.40683">
        <ele>476.742456</ele>
        <time>2022-07-12T14:32:33.810Z</time>
      </trkpt>
      <trkpt lat="48.13568" lon="6.40688">
        <ele>476.341955</ele>
        <time>2022-07-12T14:32:34.817Z</time>
      </trkpt>
      <trkpt lat="48.13577" lon="6.40692">
        <ele>475.95021</ele>
        <time>2022-07-12T14:32:35.841Z</time>
      </trkpt>
      <trkpt lat="48.13587" lon="6.40695">
        <ele>475.539451</ele>
        <time>2022-07-12T14:32:36.822Z</time>
      </trkpt>
      <trkpt lat="48.13597" lon="6.40697">
        <ele>475.131629</ele>
        <time>2022-07-12T14:32:37.863Z</time>
      </trkpt>
      <trkpt lat="48.13607" lon="6.40699">
        <ele>474.73158</ele>
        <time>2022-07-12T14:32:38.832Z</time>
      </trkpt>
      <trkpt lat="48.13616" lon="6.407">
        <ele>474.335934</ele>
        <time>2022-07-12T14:32:39.846Z</time>
      </trkpt>
      <trkpt lat="48.13626" lon="6.40702">
        <ele>473.953119</ele>
        <time>2022-07-12T14:32:40.822Z</time>
      </trkpt>
      <trkpt lat="48.13642" lon="6.40705">
        <ele>473.260568</ele>
        <time>2022-07-12T14:32:42.837Z</time>
      </trkpt>
      <trkpt lat="48.13657" lon="6.40709">
        <ele>472.648592</ele>
        <time>2022-07-12T14:32:44.838Z</time>
      </trkpt>
      <trkpt lat="48.13666" lon="6.40721">
        <ele>472.423321</ele>
        <time>2022-07-12T14:32:46.817Z</time>
      </trkpt>
      <trkpt lat="48.13668" lon="6.40737">
        <ele>472.404365</ele>
        <time>2022-07-12T14:32:48.819Z</time>
      </trkpt>
      <trkpt lat="48.13668" lon="6.40754">
        <ele>472.384643</ele>
        <time>2022-07-12T14:32:50.834Z</time>
      </trkpt>
      <trkpt lat="48.13669" lon="6.40772">
        <ele>472.363554</ele>
        <time>2022-07-12T14:32:52.816Z</time>
      </trkpt>
      <trkpt lat="48.1367" lon="6.40792">
        <ele>472.34085</ele>
        <time>2022-07-12T14:32:54.821Z</time>
      </trkpt>
      <trkpt lat="48.13672" lon="6.40812">
        <ele>472.31683</ele>
        <time>2022-07-12T14:32:56.824Z</time>
      </trkpt>
      <trkpt lat="48.13674" lon="6.40834">
        <ele>472.292007</ele>
        <time>2022-07-12T14:32:58.831Z</time>
      </trkpt>
      <trkpt lat="48.13677" lon="6.40855">
        <ele>472.267219</ele>
        <time>2022-07-12T14:33:00.832Z</time>
      </trkpt>
      <trkpt lat="48.13679" lon="6.40877">
        <ele>472.241631</ele>
        <time>2022-07-12T14:33:02.828Z</time>
      </trkpt>
      <trkpt lat="48.13681" lon="6.40899">
        <ele>472.215725</ele>
        <time>2022-07-12T14:33:04.832Z</time>
      </trkpt>
      <trkpt lat="48.13683" lon="6.40921">
        <ele>472.189982</ele>
        <time>2022-07-12T14:33:06.836Z</time>
      </trkpt>
      <trkpt lat="48.13684" lon="6.40942">
        <ele>472.165509</ele>
        <time>2022-07-12T14:33:08.806Z</time>
      </trkpt>
      <trkpt lat="48.13683" lon="6.40962">
        <ele>472.14229</ele>
        <time>2022-07-12T14:33:10.819Z</time>
      </trkpt>
      <trkpt lat="48.1368" lon="6.40981">
        <ele>472.208355</ele>
        <time>2022-07-12T14:33:12.827Z</time>
      </trkpt>
      <trkpt lat="48.13675" lon="6.40998">
        <ele>473.029309</ele>
        <time>2022-07-12T14:33:14.817Z</time>
      </trkpt>
      <trkpt lat="48.13678" lon="6.41015">
        <ele>473.776256</ele>
        <time>2022-07-12T14:33:16.820Z</time>
      </trkpt>
      <trkpt lat="48.13684" lon="6.41026">
        <ele>474.391704</ele>
        <time>2022-07-12T14:33:18.823Z</time>
      </trkpt>
      <trkpt lat="48.13691" lon="6.41036">
        <ele>475.051093</ele>
        <time>2022-07-12T14:33:20.834Z</time>
      </trkpt>
      <trkpt lat="48.13702" lon="6.41047">
        <ele>475.931885</ele>
        <time>2022-07-12T14:33:23.817Z</time>
      </trkpt>
      <trkpt lat="48.13711" lon="6.41054">
        <ele>476.55712</ele>
        <time>2022-07-12T14:33:25.827Z</time>
      </trkpt>
      <trkpt lat="48.13719" lon="6.41062">
        <ele>477.199831</ele>
        <time>2022-07-12T14:33:28.838Z</time>
      </trkpt>
      <trkpt lat="48.1373" lon="6.41062">
        <ele>477.930898</ele>
        <time>2022-07-12T14:33:31.831Z</time>
      </trkpt>
      <trkpt lat="48.13742" lon="6.41066">
        <ele>478.704509</ele>
        <time>2022-07-12T14:33:34.813Z</time>
      </trkpt>
      <trkpt lat="48.13753" lon="6.41073">
        <ele>479.485566</ele>
        <time>2022-07-12T14:33:37.822Z</time>
      </trkpt>
      <trkpt lat="48.13763" lon="6.4108">
        <ele>480.210063</ele>
        <time>2022-07-12T14:33:40.831Z</time>
      </trkpt>
      <trkpt lat="48.13772" lon="6.41087">
        <ele>480.862395</ele>
        <time>2022-07-12T14:33:43.806Z</time>
      </trkpt>
      <trkpt lat="48.1378" lon="6.41095">
        <ele>481.504174</ele>
        <time>2022-07-12T14:33:46.815Z</time>
      </trkpt>
      <trkpt lat="48.13791" lon="6.41101">
        <ele>482.243048</ele>
        <time>2022-07-12T14:33:50.818Z</time>
      </trkpt>
      <trkpt lat="48.13801" lon="6.41107">
        <ele>482.988724</ele>
        <time>2022-07-12T14:33:55.820Z</time>
      </trkpt>
      <trkpt lat="48.13812" lon="6.41115">
        <ele>483.736165</ele>
        <time>2022-07-12T14:33:59.839Z</time>
      </trkpt>
      <trkpt lat="48.1382" lon="6.41122">
        <ele>484.269621</ele>
        <time>2022-07-12T14:34:02.833Z</time>
      </trkpt>
      <trkpt lat="48.13828" lon="6.41128">
        <ele>484.758105</ele>
        <time>2022-07-12T14:34:04.802Z</time>
      </trkpt>
      <trkpt lat="48.13838" lon="6.41137">
        <ele>485.347872</ele>
        <time>2022-07-12T14:34:07.813Z</time>
      </trkpt>
      <trkpt lat="48.13847" lon="6.41145">
        <ele>485.91459</ele>
        <time>2022-07-12T14:34:10.832Z</time>
      </trkpt>
      <trkpt lat="48.13857" lon="6.41155">
        <ele>486.537571</ele>
        <time>2022-07-12T14:34:13.818Z</time>
      </trkpt>
      <trkpt lat="48.13867" lon="6.41167">
        <ele>487.241513</ele>
        <time>2022-07-12T14:34:16.821Z</time>
      </trkpt>
      <trkpt lat="48.13877" lon="6.41178">
        <ele>487.898754</ele>
        <time>2022-07-12T14:34:19.825Z</time>
      </trkpt>
      <trkpt lat="48.13888" lon="6.41187">
        <ele>488.546548</ele>
        <time>2022-07-12T14:34:22.832Z</time>
      </trkpt>
      <trkpt lat="48.13896" lon="6.41199">
        <ele>489.133978</ele>
        <time>2022-07-12T14:34:25.838Z</time>
      </trkpt>
      <trkpt lat="48.13903" lon="6.41212">
        <ele>489.743182</ele>
        <time>2022-07-12T14:34:28.821Z</time>
      </trkpt>
      <trkpt lat="48.1391" lon="6.41225">
        <ele>490.361901</ele>
        <time>2022-07-12T14:34:31.812Z</time>
      </trkpt>
      <trkpt lat="48.13919" lon="6.41231">
        <ele>490.841986</ele>
        <time>2022-07-12T14:34:34.826Z</time>
      </trkpt>
      <trkpt lat="48.13928" lon="6.41223">
        <ele>491.43603</ele>
        <time>2022-07-12T14:34:37.816Z</time>
      </trkpt>
      <trkpt lat="48.13937" lon="6.41214">
        <ele>492.014651</ele>
        <time>2022-07-12T14:34:40.843Z</time>
      </trkpt>
      <trkpt lat="48.13946" lon="6.412">
        <ele>492.68351</ele>
        <time>2022-07-12T14:34:43.818Z</time>
      </trkpt>
      <trkpt lat="48.13954" lon="6.4119">
        <ele>493.241236</ele>
        <time>2022-07-12T14:34:46.828Z</time>
      </trkpt>
      <trkpt lat="48.13962" lon="6.41182">
        <ele>492.938702</ele>
        <time>2022-07-12T14:34:49.825Z</time>
      </trkpt>
      <trkpt lat="48.1397" lon="6.41174">
        <ele>492.175696</ele>
        <time>2022-07-12T14:34:52.806Z</time>
      </trkpt>
      <trkpt lat="48.13976" lon="6.4116">
        <ele>491.351697</ele>
        <time>2022-07-12T14:34:56.824Z</time>
      </trkpt>
      <trkpt lat="48.13983" lon="6.41151">
        <ele>490.658132</ele>
        <time>2022-07-12T14:34:59.900Z</time>
      </trkpt>
      <trkpt lat="48.13991" lon="6.41144">
        <ele>489.872716</ele>
        <time>2022-07-12T14:35:02.827Z</time>
      </trkpt>
      <trkpt lat="48.14" lon="6.41136">
        <ele>489.098174</ele>
        <time>2022-07-12T14:35:05.844Z</time>
      </trkpt>
      <trkpt lat="48.14009" lon="6.41128">
        <ele>488.314048</ele>
        <time>2022-07-12T14:35:08.799Z</time>
      </trkpt>
      <trkpt lat="48.14017" lon="6.41118">
        <ele>487.471077</ele>
        <time>2022-07-12T14:35:11.917Z</time>
      </trkpt>
      <trkpt lat="48.14025" lon="6.41107">
        <ele>486.679108</ele>
        <time>2022-07-12T14:35:15.886Z</time>
      </trkpt>
      <trkpt lat="48.14033" lon="6.41098">
        <ele>485.912915</ele>
        <time>2022-07-12T14:35:19.810Z</time>
      </trkpt>
      <trkpt lat="48.14039" lon="6.41087">
        <ele>485.143103</ele>
        <time>2022-07-12T14:35:22.834Z</time>
      </trkpt>
      <trkpt lat="48.14051" lon="6.41067">
        <ele>483.793622</ele>
        <time>2022-07-12T14:35:24.801Z</time>
      </trkpt>
      <trkpt lat="48.14061" lon="6.41052">
        <ele>482.684155</ele>
        <time>2022-07-12T14:35:26.811Z</time>
      </trkpt>
      <trkpt lat="48.1407" lon="6.41043">
        <ele>481.903105</ele>
        <time>2022-07-12T14:35:27.825Z</time>
      </trkpt>
      <trkpt lat="48.1408" lon="6.41036">
        <ele>481.025737</ele>
        <time>2022-07-12T14:35:29.821Z</time>
      </trkpt>
      <trkpt lat="48.14092" lon="6.41026">
        <ele>479.985728</ele>
        <time>2022-07-12T14:35:31.787Z</time>
      </trkpt>
      <trkpt lat="48.14101" lon="6.41014">
        <ele>478.915822</ele>
        <time>2022-07-12T14:35:33.802Z</time>
      </trkpt>
      <trkpt lat="48.14114" lon="6.40997">
        <ele>477.335664</ele>
        <time>2022-07-12T14:35:35.992Z</time>
      </trkpt>
      <trkpt lat="48.14123" lon="6.40988">
        <ele>476.364392</ele>
        <time>2022-07-12T14:35:36.810Z</time>
      </trkpt>
      <trkpt lat="48.14131" lon="6.4098">
        <ele>475.536274</ele>
        <time>2022-07-12T14:35:37.798Z</time>
      </trkpt>
      <trkpt lat="48.14142" lon="6.40972">
        <ele>474.397971</ele>
        <time>2022-07-12T14:35:39.803Z</time>
      </trkpt>
      <trkpt lat="48.14152" lon="6.40973">
        <ele>473.532416</ele>
        <time>2022-07-12T14:35:41.815Z</time>
      </trkpt>
      <trkpt lat="48.14166" lon="6.40969">
        <ele>472.240359</ele>
        <time>2022-07-12T14:35:44.807Z</time>
      </trkpt>
      <trkpt lat="48.14177" lon="6.40967">
        <ele>471.235297</ele>
        <time>2022-07-12T14:35:46.818Z</time>
      </trkpt>
      <trkpt lat="48.14188" lon="6.40964">
        <ele>470.147504</ele>
        <time>2022-07-12T14:35:48.821Z</time>
      </trkpt>
      <trkpt lat="48.14199" lon="6.40962">
        <ele>469.160296</ele>
        <time>2022-07-12T14:35:50.829Z</time>
      </trkpt>
      <trkpt lat="48.14211" lon="6.4096">
        <ele>468.064787</ele>
        <time>2022-07-12T14:35:52.804Z</time>
      </trkpt>
      <trkpt lat="48.14222" lon="6.40957">
        <ele>467.042736</ele>
        <time>2022-07-12T14:35:54.847Z</time>
      </trkpt>
      <trkpt lat="48.14234" lon="6.40951">
        <ele>465.894893</ele>
        <time>2022-07-12T14:35:56.801Z</time>
      </trkpt>
      <trkpt lat="48.14245" lon="6.40946">
        <ele>464.856216</ele>
        <time>2022-07-12T14:35:58.812Z</time>
      </trkpt>
      <trkpt lat="48.14255" lon="6.4094">
        <ele>463.907222</ele>
        <time>2022-07-12T14:36:00.838Z</time>
      </trkpt>
      <trkpt lat="48.14266" lon="6.40935">
        <ele>463.328535</ele>
        <time>2022-07-12T14:36:02.824Z</time>
      </trkpt>
      <trkpt lat="48.1428" lon="6.40932">
        <ele>463.547176</ele>
        <time>2022-07-12T14:36:04.829Z</time>
      </trkpt>
      <trkpt lat="48.14289" lon="6.40917">
        <ele>463.766912</ele>
        <time>2022-07-12T14:36:06.825Z</time>
      </trkpt>
      <trkpt lat="48.14292" lon="6.40899">
        <ele>463.975664</ele>
        <time>2022-07-12T14:36:08.827Z</time>
      </trkpt>
      <trkpt lat="48.1429" lon="6.40882">
        <ele>464.155175</ele>
        <time>2022-07-12T14:36:10.816Z</time>
      </trkpt>
      <trkpt lat="48.14288" lon="6.40868">
        <ele>464.318441</ele>
        <time>2022-07-12T14:36:12.814Z</time>
      </trkpt>
      <trkpt lat="48.14285" lon="6.40853">
        <ele>464.480383</ele>
        <time>2022-07-12T14:36:14.818Z</time>
      </trkpt>
      <trkpt lat="48.14283" lon="6.40839">
        <ele>464.63591</ele>
        <time>2022-07-12T14:36:16.817Z</time>
      </trkpt>
      <trkpt lat="48.14279" lon="6.40823">
        <ele>464.823154</ele>
        <time>2022-07-12T14:36:19.823Z</time>
      </trkpt>
      <trkpt lat="48.14277" lon="6.40805">
        <ele>465.01701</ele>
        <time>2022-07-12T14:36:22.835Z</time>
      </trkpt>
      <trkpt lat="48.1428" lon="6.4079">
        <ele>465.18752</ele>
        <time>2022-07-12T14:36:24.815Z</time>
      </trkpt>
      <trkpt lat="48.14285" lon="6.40778">
        <ele>465.339647</ele>
        <time>2022-07-12T14:36:26.835Z</time>
      </trkpt>
      <trkpt lat="48.14293" lon="6.40764">
        <ele>465.541894</ele>
        <time>2022-07-12T14:36:29.848Z</time>
      </trkpt>
      <trkpt lat="48.14301" lon="6.40755">
        <ele>465.698178</ele>
        <time>2022-07-12T14:36:31.850Z</time>
      </trkpt>
      <trkpt lat="48.14311" lon="6.40743">
        <ele>465.902151</ele>
        <time>2022-07-12T14:36:34.818Z</time>
      </trkpt>
      <trkpt lat="48.1432" lon="6.40732">
        <ele>466.09864</ele>
        <time>2022-07-12T14:36:37.845Z</time>
      </trkpt>
      <trkpt lat="48.14329" lon="6.40722">
        <ele>466.710149</ele>
        <time>2022-07-12T14:36:40.831Z</time>
      </trkpt>
      <trkpt lat="48.14338" lon="6.40713">
        <ele>467.478118</ele>
        <time>2022-07-12T14:36:43.834Z</time>
      </trkpt>
      <trkpt lat="48.14347" lon="6.40704">
        <ele>468.273285</ele>
        <time>2022-07-12T14:36:46.817Z</time>
      </trkpt>
      <trkpt lat="48.14354" lon="6.40694">
        <ele>469.00363</ele>
        <time>2022-07-12T14:36:49.817Z</time>
      </trkpt>
      <trkpt lat="48.14363" lon="6.40685">
        <ele>469.77766</ele>
        <time>2022-07-12T14:36:52.813Z</time>
      </trkpt>
      <trkpt lat="48.14371" lon="6.40677">
        <ele>470.535746</ele>
        <time>2022-07-12T14:36:55.820Z</time>
      </trkpt>
      <trkpt lat="48.14381" lon="6.40667">
        <ele>471.387027</ele>
        <time>2022-07-12T14:36:58.816Z</time>
      </trkpt>
      <trkpt lat="48.14389" lon="6.40658">
        <ele>472.125079</ele>
        <time>2022-07-12T14:37:01.827Z</time>
      </trkpt>
      <trkpt lat="48.14397" lon="6.4065">
        <ele>472.879597</ele>
        <time>2022-07-12T14:37:04.819Z</time>
      </trkpt>
      <trkpt lat="48.14406" lon="6.40642">
        <ele>473.665729</ele>
        <time>2022-07-12T14:37:08.841Z</time>
      </trkpt>
      <trkpt lat="48.14414" lon="6.40634">
        <ele>474.35974</ele>
        <time>2022-07-12T14:37:11.836Z</time>
      </trkpt>
      <trkpt lat="48.14423" lon="6.40626">
        <ele>475.148287</ele>
        <time>2022-07-12T14:37:14.822Z</time>
      </trkpt>
      <trkpt lat="48.14431" lon="6.40618">
        <ele>475.89478</ele>
        <time>2022-07-12T14:37:17.830Z</time>
      </trkpt>
      <trkpt lat="48.14443" lon="6.40614">
        <ele>476.743849</ele>
        <time>2022-07-12T14:37:21.826Z</time>
      </trkpt>
      <trkpt lat="48.14455" lon="6.40618">
        <ele>477.713294</ele>
        <time>2022-07-12T14:37:24.816Z</time>
      </trkpt>
      <trkpt lat="48.14464" lon="6.40628">
        <ele>478.5138</ele>
        <time>2022-07-12T14:37:27.825Z</time>
      </trkpt>
      <trkpt lat="48.1447" lon="6.4064">
        <ele>479.252893</ele>
        <time>2022-07-12T14:37:31.818Z</time>
      </trkpt>
      <trkpt lat="48.14474" lon="6.40653">
        <ele>480.090871</ele>
        <time>2022-07-12T14:37:34.838Z</time>
      </trkpt>
      <trkpt lat="48.14482" lon="6.40664">
        <ele>481.163902</ele>
        <time>2022-07-12T14:37:40.830Z</time>
      </trkpt>
      <trkpt lat="48.14491" lon="6.40671">
        <ele>482.189759</ele>
        <time>2022-07-12T14:37:46.826Z</time>
      </trkpt>
      <trkpt lat="48.145" lon="6.40675">
        <ele>483.073708</ele>
        <time>2022-07-12T14:37:50.836Z</time>
      </trkpt>
      <trkpt lat="48.14509" lon="6.40679">
        <ele>483.99931</ele>
        <time>2022-07-12T14:37:54.846Z</time>
      </trkpt>
      <trkpt lat="48.1452" lon="6.40683">
        <ele>485.091397</ele>
        <time>2022-07-12T14:37:59.812Z</time>
      </trkpt>
      <trkpt lat="48.1453" lon="6.40685">
        <ele>486.137221</ele>
        <time>2022-07-12T14:38:03.810Z</time>
      </trkpt>
      <trkpt lat="48.14541" lon="6.40683">
        <ele>487.143983</ele>
        <time>2022-07-12T14:38:08.822Z</time>
      </trkpt>
      <trkpt lat="48.14551" lon="6.40675">
        <ele>488.265126</ele>
        <time>2022-07-12T14:38:13.829Z</time>
      </trkpt>
      <trkpt lat="48.14559" lon="6.40666">
        <ele>489.25501</ele>
        <time>2022-07-12T14:38:16.848Z</time>
      </trkpt>
      <trkpt lat="48.14569" lon="6.40657">
        <ele>490.376497</ele>
        <time>2022-07-12T14:38:20.850Z</time>
      </trkpt>
      <trkpt lat="48.14576" lon="6.40649">
        <ele>491.299624</ele>
        <time>2022-07-12T14:38:22.852Z</time>
      </trkpt>
      <trkpt lat="48.14585" lon="6.40641">
        <ele>492.305047</ele>
        <time>2022-07-12T14:38:25.841Z</time>
      </trkpt>
      <trkpt lat="48.14594" lon="6.4063">
        <ele>493.457601</ele>
        <time>2022-07-12T14:38:28.815Z</time>
      </trkpt>
      <trkpt lat="48.14602" lon="6.40621">
        <ele>494.4464</ele>
        <time>2022-07-12T14:38:32.832Z</time>
      </trkpt>
      <trkpt lat="48.14611" lon="6.40612">
        <ele>495.483378</ele>
        <time>2022-07-12T14:38:36.816Z</time>
      </trkpt>
      <trkpt lat="48.14618" lon="6.40604">
        <ele>496.375424</ele>
        <time>2022-07-12T14:38:40.845Z</time>
      </trkpt>
      <trkpt lat="48.14625" lon="6.40594">
        <ele>497.220351</ele>
        <time>2022-07-12T14:38:43.823Z</time>
      </trkpt>
      <trkpt lat="48.14632" lon="6.40579">
        <ele>497.503262</ele>
        <time>2022-07-12T14:38:47.818Z</time>
      </trkpt>
      <trkpt lat="48.14638" lon="6.40567">
        <ele>497.725879</ele>
        <time>2022-07-12T14:38:50.843Z</time>
      </trkpt>
      <trkpt lat="48.14643" lon="6.40556">
        <ele>497.932177</ele>
        <time>2022-07-12T14:38:53.831Z</time>
      </trkpt>
      <trkpt lat="48.14648" lon="6.40544">
        <ele>498.142376</ele>
        <time>2022-07-12T14:38:56.827Z</time>
      </trkpt>
      <trkpt lat="48.14653" lon="6.40529">
        <ele>498.395463</ele>
        <time>2022-07-12T14:39:00.821Z</time>
      </trkpt>
      <trkpt lat="48.14658" lon="6.40514">
        <ele>498.647165</ele>
        <time>2022-07-12T14:39:03.818Z</time>
      </trkpt>
      <trkpt lat="48.14663" lon="6.40499">
        <ele>498.904523</ele>
        <time>2022-07-12T14:39:06.843Z</time>
      </trkpt>
      <trkpt lat="48.14668" lon="6.40484">
        <ele>499.147905</ele>
        <time>2022-07-12T14:39:09.824Z</time>
      </trkpt>
      <trkpt lat="48.14673" lon="6.40468">
        <ele>499.416072</ele>
        <time>2022-07-12T14:39:12.826Z</time>
      </trkpt>
      <trkpt lat="48.14678" lon="6.4045">
        <ele>499.709605</ele>
        <time>2022-07-12T14:39:15.830Z</time>
      </trkpt>
      <trkpt lat="48.14684" lon="6.40435">
        <ele>499.972408</ele>
        <time>2022-07-12T14:39:18.818Z</time>
      </trkpt>
      <trkpt lat="48.1469" lon="6.40422">
        <ele>500.21957</ele>
        <time>2022-07-12T14:39:21.828Z</time>
      </trkpt>
      <trkpt lat="48.14698" lon="6.40412">
        <ele>500.453935</ele>
        <time>2022-07-12T14:39:24.820Z</time>
      </trkpt>
      <trkpt lat="48.14707" lon="6.40403">
        <ele>500.698592</ele>
        <time>2022-07-12T14:39:27.821Z</time>
      </trkpt>
      <trkpt lat="48.14716" lon="6.40395">
        <ele>500.92696</ele>
        <time>2022-07-12T14:39:29.814Z</time>
      </trkpt>
      <trkpt lat="48.14728" lon="6.40387">
        <ele>501.229337</ele>
        <time>2022-07-12T14:39:31.816Z</time>
      </trkpt>
      <trkpt lat="48.14741" lon="6.40378">
        <ele>500.421093</ele>
        <time>2022-07-12T14:39:33.927Z</time>
      </trkpt>
      <trkpt lat="48.14756" lon="6.40369">
        <ele>499.38502</ele>
        <time>2022-07-12T14:39:35.790Z</time>
      </trkpt>
      <trkpt lat="48.14771" lon="6.4036">
        <ele>498.291752</ele>
        <time>2022-07-12T14:39:37.798Z</time>
      </trkpt>
      <trkpt lat="48.14788" lon="6.40352">
        <ele>497.123486</ele>
        <time>2022-07-12T14:39:39.835Z</time>
      </trkpt>
      <trkpt lat="48.14796" lon="6.40347">
        <ele>496.519039</ele>
        <time>2022-07-12T14:39:40.819Z</time>
      </trkpt>
      <trkpt lat="48.14805" lon="6.40343">
        <ele>495.89463</ele>
        <time>2022-07-12T14:39:41.816Z</time>
      </trkpt>
      <trkpt lat="48.14814" lon="6.40339">
        <ele>495.265479</ele>
        <time>2022-07-12T14:39:42.825Z</time>
      </trkpt>
      <trkpt lat="48.14823" lon="6.40333">
        <ele>494.642406</ele>
        <time>2022-07-12T14:39:43.821Z</time>
      </trkpt>
      <trkpt lat="48.14831" lon="6.40325">
        <ele>494.011426</ele>
        <time>2022-07-12T14:39:44.847Z</time>
      </trkpt>
      <trkpt lat="48.14838" lon="6.40317">
        <ele>493.383304</ele>
        <time>2022-07-12T14:39:45.833Z</time>
      </trkpt>
      <trkpt lat="48.1485" lon="6.40301">
        <ele>492.343682</ele>
        <time>2022-07-12T14:39:47.824Z</time>
      </trkpt>
      <trkpt lat="48.14858" lon="6.40291">
        <ele>491.61941</ele>
        <time>2022-07-12T14:39:49.843Z</time>
      </trkpt>
      <trkpt lat="48.14866" lon="6.40282">
        <ele>490.975329</ele>
        <time>2022-07-12T14:39:52.852Z</time>
      </trkpt>
      <trkpt lat="48.1488" lon="6.40258">
        <ele>489.536279</ele>
        <time>2022-07-12T14:40:27.834Z</time>
      </trkpt>
      <trkpt lat="48.14887" lon="6.40246">
        <ele>488.692741</ele>
        <time>2022-07-12T14:40:29.825Z</time>
      </trkpt>
      <trkpt lat="48.14895" lon="6.40235">
        <ele>487.818109</ele>
        <time>2022-07-12T14:40:31.830Z</time>
      </trkpt>
      <trkpt lat="48.14905" lon="6.40223">
        <ele>486.778315</ele>
        <time>2022-07-12T14:40:34.815Z</time>
      </trkpt>
      <trkpt lat="48.14911" lon="6.40213">
        <ele>485.99824</ele>
        <time>2022-07-12T14:40:36.835Z</time>
      </trkpt>
      <trkpt lat="48.14918" lon="6.40204">
        <ele>485.211422</ele>
        <time>2022-07-12T14:40:38.828Z</time>
      </trkpt>
      <trkpt lat="48.14927" lon="6.40193">
        <ele>484.25963</ele>
        <time>2022-07-12T14:40:41.834Z</time>
      </trkpt>
      <trkpt lat="48.14938" lon="6.40182">
        <ele>483.131716</ele>
        <time>2022-07-12T14:40:44.817Z</time>
      </trkpt>
      <trkpt lat="48.14948" lon="6.40169">
        <ele>482.095539</ele>
        <time>2022-07-12T14:40:46.817Z</time>
      </trkpt>
      <trkpt lat="48.14957" lon="6.40158">
        <ele>481.09604</ele>
        <time>2022-07-12T14:40:48.835Z</time>
      </trkpt>
      <trkpt lat="48.14967" lon="6.40153">
        <ele>480.190443</ele>
        <time>2022-07-12T14:40:50.824Z</time>
      </trkpt>
      <trkpt lat="48.14978" lon="6.40141">
        <ele>479.053561</ele>
        <time>2022-07-12T14:40:59.856Z</time>
      </trkpt>
      <trkpt lat="48.14994" lon="6.40109">
        <ele>476.872802</ele>
        <time>2022-07-12T14:43:35.833Z</time>
      </trkpt>
      <trkpt lat="48.15002" lon="6.40096">
        <ele>475.878826</ele>
        <time>2022-07-12T14:43:37.804Z</time>
      </trkpt>
      <trkpt lat="48.1501" lon="6.40081">
        <ele>474.791644</ele>
        <time>2022-07-12T14:43:39.829Z</time>
      </trkpt>
      <trkpt lat="48.1502" lon="6.40072">
        <ele>473.96709</ele>
        <time>2022-07-12T14:43:41.820Z</time>
      </trkpt>
      <trkpt lat="48.1503" lon="6.40066">
        <ele>473.276185</ele>
        <time>2022-07-12T14:43:43.832Z</time>
      </trkpt>
      <trkpt lat="48.1504" lon="6.40061">
        <ele>472.68744</ele>
        <time>2022-07-12T14:43:45.827Z</time>
      </trkpt>
      <trkpt lat="48.15053" lon="6.40059">
        <ele>471.884663</ele>
        <time>2022-07-12T14:43:47.892Z</time>
      </trkpt>
      <trkpt lat="48.15069" lon="6.40058">
        <ele>470.975825</ele>
        <time>2022-07-12T14:43:49.813Z</time>
      </trkpt>
      <trkpt lat="48.15082" lon="6.40059">
        <ele>470.196295</ele>
        <time>2022-07-12T14:43:51.826Z</time>
      </trkpt>
      <trkpt lat="48.15094" lon="6.40063">
        <ele>469.492448</ele>
        <time>2022-07-12T14:43:53.830Z</time>
      </trkpt>
      <trkpt lat="48.15104" lon="6.40053">
        <ele>468.766499</ele>
        <time>2022-07-12T14:43:56.813Z</time>
      </trkpt>
      <trkpt lat="48.15111" lon="6.4004">
        <ele>468.114503</ele>
        <time>2022-07-12T14:43:58.819Z</time>
      </trkpt>
      <trkpt lat="48.15121" lon="6.40029">
        <ele>467.3918</ele>
        <time>2022-07-12T14:44:00.820Z</time>
      </trkpt>
      <trkpt lat="48.15133" lon="6.40017">
        <ele>466.503427</ele>
        <time>2022-07-12T14:44:02.831Z</time>
      </trkpt>
      <trkpt lat="48.15147" lon="6.40004">
        <ele>465.539179</ele>
        <time>2022-07-12T14:44:04.818Z</time>
      </trkpt>
      <trkpt lat="48.15155" lon="6.39996">
        <ele>465.003487</ele>
        <time>2022-07-12T14:44:05.855Z</time>
      </trkpt>
      <trkpt lat="48.15167" lon="6.39986">
        <ele>464.155112</ele>
        <time>2022-07-12T14:44:07.849Z</time>
      </trkpt>
      <trkpt lat="48.1518" lon="6.39979">
        <ele>463.442272</ele>
        <time>2022-07-12T14:44:09.845Z</time>
      </trkpt>
      <trkpt lat="48.15195" lon="6.39974">
        <ele>462.807643</ele>
        <time>2022-07-12T14:44:11.835Z</time>
      </trkpt>
      <trkpt lat="48.15209" lon="6.39969">
        <ele>462.204479</ele>
        <time>2022-07-12T14:44:13.825Z</time>
      </trkpt>
      <trkpt lat="48.15221" lon="6.39967">
        <ele>461.694462</ele>
        <time>2022-07-12T14:44:15.839Z</time>
      </trkpt>
      <trkpt lat="48.15231" lon="6.39967">
        <ele>461.241816</ele>
        <time>2022-07-12T14:44:17.820Z</time>
      </trkpt>
      <trkpt lat="48.15242" lon="6.39967">
        <ele>460.797769</ele>
        <time>2022-07-12T14:44:19.820Z</time>
      </trkpt>
      <trkpt lat="48.15253" lon="6.39967">
        <ele>460.336805</ele>
        <time>2022-07-12T14:44:21.824Z</time>
      </trkpt>
      <trkpt lat="48.15265" lon="6.39968">
        <ele>459.808148</ele>
        <time>2022-07-12T14:44:23.819Z</time>
      </trkpt>
      <trkpt lat="48.15277" lon="6.39967">
        <ele>459.287787</ele>
        <time>2022-07-12T14:44:25.828Z</time>
      </trkpt>
      <trkpt lat="48.15287" lon="6.39967">
        <ele>458.902935</ele>
        <time>2022-07-12T14:44:27.811Z</time>
      </trkpt>
      <trkpt lat="48.15296" lon="6.39967">
        <ele>458.513855</ele>
        <time>2022-07-12T14:44:29.846Z</time>
      </trkpt>
      <trkpt lat="48.15311" lon="6.39968">
        <ele>457.887445</ele>
        <time>2022-07-12T14:44:32.821Z</time>
      </trkpt>
      <trkpt lat="48.15323" lon="6.3997">
        <ele>457.365069</ele>
        <time>2022-07-12T14:44:34.827Z</time>
      </trkpt>
      <trkpt lat="48.15335" lon="6.39969">
        <ele>456.865917</ele>
        <time>2022-07-12T14:44:37.825Z</time>
      </trkpt>
      <trkpt lat="48.15343" lon="6.39963">
        <ele>456.481289</ele>
        <time>2022-07-12T14:44:39.824Z</time>
      </trkpt>
      <trkpt lat="48.15353" lon="6.39957">
        <ele>456.056312</ele>
        <time>2022-07-12T14:44:41.838Z</time>
      </trkpt>
      <trkpt lat="48.15363" lon="6.39949">
        <ele>455.987804</ele>
        <time>2022-07-12T14:44:43.845Z</time>
      </trkpt>
      <trkpt lat="48.15373" lon="6.39943">
        <ele>455.92092</ele>
        <time>2022-07-12T14:44:45.840Z</time>
      </trkpt>
      <trkpt lat="48.15384" lon="6.39935">
        <ele>455.845136</ele>
        <time>2022-07-12T14:44:48.839Z</time>
      </trkpt>
      <trkpt lat="48.15393" lon="6.39927">
        <ele>455.776215</ele>
        <time>2022-07-12T14:44:53.811Z</time>
      </trkpt>
      <trkpt lat="48.15401" lon="6.39919">
        <ele>455.718399</ele>
        <time>2022-07-12T14:44:57.842Z</time>
      </trkpt>
      <trkpt lat="48.1541" lon="6.39914">
        <ele>455.661965</ele>
        <time>2022-07-12T14:45:00.819Z</time>
      </trkpt>
      <trkpt lat="48.15419" lon="6.39906">
        <ele>455.596469</ele>
        <time>2022-07-12T14:45:05.821Z</time>
      </trkpt>
      <trkpt lat="48.1543" lon="6.39908">
        <ele>455.522666</ele>
        <time>2022-07-12T14:45:11.807Z</time>
      </trkpt>
      <trkpt lat="48.15439" lon="6.39913">
        <ele>455.465153</ele>
        <time>2022-07-12T14:45:14.820Z</time>
      </trkpt>
      <trkpt lat="48.15449" lon="6.39916">
        <ele>455.402951</ele>
        <time>2022-07-12T14:45:18.815Z</time>
      </trkpt>
      <trkpt lat="48.15459" lon="6.39917">
        <ele>455.336399</ele>
        <time>2022-07-12T14:45:22.838Z</time>
      </trkpt>
      <trkpt lat="48.15469" lon="6.39917">
        <ele>455.278512</ele>
        <time>2022-07-12T14:45:26.834Z</time>
      </trkpt>
      <trkpt lat="48.15479" lon="6.39917">
        <ele>455.21196</ele>
        <time>2022-07-12T14:45:31.805Z</time>
      </trkpt>
      <trkpt lat="48.15496" lon="6.39917">
        <ele>455.108104</ele>
        <time>2022-07-12T14:45:40.824Z</time>
      </trkpt>
      <trkpt lat="48.15512" lon="6.39884">
        <ele>455.098657</ele>
        <time>2022-07-12T14:46:26.841Z</time>
      </trkpt>
      <trkpt lat="48.15518" lon="6.39871">
        <ele>456.287364</ele>
        <time>2022-07-12T14:46:36.842Z</time>
      </trkpt>
      <trkpt lat="48.15522" lon="6.39838">
        <ele>458.808147</ele>
        <time>2022-07-12T14:47:10.828Z</time>
      </trkpt>
      <trkpt lat="48.1553" lon="6.39827">
        <ele>460.025976</ele>
        <time>2022-07-12T14:47:16.807Z</time>
      </trkpt>
      <trkpt lat="48.15538" lon="6.39819">
        <ele>461.127334</ele>
        <time>2022-07-12T14:47:22.813Z</time>
      </trkpt>
      <trkpt lat="48.15546" lon="6.39812">
        <ele>462.166847</ele>
        <time>2022-07-12T14:47:28.791Z</time>
      </trkpt>
      <trkpt lat="48.15553" lon="6.39803">
        <ele>463.291375</ele>
        <time>2022-07-12T14:47:36.803Z</time>
      </trkpt>
      <trkpt lat="48.15563" lon="6.39795">
        <ele>464.521025</ele>
        <time>2022-07-12T14:47:48.810Z</time>
      </trkpt>
      <trkpt lat="48.15575" lon="6.39794">
        <ele>465.965671</ele>
        <time>2022-07-12T14:47:57.795Z</time>
      </trkpt>
      <trkpt lat="48.15587" lon="6.39785">
        <ele>467.461554</ele>
        <time>2022-07-12T14:48:15.813Z</time>
      </trkpt>
      <trkpt lat="48.15593" lon="6.39773">
        <ele>468.663373</ele>
        <time>2022-07-12T14:48:20.801Z</time>
      </trkpt>
      <trkpt lat="48.15598" lon="6.39762">
        <ele>469.700049</ele>
        <time>2022-07-12T14:48:25.813Z</time>
      </trkpt>
      <trkpt lat="48.15604" lon="6.39751">
        <ele>470.745101</ele>
        <time>2022-07-12T14:48:31.797Z</time>
      </trkpt>
      <trkpt lat="48.15609" lon="6.3974">
        <ele>471.787977</ele>
        <time>2022-07-12T14:48:36.830Z</time>
      </trkpt>
      <trkpt lat="48.15614" lon="6.39725">
        <ele>473.081043</ele>
        <time>2022-07-12T14:48:41.816Z</time>
      </trkpt>
      <trkpt lat="48.15614" lon="6.39707">
        <ele>474.395565</ele>
        <time>2022-07-12T14:48:45.802Z</time>
      </trkpt>
      <trkpt lat="48.1562" lon="6.39696">
        <ele>475.519281</ele>
        <time>2022-07-12T14:48:49.810Z</time>
      </trkpt>
      <trkpt lat="48.1563" lon="6.39686">
        <ele>474.138118</ele>
        <time>2022-07-12T14:48:53.832Z</time>
      </trkpt>
      <trkpt lat="48.1564" lon="6.39677">
        <ele>472.655444</ele>
        <time>2022-07-12T14:48:56.802Z</time>
      </trkpt>
      <trkpt lat="48.15652" lon="6.39674">
        <ele>471.230657</ele>
        <time>2022-07-12T14:48:58.806Z</time>
      </trkpt>
      <trkpt lat="48.15665" lon="6.39677">
        <ele>469.521801</ele>
        <time>2022-07-12T14:49:00.807Z</time>
      </trkpt>
      <trkpt lat="48.15675" lon="6.39678">
        <ele>468.361386</ele>
        <time>2022-07-12T14:49:02.814Z</time>
      </trkpt>
      <trkpt lat="48.15684" lon="6.39673">
        <ele>467.159924</ele>
        <time>2022-07-12T14:49:04.796Z</time>
      </trkpt>
      <trkpt lat="48.15695" lon="6.39673">
        <ele>465.803195</ele>
        <time>2022-07-12T14:49:06.818Z</time>
      </trkpt>
      <trkpt lat="48.15707" lon="6.39674">
        <ele>464.335119</ele>
        <time>2022-07-12T14:49:08.825Z</time>
      </trkpt>
      <trkpt lat="48.15716" lon="6.39671">
        <ele>463.163534</ele>
        <time>2022-07-12T14:49:10.815Z</time>
      </trkpt>
      <trkpt lat="48.15728" lon="6.39667">
        <ele>461.693597</ele>
        <time>2022-07-12T14:49:13.809Z</time>
      </trkpt>
      <trkpt lat="48.15736" lon="6.39672">
        <ele>460.558869</ele>
        <time>2022-07-12T14:49:15.810Z</time>
      </trkpt>
      <trkpt lat="48.15744" lon="6.39683">
        <ele>459.185102</ele>
        <time>2022-07-12T14:49:17.796Z</time>
      </trkpt>
      <trkpt lat="48.15752" lon="6.39692">
        <ele>458.014971</ele>
        <time>2022-07-12T14:49:19.794Z</time>
      </trkpt>
      <trkpt lat="48.15758" lon="6.39702">
        <ele>456.855078</ele>
        <time>2022-07-12T14:49:21.806Z</time>
      </trkpt>
      <trkpt lat="48.15765" lon="6.39717">
        <ele>455.355664</ele>
        <time>2022-07-12T14:49:23.801Z</time>
      </trkpt>
      <trkpt lat="48.15772" lon="6.39732">
        <ele>453.86352</ele>
        <time>2022-07-12T14:49:26.812Z</time>
      </trkpt>
      <trkpt lat="48.1578" lon="6.39728">
        <ele>453.443579</ele>
        <time>2022-07-12T14:49:33.803Z</time>
      </trkpt>
      <trkpt lat="48.15783" lon="6.39713">
        <ele>453.609783</ele>
        <time>2022-07-12T14:49:36.801Z</time>
      </trkpt>
      <trkpt lat="48.15785" lon="6.39697">
        <ele>453.781162</ele>
        <time>2022-07-12T14:49:40.796Z</time>
      </trkpt>
      <trkpt lat="48.15781" lon="6.3968">
        <ele>453.982028</ele>
        <time>2022-07-12T14:49:43.820Z</time>
      </trkpt>
      <trkpt lat="48.15779" lon="6.39665">
        <ele>454.142619</ele>
        <time>2022-07-12T14:49:45.813Z</time>
      </trkpt>
      <trkpt lat="48.15775" lon="6.39652">
        <ele>454.295081</ele>
        <time>2022-07-12T14:49:47.795Z</time>
      </trkpt>
      <trkpt lat="48.15773" lon="6.39635">
        <ele>454.478136</ele>
        <time>2022-07-12T14:49:50.826Z</time>
      </trkpt>
      <trkpt lat="48.15771" lon="6.39622">
        <ele>454.628538</ele>
        <time>2022-07-12T14:49:52.811Z</time>
      </trkpt>
      <trkpt lat="48.1577" lon="6.39608">
        <ele>454.777218</ele>
        <time>2022-07-12T14:49:54.818Z</time>
      </trkpt>
      <trkpt lat="48.15769" lon="6.39593">
        <ele>454.942357</ele>
        <time>2022-07-12T14:49:56.810Z</time>
      </trkpt>
      <trkpt lat="48.15769" lon="6.39577">
        <ele>455.106643</ele>
        <time>2022-07-12T14:49:58.798Z</time>
      </trkpt>
      <trkpt lat="48.15768" lon="6.3956">
        <ele>455.297604</ele>
        <time>2022-07-12T14:50:01.822Z</time>
      </trkpt>
      <trkpt lat="48.15768" lon="6.39542">
        <ele>455.490479</ele>
        <time>2022-07-12T14:50:05.810Z</time>
      </trkpt>
      <trkpt lat="48.15767" lon="6.39525">
        <ele>455.66736</ele>
        <time>2022-07-12T14:50:08.816Z</time>
      </trkpt>
      <trkpt lat="48.15765" lon="6.39509">
        <ele>455.847646</ele>
        <time>2022-07-12T14:50:12.825Z</time>
      </trkpt>
      <trkpt lat="48.15764" lon="6.39493">
        <ele>456.022804</ele>
        <time>2022-07-12T14:50:16.819Z</time>
      </trkpt>
      <trkpt lat="48.15762" lon="6.39479">
        <ele>456.169481</ele>
        <time>2022-07-12T14:50:19.810Z</time>
      </trkpt>
      <trkpt lat="48.1576" lon="6.39466">
        <ele>456.472825</ele>
        <time>2022-07-12T14:50:22.807Z</time>
      </trkpt>
      <trkpt lat="48.15757" lon="6.39452">
        <ele>457.126304</ele>
        <time>2022-07-12T14:50:26.797Z</time>
      </trkpt>
      <trkpt lat="48.1575" lon="6.39441">
        <ele>457.743494</ele>
        <time>2022-07-12T14:50:29.806Z</time>
      </trkpt>
      <trkpt lat="48.15745" lon="6.3943">
        <ele>458.337994</ele>
        <time>2022-07-12T14:50:32.797Z</time>
      </trkpt>
      <trkpt lat="48.15738" lon="6.39417">
        <ele>459.049097</ele>
        <time>2022-07-12T14:50:36.817Z</time>
      </trkpt>
      <trkpt lat="48.15732" lon="6.39402">
        <ele>459.799734</ele>
        <time>2022-07-12T14:50:40.802Z</time>
      </trkpt>
      <trkpt lat="48.15725" lon="6.39389">
        <ele>460.528375</ele>
        <time>2022-07-12T14:50:44.793Z</time>
      </trkpt>
      <trkpt lat="48.15718" lon="6.39375">
        <ele>461.26651</ele>
        <time>2022-07-12T14:50:48.798Z</time>
      </trkpt>
      <trkpt lat="48.15713" lon="6.39364">
        <ele>461.848519</ele>
        <time>2022-07-12T14:50:51.847Z</time>
      </trkpt>
      <trkpt lat="48.15707" lon="6.39352">
        <ele>462.507176</ele>
        <time>2022-07-12T14:50:54.812Z</time>
      </trkpt>
      <trkpt lat="48.157" lon="6.3934">
        <ele>463.194782</ele>
        <time>2022-07-12T14:50:57.796Z</time>
      </trkpt>
      <trkpt lat="48.15693" lon="6.39327">
        <ele>463.897153</ele>
        <time>2022-07-12T14:51:00.823Z</time>
      </trkpt>
      <trkpt lat="48.15687" lon="6.39314">
        <ele>464.586702</ele>
        <time>2022-07-12T14:51:03.806Z</time>
      </trkpt>
      <trkpt lat="48.15682" lon="6.39301">
        <ele>465.247571</ele>
        <time>2022-07-12T14:51:06.826Z</time>
      </trkpt>
      <trkpt lat="48.15679" lon="6.39286">
        <ele>465.909944</ele>
        <time>2022-07-12T14:51:09.802Z</time>
      </trkpt>
      <trkpt lat="48.15678" lon="6.39272">
        <ele>466.542346</ele>
        <time>2022-07-12T14:51:12.825Z</time>
      </trkpt>
      <trkpt lat="48.15681" lon="6.39258">
        <ele>467.142294</ele>
        <time>2022-07-12T14:51:15.816Z</time>
      </trkpt>
      <trkpt lat="48.15689" lon="6.39245">
        <ele>467.920854</ele>
        <time>2022-07-12T14:51:18.813Z</time>
      </trkpt>
      <trkpt lat="48.15699" lon="6.39233">
        <ele>468.718029</ele>
        <time>2022-07-12T14:51:21.806Z</time>
      </trkpt>
      <trkpt lat="48.15708" lon="6.3922">
        <ele>469.520124</ele>
        <time>2022-07-12T14:51:24.818Z</time>
      </trkpt>
      <trkpt lat="48.15716" lon="6.39205">
        <ele>470.342957</ele>
        <time>2022-07-12T14:51:27.795Z</time>
      </trkpt>
      <trkpt lat="48.15722" lon="6.39188">
        <ele>471.179014</ele>
        <time>2022-07-12T14:51:30.815Z</time>
      </trkpt>
      <trkpt lat="48.15724" lon="6.3917">
        <ele>471.967352</ele>
        <time>2022-07-12T14:51:33.807Z</time>
      </trkpt>
      <trkpt lat="48.15726" lon="6.39152">
        <ele>472.735144</ele>
        <time>2022-07-12T14:51:36.805Z</time>
      </trkpt>
      <trkpt lat="48.15725" lon="6.39135">
        <ele>473.478717</ele>
        <time>2022-07-12T14:51:39.814Z</time>
      </trkpt>
      <trkpt lat="48.15723" lon="6.39118">
        <ele>474.213995</ele>
        <time>2022-07-12T14:51:42.823Z</time>
      </trkpt>
      <trkpt lat="48.15722" lon="6.39102">
        <ele>474.877441</ele>
        <time>2022-07-12T14:51:45.803Z</time>
      </trkpt>
      <trkpt lat="48.15721" lon="6.39087">
        <ele>475.562678</ele>
        <time>2022-07-12T14:51:48.823Z</time>
      </trkpt>
      <trkpt lat="48.15719" lon="6.39071">
        <ele>476.239438</ele>
        <time>2022-07-12T14:51:51.815Z</time>
      </trkpt>
      <trkpt lat="48.15718" lon="6.39056">
        <ele>476.904253</ele>
        <time>2022-07-12T14:51:54.822Z</time>
      </trkpt>
      <trkpt lat="48.15717" lon="6.3904">
        <ele>477.578353</ele>
        <time>2022-07-12T14:51:57.819Z</time>
      </trkpt>
      <trkpt lat="48.15715" lon="6.39023">
        <ele>478.31431</ele>
        <time>2022-07-12T14:52:00.802Z</time>
      </trkpt>
      <trkpt lat="48.15714" lon="6.39007">
        <ele>479.001836</ele>
        <time>2022-07-12T14:52:03.818Z</time>
      </trkpt>
      <trkpt lat="48.15715" lon="6.38993">
        <ele>479.537818</ele>
        <time>2022-07-12T14:52:06.815Z</time>
      </trkpt>
      <trkpt lat="48.15722" lon="6.38979">
        <ele>479.909254</ele>
        <time>2022-07-12T14:52:09.811Z</time>
      </trkpt>
      <trkpt lat="48.15728" lon="6.38968">
        <ele>480.193576</ele>
        <time>2022-07-12T14:52:11.804Z</time>
      </trkpt>
      <trkpt lat="48.15734" lon="6.38951">
        <ele>480.5963</ele>
        <time>2022-07-12T14:52:14.806Z</time>
      </trkpt>
      <trkpt lat="48.15739" lon="6.3894">
        <ele>480.882507</ele>
        <time>2022-07-12T14:52:16.806Z</time>
      </trkpt>
      <trkpt lat="48.15743" lon="6.38927">
        <ele>481.182191</ele>
        <time>2022-07-12T14:52:18.795Z</time>
      </trkpt>
      <trkpt lat="48.15748" lon="6.38914">
        <ele>481.494061</ele>
        <time>2022-07-12T14:52:20.814Z</time>
      </trkpt>
      <trkpt lat="48.15752" lon="6.38899">
        <ele>481.821933</ele>
        <time>2022-07-12T14:52:22.817Z</time>
      </trkpt>
      <trkpt lat="48.15756" lon="6.38884">
        <ele>482.164707</ele>
        <time>2022-07-12T14:52:24.815Z</time>
      </trkpt>
      <trkpt lat="48.15759" lon="6.38868">
        <ele>482.506429</ele>
        <time>2022-07-12T14:52:26.815Z</time>
      </trkpt>
      <trkpt lat="48.15763" lon="6.38853">
        <ele>482.846354</ele>
        <time>2022-07-12T14:52:28.815Z</time>
      </trkpt>
      <trkpt lat="48.15767" lon="6.38838">
        <ele>483.189034</ele>
        <time>2022-07-12T14:52:30.818Z</time>
      </trkpt>
      <trkpt lat="48.1577" lon="6.38823">
        <ele>483.518053</ele>
        <time>2022-07-12T14:52:32.803Z</time>
      </trkpt>
      <trkpt lat="48.15774" lon="6.38809">
        <ele>483.834923</ele>
        <time>2022-07-12T14:52:34.814Z</time>
      </trkpt>
      <trkpt lat="48.15777" lon="6.38794">
        <ele>484.150781</ele>
        <time>2022-07-12T14:52:36.810Z</time>
      </trkpt>
      <trkpt lat="48.15781" lon="6.38781">
        <ele>484.449278</ele>
        <time>2022-07-12T14:52:38.824Z</time>
      </trkpt>
      <trkpt lat="48.15787" lon="6.38768">
        <ele>484.808557</ele>
        <time>2022-07-12T14:52:41.802Z</time>
      </trkpt>
      <trkpt lat="48.15795" lon="6.38756">
        <ele>485.158537</ele>
        <time>2022-07-12T14:52:44.813Z</time>
      </trkpt>
      <trkpt lat="48.15799" lon="6.38741">
        <ele>485.534131</ele>
        <time>2022-07-12T14:52:47.826Z</time>
      </trkpt>
      <trkpt lat="48.1579" lon="6.38727">
        <ele>485.986386</ele>
        <time>2022-07-12T14:52:51.807Z</time>
      </trkpt>
      <trkpt lat="48.15784" lon="6.38717">
        <ele>486.316899</ele>
        <time>2022-07-12T14:52:53.794Z</time>
      </trkpt>
      <trkpt lat="48.15774" lon="6.38708">
        <ele>486.761265</ele>
        <time>2022-07-12T14:52:56.805Z</time>
      </trkpt>
      <trkpt lat="48.15767" lon="6.3869">
        <ele>487.262971</ele>
        <time>2022-07-12T14:52:59.808Z</time>
      </trkpt>
      <trkpt lat="48.15758" lon="6.38675">
        <ele>487.742566</ele>
        <time>2022-07-12T14:53:02.804Z</time>
      </trkpt>
      <trkpt lat="48.15749" lon="6.38664">
        <ele>488.183999</ele>
        <time>2022-07-12T14:53:05.811Z</time>
      </trkpt>
      <trkpt lat="48.1574" lon="6.38658">
        <ele>488.519432</ele>
        <time>2022-07-12T14:53:07.825Z</time>
      </trkpt>
      <trkpt lat="48.15734" lon="6.38647">
        <ele>488.871046</ele>
        <time>2022-07-12T14:53:09.807Z</time>
      </trkpt>
      <trkpt lat="48.15728" lon="6.38636">
        <ele>489.21368</ele>
        <time>2022-07-12T14:53:11.803Z</time>
      </trkpt>
      <trkpt lat="48.15723" lon="6.38625">
        <ele>489.550788</ele>
        <time>2022-07-12T14:53:13.797Z</time>
      </trkpt>
      <trkpt lat="48.15714" lon="6.38616">
        <ele>489.921605</ele>
        <time>2022-07-12T14:53:15.799Z</time>
      </trkpt>
      <trkpt lat="48.15706" lon="6.38609">
        <ele>490.274299</ele>
        <time>2022-07-12T14:53:17.795Z</time>
      </trkpt>
      <trkpt lat="48.15698" lon="6.38602">
        <ele>490.602876</ele>
        <time>2022-07-12T14:53:19.810Z</time>
      </trkpt>
      <trkpt lat="48.15689" lon="6.38597">
        <ele>490.957499</ele>
        <time>2022-07-12T14:53:21.807Z</time>
      </trkpt>
      <trkpt lat="48.15681" lon="6.3859">
        <ele>491.301306</ele>
        <time>2022-07-12T14:53:23.808Z</time>
      </trkpt>
      <trkpt lat="48.15676" lon="6.38579">
        <ele>491.63003</ele>
        <time>2022-07-12T14:53:25.802Z</time>
      </trkpt>
      <trkpt lat="48.15676" lon="6.38564">
        <ele>491.694731</ele>
        <time>2022-07-12T14:53:27.811Z</time>
      </trkpt>
      <trkpt lat="48.15674" lon="6.38549">
        <ele>491.715486</ele>
        <time>2022-07-12T14:53:29.803Z</time>
      </trkpt>
      <trkpt lat="48.15672" lon="6.38533">
        <ele>491.736665</ele>
        <time>2022-07-12T14:53:31.802Z</time>
      </trkpt>
      <trkpt lat="48.15669" lon="6.38519">
        <ele>491.757302</ele>
        <time>2022-07-12T14:53:33.811Z</time>
      </trkpt>
      <trkpt lat="48.15665" lon="6.38505">
        <ele>491.77816</ele>
        <time>2022-07-12T14:53:35.805Z</time>
      </trkpt>
      <trkpt lat="48.15662" lon="6.3849">
        <ele>491.799885</ele>
        <time>2022-07-12T14:53:37.822Z</time>
      </trkpt>
      <trkpt lat="48.15658" lon="6.38474">
        <ele>491.822692</ele>
        <time>2022-07-12T14:53:39.806Z</time>
      </trkpt>
      <trkpt lat="48.15653" lon="6.38461">
        <ele>491.843546</ele>
        <time>2022-07-12T14:53:41.806Z</time>
      </trkpt>
      <trkpt lat="48.15648" lon="6.38448">
        <ele>491.863487</ele>
        <time>2022-07-12T14:53:43.798Z</time>
      </trkpt>
      <trkpt lat="48.15642" lon="6.38435">
        <ele>491.885502</ele>
        <time>2022-07-12T14:53:45.803Z</time>
      </trkpt>
      <trkpt lat="48.15635" lon="6.3842">
        <ele>491.910694</ele>
        <time>2022-07-12T14:53:48.835Z</time>
      </trkpt>
      <trkpt lat="48.1563" lon="6.38408">
        <ele>491.929751</ele>
        <time>2022-07-12T14:53:50.816Z</time>
      </trkpt>
      <trkpt lat="48.15625" lon="6.38393">
        <ele>491.95267</ele>
        <time>2022-07-12T14:53:52.806Z</time>
      </trkpt>
      <trkpt lat="48.15622" lon="6.38378">
        <ele>491.97388</ele>
        <time>2022-07-12T14:53:54.794Z</time>
      </trkpt>
      <trkpt lat="48.15618" lon="6.38365">
        <ele>491.992942</ele>
        <time>2022-07-12T14:53:56.825Z</time>
      </trkpt>
      <trkpt lat="48.15613" lon="6.3835">
        <ele>492.016178</ele>
        <time>2022-07-12T14:53:58.803Z</time>
      </trkpt>
      <trkpt lat="48.15608" lon="6.38336">
        <ele>492.037666</ele>
        <time>2022-07-12T14:54:00.794Z</time>
      </trkpt>
      <trkpt lat="48.15603" lon="6.38319">
        <ele>492.12789</ele>
        <time>2022-07-12T14:54:02.807Z</time>
      </trkpt>
      <trkpt lat="48.15598" lon="6.38303">
        <ele>492.232672</ele>
        <time>2022-07-12T14:54:04.831Z</time>
      </trkpt>
      <trkpt lat="48.15593" lon="6.38289">
        <ele>492.331802</ele>
        <time>2022-07-12T14:54:06.818Z</time>
      </trkpt>
      <trkpt lat="48.15588" lon="6.38274">
        <ele>492.432831</ele>
        <time>2022-07-12T14:54:08.822Z</time>
      </trkpt>
      <trkpt lat="48.15582" lon="6.38262">
        <ele>492.52052</ele>
        <time>2022-07-12T14:54:10.827Z</time>
      </trkpt>
      <trkpt lat="48.15577" lon="6.38251">
        <ele>492.60433</ele>
        <time>2022-07-12T14:54:12.815Z</time>
      </trkpt>
      <trkpt lat="48.15572" lon="6.38239">
        <ele>492.689829</ele>
        <time>2022-07-12T14:54:14.799Z</time>
      </trkpt>
      <trkpt lat="48.15575" lon="6.38218">
        <ele>492.819316</ele>
        <time>2022-07-12T14:54:17.803Z</time>
      </trkpt>
      <trkpt lat="48.15577" lon="6.38201">
        <ele>492.921262</ele>
        <time>2022-07-12T14:54:19.795Z</time>
      </trkpt>
      <trkpt lat="48.15579" lon="6.38185">
        <ele>493.020735</ele>
        <time>2022-07-12T14:54:21.801Z</time>
      </trkpt>
      <trkpt lat="48.15583" lon="6.38167">
        <ele>493.13738</ele>
        <time>2022-07-12T14:54:23.811Z</time>
      </trkpt>
      <trkpt lat="48.15585" lon="6.38151">
        <ele>493.234148</ele>
        <time>2022-07-12T14:54:25.808Z</time>
      </trkpt>
      <trkpt lat="48.15587" lon="6.38136">
        <ele>493.325267</ele>
        <time>2022-07-12T14:54:27.814Z</time>
      </trkpt>
      <trkpt lat="48.1559" lon="6.38118">
        <ele>493.438787</ele>
        <time>2022-07-12T14:54:29.812Z</time>
      </trkpt>
      <trkpt lat="48.15591" lon="6.38101">
        <ele>493.544702</ele>
        <time>2022-07-12T14:54:31.811Z</time>
      </trkpt>
      <trkpt lat="48.15594" lon="6.38086">
        <ele>493.636467</ele>
        <time>2022-07-12T14:54:33.813Z</time>
      </trkpt>
      <trkpt lat="48.15598" lon="6.38068">
        <ele>493.777578</ele>
        <time>2022-07-12T14:54:36.813Z</time>
      </trkpt>
      <trkpt lat="48.15602" lon="6.3805">
        <ele>493.932443</ele>
        <time>2022-07-12T14:54:39.813Z</time>
      </trkpt>
      <trkpt lat="48.15606" lon="6.38033">
        <ele>494.076933</ele>
        <time>2022-07-12T14:54:42.813Z</time>
      </trkpt>
      <trkpt lat="48.15607" lon="6.38015">
        <ele>494.22403</ele>
        <time>2022-07-12T14:54:46.800Z</time>
      </trkpt>
      <trkpt lat="48.15607" lon="6.37998">
        <ele>494.366592</ele>
        <time>2022-07-12T14:54:49.831Z</time>
      </trkpt>
      <trkpt lat="48.15607" lon="6.37981">
        <ele>494.497582</ele>
        <time>2022-07-12T14:54:52.819Z</time>
      </trkpt>
      <trkpt lat="48.15608" lon="6.37964">
        <ele>494.644051</ele>
        <time>2022-07-12T14:54:55.803Z</time>
      </trkpt>
      <trkpt lat="48.15614" lon="6.3795">
        <ele>494.773826</ele>
        <time>2022-07-12T14:54:58.806Z</time>
      </trkpt>
      <trkpt lat="48.1562" lon="6.37935">
        <ele>494.918033</ele>
        <time>2022-07-12T14:55:01.815Z</time>
      </trkpt>
      <trkpt lat="48.15625" lon="6.37917">
        <ele>495.071909</ele>
        <time>2022-07-12T14:55:04.804Z</time>
      </trkpt>
      <trkpt lat="48.15628" lon="6.37902">
        <ele>495.198784</ele>
        <time>2022-07-12T14:55:07.812Z</time>
      </trkpt>
      <trkpt lat="48.15631" lon="6.37884">
        <ele>495.351242</ele>
        <time>2022-07-12T14:55:10.842Z</time>
      </trkpt>
      <trkpt lat="48.15635" lon="6.3787">
        <ele>495.479827</ele>
        <time>2022-07-12T14:55:12.809Z</time>
      </trkpt>
      <trkpt lat="48.15637" lon="6.37853">
        <ele>495.614576</ele>
        <time>2022-07-12T14:55:14.800Z</time>
      </trkpt>
      <trkpt lat="48.1564" lon="6.37832">
        <ele>495.794163</ele>
        <time>2022-07-12T14:55:16.802Z</time>
      </trkpt>
      <trkpt lat="48.15641" lon="6.37818">
        <ele>495.695183</ele>
        <time>2022-07-12T14:55:17.841Z</time>
      </trkpt>
      <trkpt lat="48.15642" lon="6.37805">
        <ele>495.097196</ele>
        <time>2022-07-12T14:55:18.815Z</time>
      </trkpt>
      <trkpt lat="48.15641" lon="6.37784">
        <ele>494.213296</ele>
        <time>2022-07-12T14:55:20.790Z</time>
      </trkpt>
      <trkpt lat="48.15638" lon="6.37764">
        <ele>493.31141</ele>
        <time>2022-07-12T14:55:23.805Z</time>
      </trkpt>
      <trkpt lat="48.15633" lon="6.37745">
        <ele>492.455583</ele>
        <time>2022-07-12T14:55:25.814Z</time>
      </trkpt>
      <trkpt lat="48.15626" lon="6.37726">
        <ele>491.509909</ele>
        <time>2022-07-12T14:55:27.830Z</time>
      </trkpt>
      <trkpt lat="48.15619" lon="6.37707">
        <ele>490.567452</ele>
        <time>2022-07-12T14:55:29.808Z</time>
      </trkpt>
      <trkpt lat="48.15614" lon="6.37688">
        <ele>489.678672</ele>
        <time>2022-07-12T14:55:31.811Z</time>
      </trkpt>
      <trkpt lat="48.1561" lon="6.37667">
        <ele>488.727568</ele>
        <time>2022-07-12T14:55:33.799Z</time>
      </trkpt>
      <trkpt lat="48.15608" lon="6.37645">
        <ele>487.782727</ele>
        <time>2022-07-12T14:55:35.794Z</time>
      </trkpt>
      <trkpt lat="48.15609" lon="6.37624">
        <ele>486.868996</ele>
        <time>2022-07-12T14:55:37.798Z</time>
      </trkpt>
      <trkpt lat="48.1561" lon="6.37604">
        <ele>485.988525</ele>
        <time>2022-07-12T14:55:39.812Z</time>
      </trkpt>
      <trkpt lat="48.15611" lon="6.37589">
        <ele>485.352656</ele>
        <time>2022-07-12T14:55:41.811Z</time>
      </trkpt>
      <trkpt lat="48.15611" lon="6.37569">
        <ele>484.4697</ele>
        <time>2022-07-12T14:55:44.816Z</time>
      </trkpt>
      <trkpt lat="48.15613" lon="6.37554">
        <ele>483.772508</ele>
        <time>2022-07-12T14:55:46.794Z</time>
      </trkpt>
      <trkpt lat="48.15619" lon="6.37536">
        <ele>482.83686</ele>
        <time>2022-07-12T14:55:48.827Z</time>
      </trkpt>
      <trkpt lat="48.15627" lon="6.37521">
        <ele>481.963451</ele>
        <time>2022-07-12T14:55:50.822Z</time>
      </trkpt>
      <trkpt lat="48.15633" lon="6.37506">
        <ele>481.104699</ele>
        <time>2022-07-12T14:55:52.804Z</time>
      </trkpt>
      <trkpt lat="48.15635" lon="6.37488">
        <ele>480.264732</ele>
        <time>2022-07-12T14:55:54.806Z</time>
      </trkpt>
      <trkpt lat="48.15636" lon="6.37469">
        <ele>479.391874</ele>
        <time>2022-07-12T14:55:56.803Z</time>
      </trkpt>
      <trkpt lat="48.15641" lon="6.37451">
        <ele>478.472479</ele>
        <time>2022-07-12T14:55:58.806Z</time>
      </trkpt>
      <trkpt lat="48.15651" lon="6.37433">
        <ele>477.402948</ele>
        <time>2022-07-12T14:56:00.815Z</time>
      </trkpt>
      <trkpt lat="48.15662" lon="6.37417">
        <ele>476.327847</ele>
        <time>2022-07-12T14:56:02.806Z</time>
      </trkpt>
      <trkpt lat="48.15675" lon="6.37409">
        <ele>475.311168</ele>
        <time>2022-07-12T14:56:04.805Z</time>
      </trkpt>
      <trkpt lat="48.15687" lon="6.374">
        <ele>474.362307</ele>
        <time>2022-07-12T14:56:06.820Z</time>
      </trkpt>
      <trkpt lat="48.157" lon="6.37391">
        <ele>473.367616</ele>
        <time>2022-07-12T14:56:08.808Z</time>
      </trkpt>
      <trkpt lat="48.15714" lon="6.37385">
        <ele>472.385498</ele>
        <time>2022-07-12T14:56:10.814Z</time>
      </trkpt>
      <trkpt lat="48.15724" lon="6.37381">
        <ele>471.596653</ele>
        <time>2022-07-12T14:56:12.803Z</time>
      </trkpt>
      <trkpt lat="48.15735" lon="6.37375">
        <ele>470.892323</ele>
        <time>2022-07-12T14:56:14.813Z</time>
      </trkpt>
      <trkpt lat="48.15745" lon="6.37371">
        <ele>470.209222</ele>
        <time>2022-07-12T14:56:16.801Z</time>
      </trkpt>
      <trkpt lat="48.15755" lon="6.37366">
        <ele>469.490973</ele>
        <time>2022-07-12T14:56:18.812Z</time>
      </trkpt>
      <trkpt lat="48.15765" lon="6.37361">
        <ele>468.818901</ele>
        <time>2022-07-12T14:56:20.794Z</time>
      </trkpt>
      <trkpt lat="48.15773" lon="6.37356">
        <ele>468.224686</ele>
        <time>2022-07-12T14:56:22.791Z</time>
      </trkpt>
      <trkpt lat="48.15794" lon="6.37345">
        <ele>466.769493</ele>
        <time>2022-07-12T14:57:01.818Z</time>
      </trkpt>
      <trkpt lat="48.15805" lon="6.37338">
        <ele>465.990522</ele>
        <time>2022-07-12T14:57:05.832Z</time>
      </trkpt>
      <trkpt lat="48.15816" lon="6.37333">
        <ele>465.223298</ele>
        <time>2022-07-12T14:57:08.837Z</time>
      </trkpt>
      <trkpt lat="48.15827" lon="6.37328">
        <ele>464.472822</ele>
        <time>2022-07-12T14:57:11.815Z</time>
      </trkpt>
      <trkpt lat="48.15838" lon="6.37322">
        <ele>463.715502</ele>
        <time>2022-07-12T14:57:14.819Z</time>
      </trkpt>
      <trkpt lat="48.15847" lon="6.37318">
        <ele>463.11989</ele>
        <time>2022-07-12T14:57:17.831Z</time>
      </trkpt>
      <trkpt lat="48.15857" lon="6.37313">
        <ele>462.396444</ele>
        <time>2022-07-12T14:57:21.824Z</time>
      </trkpt>
      <trkpt lat="48.15867" lon="6.37312">
        <ele>461.778091</ele>
        <time>2022-07-12T14:57:24.812Z</time>
      </trkpt>
      <trkpt lat="48.15877" lon="6.3731">
        <ele>461.118919</ele>
        <time>2022-07-12T14:57:29.812Z</time>
      </trkpt>
      <trkpt lat="48.15887" lon="6.3731">
        <ele>460.430475</ele>
        <time>2022-07-12T14:57:32.808Z</time>
      </trkpt>
      <trkpt lat="48.159" lon="6.37308">
        <ele>459.593803</ele>
        <time>2022-07-12T14:57:36.817Z</time>
      </trkpt>
      <trkpt lat="48.15914" lon="6.37301">
        <ele>458.661311</ele>
        <time>2022-07-12T14:57:42.818Z</time>
      </trkpt>
      <trkpt lat="48.15923" lon="6.37303">
        <ele>458.080042</ele>
        <time>2022-07-12T14:57:50.811Z</time>
      </trkpt>
      <trkpt lat="48.15936" lon="6.37306">
        <ele>457.242375</ele>
        <time>2022-07-12T14:57:59.844Z</time>
      </trkpt>
      <trkpt lat="48.15948" lon="6.37306">
        <ele>456.442945</ele>
        <time>2022-07-12T14:58:02.824Z</time>
      </trkpt>
      <trkpt lat="48.15958" lon="6.373">
        <ele>455.745871</ele>
        <time>2022-07-12T14:58:05.824Z</time>
      </trkpt>
      <trkpt lat="48.1597" lon="6.37291">
        <ele>454.91583</ele>
        <time>2022-07-12T14:58:08.803Z</time>
      </trkpt>
      <trkpt lat="48.15984" lon="6.37279">
        <ele>453.892116</ele>
        <time>2022-07-12T14:58:10.810Z</time>
      </trkpt>
      <trkpt lat="48.15992" lon="6.3727">
        <ele>453.236991</ele>
        <time>2022-07-12T14:58:12.821Z</time>
      </trkpt>
      <trkpt lat="48.16004" lon="6.37258">
        <ele>452.32919</ele>
        <time>2022-07-12T14:58:14.816Z</time>
      </trkpt>
      <trkpt lat="48.16015" lon="6.37248">
        <ele>451.478942</ele>
        <time>2022-07-12T14:58:16.817Z</time>
      </trkpt>
      <trkpt lat="48.16024" lon="6.37239">
        <ele>450.779359</ele>
        <time>2022-07-12T14:58:18.813Z</time>
      </trkpt>
      <trkpt lat="48.16034" lon="6.3723">
        <ele>450.076014</ele>
        <time>2022-07-12T14:58:20.810Z</time>
      </trkpt>
      <trkpt lat="48.16043" lon="6.3722">
        <ele>449.341568</ele>
        <time>2022-07-12T14:58:22.838Z</time>
      </trkpt>
      <trkpt lat="48.16051" lon="6.37211">
        <ele>448.727416</ele>
        <time>2022-07-12T14:58:24.802Z</time>
      </trkpt>
      <trkpt lat="48.16059" lon="6.37204">
        <ele>448.26955</ele>
        <time>2022-07-12T14:58:26.813Z</time>
      </trkpt>
      <trkpt lat="48.16066" lon="6.37195">
        <ele>448.100873</ele>
        <time>2022-07-12T14:58:28.827Z</time>
      </trkpt>
      <trkpt lat="48.16074" lon="6.37183">
        <ele>447.88068</ele>
        <time>2022-07-12T14:58:30.822Z</time>
      </trkpt>
      <trkpt lat="48.16082" lon="6.37173">
        <ele>447.689144</ele>
        <time>2022-07-12T14:58:32.805Z</time>
      </trkpt>
      <trkpt lat="48.16091" lon="6.37165">
        <ele>447.507988</ele>
        <time>2022-07-12T14:58:34.818Z</time>
      </trkpt>
      <trkpt lat="48.16097" lon="6.3715">
        <ele>447.293718</ele>
        <time>2022-07-12T14:58:37.816Z</time>
      </trkpt>
      <trkpt lat="48.16098" lon="6.37134">
        <ele>447.097022</ele>
        <time>2022-07-12T14:58:41.806Z</time>
      </trkpt>
      <trkpt lat="48.16099" lon="6.3712">
        <ele>446.91844</ele>
        <time>2022-07-12T14:58:46.806Z</time>
      </trkpt>
      <trkpt lat="48.16106" lon="6.37107">
        <ele>446.711279</ele>
        <time>2022-07-12T14:58:50.848Z</time>
      </trkpt>
      <trkpt lat="48.16115" lon="6.37095">
        <ele>446.494918</ele>
        <time>2022-07-12T14:58:53.841Z</time>
      </trkpt>
      <trkpt lat="48.16124" lon="6.37087">
        <ele>446.308689</ele>
        <time>2022-07-12T14:58:56.831Z</time>
      </trkpt>
      <trkpt lat="48.16131" lon="6.37079">
        <ele>446.143172</ele>
        <time>2022-07-12T14:58:58.818Z</time>
      </trkpt>
      <trkpt lat="48.16141" lon="6.37068">
        <ele>445.908955</ele>
        <time>2022-07-12T14:59:01.833Z</time>
      </trkpt>
      <trkpt lat="48.1615" lon="6.37055">
        <ele>445.671255</ele>
        <time>2022-07-12T14:59:03.833Z</time>
      </trkpt>
      <trkpt lat="48.16159" lon="6.37042">
        <ele>445.451789</ele>
        <time>2022-07-12T14:59:05.841Z</time>
      </trkpt>
      <trkpt lat="48.16166" lon="6.37026">
        <ele>445.208707</ele>
        <time>2022-07-12T14:59:08.809Z</time>
      </trkpt>
      <trkpt lat="48.16171" lon="6.37011">
        <ele>445.002941</ele>
        <time>2022-07-12T14:59:10.814Z</time>
      </trkpt>
      <trkpt lat="48.16174" lon="6.36994">
        <ele>444.246564</ele>
        <time>2022-07-12T14:59:13.820Z</time>
      </trkpt>
      <trkpt lat="48.16173" lon="6.36976">
        <ele>443.484557</ele>
        <time>2022-07-12T14:59:17.807Z</time>
      </trkpt>
      <trkpt lat="48.16167" lon="6.36954">
        <ele>442.506638</ele>
        <time>2022-07-12T14:59:20.810Z</time>
      </trkpt>
      <trkpt lat="48.16162" lon="6.36935">
        <ele>441.63477</ele>
        <time>2022-07-12T14:59:23.831Z</time>
      </trkpt>
      <trkpt lat="48.16157" lon="6.36922">
        <ele>441.013969</ele>
        <time>2022-07-12T14:59:25.821Z</time>
      </trkpt>
      <trkpt lat="48.16154" lon="6.36901">
        <ele>440.109314</ele>
        <time>2022-07-12T14:59:28.827Z</time>
      </trkpt>
      <trkpt lat="48.16153" lon="6.36882">
        <ele>439.307062</ele>
        <time>2022-07-12T14:59:30.821Z</time>
      </trkpt>
      <trkpt lat="48.16154" lon="6.36868">
        <ele>438.721354</ele>
        <time>2022-07-12T14:59:32.829Z</time>
      </trkpt>
      <trkpt lat="48.16156" lon="6.36855">
        <ele>438.145903</ele>
        <time>2022-07-12T14:59:34.809Z</time>
      </trkpt>
      <trkpt lat="48.16153" lon="6.36841">
        <ele>437.528743</ele>
        <time>2022-07-12T14:59:37.817Z</time>
      </trkpt>
      <trkpt lat="48.16153" lon="6.36826">
        <ele>436.893371</ele>
        <time>2022-07-12T14:59:39.814Z</time>
      </trkpt>
      <trkpt lat="48.16152" lon="6.36806">
        <ele>436.040332</ele>
        <time>2022-07-12T14:59:41.809Z</time>
      </trkpt>
      <trkpt lat="48.16153" lon="6.36788">
        <ele>435.30914</ele>
        <time>2022-07-12T14:59:44.816Z</time>
      </trkpt>
      <trkpt lat="48.16162" lon="6.36785">
        <ele>434.687141</ele>
        <time>2022-07-12T14:59:48.810Z</time>
      </trkpt>
      <trkpt lat="48.16175" lon="6.36785">
        <ele>433.89005</ele>
        <time>2022-07-12T14:59:51.834Z</time>
      </trkpt>
      <trkpt lat="48.16186" lon="6.36785">
        <ele>433.42464</ele>
        <time>2022-07-12T14:59:53.824Z</time>
      </trkpt>
      <trkpt lat="48.16199" lon="6.36789">
        <ele>433.067066</ele>
        <time>2022-07-12T14:59:55.819Z</time>
      </trkpt>
      <trkpt lat="48.1621" lon="6.3679">
        <ele>432.760052</ele>
        <time>2022-07-12T14:59:57.814Z</time>
      </trkpt>
      <trkpt lat="48.16227" lon="6.36795">
        <ele>432.275308</ele>
        <time>2022-07-12T14:59:59.821Z</time>
      </trkpt>
      <trkpt lat="48.16236" lon="6.36799">
        <ele>432.020009</ele>
        <time>2022-07-12T15:00:00.805Z</time>
      </trkpt>
      <trkpt lat="48.16253" lon="6.36801">
        <ele>431.541048</ele>
        <time>2022-07-12T15:00:02.815Z</time>
      </trkpt>
      <trkpt lat="48.16266" lon="6.36805">
        <ele>431.179575</ele>
        <time>2022-07-12T15:00:04.815Z</time>
      </trkpt>
      <trkpt lat="48.16274" lon="6.36819">
        <ele>430.852041</ele>
        <time>2022-07-12T15:00:07.843Z</time>
      </trkpt>
      <trkpt lat="48.16272" lon="6.36836">
        <ele>430.523244</ele>
        <time>2022-07-12T15:00:10.811Z</time>
      </trkpt>
      <trkpt lat="48.16274" lon="6.36855">
        <ele>430.171942</ele>
        <time>2022-07-12T15:00:13.839Z</time>
      </trkpt>
      <trkpt lat="48.16275" lon="6.36871">
        <ele>429.860633</ele>
        <time>2022-07-12T15:00:16.796Z</time>
      </trkpt>
      <trkpt lat="48.16278" lon="6.36884">
        <ele>429.607652</ele>
        <time>2022-07-12T15:00:19.797Z</time>
      </trkpt>
      <trkpt lat="48.1628" lon="6.36899">
        <ele>429.335265</ele>
        <time>2022-07-12T15:00:23.810Z</time>
      </trkpt>
      <trkpt lat="48.1628" lon="6.36914">
        <ele>429.050026</ele>
        <time>2022-07-12T15:00:27.821Z</time>
      </trkpt>
      <trkpt lat="48.16283" lon="6.36932">
        <ele>428.709685</ele>
        <time>2022-07-12T15:00:31.811Z</time>
      </trkpt>
      <trkpt lat="48.16289" lon="6.36945">
        <ele>428.667073</ele>
        <time>2022-07-12T15:00:34.814Z</time>
      </trkpt>
      <trkpt lat="48.16293" lon="6.36957">
        <ele>428.696124</ele>
        <time>2022-07-12T15:00:40.816Z</time>
      </trkpt>
      <trkpt lat="48.16297" lon="6.36973">
        <ele>428.731332</ele>
        <time>2022-07-12T15:00:48.853Z</time>
      </trkpt>
      <trkpt lat="48.163" lon="6.36985">
        <ele>428.761</ele>
        <time>2022-07-12T15:00:50.810Z</time>
      </trkpt>
      <trkpt lat="48.16302" lon="6.36999">
        <ele>428.790418</ele>
        <time>2022-07-12T15:00:53.823Z</time>
      </trkpt>
      <trkpt lat="48.16304" lon="6.37013">
        <ele>428.821029</ele>
        <time>2022-07-12T15:00:56.819Z</time>
      </trkpt>
      <trkpt lat="48.16306" lon="6.37029">
        <ele>428.857589</ele>
        <time>2022-07-12T15:00:59.806Z</time>
      </trkpt>
      <trkpt lat="48.1631" lon="6.37043">
        <ele>428.889408</ele>
        <time>2022-07-12T15:01:01.804Z</time>
      </trkpt>
      <trkpt lat="48.16309" lon="6.37058">
        <ele>428.921676</ele>
        <time>2022-07-12T15:01:03.811Z</time>
      </trkpt>
      <trkpt lat="48.16306" lon="6.37073">
        <ele>428.954917</ele>
        <time>2022-07-12T15:01:05.818Z</time>
      </trkpt>
      <trkpt lat="48.16303" lon="6.37089">
        <ele>428.991314</ele>
        <time>2022-07-12T15:01:07.824Z</time>
      </trkpt>
      <trkpt lat="48.16302" lon="6.37104">
        <ele>429.023968</ele>
        <time>2022-07-12T15:01:09.792Z</time>
      </trkpt>
      <trkpt lat="48.16301" lon="6.3712">
        <ele>429.058149</ele>
        <time>2022-07-12T15:01:11.803Z</time>
      </trkpt>
      <trkpt lat="48.16299" lon="6.3714">
        <ele>429.100042</ele>
        <time>2022-07-12T15:01:14.825Z</time>
      </trkpt>
      <trkpt lat="48.16298" lon="6.37156">
        <ele>429.135683</ele>
        <time>2022-07-12T15:01:17.823Z</time>
      </trkpt>
      <trkpt lat="48.16298" lon="6.37175">
        <ele>429.175843</ele>
        <time>2022-07-12T15:01:20.801Z</time>
      </trkpt>
      <trkpt lat="48.16298" lon="6.37188">
        <ele>429.20484</ele>
        <time>2022-07-12T15:01:22.803Z</time>
      </trkpt>
      <trkpt lat="48.16296" lon="6.37207">
        <ele>429.475759</ele>
        <time>2022-07-12T15:01:25.820Z</time>
      </trkpt>
      <trkpt lat="48.16293" lon="6.37224">
        <ele>429.871117</ele>
        <time>2022-07-12T15:01:28.814Z</time>
      </trkpt>
      <trkpt lat="48.16292" lon="6.3724">
        <ele>430.23993</ele>
        <time>2022-07-12T15:01:31.794Z</time>
      </trkpt>
      <trkpt lat="48.16288" lon="6.37255">
        <ele>430.576153</ele>
        <time>2022-07-12T15:01:33.817Z</time>
      </trkpt>
      <trkpt lat="48.16283" lon="6.3727">
        <ele>430.946779</ele>
        <time>2022-07-12T15:01:35.797Z</time>
      </trkpt>
      <trkpt lat="48.16281" lon="6.3729">
        <ele>431.401504</ele>
        <time>2022-07-12T15:01:38.839Z</time>
      </trkpt>
      <trkpt lat="48.1628" lon="6.37305">
        <ele>431.734507</ele>
        <time>2022-07-12T15:01:40.822Z</time>
      </trkpt>
      <trkpt lat="48.16281" lon="6.37319">
        <ele>432.052105</ele>
        <time>2022-07-12T15:01:42.810Z</time>
      </trkpt>
      <trkpt lat="48.16281" lon="6.37336">
        <ele>432.427179</ele>
        <time>2022-07-12T15:01:44.838Z</time>
      </trkpt>
      <trkpt lat="48.16277" lon="6.37349">
        <ele>432.746512</ele>
        <time>2022-07-12T15:01:46.821Z</time>
      </trkpt>
      <trkpt lat="48.16274" lon="6.37362">
        <ele>433.049842</ele>
        <time>2022-07-12T15:01:48.843Z</time>
      </trkpt>
      <trkpt lat="48.16271" lon="6.37379">
        <ele>433.439674</ele>
        <time>2022-07-12T15:01:50.823Z</time>
      </trkpt>
      <trkpt lat="48.16268" lon="6.37392">
        <ele>433.756943</ele>
        <time>2022-07-12T15:01:52.808Z</time>
      </trkpt>
      <trkpt lat="48.16266" lon="6.37407">
        <ele>434.075468</ele>
        <time>2022-07-12T15:01:54.841Z</time>
      </trkpt>
      <trkpt lat="48.16267" lon="6.37422">
        <ele>434.410707</ele>
        <time>2022-07-12T15:01:56.806Z</time>
      </trkpt>
      <trkpt lat="48.16266" lon="6.37436">
        <ele>434.727926</ele>
        <time>2022-07-12T15:01:58.815Z</time>
      </trkpt>
      <trkpt lat="48.16261" lon="6.37451">
        <ele>435.107156</ele>
        <time>2022-07-12T15:02:01.808Z</time>
      </trkpt>
      <trkpt lat="48.16254" lon="6.37461">
        <ele>435.696093</ele>
        <time>2022-07-12T15:02:05.814Z</time>
      </trkpt>
      <trkpt lat="48.16248" lon="6.37476">
        <ele>436.527267</ele>
        <time>2022-07-12T15:02:08.829Z</time>
      </trkpt>
      <trkpt lat="48.16243" lon="6.37488">
        <ele>437.18031</ele>
        <time>2022-07-12T15:02:11.820Z</time>
      </trkpt>
      <trkpt lat="48.16237" lon="6.37504">
        <ele>438.077199</ele>
        <time>2022-07-12T15:02:16.804Z</time>
      </trkpt>
      <trkpt lat="48.16232" lon="6.37518">
        <ele>438.815493</ele>
        <time>2022-07-12T15:02:20.816Z</time>
      </trkpt>
      <trkpt lat="48.16232" lon="6.37532">
        <ele>439.466987</ele>
        <time>2022-07-12T15:02:23.806Z</time>
      </trkpt>
      <trkpt lat="48.1623" lon="6.37548">
        <ele>440.239635</ele>
        <time>2022-07-12T15:02:26.825Z</time>
      </trkpt>
      <trkpt lat="48.16227" lon="6.37565">
        <ele>441.075672</ele>
        <time>2022-07-12T15:02:30.809Z</time>
      </trkpt>
      <trkpt lat="48.16221" lon="6.37579">
        <ele>441.866752</ele>
        <time>2022-07-12T15:02:34.810Z</time>
      </trkpt>
      <trkpt lat="48.16213" lon="6.37587">
        <ele>442.584634</ele>
        <time>2022-07-12T15:02:38.799Z</time>
      </trkpt>
      <trkpt lat="48.16204" lon="6.37596">
        <ele>443.312894</ele>
        <time>2022-07-12T15:02:42.808Z</time>
      </trkpt>
      <trkpt lat="48.16197" lon="6.37603">
        <ele>443.964044</ele>
        <time>2022-07-12T15:02:45.809Z</time>
      </trkpt>
      <trkpt lat="48.16189" lon="6.37615">
        <ele>444.761137</ele>
        <time>2022-07-12T15:02:49.807Z</time>
      </trkpt>
      <trkpt lat="48.16181" lon="6.37623">
        <ele>445.439824</ele>
        <time>2022-07-12T15:02:52.836Z</time>
      </trkpt>
      <trkpt lat="48.16173" lon="6.37636">
        <ele>446.253196</ele>
        <time>2022-07-12T15:02:55.804Z</time>
      </trkpt>
      <trkpt lat="48.16167" lon="6.37646">
        <ele>446.8977</ele>
        <time>2022-07-12T15:02:57.805Z</time>
      </trkpt>
      <trkpt lat="48.1616" lon="6.37661">
        <ele>447.76791</ele>
        <time>2022-07-12T15:03:00.822Z</time>
      </trkpt>
      <trkpt lat="48.16153" lon="6.37674">
        <ele>448.103135</ele>
        <time>2022-07-12T15:03:03.817Z</time>
      </trkpt>
      <trkpt lat="48.16144" lon="6.37685">
        <ele>448.226505</ele>
        <time>2022-07-12T15:03:06.807Z</time>
      </trkpt>
      <trkpt lat="48.16135" lon="6.37699">
        <ele>448.355748</ele>
        <time>2022-07-12T15:03:09.815Z</time>
      </trkpt>
      <trkpt lat="48.16127" lon="6.37713">
        <ele>448.4865</ele>
        <time>2022-07-12T15:03:12.802Z</time>
      </trkpt>
      <trkpt lat="48.16119" lon="6.37722">
        <ele>448.586252</ele>
        <time>2022-07-12T15:03:15.804Z</time>
      </trkpt>
      <trkpt lat="48.16109" lon="6.37729">
        <ele>448.700187</ele>
        <time>2022-07-12T15:03:18.824Z</time>
      </trkpt>
      <trkpt lat="48.161" lon="6.37735">
        <ele>448.800693</ele>
        <time>2022-07-12T15:03:21.801Z</time>
      </trkpt>
      <trkpt lat="48.16094" lon="6.37748">
        <ele>448.910999</ele>
        <time>2022-07-12T15:03:25.824Z</time>
      </trkpt>
      <trkpt lat="48.16095" lon="6.37766">
        <ele>449.034185</ele>
        <time>2022-07-12T15:03:28.807Z</time>
      </trkpt>
      <trkpt lat="48.16097" lon="6.37785">
        <ele>449.165852</ele>
        <time>2022-07-12T15:03:31.803Z</time>
      </trkpt>
      <trkpt lat="48.16099" lon="6.37799">
        <ele>449.262938</ele>
        <time>2022-07-12T15:03:33.814Z</time>
      </trkpt>
      <trkpt lat="48.16099" lon="6.37814">
        <ele>449.363933</ele>
        <time>2022-07-12T15:03:35.806Z</time>
      </trkpt>
      <trkpt lat="48.16101" lon="6.37832">
        <ele>449.49611</ele>
        <time>2022-07-12T15:03:38.798Z</time>
      </trkpt>
      <trkpt lat="48.16104" lon="6.37848">
        <ele>449.609006</ele>
        <time>2022-07-12T15:03:40.834Z</time>
      </trkpt>
      <trkpt lat="48.16106" lon="6.37862">
        <ele>449.701566</ele>
        <time>2022-07-12T15:03:42.803Z</time>
      </trkpt>
      <trkpt lat="48.16109" lon="6.37879">
        <ele>449.822058</ele>
        <time>2022-07-12T15:03:45.813Z</time>
      </trkpt>
      <trkpt lat="48.16111" lon="6.37894">
        <ele>449.774528</ele>
        <time>2022-07-12T15:03:47.827Z</time>
      </trkpt>
      <trkpt lat="48.16112" lon="6.3791">
        <ele>449.567426</ele>
        <time>2022-07-12T15:03:50.814Z</time>
      </trkpt>
      <trkpt lat="48.16109" lon="6.37922">
        <ele>449.391119</ele>
        <time>2022-07-12T15:03:51.821Z</time>
      </trkpt>
      <trkpt lat="48.16102" lon="6.37938">
        <ele>449.150347</ele>
        <time>2022-07-12T15:03:53.815Z</time>
      </trkpt>
      <trkpt lat="48.16092" lon="6.37955">
        <ele>448.854171</ele>
        <time>2022-07-12T15:03:55.799Z</time>
      </trkpt>
      <trkpt lat="48.16084" lon="6.37974">
        <ele>448.552662</ele>
        <time>2022-07-12T15:03:57.807Z</time>
      </trkpt>
      <trkpt lat="48.16079" lon="6.37987">
        <ele>448.367247</ele>
        <time>2022-07-12T15:03:58.792Z</time>
      </trkpt>
      <trkpt lat="48.16072" lon="6.38005">
        <ele>448.099975</ele>
        <time>2022-07-12T15:04:00.812Z</time>
      </trkpt>
      <trkpt lat="48.16066" lon="6.38024">
        <ele>447.818984</ele>
        <time>2022-07-12T15:04:02.814Z</time>
      </trkpt>
      <trkpt lat="48.16061" lon="6.38038">
        <ele>447.60248</ele>
        <time>2022-07-12T15:04:04.815Z</time>
      </trkpt>
      <trkpt lat="48.16052" lon="6.38054">
        <ele>447.344568</ele>
        <time>2022-07-12T15:04:06.817Z</time>
      </trkpt>
      <trkpt lat="48.16045" lon="6.38062">
        <ele>447.167054</ele>
        <time>2022-07-12T15:04:08.816Z</time>
      </trkpt>
      <trkpt lat="48.16039" lon="6.38073">
        <ele>446.991322</ele>
        <time>2022-07-12T15:04:10.811Z</time>
      </trkpt>
      <trkpt lat="48.16032" lon="6.38087">
        <ele>446.754712</ele>
        <time>2022-07-12T15:04:13.833Z</time>
      </trkpt>
      <trkpt lat="48.16028" lon="6.381">
        <ele>446.575141</ele>
        <time>2022-07-12T15:04:16.819Z</time>
      </trkpt>
      <trkpt lat="48.16024" lon="6.38115">
        <ele>446.362308</ele>
        <time>2022-07-12T15:04:20.810Z</time>
      </trkpt>
      <trkpt lat="48.16017" lon="6.38127">
        <ele>446.810669</ele>
        <time>2022-07-12T15:04:24.798Z</time>
      </trkpt>
      <trkpt lat="48.16006" lon="6.3813">
        <ele>447.254742</ele>
        <time>2022-07-12T15:04:28.817Z</time>
      </trkpt>
      <trkpt lat="48.15997" lon="6.38132">
        <ele>447.637941</ele>
        <time>2022-07-12T15:04:32.816Z</time>
      </trkpt>
      <trkpt lat="48.15987" lon="6.3813">
        <ele>448.04577</ele>
        <time>2022-07-12T15:04:36.814Z</time>
      </trkpt>
      <trkpt lat="48.15976" lon="6.38129">
        <ele>448.501913</ele>
        <time>2022-07-12T15:04:41.805Z</time>
      </trkpt>
      <trkpt lat="48.15966" lon="6.38131">
        <ele>448.934652</ele>
        <time>2022-07-12T15:04:46.819Z</time>
      </trkpt>
      <trkpt lat="48.15957" lon="6.38137">
        <ele>449.311405</ele>
        <time>2022-07-12T15:04:50.825Z</time>
      </trkpt>
      <trkpt lat="48.15948" lon="6.38142">
        <ele>449.728543</ele>
        <time>2022-07-12T15:04:54.811Z</time>
      </trkpt>
      <trkpt lat="48.15939" lon="6.38148">
        <ele>450.124834</ele>
        <time>2022-07-12T15:04:58.814Z</time>
      </trkpt>
      <trkpt lat="48.15931" lon="6.38156">
        <ele>450.554124</ele>
        <time>2022-07-12T15:05:02.815Z</time>
      </trkpt>
      <trkpt lat="48.1592" lon="6.38165">
        <ele>451.039892</ele>
        <time>2022-07-12T15:05:06.815Z</time>
      </trkpt>
      <trkpt lat="48.15912" lon="6.38175">
        <ele>451.483916</ele>
        <time>2022-07-12T15:05:09.816Z</time>
      </trkpt>
      <trkpt lat="48.15902" lon="6.38189">
        <ele>452.045145</ele>
        <time>2022-07-12T15:05:12.821Z</time>
      </trkpt>
      <trkpt lat="48.15895" lon="6.38201">
        <ele>452.492078</ele>
        <time>2022-07-12T15:05:14.810Z</time>
      </trkpt>
      <trkpt lat="48.15886" lon="6.38212">
        <ele>452.96892</ele>
        <time>2022-07-12T15:05:16.827Z</time>
      </trkpt>
      <trkpt lat="48.15878" lon="6.38222">
        <ele>453.407284</ele>
        <time>2022-07-12T15:05:18.795Z</time>
      </trkpt>
      <trkpt lat="48.15868" lon="6.38236">
        <ele>453.73876</ele>
        <time>2022-07-12T15:05:20.812Z</time>
      </trkpt>
      <trkpt lat="48.15862" lon="6.3825">
        <ele>453.573797</ele>
        <time>2022-07-12T15:05:22.807Z</time>
      </trkpt>
      <trkpt lat="48.15856" lon="6.38261">
        <ele>453.431317</ele>
        <time>2022-07-12T15:05:24.821Z</time>
      </trkpt>
      <trkpt lat="48.15848" lon="6.38271">
        <ele>453.277</ele>
        <time>2022-07-12T15:05:28.805Z</time>
      </trkpt>
      <trkpt lat="48.15848" lon="6.38286">
        <ele>453.133476</ele>
        <time>2022-07-12T15:05:31.804Z</time>
      </trkpt>
      <trkpt lat="48.15856" lon="6.38295">
        <ele>452.984624</ele>
        <time>2022-07-12T15:05:34.823Z</time>
      </trkpt>
      <trkpt lat="48.15865" lon="6.383">
        <ele>452.841087</ele>
        <time>2022-07-12T15:05:37.813Z</time>
      </trkpt>
      <trkpt lat="48.15875" lon="6.38304">
        <ele>452.69447</ele>
        <time>2022-07-12T15:05:40.808Z</time>
      </trkpt>
      <trkpt lat="48.15884" lon="6.38308">
        <ele>452.561017</ele>
        <time>2022-07-12T15:05:43.816Z</time>
      </trkpt>
      <trkpt lat="48.15894" lon="6.38319">
        <ele>452.378842</ele>
        <time>2022-07-12T15:05:46.802Z</time>
      </trkpt>
      <trkpt lat="48.15904" lon="6.38326">
        <ele>452.219565</ele>
        <time>2022-07-12T15:05:48.804Z</time>
      </trkpt>
      <trkpt lat="48.15914" lon="6.3833">
        <ele>452.060302</ele>
        <time>2022-07-12T15:05:50.833Z</time>
      </trkpt>
      <trkpt lat="48.15925" lon="6.38336">
        <ele>451.896523</ele>
        <time>2022-07-12T15:05:52.846Z</time>
      </trkpt>
      <trkpt lat="48.15935" lon="6.38343">
        <ele>451.736635</ele>
        <time>2022-07-12T15:05:55.830Z</time>
      </trkpt>
      <trkpt lat="48.15945" lon="6.38353">
        <ele>451.555572</ele>
        <time>2022-07-12T15:05:59.831Z</time>
      </trkpt>
      <trkpt lat="48.15955" lon="6.38367">
        <ele>451.35334</ele>
        <time>2022-07-12T15:06:02.818Z</time>
      </trkpt>
      <trkpt lat="48.15963" lon="6.38378">
        <ele>451.194488</ele>
        <time>2022-07-12T15:06:04.814Z</time>
      </trkpt>
      <trkpt lat="48.15972" lon="6.38388">
        <ele>451.648306</ele>
        <time>2022-07-12T15:06:06.809Z</time>
      </trkpt>
      <trkpt lat="48.15979" lon="6.38399">
        <ele>452.248881</ele>
        <time>2022-07-12T15:06:08.806Z</time>
      </trkpt>
      <trkpt lat="48.15988" lon="6.3841">
        <ele>452.886536</ele>
        <time>2022-07-12T15:06:10.815Z</time>
      </trkpt>
      <trkpt lat="48.15997" lon="6.38422">
        <ele>453.554621</ele>
        <time>2022-07-12T15:06:12.827Z</time>
      </trkpt>
      <trkpt lat="48.16006" lon="6.38435">
        <ele>454.232436</ele>
        <time>2022-07-12T15:06:14.798Z</time>
      </trkpt>
      <trkpt lat="48.16012" lon="6.38449">
        <ele>454.868286</ele>
        <time>2022-07-12T15:06:16.822Z</time>
      </trkpt>
      <trkpt lat="48.16013" lon="6.38464">
        <ele>455.431725</ele>
        <time>2022-07-12T15:06:18.804Z</time>
      </trkpt>
      <trkpt lat="48.16013" lon="6.38478">
        <ele>455.951271</ele>
        <time>2022-07-12T15:06:20.805Z</time>
      </trkpt>
      <trkpt lat="48.16014" lon="6.38492">
        <ele>456.460182</ele>
        <time>2022-07-12T15:06:22.829Z</time>
      </trkpt>
      <trkpt lat="48.16015" lon="6.38506">
        <ele>456.964637</ele>
        <time>2022-07-12T15:06:24.797Z</time>
      </trkpt>
      <trkpt lat="48.16017" lon="6.38519">
        <ele>457.48226</ele>
        <time>2022-07-12T15:06:26.808Z</time>
      </trkpt>
      <trkpt lat="48.1602" lon="6.38537">
        <ele>458.154688</ele>
        <time>2022-07-12T15:06:29.818Z</time>
      </trkpt>
      <trkpt lat="48.16025" lon="6.38554">
        <ele>458.845004</ele>
        <time>2022-07-12T15:06:32.808Z</time>
      </trkpt>
      <trkpt lat="48.1603" lon="6.38566">
        <ele>459.390202</ele>
        <time>2022-07-12T15:06:35.814Z</time>
      </trkpt>
      <trkpt lat="48.16032" lon="6.38581">
        <ele>459.933307</ele>
        <time>2022-07-12T15:06:38.808Z</time>
      </trkpt>
      <trkpt lat="48.16032" lon="6.38599">
        <ele>460.62747</ele>
        <time>2022-07-12T15:06:42.826Z</time>
      </trkpt>
      <trkpt lat="48.16032" lon="6.38614">
        <ele>461.158602</ele>
        <time>2022-07-12T15:06:45.809Z</time>
      </trkpt>
      <trkpt lat="48.16034" lon="6.3863">
        <ele>462.242446</ele>
        <time>2022-07-12T15:06:48.808Z</time>
      </trkpt>
      <trkpt lat="48.16035" lon="6.38645">
        <ele>463.28063</ele>
        <time>2022-07-12T15:06:51.815Z</time>
      </trkpt>
      <trkpt lat="48.16036" lon="6.3866">
        <ele>464.291407</ele>
        <time>2022-07-12T15:06:54.855Z</time>
      </trkpt>
      <trkpt lat="48.16036" lon="6.38675">
        <ele>465.290627</ele>
        <time>2022-07-12T15:06:57.818Z</time>
      </trkpt>
      <trkpt lat="48.16033" lon="6.38689">
        <ele>466.241674</ele>
        <time>2022-07-12T15:07:00.799Z</time>
      </trkpt>
      <trkpt lat="48.16034" lon="6.38706">
        <ele>467.358557</ele>
        <time>2022-07-12T15:07:06.806Z</time>
      </trkpt>
      <trkpt lat="48.16024" lon="6.38717">
        <ele>468.597249</ele>
        <time>2022-07-12T15:07:17.806Z</time>
      </trkpt>
      <trkpt lat="48.16016" lon="6.38726">
        <ele>469.62015</ele>
        <time>2022-07-12T15:07:20.822Z</time>
      </trkpt>
      <trkpt lat="48.16006" lon="6.38736">
        <ele>470.774823</ele>
        <time>2022-07-12T15:07:24.818Z</time>
      </trkpt>
      <trkpt lat="48.15999" lon="6.38744">
        <ele>471.725894</ele>
        <time>2022-07-12T15:07:29.808Z</time>
      </trkpt>
      <trkpt lat="48.15991" lon="6.38756">
        <ele>472.807122</ele>
        <time>2022-07-12T15:07:34.809Z</time>
      </trkpt>
      <trkpt lat="48.15981" lon="6.38764">
        <ele>473.960522</ele>
        <time>2022-07-12T15:07:38.841Z</time>
      </trkpt>
      <trkpt lat="48.15969" lon="6.38771">
        <ele>475.220557</ele>
        <time>2022-07-12T15:07:43.817Z</time>
      </trkpt>
      <trkpt lat="48.15959" lon="6.38775">
        <ele>476.23839</ele>
        <time>2022-07-12T15:07:47.806Z</time>
      </trkpt>
      <trkpt lat="48.1595" lon="6.38779">
        <ele>477.198756</ele>
        <time>2022-07-12T15:07:52.815Z</time>
      </trkpt>
      <trkpt lat="48.15941" lon="6.38785">
        <ele>478.226978</ele>
        <time>2022-07-12T15:07:56.806Z</time>
      </trkpt>
      <trkpt lat="48.15934" lon="6.38799">
        <ele>479.134154</ele>
        <time>2022-07-12T15:08:01.813Z</time>
      </trkpt>
      <trkpt lat="48.15926" lon="6.38812">
        <ele>479.173043</ele>
        <time>2022-07-12T15:08:04.817Z</time>
      </trkpt>
      <trkpt lat="48.15918" lon="6.38822">
        <ele>479.206508</ele>
        <time>2022-07-12T15:08:07.808Z</time>
      </trkpt>
      <trkpt lat="48.15911" lon="6.38833">
        <ele>479.240876</ele>
        <time>2022-07-12T15:08:10.812Z</time>
      </trkpt>
      <trkpt lat="48.15909" lon="6.38848">
        <ele>479.276157</ele>
        <time>2022-07-12T15:08:14.802Z</time>
      </trkpt>
      <trkpt lat="48.15915" lon="6.38863">
        <ele>479.314902</ele>
        <time>2022-07-12T15:08:17.806Z</time>
      </trkpt>
      <trkpt lat="48.15923" lon="6.3888">
        <ele>479.359887</ele>
        <time>2022-07-12T15:08:20.801Z</time>
      </trkpt>
      <trkpt lat="48.1593" lon="6.38891">
        <ele>479.392561</ele>
        <time>2022-07-12T15:08:22.827Z</time>
      </trkpt>
      <trkpt lat="48.15938" lon="6.38903">
        <ele>479.429267</ele>
        <time>2022-07-12T15:08:24.808Z</time>
      </trkpt>
      <trkpt lat="48.15945" lon="6.38914">
        <ele>479.464722</ele>
        <time>2022-07-12T15:08:26.821Z</time>
      </trkpt>
      <trkpt lat="48.15953" lon="6.38926">
        <ele>479.501967</ele>
        <time>2022-07-12T15:08:28.838Z</time>
      </trkpt>
      <trkpt lat="48.15962" lon="6.38939">
        <ele>479.54093</ele>
        <time>2022-07-12T15:08:30.835Z</time>
      </trkpt>
      <trkpt lat="48.1597" lon="6.38951">
        <ele>479.579265</ele>
        <time>2022-07-12T15:08:32.835Z</time>
      </trkpt>
      <trkpt lat="48.15978" lon="6.38963">
        <ele>479.618534</ele>
        <time>2022-07-12T15:08:34.827Z</time>
      </trkpt>
      <trkpt lat="48.15988" lon="6.38976">
        <ele>479.660059</ele>
        <time>2022-07-12T15:08:36.832Z</time>
      </trkpt>
      <trkpt lat="48.15997" lon="6.3899">
        <ele>479.702913</ele>
        <time>2022-07-12T15:08:38.829Z</time>
      </trkpt>
      <trkpt lat="48.16005" lon="6.39005">
        <ele>479.919916</ele>
        <time>2022-07-12T15:08:40.806Z</time>
      </trkpt>
      <trkpt lat="48.16014" lon="6.3902">
        <ele>480.273079</ele>
        <time>2022-07-12T15:08:42.808Z</time>
      </trkpt>
      <trkpt lat="48.16022" lon="6.39033">
        <ele>480.612121</ele>
        <time>2022-07-12T15:08:44.816Z</time>
      </trkpt>
      <trkpt lat="48.16031" lon="6.39047">
        <ele>480.949867</ele>
        <time>2022-07-12T15:08:46.805Z</time>
      </trkpt>
      <trkpt lat="48.1604" lon="6.39059">
        <ele>481.279163</ele>
        <time>2022-07-12T15:08:48.820Z</time>
      </trkpt>
      <trkpt lat="48.16048" lon="6.39072">
        <ele>481.603204</ele>
        <time>2022-07-12T15:08:50.837Z</time>
      </trkpt>
      <trkpt lat="48.16057" lon="6.39086">
        <ele>481.939344</ele>
        <time>2022-07-12T15:08:52.840Z</time>
      </trkpt>
      <trkpt lat="48.16065" lon="6.39098">
        <ele>482.258231</ele>
        <time>2022-07-12T15:08:54.821Z</time>
      </trkpt>
      <trkpt lat="48.16075" lon="6.3911">
        <ele>482.592159</ele>
        <time>2022-07-12T15:08:56.824Z</time>
      </trkpt>
      <trkpt lat="48.16084" lon="6.39121">
        <ele>482.909474</ele>
        <time>2022-07-12T15:08:58.814Z</time>
      </trkpt>
      <trkpt lat="48.16093" lon="6.39131">
        <ele>483.209515</ele>
        <time>2022-07-12T15:09:00.825Z</time>
      </trkpt>
      <trkpt lat="48.16102" lon="6.39142">
        <ele>483.538743</ele>
        <time>2022-07-12T15:09:02.818Z</time>
      </trkpt>
      <trkpt lat="48.16112" lon="6.39154">
        <ele>483.879118</ele>
        <time>2022-07-12T15:09:04.826Z</time>
      </trkpt>
      <trkpt lat="48.16121" lon="6.39165">
        <ele>484.190249</ele>
        <time>2022-07-12T15:09:06.806Z</time>
      </trkpt>
      <trkpt lat="48.1613" lon="6.39175">
        <ele>484.494576</ele>
        <time>2022-07-12T15:09:08.819Z</time>
      </trkpt>
      <trkpt lat="48.16138" lon="6.39185">
        <ele>484.767477</ele>
        <time>2022-07-12T15:09:10.808Z</time>
      </trkpt>
      <trkpt lat="48.16146" lon="6.39195">
        <ele>485.033886</ele>
        <time>2022-07-12T15:09:12.819Z</time>
      </trkpt>
      <trkpt lat="48.16154" lon="6.39205">
        <ele>485.309703</ele>
        <time>2022-07-12T15:09:14.807Z</time>
      </trkpt>
      <trkpt lat="48.16162" lon="6.39215">
        <ele>485.587725</ele>
        <time>2022-07-12T15:09:16.812Z</time>
      </trkpt>
      <trkpt lat="48.1617" lon="6.39225">
        <ele>485.857465</ele>
        <time>2022-07-12T15:09:18.824Z</time>
      </trkpt>
      <trkpt lat="48.16178" lon="6.39235">
        <ele>486.126333</ele>
        <time>2022-07-12T15:09:20.819Z</time>
      </trkpt>
      <trkpt lat="48.16187" lon="6.39242">
        <ele>486.392104</ele>
        <time>2022-07-12T15:09:22.811Z</time>
      </trkpt>
      <trkpt lat="48.16195" lon="6.3925">
        <ele>486.633615</ele>
        <time>2022-07-12T15:09:24.820Z</time>
      </trkpt>
      <trkpt lat="48.16192" lon="6.39266">
        <ele>486.918482</ele>
        <time>2022-07-12T15:09:27.801Z</time>
      </trkpt>
      <trkpt lat="48.16185" lon="6.39276">
        <ele>487.180376</ele>
        <time>2022-07-12T15:09:29.827Z</time>
      </trkpt>
      <trkpt lat="48.16192" lon="6.39264">
        <ele>487.460102</ele>
        <time>2022-07-12T15:09:40.842Z</time>
      </trkpt>
      <trkpt lat="48.16201" lon="6.39258">
        <ele>487.722935</ele>
        <time>2022-07-12T15:09:43.807Z</time>
      </trkpt>
      <trkpt lat="48.1621" lon="6.39272">
        <ele>488.071286</ele>
        <time>2022-07-12T15:09:46.814Z</time>
      </trkpt>
      <trkpt lat="48.16216" lon="6.39283">
        <ele>488.327585</ele>
        <time>2022-07-12T15:09:48.797Z</time>
      </trkpt>
      <trkpt lat="48.16222" lon="6.39295">
        <ele>488.585473</ele>
        <time>2022-07-12T15:09:50.814Z</time>
      </trkpt>
      <trkpt lat="48.16228" lon="6.39307">
        <ele>488.8388</ele>
        <time>2022-07-12T15:09:52.836Z</time>
      </trkpt>
      <trkpt lat="48.16233" lon="6.39318">
        <ele>489.074375</ele>
        <time>2022-07-12T15:09:54.830Z</time>
      </trkpt>
      <trkpt lat="48.16241" lon="6.39334">
        <ele>489.560601</ele>
        <time>2022-07-12T15:09:57.823Z</time>
      </trkpt>
      <trkpt lat="48.16248" lon="6.39348">
        <ele>490.266227</ele>
        <time>2022-07-12T15:10:00.800Z</time>
      </trkpt>
      <trkpt lat="48.16251" lon="6.39363">
        <ele>490.845325</ele>
        <time>2022-07-12T15:10:03.804Z</time>
      </trkpt>
      <trkpt lat="48.16248" lon="6.39378">
        <ele>491.429226</ele>
        <time>2022-07-12T15:10:06.798Z</time>
      </trkpt>
      <trkpt lat="48.16244" lon="6.39391">
        <ele>491.944638</ele>
        <time>2022-07-12T15:10:09.815Z</time>
      </trkpt>
      <trkpt lat="48.16241" lon="6.39403">
        <ele>492.453107</ele>
        <time>2022-07-12T15:10:12.824Z</time>
      </trkpt>
      <trkpt lat="48.16238" lon="6.39418">
        <ele>493.036881</ele>
        <time>2022-07-12T15:10:15.814Z</time>
      </trkpt>
      <trkpt lat="48.16235" lon="6.39432">
        <ele>493.558946</ele>
        <time>2022-07-12T15:10:17.811Z</time>
      </trkpt>
      <trkpt lat="48.16233" lon="6.39451">
        <ele>494.300745</ele>
        <time>2022-07-12T15:10:20.811Z</time>
      </trkpt>
      <trkpt lat="48.1623" lon="6.3947">
        <ele>495.028847</ele>
        <time>2022-07-12T15:10:23.822Z</time>
      </trkpt>
      <trkpt lat="48.16226" lon="6.39487">
        <ele>495.694785</ele>
        <time>2022-07-12T15:10:27.813Z</time>
      </trkpt>
      <trkpt lat="48.16224" lon="6.39503">
        <ele>496.320473</ele>
        <time>2022-07-12T15:10:31.814Z</time>
      </trkpt>
      <trkpt lat="48.16221" lon="6.39517">
        <ele>496.843132</ele>
        <time>2022-07-12T15:10:34.815Z</time>
      </trkpt>
      <trkpt lat="48.16219" lon="6.39532">
        <ele>497.44748</ele>
        <time>2022-07-12T15:10:37.813Z</time>
      </trkpt>
      <trkpt lat="48.16216" lon="6.39545">
        <ele>497.952088</ele>
        <time>2022-07-12T15:10:40.816Z</time>
      </trkpt>
      <trkpt lat="48.16214" lon="6.39559">
        <ele>498.464707</ele>
        <time>2022-07-12T15:10:44.812Z</time>
      </trkpt>
      <trkpt lat="48.16212" lon="6.39575">
        <ele>499.06899</ele>
        <time>2022-07-12T15:10:48.797Z</time>
      </trkpt>
      <trkpt lat="48.16209" lon="6.39588">
        <ele>499.436201</ele>
        <time>2022-07-12T15:10:51.816Z</time>
      </trkpt>
      <trkpt lat="48.16204" lon="6.39603">
        <ele>499.60697</ele>
        <time>2022-07-12T15:10:54.813Z</time>
      </trkpt>
      <trkpt lat="48.162" lon="6.39616">
        <ele>499.764202</ele>
        <time>2022-07-12T15:10:57.801Z</time>
      </trkpt>
      <trkpt lat="48.16197" lon="6.39629">
        <ele>499.9115</ele>
        <time>2022-07-12T15:11:00.836Z</time>
      </trkpt>
      <trkpt lat="48.16194" lon="6.39646">
        <ele>500.084927</ele>
        <time>2022-07-12T15:11:04.811Z</time>
      </trkpt>
      <trkpt lat="48.16185" lon="6.39654">
        <ele>500.25204</ele>
        <time>2022-07-12T15:11:08.828Z</time>
      </trkpt>
      <trkpt lat="48.1619" lon="6.39671">
        <ele>500.437324</ele>
        <time>2022-07-12T15:11:12.813Z</time>
      </trkpt>
      <trkpt lat="48.16191" lon="6.39684">
        <ele>500.582093</ele>
        <time>2022-07-12T15:11:16.820Z</time>
      </trkpt>
      <trkpt lat="48.1619" lon="6.39701">
        <ele>500.754733</ele>
        <time>2022-07-12T15:11:19.816Z</time>
      </trkpt>
      <trkpt lat="48.16188" lon="6.39717">
        <ele>500.926843</ele>
        <time>2022-07-12T15:11:22.818Z</time>
      </trkpt>
      <trkpt lat="48.16185" lon="6.3973">
        <ele>501.069711</ele>
        <time>2022-07-12T15:11:25.808Z</time>
      </trkpt>
      <trkpt lat="48.16181" lon="6.39747">
        <ele>501.253597</ele>
        <time>2022-07-12T15:11:28.799Z</time>
      </trkpt>
      <trkpt lat="48.16179" lon="6.3976">
        <ele>501.397996</ele>
        <time>2022-07-12T15:11:30.798Z</time>
      </trkpt>
      <trkpt lat="48.16177" lon="6.39774">
        <ele>501.547794</ele>
        <time>2022-07-12T15:11:32.806Z</time>
      </trkpt>
      <trkpt lat="48.16174" lon="6.39792">
        <ele>501.738772</ele>
        <time>2022-07-12T15:11:35.822Z</time>
      </trkpt>
      <trkpt lat="48.16171" lon="6.3981">
        <ele>501.936928</ele>
        <time>2022-07-12T15:11:38.810Z</time>
      </trkpt>
      <trkpt lat="48.16168" lon="6.39829">
        <ele>502.14244</ele>
        <time>2022-07-12T15:11:41.807Z</time>
      </trkpt>
      <trkpt lat="48.16165" lon="6.39842">
        <ele>502.057444</ele>
        <time>2022-07-12T15:11:43.804Z</time>
      </trkpt>
      <trkpt lat="48.16162" lon="6.3986">
        <ele>501.750304</ele>
        <time>2022-07-12T15:11:46.812Z</time>
      </trkpt>
      <trkpt lat="48.16159" lon="6.39873">
        <ele>501.519925</ele>
        <time>2022-07-12T15:11:48.810Z</time>
      </trkpt>
      <trkpt lat="48.16157" lon="6.39887">
        <ele>501.269564</ele>
        <time>2022-07-12T15:11:50.823Z</time>
      </trkpt>
      <trkpt lat="48.16154" lon="6.39901">
        <ele>501.019202</ele>
        <time>2022-07-12T15:11:52.821Z</time>
      </trkpt>
      <trkpt lat="48.16152" lon="6.39917">
        <ele>500.748464</ele>
        <time>2022-07-12T15:11:54.843Z</time>
      </trkpt>
      <trkpt lat="48.16149" lon="6.39937">
        <ele>500.409527</ele>
        <time>2022-07-12T15:11:56.807Z</time>
      </trkpt>
      <trkpt lat="48.16146" lon="6.39954">
        <ele>500.107951</ele>
        <time>2022-07-12T15:11:58.797Z</time>
      </trkpt>
      <trkpt lat="48.16149" lon="6.3997">
        <ele>499.839473</ele>
        <time>2022-07-12T15:12:01.804Z</time>
      </trkpt>
      <trkpt lat="48.16159" lon="6.39982">
        <ele>499.502649</ele>
        <time>2022-07-12T15:12:04.811Z</time>
      </trkpt>
      <trkpt lat="48.1617" lon="6.39986">
        <ele>499.229243</ele>
        <time>2022-07-12T15:12:07.802Z</time>
      </trkpt>
      <trkpt lat="48.16184" lon="6.39992">
        <ele>498.849943</ele>
        <time>2022-07-12T15:12:10.804Z</time>
      </trkpt>
      <trkpt lat="48.16195" lon="6.39989">
        <ele>498.575863</ele>
        <time>2022-07-12T15:12:12.807Z</time>
      </trkpt>
      <trkpt lat="48.16204" lon="6.39982">
        <ele>498.318859</ele>
        <time>2022-07-12T15:12:15.800Z</time>
      </trkpt>
      <trkpt lat="48.16212" lon="6.39974">
        <ele>498.062313</ele>
        <time>2022-07-12T15:12:17.793Z</time>
      </trkpt>
      <trkpt lat="48.16227" lon="6.39962">
        <ele>497.631205</ele>
        <time>2022-07-12T15:12:20.816Z</time>
      </trkpt>
      <trkpt lat="48.16237" lon="6.39952">
        <ele>497.234448</ele>
        <time>2022-07-12T15:12:23.818Z</time>
      </trkpt>
      <trkpt lat="48.16243" lon="6.39936">
        <ele>496.865951</ele>
        <time>2022-07-12T15:12:26.801Z</time>
      </trkpt>
      <trkpt lat="48.16251" lon="6.39925">
        <ele>496.488456</ele>
        <time>2022-07-12T15:12:28.824Z</time>
      </trkpt>
      <trkpt lat="48.16262" lon="6.39923">
        <ele>496.128666</ele>
        <time>2022-07-12T15:12:31.806Z</time>
      </trkpt>
      <trkpt lat="48.16272" lon="6.39921">
        <ele>495.807582</ele>
        <time>2022-07-12T15:12:33.835Z</time>
      </trkpt>
      <trkpt lat="48.16283" lon="6.39922">
        <ele>495.461308</ele>
        <time>2022-07-12T15:12:35.809Z</time>
      </trkpt>
      <trkpt lat="48.16297" lon="6.39927">
        <ele>494.978988</ele>
        <time>2022-07-12T15:12:37.818Z</time>
      </trkpt>
      <trkpt lat="48.16309" lon="6.3993">
        <ele>494.614685</ele>
        <time>2022-07-12T15:12:39.806Z</time>
      </trkpt>
      <trkpt lat="48.16325" lon="6.3993">
        <ele>494.097823</ele>
        <time>2022-07-12T15:12:41.801Z</time>
      </trkpt>
      <trkpt lat="48.16334" lon="6.39931">
        <ele>493.802764</ele>
        <time>2022-07-12T15:12:42.798Z</time>
      </trkpt>
      <trkpt lat="48.16343" lon="6.39932">
        <ele>493.501269</ele>
        <time>2022-07-12T15:12:43.814Z</time>
      </trkpt>
      <trkpt lat="48.16353" lon="6.39935">
        <ele>493.179038</ele>
        <time>2022-07-12T15:12:44.817Z</time>
      </trkpt>
      <trkpt lat="48.16367" lon="6.39937">
        <ele>492.721968</ele>
        <time>2022-07-12T15:12:46.796Z</time>
      </trkpt>
      <trkpt lat="48.16378" lon="6.3994">
        <ele>492.366388</ele>
        <time>2022-07-12T15:12:48.814Z</time>
      </trkpt>
      <trkpt lat="48.16386" lon="6.3995">
        <ele>492.021356</ele>
        <time>2022-07-12T15:12:50.830Z</time>
      </trkpt>
      <trkpt lat="48.16385" lon="6.39969">
        <ele>491.797573</ele>
        <time>2022-07-12T15:12:53.828Z</time>
      </trkpt>
      <trkpt lat="48.16383" lon="6.39985">
        <ele>491.74514</ele>
        <time>2022-07-12T15:12:55.828Z</time>
      </trkpt>
      <trkpt lat="48.16384" lon="6.40003">
        <ele>491.688961</ele>
        <time>2022-07-12T15:12:57.809Z</time>
      </trkpt>
      <trkpt lat="48.16384" lon="6.40022">
        <ele>491.627654</ele>
        <time>2022-07-12T15:12:59.811Z</time>
      </trkpt>
      <trkpt lat="48.16384" lon="6.40044">
        <ele>491.556716</ele>
        <time>2022-07-12T15:13:01.808Z</time>
      </trkpt>
      <trkpt lat="48.16383" lon="6.40068">
        <ele>491.480958</ele>
        <time>2022-07-12T15:13:03.806Z</time>
      </trkpt>
      <trkpt lat="48.16383" lon="6.4009">
        <ele>491.409963</ele>
        <time>2022-07-12T15:13:05.804Z</time>
      </trkpt>
      <trkpt lat="48.16381" lon="6.40111">
        <ele>491.340895</ele>
        <time>2022-07-12T15:13:07.812Z</time>
      </trkpt>
      <trkpt lat="48.16382" lon="6.40134">
        <ele>491.267698</ele>
        <time>2022-07-12T15:13:09.828Z</time>
      </trkpt>
      <trkpt lat="48.16383" lon="6.40157">
        <ele>491.192783</ele>
        <time>2022-07-12T15:13:11.810Z</time>
      </trkpt>
      <trkpt lat="48.16386" lon="6.40179">
        <ele>491.120508</ele>
        <time>2022-07-12T15:13:13.826Z</time>
      </trkpt>
      <trkpt lat="48.1639" lon="6.40201">
        <ele>491.050426</ele>
        <time>2022-07-12T15:13:15.812Z</time>
      </trkpt>
      <trkpt lat="48.16395" lon="6.40221">
        <ele>490.978827</ele>
        <time>2022-07-12T15:13:17.807Z</time>
      </trkpt>
      <trkpt lat="48.16399" lon="6.4024">
        <ele>491.28199</ele>
        <time>2022-07-12T15:13:19.793Z</time>
      </trkpt>
      <trkpt lat="48.16403" lon="6.40258">
        <ele>491.632521</ele>
        <time>2022-07-12T15:13:21.818Z</time>
      </trkpt>
      <trkpt lat="48.16406" lon="6.40277">
        <ele>492.01445</ele>
        <time>2022-07-12T15:13:23.811Z</time>
      </trkpt>
      <trkpt lat="48.16409" lon="6.40296">
        <ele>492.379588</ele>
        <time>2022-07-12T15:13:25.798Z</time>
      </trkpt>
      <trkpt lat="48.1641" lon="6.40315">
        <ele>492.744336</ele>
        <time>2022-07-12T15:13:27.812Z</time>
      </trkpt>
      <trkpt lat="48.16411" lon="6.40334">
        <ele>493.110923</ele>
        <time>2022-07-12T15:13:29.789Z</time>
      </trkpt>
      <trkpt lat="48.16412" lon="6.40352">
        <ele>493.460123</ele>
        <time>2022-07-12T15:13:31.820Z</time>
      </trkpt>
      <trkpt lat="48.16413" lon="6.40369">
        <ele>493.788064</ele>
        <time>2022-07-12T15:13:33.810Z</time>
      </trkpt>
      <trkpt lat="48.16415" lon="6.40386">
        <ele>494.112573</ele>
        <time>2022-07-12T15:13:35.807Z</time>
      </trkpt>
      <trkpt lat="48.16416" lon="6.40402">
        <ele>494.416712</ele>
        <time>2022-07-12T15:13:37.807Z</time>
      </trkpt>
      <trkpt lat="48.16417" lon="6.40418">
        <ele>494.7234</ele>
        <time>2022-07-12T15:13:39.808Z</time>
      </trkpt>
      <trkpt lat="48.16418" lon="6.40434">
        <ele>495.032719</ele>
        <time>2022-07-12T15:13:41.801Z</time>
      </trkpt>
      <trkpt lat="48.16419" lon="6.40449">
        <ele>495.334176</ele>
        <time>2022-07-12T15:13:43.797Z</time>
      </trkpt>
      <trkpt lat="48.1642" lon="6.40465">
        <ele>495.637431</ele>
        <time>2022-07-12T15:13:45.808Z</time>
      </trkpt>
      <trkpt lat="48.16423" lon="6.40479">
        <ele>495.914175</ele>
        <time>2022-07-12T15:13:47.803Z</time>
      </trkpt>
      <trkpt lat="48.16426" lon="6.40495">
        <ele>496.148531</ele>
        <time>2022-07-12T15:13:49.810Z</time>
      </trkpt>
      <trkpt lat="48.16431" lon="6.40511">
        <ele>496.208516</ele>
        <time>2022-07-12T15:13:51.839Z</time>
      </trkpt>
      <trkpt lat="48.16435" lon="6.40525">
        <ele>496.260414</ele>
        <time>2022-07-12T15:13:53.816Z</time>
      </trkpt>
      <trkpt lat="48.16441" lon="6.4054">
        <ele>496.316782</ele>
        <time>2022-07-12T15:13:55.812Z</time>
      </trkpt>
      <trkpt lat="48.16449" lon="6.40554">
        <ele>496.379988</ele>
        <time>2022-07-12T15:13:57.823Z</time>
      </trkpt>
      <trkpt lat="48.16457" lon="6.40566">
        <ele>496.436882</ele>
        <time>2022-07-12T15:13:59.806Z</time>
      </trkpt>
      <trkpt lat="48.16465" lon="6.40578">
        <ele>496.493793</ele>
        <time>2022-07-12T15:14:01.801Z</time>
      </trkpt>
      <trkpt lat="48.16472" lon="6.40589">
        <ele>496.543813</ele>
        <time>2022-07-12T15:14:03.823Z</time>
      </trkpt>
      <trkpt lat="48.16479" lon="6.40602">
        <ele>496.599645</ele>
        <time>2022-07-12T15:14:05.803Z</time>
      </trkpt>
      <trkpt lat="48.16486" lon="6.40617">
        <ele>496.658537</ele>
        <time>2022-07-12T15:14:07.808Z</time>
      </trkpt>
      <trkpt lat="48.16491" lon="6.40629">
        <ele>496.709589</ele>
        <time>2022-07-12T15:14:09.820Z</time>
      </trkpt>
      <trkpt lat="48.16496" lon="6.40642">
        <ele>496.756454</ele>
        <time>2022-07-12T15:14:11.800Z</time>
      </trkpt>
      <trkpt lat="48.16499" lon="6.40656">
        <ele>496.807042</ele>
        <time>2022-07-12T15:14:13.814Z</time>
      </trkpt>
      <trkpt lat="48.16502" lon="6.40671">
        <ele>496.861161</ele>
        <time>2022-07-12T15:14:15.802Z</time>
      </trkpt>
      <trkpt lat="48.16506" lon="6.40689">
        <ele>496.922425</ele>
        <time>2022-07-12T15:14:17.846Z</time>
      </trkpt>
      <trkpt lat="48.1651" lon="6.40706">
        <ele>496.983346</ele>
        <time>2022-07-12T15:14:19.798Z</time>
      </trkpt>
      <trkpt lat="48.16513" lon="6.40723">
        <ele>496.911839</ele>
        <time>2022-07-12T15:14:21.806Z</time>
      </trkpt>
      <trkpt lat="48.16515" lon="6.40736">
        <ele>496.063303</ele>
        <time>2022-07-12T15:14:23.814Z</time>
      </trkpt>
      <trkpt lat="48.16517" lon="6.40752">
        <ele>495.12559</ele>
        <time>2022-07-12T15:14:25.805Z</time>
      </trkpt>
      <trkpt lat="48.16519" lon="6.40765">
        <ele>494.311314</ele>
        <time>2022-07-12T15:14:27.796Z</time>
      </trkpt>
      <trkpt lat="48.16513" lon="6.40781">
        <ele>493.261082</ele>
        <time>2022-07-12T15:14:31.800Z</time>
      </trkpt>
      <trkpt lat="48.16504" lon="6.40794">
        <ele>492.19006</ele>
        <time>2022-07-12T15:14:34.802Z</time>
      </trkpt>
      <trkpt lat="48.16494" lon="6.40798">
        <ele>491.229752</ele>
        <time>2022-07-12T15:14:38.812Z</time>
      </trkpt>
      <trkpt lat="48.16485" lon="6.4079">
        <ele>490.257253</ele>
        <time>2022-07-12T15:14:41.821Z</time>
      </trkpt>
      <trkpt lat="48.16477" lon="6.40782">
        <ele>489.417037</ele>
        <time>2022-07-12T15:14:43.813Z</time>
      </trkpt>
      <trkpt lat="48.16469" lon="6.40769">
        <ele>488.429455</ele>
        <time>2022-07-12T15:14:45.802Z</time>
      </trkpt>
      <trkpt lat="48.16461" lon="6.40758">
        <ele>487.458402</ele>
        <time>2022-07-12T15:14:48.817Z</time>
      </trkpt>
      <trkpt lat="48.16454" lon="6.40746">
        <ele>486.501637</ele>
        <time>2022-07-12T15:14:55.827Z</time>
      </trkpt>
      <trkpt lat="48.16448" lon="6.40757">
        <ele>485.618665</ele>
        <time>2022-07-12T15:15:00.819Z</time>
      </trkpt>
      <trkpt lat="48.16446" lon="6.40776">
        <ele>484.471723</ele>
        <time>2022-07-12T15:15:03.814Z</time>
      </trkpt>
      <trkpt lat="48.16445" lon="6.40791">
        <ele>483.625124</ele>
        <time>2022-07-12T15:15:05.810Z</time>
      </trkpt>
      <trkpt lat="48.1644" lon="6.40804">
        <ele>482.737138</ele>
        <time>2022-07-12T15:15:08.803Z</time>
      </trkpt>
      <trkpt lat="48.16432" lon="6.4081">
        <ele>481.898021</ele>
        <time>2022-07-12T15:15:10.815Z</time>
      </trkpt>
      <trkpt lat="48.16422" lon="6.40815">
        <ele>481.016853</ele>
        <time>2022-07-12T15:15:13.812Z</time>
      </trkpt>
      <trkpt lat="48.16414" lon="6.40828">
        <ele>480.33326</ele>
        <time>2022-07-12T15:15:16.802Z</time>
      </trkpt>
      <trkpt lat="48.16405" lon="6.40842">
        <ele>479.587383</ele>
        <time>2022-07-12T15:15:24.814Z</time>
      </trkpt>
      <trkpt lat="48.164" lon="6.40855">
        <ele>478.989581</ele>
        <time>2022-07-12T15:15:33.824Z</time>
      </trkpt>
      <trkpt lat="48.16396" lon="6.40869">
        <ele>478.373374</ele>
        <time>2022-07-12T15:15:35.811Z</time>
      </trkpt>
      <trkpt lat="48.16395" lon="6.40886">
        <ele>477.713997</ele>
        <time>2022-07-12T15:15:37.828Z</time>
      </trkpt>
      <trkpt lat="48.16395" lon="6.40904">
        <ele>477.002205</ele>
        <time>2022-07-12T15:15:40.802Z</time>
      </trkpt>
      <trkpt lat="48.16398" lon="6.40918">
        <ele>476.44691</ele>
        <time>2022-07-12T15:15:42.827Z</time>
      </trkpt>
      <trkpt lat="48.164" lon="6.40935">
        <ele>475.805333</ele>
        <time>2022-07-12T15:15:45.794Z</time>
      </trkpt>
      <trkpt lat="48.16403" lon="6.4095">
        <ele>475.154765</ele>
        <time>2022-07-12T15:15:47.792Z</time>
      </trkpt>
      <trkpt lat="48.16409" lon="6.40964">
        <ele>474.523398</ele>
        <time>2022-07-12T15:15:49.814Z</time>
      </trkpt>
      <trkpt lat="48.16417" lon="6.40977">
        <ele>473.847885</ele>
        <time>2022-07-12T15:15:51.830Z</time>
      </trkpt>
      <trkpt lat="48.16425" lon="6.40989">
        <ele>473.175322</ele>
        <time>2022-07-12T15:15:53.821Z</time>
      </trkpt>
      <trkpt lat="48.16435" lon="6.41005">
        <ele>472.353956</ele>
        <time>2022-07-12T15:15:55.823Z</time>
      </trkpt>
      <trkpt lat="48.16443" lon="6.41018">
        <ele>471.649815</ele>
        <time>2022-07-12T15:15:57.832Z</time>
      </trkpt>
      <trkpt lat="48.16452" lon="6.41031">
        <ele>470.909968</ele>
        <time>2022-07-12T15:15:59.813Z</time>
      </trkpt>
      <trkpt lat="48.16462" lon="6.41046">
        <ele>469.657499</ele>
        <time>2022-07-12T15:16:01.806Z</time>
      </trkpt>
      <trkpt lat="48.16472" lon="6.41061">
        <ele>468.135367</ele>
        <time>2022-07-12T15:16:03.828Z</time>
      </trkpt>
      <trkpt lat="48.16483" lon="6.41078">
        <ele>466.460598</ele>
        <time>2022-07-12T15:16:05.822Z</time>
      </trkpt>
      <trkpt lat="48.16494" lon="6.41095">
        <ele>464.828274</ele>
        <time>2022-07-12T15:16:07.814Z</time>
      </trkpt>
      <trkpt lat="48.16503" lon="6.4111">
        <ele>463.367772</ele>
        <time>2022-07-12T15:16:09.815Z</time>
      </trkpt>
      <trkpt lat="48.16513" lon="6.41126">
        <ele>461.858369</ele>
        <time>2022-07-12T15:16:11.818Z</time>
      </trkpt>
      <trkpt lat="48.16511" lon="6.4114">
        <ele>460.867949</ele>
        <time>2022-07-12T15:16:19.804Z</time>
      </trkpt>
      <trkpt lat="48.16515" lon="6.41155">
        <ele>459.710851</ele>
        <time>2022-07-12T15:16:21.808Z</time>
      </trkpt>
      <trkpt lat="48.16519" lon="6.4117">
        <ele>458.57156</ele>
        <time>2022-07-12T15:16:23.812Z</time>
      </trkpt>
      <trkpt lat="48.16523" lon="6.41183">
        <ele>457.559244</ele>
        <time>2022-07-12T15:16:25.806Z</time>
      </trkpt>
      <trkpt lat="48.16527" lon="6.41197">
        <ele>456.482316</ele>
        <time>2022-07-12T15:16:27.817Z</time>
      </trkpt>
      <trkpt lat="48.16533" lon="6.41215">
        <ele>455.02775</ele>
        <time>2022-07-12T15:16:29.810Z</time>
      </trkpt>
      <trkpt lat="48.16537" lon="6.41234">
        <ele>453.639238</ele>
        <time>2022-07-12T15:16:31.786Z</time>
      </trkpt>
      <trkpt lat="48.16541" lon="6.41248">
        <ele>452.585735</ele>
        <time>2022-07-12T15:16:33.814Z</time>
      </trkpt>
      <trkpt lat="48.16545" lon="6.41269">
        <ele>450.988062</ele>
        <time>2022-07-12T15:16:36.825Z</time>
      </trkpt>
      <trkpt lat="48.16548" lon="6.41283">
        <ele>449.76065</ele>
        <time>2022-07-12T15:16:38.813Z</time>
      </trkpt>
      <trkpt lat="48.16552" lon="6.41297">
        <ele>448.429739</ele>
        <time>2022-07-12T15:16:40.801Z</time>
      </trkpt>
      <trkpt lat="48.16559" lon="6.41316">
        <ele>446.67847</ele>
        <time>2022-07-12T15:16:42.803Z</time>
      </trkpt>
      <trkpt lat="48.16569" lon="6.41337">
        <ele>444.504669</ele>
        <time>2022-07-12T15:16:44.797Z</time>
      </trkpt>
      <trkpt lat="48.16581" lon="6.41358">
        <ele>442.243475</ele>
        <time>2022-07-12T15:16:46.816Z</time>
      </trkpt>
      <trkpt lat="48.16594" lon="6.41379">
        <ele>439.895406</ele>
        <time>2022-07-12T15:16:48.810Z</time>
      </trkpt>
      <trkpt lat="48.166" lon="6.41391">
        <ele>438.714196</ele>
        <time>2022-07-12T15:16:49.809Z</time>
      </trkpt>
      <trkpt lat="48.16606" lon="6.41402">
        <ele>437.534275</ele>
        <time>2022-07-12T15:16:50.831Z</time>
      </trkpt>
      <trkpt lat="48.16612" lon="6.41421">
        <ele>435.783592</ele>
        <time>2022-07-12T15:16:52.837Z</time>
      </trkpt>
      <trkpt lat="48.16616" lon="6.41437">
        <ele>434.320602</ele>
        <time>2022-07-12T15:16:54.816Z</time>
      </trkpt>
      <trkpt lat="48.1662" lon="6.41456">
        <ele>432.673426</ele>
        <time>2022-07-12T15:16:56.792Z</time>
      </trkpt>
      <trkpt lat="48.16629" lon="6.41471">
        <ele>431.058744</ele>
        <time>2022-07-12T15:16:58.802Z</time>
      </trkpt>
      <trkpt lat="48.16638" lon="6.41484">
        <ele>429.434998</ele>
        <time>2022-07-12T15:17:00.818Z</time>
      </trkpt>
      <trkpt lat="48.16648" lon="6.41498">
        <ele>428.919204</ele>
        <time>2022-07-12T15:17:02.805Z</time>
      </trkpt>
      <trkpt lat="48.16658" lon="6.41511">
        <ele>428.573804</ele>
        <time>2022-07-12T15:17:04.803Z</time>
      </trkpt>
      <trkpt lat="48.16666" lon="6.41523">
        <ele>428.255212</ele>
        <time>2022-07-12T15:17:06.806Z</time>
      </trkpt>
      <trkpt lat="48.16675" lon="6.41538">
        <ele>427.893936</ele>
        <time>2022-07-12T15:17:08.799Z</time>
      </trkpt>
      <trkpt lat="48.16683" lon="6.41551">
        <ele>427.571098</ele>
        <time>2022-07-12T15:17:10.825Z</time>
      </trkpt>
      <trkpt lat="48.16693" lon="6.41563">
        <ele>427.230409</ele>
        <time>2022-07-12T15:17:12.819Z</time>
      </trkpt>
      <trkpt lat="48.16704" lon="6.41578">
        <ele>426.830262</ele>
        <time>2022-07-12T15:17:14.812Z</time>
      </trkpt>
      <trkpt lat="48.16714" lon="6.41595">
        <ele>426.417091</ele>
        <time>2022-07-12T15:17:16.800Z</time>
      </trkpt>
      <trkpt lat="48.16722" lon="6.41612">
        <ele>426.035869</ele>
        <time>2022-07-12T15:17:18.817Z</time>
      </trkpt>
      <trkpt lat="48.16732" lon="6.4163">
        <ele>425.616706</ele>
        <time>2022-07-12T15:17:20.795Z</time>
      </trkpt>
      <trkpt lat="48.16741" lon="6.41648">
        <ele>425.215508</ele>
        <time>2022-07-12T15:17:22.802Z</time>
      </trkpt>
      <trkpt lat="48.16751" lon="6.41667">
        <ele>424.786427</ele>
        <time>2022-07-12T15:17:24.810Z</time>
      </trkpt>
      <trkpt lat="48.1676" lon="6.41686">
        <ele>424.332597</ele>
        <time>2022-07-12T15:17:26.803Z</time>
      </trkpt>
      <trkpt lat="48.1677" lon="6.41705">
        <ele>423.510047</ele>
        <time>2022-07-12T15:17:28.816Z</time>
      </trkpt>
      <trkpt lat="48.16781" lon="6.41722">
        <ele>422.629167</ele>
        <time>2022-07-12T15:17:30.794Z</time>
      </trkpt>
      <trkpt lat="48.16791" lon="6.41738">
        <ele>421.841618</ele>
        <time>2022-07-12T15:17:32.813Z</time>
      </trkpt>
      <trkpt lat="48.16803" lon="6.41753">
        <ele>421.0386</ele>
        <time>2022-07-12T15:17:34.803Z</time>
      </trkpt>
      <trkpt lat="48.16814" lon="6.41768">
        <ele>420.232682</ele>
        <time>2022-07-12T15:17:36.805Z</time>
      </trkpt>
      <trkpt lat="48.16825" lon="6.4178">
        <ele>419.508839</ele>
        <time>2022-07-12T15:17:38.811Z</time>
      </trkpt>
      <trkpt lat="48.16831" lon="6.41794">
        <ele>418.910459</ele>
        <time>2022-07-12T15:17:41.815Z</time>
      </trkpt>
      <trkpt lat="48.16833" lon="6.41808">
        <ele>418.387382</ele>
        <time>2022-07-12T15:17:44.814Z</time>
      </trkpt>
      <trkpt lat="48.16838" lon="6.41826">
        <ele>417.708604</ele>
        <time>2022-07-12T15:17:47.806Z</time>
      </trkpt>
      <trkpt lat="48.16843" lon="6.41841">
        <ele>417.112317</ele>
        <time>2022-07-12T15:17:49.816Z</time>
      </trkpt>
      <trkpt lat="48.16849" lon="6.41854">
        <ele>416.524316</ele>
        <time>2022-07-12T15:17:51.816Z</time>
      </trkpt>
      <trkpt lat="48.16858" lon="6.41861">
        <ele>416.003348</ele>
        <time>2022-07-12T15:17:53.807Z</time>
      </trkpt>
      <trkpt lat="48.16867" lon="6.41871">
        <ele>415.394876</ele>
        <time>2022-07-12T15:17:55.807Z</time>
      </trkpt>
      <trkpt lat="48.16877" lon="6.4188">
        <ele>414.78331</ele>
        <time>2022-07-12T15:17:57.854Z</time>
      </trkpt>
      <trkpt lat="48.16888" lon="6.41887">
        <ele>414.744896</ele>
        <time>2022-07-12T15:17:59.821Z</time>
      </trkpt>
      <trkpt lat="48.16897" lon="6.41894">
        <ele>414.71075</ele>
        <time>2022-07-12T15:18:01.819Z</time>
      </trkpt>
      <trkpt lat="48.16899" lon="6.41908">
        <ele>414.679004</ele>
        <time>2022-07-12T15:18:03.835Z</time>
      </trkpt>
      <trkpt lat="48.16893" lon="6.41925">
        <ele>414.637347</ele>
        <time>2022-07-12T15:18:05.814Z</time>
      </trkpt>
      <trkpt lat="48.16891" lon="6.41944">
        <ele>414.594524</ele>
        <time>2022-07-12T15:18:07.834Z</time>
      </trkpt>
      <trkpt lat="48.16891" lon="6.41959">
        <ele>414.55963</ele>
        <time>2022-07-12T15:18:09.800Z</time>
      </trkpt>
      <trkpt lat="48.16882" lon="6.41968">
        <ele>414.524543</ele>
        <time>2022-07-12T15:18:11.803Z</time>
      </trkpt>
      <trkpt lat="48.16873" lon="6.41973">
        <ele>414.493059</ele>
        <time>2022-07-12T15:18:13.835Z</time>
      </trkpt>
      <trkpt lat="48.16865" lon="6.41965">
        <ele>414.459893</ele>
        <time>2022-07-12T15:18:16.813Z</time>
      </trkpt>
      <trkpt lat="48.16856" lon="6.41955">
        <ele>414.424467</ele>
        <time>2022-07-12T15:18:19.803Z</time>
      </trkpt>
      <trkpt lat="48.16845" lon="6.41945">
        <ele>414.380256</ele>
        <time>2022-07-12T15:18:22.801Z</time>
      </trkpt>
      <trkpt lat="48.16835" lon="6.41934">
        <ele>414.339631</ele>
        <time>2022-07-12T15:18:25.794Z</time>
      </trkpt>
      <trkpt lat="48.16826" lon="6.41921">
        <ele>414.296782</ele>
        <time>2022-07-12T15:18:28.812Z</time>
      </trkpt>
      <trkpt lat="48.16817" lon="6.41907">
        <ele>414.253857</ele>
        <time>2022-07-12T15:18:31.814Z</time>
      </trkpt>
      <trkpt lat="48.16809" lon="6.41896">
        <ele>414.218849</ele>
        <time>2022-07-12T15:18:33.815Z</time>
      </trkpt>
      <trkpt lat="48.16801" lon="6.41888">
        <ele>414.185961</ele>
        <time>2022-07-12T15:18:35.815Z</time>
      </trkpt>
      <trkpt lat="48.16792" lon="6.41881">
        <ele>414.263063</ele>
        <time>2022-07-12T15:18:37.798Z</time>
      </trkpt>
      <trkpt lat="48.16783" lon="6.41875">
        <ele>414.34069</ele>
        <time>2022-07-12T15:18:39.803Z</time>
      </trkpt>
      <trkpt lat="48.16773" lon="6.41865">
        <ele>414.433576</ele>
        <time>2022-07-12T15:18:42.798Z</time>
      </trkpt>
      <trkpt lat="48.16764" lon="6.41852">
        <ele>414.532897</ele>
        <time>2022-07-12T15:18:45.804Z</time>
      </trkpt>
      <trkpt lat="48.16754" lon="6.41843">
        <ele>414.623298</ele>
        <time>2022-07-12T15:18:48.803Z</time>
      </trkpt>
      <trkpt lat="48.16746" lon="6.41831">
        <ele>414.709963</ele>
        <time>2022-07-12T15:18:50.816Z</time>
      </trkpt>
      <trkpt lat="48.16738" lon="6.41821">
        <ele>414.796656</ele>
        <time>2022-07-12T15:18:52.812Z</time>
      </trkpt>
      <trkpt lat="48.16731" lon="6.4181">
        <ele>414.872727</ele>
        <time>2022-07-12T15:18:56.810Z</time>
      </trkpt>
      <trkpt lat="48.16724" lon="6.41799">
        <ele>414.950258</ele>
        <time>2022-07-12T15:19:00.812Z</time>
      </trkpt>
      <trkpt lat="48.16717" lon="6.4179">
        <ele>415.027327</ele>
        <time>2022-07-12T15:19:03.808Z</time>
      </trkpt>
      <trkpt lat="48.1671" lon="6.4178">
        <ele>415.100789</ele>
        <time>2022-07-12T15:19:06.800Z</time>
      </trkpt>
      <trkpt lat="48.16701" lon="6.41768">
        <ele>415.194999</ele>
        <time>2022-07-12T15:19:09.800Z</time>
      </trkpt>
      <trkpt lat="48.16693" lon="6.41759">
        <ele>415.273501</ele>
        <time>2022-07-12T15:19:11.819Z</time>
      </trkpt>
      <trkpt lat="48.16684" lon="6.41745">
        <ele>415.374751</ele>
        <time>2022-07-12T15:19:14.807Z</time>
      </trkpt>
      <trkpt lat="48.16677" lon="6.41734">
        <ele>415.454486</ele>
        <time>2022-07-12T15:19:16.805Z</time>
      </trkpt>
      <trkpt lat="48.16668" lon="6.41723">
        <ele>415.546481</ele>
        <time>2022-07-12T15:19:18.815Z</time>
      </trkpt>
      <trkpt lat="48.16658" lon="6.41711">
        <ele>416.035968</ele>
        <time>2022-07-12T15:19:20.800Z</time>
      </trkpt>
      <trkpt lat="48.1665" lon="6.41703">
        <ele>416.70395</ele>
        <time>2022-07-12T15:19:22.812Z</time>
      </trkpt>
      <trkpt lat="48.1664" lon="6.4169">
        <ele>417.625699</ele>
        <time>2022-07-12T15:19:25.826Z</time>
      </trkpt>
      <trkpt lat="48.16632" lon="6.41676">
        <ele>418.55148</ele>
        <time>2022-07-12T15:19:28.800Z</time>
      </trkpt>
      <trkpt lat="48.16621" lon="6.41664">
        <ele>419.479194</ele>
        <time>2022-07-12T15:19:31.796Z</time>
      </trkpt>
      <trkpt lat="48.16613" lon="6.41657">
        <ele>420.114999</ele>
        <time>2022-07-12T15:19:33.800Z</time>
      </trkpt>
      <trkpt lat="48.16605" lon="6.41648">
        <ele>420.842277</ele>
        <time>2022-07-12T15:19:36.829Z</time>
      </trkpt>
      <trkpt lat="48.16596" lon="6.41638">
        <ele>421.645461</ele>
        <time>2022-07-12T15:19:39.821Z</time>
      </trkpt>
      <trkpt lat="48.16586" lon="6.41624">
        <ele>422.548992</ele>
        <time>2022-07-12T15:19:42.805Z</time>
      </trkpt>
      <trkpt lat="48.16579" lon="6.41615">
        <ele>423.240617</ele>
        <time>2022-07-12T15:19:44.787Z</time>
      </trkpt>
      <trkpt lat="48.16571" lon="6.41603">
        <ele>424.003048</ele>
        <time>2022-07-12T15:19:46.800Z</time>
      </trkpt>
      <trkpt lat="48.16565" lon="6.41594">
        <ele>424.643042</ele>
        <time>2022-07-12T15:19:48.802Z</time>
      </trkpt>
      <trkpt lat="48.16566" lon="6.41609">
        <ele>425.360004</ele>
        <time>2022-07-12T15:20:02.815Z</time>
      </trkpt>
      <trkpt lat="48.16569" lon="6.41624">
        <ele>426.117705</ele>
        <time>2022-07-12T15:20:11.805Z</time>
      </trkpt>
      <trkpt lat="48.16574" lon="6.41637">
        <ele>426.805713</ele>
        <time>2022-07-12T15:20:19.798Z</time>
      </trkpt>
      <trkpt lat="48.16581" lon="6.41647">
        <ele>427.471654</ele>
        <time>2022-07-12T15:20:36.810Z</time>
      </trkpt>
      <trkpt lat="48.16586" lon="6.41659">
        <ele>428.11686</ele>
        <time>2022-07-12T15:20:43.807Z</time>
      </trkpt>
      <trkpt lat="48.16591" lon="6.41672">
        <ele>429.084345</ele>
        <time>2022-07-12T15:20:48.798Z</time>
      </trkpt>
      <trkpt lat="48.16598" lon="6.41683">
        <ele>430.074887</ele>
        <time>2022-07-12T15:20:53.808Z</time>
      </trkpt>
      <trkpt lat="48.16604" lon="6.41694">
        <ele>431.007795</ele>
        <time>2022-07-12T15:20:57.813Z</time>
      </trkpt>
      <trkpt lat="48.1661" lon="6.41705">
        <ele>431.948394</ele>
        <time>2022-07-12T15:21:02.809Z</time>
      </trkpt>
      <trkpt lat="48.16616" lon="6.41718">
        <ele>433.050265</ele>
        <time>2022-07-12T15:21:07.820Z</time>
      </trkpt>
      <trkpt lat="48.16621" lon="6.4173">
        <ele>433.989932</ele>
        <time>2022-07-12T15:21:16.826Z</time>
      </trkpt>
      <trkpt lat="48.16626" lon="6.41743">
        <ele>434.969417</ele>
        <time>2022-07-12T15:21:21.810Z</time>
      </trkpt>
      <trkpt lat="48.16631" lon="6.41757">
        <ele>436.066439</ele>
        <time>2022-07-12T15:21:25.816Z</time>
      </trkpt>
      <trkpt lat="48.16635" lon="6.41772">
        <ele>437.146642</ele>
        <time>2022-07-12T15:21:29.800Z</time>
      </trkpt>
      <trkpt lat="48.16639" lon="6.41786">
        <ele>438.151487</ele>
        <time>2022-07-12T15:21:34.800Z</time>
      </trkpt>
      <trkpt lat="48.16644" lon="6.41801">
        <ele>439.255813</ele>
        <time>2022-07-12T15:21:39.804Z</time>
      </trkpt>
      <trkpt lat="48.16646" lon="6.41815">
        <ele>440.214123</ele>
        <time>2022-07-12T15:21:44.799Z</time>
      </trkpt>
      <trkpt lat="48.16638" lon="6.41818">
        <ele>441.115746</ele>
        <time>2022-07-12T15:21:51.802Z</time>
      </trkpt>
      <trkpt lat="48.1663" lon="6.41806">
        <ele>442.183328</ele>
        <time>2022-07-12T15:21:54.820Z</time>
      </trkpt>
      <trkpt lat="48.16622" lon="6.41794">
        <ele>443.354245</ele>
        <time>2022-07-12T15:21:57.815Z</time>
      </trkpt>
      <trkpt lat="48.16614" lon="6.41781">
        <ele>444.548436</ele>
        <time>2022-07-12T15:22:00.818Z</time>
      </trkpt>
      <trkpt lat="48.16605" lon="6.4177">
        <ele>445.685435</ele>
        <time>2022-07-12T15:22:03.799Z</time>
      </trkpt>
      <trkpt lat="48.16597" lon="6.41758">
        <ele>446.651756</ele>
        <time>2022-07-12T15:22:06.814Z</time>
      </trkpt>
      <trkpt lat="48.16589" lon="6.41746">
        <ele>447.456454</ele>
        <time>2022-07-12T15:22:09.812Z</time>
      </trkpt>
      <trkpt lat="48.1658" lon="6.41734">
        <ele>448.286299</ele>
        <time>2022-07-12T15:22:12.851Z</time>
      </trkpt>
      <trkpt lat="48.16571" lon="6.41722">
        <ele>449.145322</ele>
        <time>2022-07-12T15:22:15.807Z</time>
      </trkpt>
      <trkpt lat="48.16561" lon="6.4171">
        <ele>450.060238</ele>
        <time>2022-07-12T15:22:18.800Z</time>
      </trkpt>
      <trkpt lat="48.16551" lon="6.41697">
        <ele>450.983544</ele>
        <time>2022-07-12T15:22:21.816Z</time>
      </trkpt>
      <trkpt lat="48.16542" lon="6.41684">
        <ele>451.900568</ele>
        <time>2022-07-12T15:22:24.809Z</time>
      </trkpt>
      <trkpt lat="48.16533" lon="6.41673">
        <ele>452.716437</ele>
        <time>2022-07-12T15:22:27.814Z</time>
      </trkpt>
      <trkpt lat="48.16523" lon="6.41663">
        <ele>453.544568</ele>
        <time>2022-07-12T15:22:30.823Z</time>
      </trkpt>
      <trkpt lat="48.16515" lon="6.41655">
        <ele>454.213681</ele>
        <time>2022-07-12T15:22:33.807Z</time>
      </trkpt>
      <trkpt lat="48.16505" lon="6.41647">
        <ele>455.029886</ele>
        <time>2022-07-12T15:22:36.811Z</time>
      </trkpt>
      <trkpt lat="48.16497" lon="6.41638">
        <ele>455.718328</ele>
        <time>2022-07-12T15:22:39.813Z</time>
      </trkpt>
      <trkpt lat="48.16487" lon="6.4163">
        <ele>456.560662</ele>
        <time>2022-07-12T15:22:43.816Z</time>
      </trkpt>
      <trkpt lat="48.16477" lon="6.41623">
        <ele>457.32922</ele>
        <time>2022-07-12T15:22:48.802Z</time>
      </trkpt>
      <trkpt lat="48.16468" lon="6.41616">
        <ele>458.051207</ele>
        <time>2022-07-12T15:22:52.822Z</time>
      </trkpt>
      <trkpt lat="48.16459" lon="6.41609">
        <ele>458.779697</ele>
        <time>2022-07-12T15:22:55.815Z</time>
      </trkpt>
      <trkpt lat="48.16448" lon="6.41604">
        <ele>459.428703</ele>
        <time>2022-07-12T15:22:59.811Z</time>
      </trkpt>
      <trkpt lat="48.16437" lon="6.41599">
        <ele>460.05057</ele>
        <time>2022-07-12T15:23:03.813Z</time>
      </trkpt>
      <trkpt lat="48.16427" lon="6.41595">
        <ele>460.624854</ele>
        <time>2022-07-12T15:23:07.811Z</time>
      </trkpt>
      <trkpt lat="48.16416" lon="6.4159">
        <ele>461.262952</ele>
        <time>2022-07-12T15:23:11.813Z</time>
      </trkpt>
      <trkpt lat="48.16405" lon="6.41585">
        <ele>461.883617</ele>
        <time>2022-07-12T15:23:15.810Z</time>
      </trkpt>
      <trkpt lat="48.16394" lon="6.4158">
        <ele>462.521107</ele>
        <time>2022-07-12T15:23:19.823Z</time>
      </trkpt>
      <trkpt lat="48.16383" lon="6.41574">
        <ele>463.152669</ele>
        <time>2022-07-12T15:23:23.818Z</time>
      </trkpt>
      <trkpt lat="48.16372" lon="6.41569">
        <ele>463.794214</ele>
        <time>2022-07-12T15:23:27.815Z</time>
      </trkpt>
      <trkpt lat="48.1636" lon="6.41566">
        <ele>464.449329</ele>
        <time>2022-07-12T15:23:31.804Z</time>
      </trkpt>
      <trkpt lat="48.16351" lon="6.41564">
        <ele>464.969409</ele>
        <time>2022-07-12T15:23:34.803Z</time>
      </trkpt>
      <trkpt lat="48.16341" lon="6.41562">
        <ele>465.507793</ele>
        <time>2022-07-12T15:23:37.810Z</time>
      </trkpt>
      <trkpt lat="48.16331" lon="6.41563">
        <ele>466.044392</ele>
        <time>2022-07-12T15:23:40.809Z</time>
      </trkpt>
      <trkpt lat="48.16322" lon="6.41565">
        <ele>466.57972</ele>
        <time>2022-07-12T15:23:43.800Z</time>
      </trkpt>
      <trkpt lat="48.16313" lon="6.41568">
        <ele>467.074599</ele>
        <time>2022-07-12T15:23:46.811Z</time>
      </trkpt>
      <trkpt lat="48.16304" lon="6.41575">
        <ele>467.634309</ele>
        <time>2022-07-12T15:23:49.800Z</time>
      </trkpt>
      <trkpt lat="48.16294" lon="6.41582">
        <ele>468.218493</ele>
        <time>2022-07-12T15:23:52.803Z</time>
      </trkpt>
      <trkpt lat="48.16286" lon="6.4159">
        <ele>468.778198</ele>
        <time>2022-07-12T15:23:55.792Z</time>
      </trkpt>
      <trkpt lat="48.16277" lon="6.416">
        <ele>469.291226</ele>
        <time>2022-07-12T15:23:58.815Z</time>
      </trkpt>
      <trkpt lat="48.16268" lon="6.41611">
        <ele>469.832194</ele>
        <time>2022-07-12T15:24:01.825Z</time>
      </trkpt>
      <trkpt lat="48.16258" lon="6.41623">
        <ele>470.422574</ele>
        <time>2022-07-12T15:24:04.822Z</time>
      </trkpt>
      <trkpt lat="48.1625" lon="6.41634">
        <ele>470.946452</ele>
        <time>2022-07-12T15:24:07.816Z</time>
      </trkpt>
      <trkpt lat="48.16242" lon="6.41642">
        <ele>471.369678</ele>
        <time>2022-07-12T15:24:09.799Z</time>
      </trkpt>
      <trkpt lat="48.16232" lon="6.41653">
        <ele>471.976228</ele>
        <time>2022-07-12T15:24:12.806Z</time>
      </trkpt>
      <trkpt lat="48.16225" lon="6.41662">
        <ele>472.403002</ele>
        <time>2022-07-12T15:24:14.809Z</time>
      </trkpt>
      <trkpt lat="48.16217" lon="6.4167">
        <ele>472.836002</ele>
        <time>2022-07-12T15:24:16.821Z</time>
      </trkpt>
      <trkpt lat="48.16208" lon="6.41682">
        <ele>473.420049</ele>
        <time>2022-07-12T15:24:19.824Z</time>
      </trkpt>
      <trkpt lat="48.16198" lon="6.41692">
        <ele>473.959214</ele>
        <time>2022-07-12T15:24:22.822Z</time>
      </trkpt>
      <trkpt lat="48.16191" lon="6.41701">
        <ele>474.388637</ele>
        <time>2022-07-12T15:24:25.819Z</time>
      </trkpt>
      <trkpt lat="48.16183" lon="6.41711">
        <ele>474.892426</ele>
        <time>2022-07-12T15:24:29.823Z</time>
      </trkpt>
      <trkpt lat="48.16174" lon="6.41721">
        <ele>475.392591</ele>
        <time>2022-07-12T15:24:32.803Z</time>
      </trkpt>
      <trkpt lat="48.16168" lon="6.41732">
        <ele>475.842024</ele>
        <time>2022-07-12T15:24:35.800Z</time>
      </trkpt>
      <trkpt lat="48.16162" lon="6.41742">
        <ele>476.278268</ele>
        <time>2022-07-12T15:24:38.811Z</time>
      </trkpt>
      <trkpt lat="48.16156" lon="6.41755">
        <ele>476.759105</ele>
        <time>2022-07-12T15:24:41.798Z</time>
      </trkpt>
      <trkpt lat="48.1615" lon="6.41767">
        <ele>477.22464</ele>
        <time>2022-07-12T15:24:44.817Z</time>
      </trkpt>
      <trkpt lat="48.16144" lon="6.4178">
        <ele>477.696951</ele>
        <time>2022-07-12T15:24:47.852Z</time>
      </trkpt>
      <trkpt lat="48.16137" lon="6.41794">
        <ele>478.227641</ele>
        <time>2022-07-12T15:24:50.806Z</time>
      </trkpt>
      <trkpt lat="48.1613" lon="6.41811">
        <ele>478.804994</ele>
        <time>2022-07-12T15:24:53.803Z</time>
      </trkpt>
      <trkpt lat="48.16123" lon="6.41827">
        <ele>479.370602</ele>
        <time>2022-07-12T15:24:56.796Z</time>
      </trkpt>
      <trkpt lat="48.16118" lon="6.41843">
        <ele>479.900119</ele>
        <time>2022-07-12T15:24:59.784Z</time>
      </trkpt>
      <trkpt lat="48.16114" lon="6.41858">
        <ele>480.383238</ele>
        <time>2022-07-12T15:25:02.814Z</time>
      </trkpt>
      <trkpt lat="48.16108" lon="6.41875">
        <ele>480.928783</ele>
        <time>2022-07-12T15:25:05.781Z</time>
      </trkpt>
      <trkpt lat="48.16101" lon="6.41891">
        <ele>481.498731</ele>
        <time>2022-07-12T15:25:08.906Z</time>
      </trkpt>
      <trkpt lat="48.16095" lon="6.41904">
        <ele>481.967991</ele>
        <time>2022-07-12T15:25:11.774Z</time>
      </trkpt>
      <trkpt lat="48.16089" lon="6.41917">
        <ele>482.422499</ele>
        <time>2022-07-12T15:25:14.794Z</time>
      </trkpt>
      <trkpt lat="48.16085" lon="6.41933">
        <ele>482.957113</ele>
        <time>2022-07-12T15:25:17.806Z</time>
      </trkpt>
      <trkpt lat="48.1608" lon="6.41946">
        <ele>483.384967</ele>
        <time>2022-07-12T15:25:19.777Z</time>
      </trkpt>
      <trkpt lat="48.16075" lon="6.41963">
        <ele>483.926534</ele>
        <time>2022-07-12T15:25:22.772Z</time>
      </trkpt>
      <trkpt lat="48.16071" lon="6.4198">
        <ele>484.450521</ele>
        <time>2022-07-12T15:25:25.791Z</time>
      </trkpt>
      <trkpt lat="48.16069" lon="6.42001">
        <ele>485.074691</ele>
        <time>2022-07-12T15:25:28.803Z</time>
      </trkpt>
      <trkpt lat="48.1607" lon="6.42015">
        <ele>485.822628</ele>
        <time>2022-07-12T15:25:30.816Z</time>
      </trkpt>
      <trkpt lat="48.16073" lon="6.4203">
        <ele>486.73497</ele>
        <time>2022-07-12T15:25:32.790Z</time>
      </trkpt>
      <trkpt lat="48.1608" lon="6.42043">
        <ele>487.738546</ele>
        <time>2022-07-12T15:25:35.800Z</time>
      </trkpt>
      <trkpt lat="48.16087" lon="6.42051">
        <ele>488.563232</ele>
        <time>2022-07-12T15:25:40.807Z</time>
      </trkpt>
      <trkpt lat="48.16096" lon="6.42053">
        <ele>489.365643</ele>
        <time>2022-07-12T15:25:45.805Z</time>
      </trkpt>
      <trkpt lat="48.16107" lon="6.42055">
        <ele>490.276735</ele>
        <time>2022-07-12T15:25:52.803Z</time>
      </trkpt>
      <trkpt lat="48.16117" lon="6.42065">
        <ele>491.376519</ele>
        <time>2022-07-12T15:26:00.806Z</time>
      </trkpt>
      <trkpt lat="48.16126" lon="6.42071">
        <ele>492.279721</ele>
        <time>2022-07-12T15:26:05.817Z</time>
      </trkpt>
      <trkpt lat="48.16129" lon="6.42088">
        <ele>493.323702</ele>
        <time>2022-07-12T15:26:13.802Z</time>
      </trkpt>
      <trkpt lat="48.16123" lon="6.42102">
        <ele>494.279734</ele>
        <time>2022-07-12T15:26:17.834Z</time>
      </trkpt>
      <trkpt lat="48.16118" lon="6.42114">
        <ele>495.162378</ele>
        <time>2022-07-12T15:26:21.805Z</time>
      </trkpt>
      <trkpt lat="48.16114" lon="6.42128">
        <ele>496.094011</ele>
        <time>2022-07-12T15:26:26.804Z</time>
      </trkpt>
      <trkpt lat="48.16109" lon="6.42143">
        <ele>497.084906</ele>
        <time>2022-07-12T15:26:29.795Z</time>
      </trkpt>
      <trkpt lat="48.16103" lon="6.42157">
        <ele>498.016921</ele>
        <time>2022-07-12T15:26:32.784Z</time>
      </trkpt>
      <trkpt lat="48.16097" lon="6.42171">
        <ele>499.017319</ele>
        <time>2022-07-12T15:26:36.802Z</time>
      </trkpt>
      <trkpt lat="48.16091" lon="6.42186">
        <ele>500.029672</ele>
        <time>2022-07-12T15:26:39.803Z</time>
      </trkpt>
      <trkpt lat="48.16085" lon="6.42198">
        <ele>500.96637</ele>
        <time>2022-07-12T15:26:41.798Z</time>
      </trkpt>
      <trkpt lat="48.16077" lon="6.42214">
        <ele>500.823434</ele>
        <time>2022-07-12T15:26:44.789Z</time>
      </trkpt>
      <trkpt lat="48.1607" lon="6.42225">
        <ele>500.523527</ele>
        <time>2022-07-12T15:26:46.818Z</time>
      </trkpt>
      <trkpt lat="48.16063" lon="6.42236">
        <ele>500.200479</ele>
        <time>2022-07-12T15:26:48.808Z</time>
      </trkpt>
      <trkpt lat="48.16055" lon="6.42247">
        <ele>499.87099</ele>
        <time>2022-07-12T15:26:50.793Z</time>
      </trkpt>
      <trkpt lat="48.16048" lon="6.42261">
        <ele>499.519731</ele>
        <time>2022-07-12T15:26:52.814Z</time>
      </trkpt>
      <trkpt lat="48.1604" lon="6.42274">
        <ele>499.145947</ele>
        <time>2022-07-12T15:26:54.835Z</time>
      </trkpt>
      <trkpt lat="48.16033" lon="6.42288">
        <ele>498.794688</ele>
        <time>2022-07-12T15:26:56.813Z</time>
      </trkpt>
      <trkpt lat="48.16024" lon="6.42302">
        <ele>498.390961</ele>
        <time>2022-07-12T15:26:58.810Z</time>
      </trkpt>
      <trkpt lat="48.16016" lon="6.42316">
        <ele>498.012189</ele>
        <time>2022-07-12T15:27:00.813Z</time>
      </trkpt>
      <trkpt lat="48.16009" lon="6.42332">
        <ele>497.614671</ele>
        <time>2022-07-12T15:27:02.810Z</time>
      </trkpt>
      <trkpt lat="48.16" lon="6.42347">
        <ele>497.202555</ele>
        <time>2022-07-12T15:27:04.812Z</time>
      </trkpt>
      <trkpt lat="48.1599" lon="6.42361">
        <ele>496.79088</ele>
        <time>2022-07-12T15:27:06.794Z</time>
      </trkpt>
      <trkpt lat="48.15982" lon="6.42376">
        <ele>496.376714</ele>
        <time>2022-07-12T15:27:08.794Z</time>
      </trkpt>
      <trkpt lat="48.15972" lon="6.42393">
        <ele>495.926166</ele>
        <time>2022-07-12T15:27:10.798Z</time>
      </trkpt>
      <trkpt lat="48.15963" lon="6.42408">
        <ele>495.607135</ele>
        <time>2022-07-12T15:27:12.803Z</time>
      </trkpt>
      <trkpt lat="48.15954" lon="6.42423">
        <ele>495.563032</ele>
        <time>2022-07-12T15:27:14.806Z</time>
      </trkpt>
      <trkpt lat="48.15948" lon="6.42436">
        <ele>495.527939</ele>
        <time>2022-07-12T15:27:16.796Z</time>
      </trkpt>
      <trkpt lat="48.1595" lon="6.4245">
        <ele>495.496714</ele>
        <time>2022-07-12T15:27:18.794Z</time>
      </trkpt>
      <trkpt lat="48.15956" lon="6.42464">
        <ele>495.460846</ele>
        <time>2022-07-12T15:27:20.792Z</time>
      </trkpt>
      <trkpt lat="48.15962" lon="6.42478">
        <ele>495.424119</ele>
        <time>2022-07-12T15:27:22.833Z</time>
      </trkpt>
      <trkpt lat="48.15966" lon="6.42493">
        <ele>495.389822</ele>
        <time>2022-07-12T15:27:24.814Z</time>
      </trkpt>
      <trkpt lat="48.15969" lon="6.42509">
        <ele>495.352778</ele>
        <time>2022-07-12T15:27:26.798Z</time>
      </trkpt>
      <trkpt lat="48.15971" lon="6.42526">
        <ele>495.315121</ele>
        <time>2022-07-12T15:27:28.813Z</time>
      </trkpt>
      <trkpt lat="48.15967" lon="6.42543">
        <ele>495.273549</ele>
        <time>2022-07-12T15:27:31.817Z</time>
      </trkpt>
      <trkpt lat="48.15961" lon="6.42562">
        <ele>495.229199</ele>
        <time>2022-07-12T15:27:34.805Z</time>
      </trkpt>
      <trkpt lat="48.1596" lon="6.42577">
        <ele>495.195939</ele>
        <time>2022-07-12T15:27:36.827Z</time>
      </trkpt>
      <trkpt lat="48.15957" lon="6.42592">
        <ele>495.160735</ele>
        <time>2022-07-12T15:27:38.830Z</time>
      </trkpt>
      <trkpt lat="48.15951" lon="6.42604">
        <ele>495.129862</ele>
        <time>2022-07-12T15:27:40.805Z</time>
      </trkpt>
      <trkpt lat="48.15952" lon="6.42618">
        <ele>495.097598</ele>
        <time>2022-07-12T15:27:42.812Z</time>
      </trkpt>
      <trkpt lat="48.15958" lon="6.42633">
        <ele>495.059002</ele>
        <time>2022-07-12T15:27:44.795Z</time>
      </trkpt>
      <trkpt lat="48.15966" lon="6.42648">
        <ele>495.108449</ele>
        <time>2022-07-12T15:27:46.815Z</time>
      </trkpt>
      <trkpt lat="48.15973" lon="6.42666">
        <ele>495.566189</ele>
        <time>2022-07-12T15:27:48.841Z</time>
      </trkpt>
      <trkpt lat="48.15979" lon="6.42683">
        <ele>495.987981</ele>
        <time>2022-07-12T15:27:50.803Z</time>
      </trkpt>
      <trkpt lat="48.15984" lon="6.42699">
        <ele>496.386354</ele>
        <time>2022-07-12T15:27:52.805Z</time>
      </trkpt>
      <trkpt lat="48.15987" lon="6.42716">
        <ele>496.773286</ele>
        <time>2022-07-12T15:27:54.799Z</time>
      </trkpt>
      <trkpt lat="48.15989" lon="6.42731">
        <ele>497.088052</ele>
        <time>2022-07-12T15:27:56.802Z</time>
      </trkpt>
      <trkpt lat="48.15984" lon="6.42749">
        <ele>497.526409</ele>
        <time>2022-07-12T15:27:59.780Z</time>
      </trkpt>
      <trkpt lat="48.15974" lon="6.42761">
        <ele>497.958686</ele>
        <time>2022-07-12T15:28:02.789Z</time>
      </trkpt>
      <trkpt lat="48.15963" lon="6.42773">
        <ele>498.381715</ele>
        <time>2022-07-12T15:28:05.806Z</time>
      </trkpt>
      <trkpt lat="48.15953" lon="6.42784">
        <ele>498.812606</ele>
        <time>2022-07-12T15:28:08.816Z</time>
      </trkpt>
      <trkpt lat="48.15943" lon="6.42796">
        <ele>499.220148</ele>
        <time>2022-07-12T15:28:11.796Z</time>
      </trkpt>
      <trkpt lat="48.15935" lon="6.42806">
        <ele>499.565907</ele>
        <time>2022-07-12T15:28:14.805Z</time>
      </trkpt>
      <trkpt lat="48.15926" lon="6.42817">
        <ele>499.928153</ele>
        <time>2022-07-12T15:28:19.802Z</time>
      </trkpt>
      <trkpt lat="48.15918" lon="6.42827">
        <ele>500.292605</ele>
        <time>2022-07-12T15:28:22.776Z</time>
      </trkpt>
      <trkpt lat="48.15907" lon="6.42838">
        <ele>500.723035</ele>
        <time>2022-07-12T15:28:25.814Z</time>
      </trkpt>
      <trkpt lat="48.15899" lon="6.42846">
        <ele>500.944391</ele>
        <time>2022-07-12T15:28:27.808Z</time>
      </trkpt>
      <trkpt lat="48.15892" lon="6.42854">
        <ele>501.029272</ele>
        <time>2022-07-12T15:28:29.805Z</time>
      </trkpt>
      <trkpt lat="48.15884" lon="6.42862">
        <ele>501.114575</ele>
        <time>2022-07-12T15:28:31.792Z</time>
      </trkpt>
      <trkpt lat="48.15877" lon="6.42871">
        <ele>501.202048</ele>
        <time>2022-07-12T15:28:33.796Z</time>
      </trkpt>
      <trkpt lat="48.15869" lon="6.42882">
        <ele>501.293846</ele>
        <time>2022-07-12T15:28:35.801Z</time>
      </trkpt>
      <trkpt lat="48.15869" lon="6.42896">
        <ele>501.382641</ele>
        <time>2022-07-12T15:28:37.790Z</time>
      </trkpt>
      <trkpt lat="48.15874" lon="6.42908">
        <ele>501.472612</ele>
        <time>2022-07-12T15:28:39.800Z</time>
      </trkpt>
      <trkpt lat="48.1588" lon="6.42919">
        <ele>501.556018</ele>
        <time>2022-07-12T15:28:41.798Z</time>
      </trkpt>
      <trkpt lat="48.15885" lon="6.42931">
        <ele>501.639903</ele>
        <time>2022-07-12T15:28:43.802Z</time>
      </trkpt>
      <trkpt lat="48.15889" lon="6.42943">
        <ele>501.7239</ele>
        <time>2022-07-12T15:28:45.811Z</time>
      </trkpt>
      <trkpt lat="48.15893" lon="6.42961">
        <ele>501.837045</ele>
        <time>2022-07-12T15:28:48.787Z</time>
      </trkpt>
      <trkpt lat="48.15885" lon="6.42975">
        <ele>501.947383</ele>
        <time>2022-07-12T15:28:51.802Z</time>
      </trkpt>
      <trkpt lat="48.15878" lon="6.42983">
        <ele>502.032341</ele>
        <time>2022-07-12T15:28:53.828Z</time>
      </trkpt>
      <trkpt lat="48.1587" lon="6.42992">
        <ele>502.118089</ele>
        <time>2022-07-12T15:28:55.807Z</time>
      </trkpt>
      <trkpt lat="48.15862" lon="6.43004">
        <ele>502.224654</ele>
        <time>2022-07-12T15:28:58.803Z</time>
      </trkpt>
      <trkpt lat="48.15853" lon="6.43017">
        <ele>502.337798</ele>
        <time>2022-07-12T15:29:01.809Z</time>
      </trkpt>
      <trkpt lat="48.15844" lon="6.43031">
        <ele>502.454636</ele>
        <time>2022-07-12T15:29:04.821Z</time>
      </trkpt>
      <trkpt lat="48.15837" lon="6.43042">
        <ele>502.543298</ele>
        <time>2022-07-12T15:29:07.812Z</time>
      </trkpt>
      <trkpt lat="48.15829" lon="6.43056">
        <ele>502.452051</ele>
        <time>2022-07-12T15:29:10.805Z</time>
      </trkpt>
      <trkpt lat="48.15822" lon="6.43069">
        <ele>502.355008</ele>
        <time>2022-07-12T15:29:12.797Z</time>
      </trkpt>
      <trkpt lat="48.15815" lon="6.4308">
        <ele>502.271652</ele>
        <time>2022-07-12T15:29:14.803Z</time>
      </trkpt>
      <trkpt lat="48.15809" lon="6.43091">
        <ele>502.18664</ele>
        <time>2022-07-12T15:29:16.782Z</time>
      </trkpt>
      <trkpt lat="48.15802" lon="6.43104">
        <ele>502.090222</ele>
        <time>2022-07-12T15:29:18.804Z</time>
      </trkpt>
      <trkpt lat="48.15794" lon="6.43117">
        <ele>501.993065</ele>
        <time>2022-07-12T15:29:20.815Z</time>
      </trkpt>
      <trkpt lat="48.15787" lon="6.43128">
        <ele>501.897754</ele>
        <time>2022-07-12T15:29:22.800Z</time>
      </trkpt>
      <trkpt lat="48.15778" lon="6.43139">
        <ele>501.805179</ele>
        <time>2022-07-12T15:29:24.814Z</time>
      </trkpt>
      <trkpt lat="48.15772" lon="6.43149">
        <ele>501.723257</ele>
        <time>2022-07-12T15:29:26.798Z</time>
      </trkpt>
      <trkpt lat="48.15766" lon="6.4316">
        <ele>501.641455</ele>
        <time>2022-07-12T15:29:28.804Z</time>
      </trkpt>
      <trkpt lat="48.1576" lon="6.43171">
        <ele>501.561965</ele>
        <time>2022-07-12T15:29:30.810Z</time>
      </trkpt>
      <trkpt lat="48.15753" lon="6.43183">
        <ele>501.469879</ele>
        <time>2022-07-12T15:29:32.832Z</time>
      </trkpt>
      <trkpt lat="48.15747" lon="6.43195">
        <ele>501.379208</ele>
        <time>2022-07-12T15:29:34.806Z</time>
      </trkpt>
      <trkpt lat="48.1574" lon="6.43206">
        <ele>501.29263</ele>
        <time>2022-07-12T15:29:36.806Z</time>
      </trkpt>
      <trkpt lat="48.15733" lon="6.43217">
        <ele>501.204976</ele>
        <time>2022-07-12T15:29:38.809Z</time>
      </trkpt>
      <trkpt lat="48.15726" lon="6.43228">
        <ele>501.121434</ele>
        <time>2022-07-12T15:29:40.830Z</time>
      </trkpt>
      <trkpt lat="48.15719" lon="6.43238">
        <ele>501.03872</ele>
        <time>2022-07-12T15:29:42.813Z</time>
      </trkpt>
      <trkpt lat="48.15713" lon="6.43249">
        <ele>500.963305</ele>
        <time>2022-07-12T15:29:44.823Z</time>
      </trkpt>
      <trkpt lat="48.15705" lon="6.43259">
        <ele>500.888122</ele>
        <time>2022-07-12T15:29:46.808Z</time>
      </trkpt>
      <trkpt lat="48.15699" lon="6.43269">
        <ele>500.820969</ele>
        <time>2022-07-12T15:29:48.815Z</time>
      </trkpt>
      <trkpt lat="48.15692" lon="6.4328">
        <ele>500.74361</ele>
        <time>2022-07-12T15:29:50.828Z</time>
      </trkpt>
      <trkpt lat="48.15684" lon="6.43294">
        <ele>500.654955</ele>
        <time>2022-07-12T15:29:52.803Z</time>
      </trkpt>
      <trkpt lat="48.15677" lon="6.43306">
        <ele>500.576227</ele>
        <time>2022-07-12T15:29:54.808Z</time>
      </trkpt>
      <trkpt lat="48.1567" lon="6.43319">
        <ele>500.493147</ele>
        <time>2022-07-12T15:29:56.807Z</time>
      </trkpt>
      <trkpt lat="48.15663" lon="6.43332">
        <ele>500.41111</ele>
        <time>2022-07-12T15:29:58.806Z</time>
      </trkpt>
      <trkpt lat="48.15657" lon="6.43345">
        <ele>500.333603</ele>
        <time>2022-07-12T15:30:00.798Z</time>
      </trkpt>
      <trkpt lat="48.15649" lon="6.43358">
        <ele>500.248519</ele>
        <time>2022-07-12T15:30:02.810Z</time>
      </trkpt>
      <trkpt lat="48.15642" lon="6.43368">
        <ele>500.176761</ele>
        <time>2022-07-12T15:30:04.798Z</time>
      </trkpt>
      <trkpt lat="48.15635" lon="6.43378">
        <ele>500.10491</ele>
        <time>2022-07-12T15:30:06.805Z</time>
      </trkpt>
      <trkpt lat="48.15627" lon="6.43391">
        <ele>500.017558</ele>
        <time>2022-07-12T15:30:08.830Z</time>
      </trkpt>
      <trkpt lat="48.15618" lon="6.43404">
        <ele>499.924298</ele>
        <time>2022-07-12T15:30:10.836Z</time>
      </trkpt>
      <trkpt lat="48.15606" lon="6.43409">
        <ele>499.831825</ele>
        <time>2022-07-12T15:30:13.817Z</time>
      </trkpt>
      <trkpt lat="48.15595" lon="6.43411">
        <ele>499.753379</ele>
        <time>2022-07-12T15:30:15.814Z</time>
      </trkpt>
      <trkpt lat="48.15586" lon="6.43409">
        <ele>499.683517</ele>
        <time>2022-07-12T15:30:17.795Z</time>
      </trkpt>
      <trkpt lat="48.15576" lon="6.43401">
        <ele>499.394454</ele>
        <time>2022-07-12T15:30:19.803Z</time>
      </trkpt>
      <trkpt lat="48.15568" lon="6.43392">
        <ele>499.089694</ele>
        <time>2022-07-12T15:30:21.807Z</time>
      </trkpt>
      <trkpt lat="48.15559" lon="6.43383">
        <ele>498.77497</ele>
        <time>2022-07-12T15:30:23.810Z</time>
      </trkpt>
      <trkpt lat="48.1555" lon="6.43371">
        <ele>498.436944</ele>
        <time>2022-07-12T15:30:25.801Z</time>
      </trkpt>
      <trkpt lat="48.15541" lon="6.43362">
        <ele>498.135834</ele>
        <time>2022-07-12T15:30:27.814Z</time>
      </trkpt>
      <trkpt lat="48.15528" lon="6.43354">
        <ele>497.739604</ele>
        <time>2022-07-12T15:30:30.792Z</time>
      </trkpt>
      <trkpt lat="48.15519" lon="6.43348">
        <ele>497.455247</ele>
        <time>2022-07-12T15:30:32.804Z</time>
      </trkpt>
      <trkpt lat="48.15509" lon="6.43344">
        <ele>497.148295</ele>
        <time>2022-07-12T15:30:34.817Z</time>
      </trkpt>
      <trkpt lat="48.15498" lon="6.43343">
        <ele>496.83516</ele>
        <time>2022-07-12T15:30:36.804Z</time>
      </trkpt>
      <trkpt lat="48.15487" lon="6.43344">
        <ele>496.513053</ele>
        <time>2022-07-12T15:30:38.801Z</time>
      </trkpt>
      <trkpt lat="48.15476" lon="6.43347">
        <ele>496.188247</ele>
        <time>2022-07-12T15:30:40.796Z</time>
      </trkpt>
      <trkpt lat="48.15466" lon="6.43349">
        <ele>495.891531</ele>
        <time>2022-07-12T15:30:42.808Z</time>
      </trkpt>
      <trkpt lat="48.15455" lon="6.43355">
        <ele>495.559517</ele>
        <time>2022-07-12T15:30:44.815Z</time>
      </trkpt>
      <trkpt lat="48.15443" lon="6.43365">
        <ele>495.18599</ele>
        <time>2022-07-12T15:30:46.816Z</time>
      </trkpt>
      <trkpt lat="48.15435" lon="6.43373">
        <ele>494.896466</ele>
        <time>2022-07-12T15:30:48.808Z</time>
      </trkpt>
      <trkpt lat="48.15431" lon="6.43389">
        <ele>494.576053</ele>
        <time>2022-07-12T15:30:50.793Z</time>
      </trkpt>
      <trkpt lat="48.15432" lon="6.43406">
        <ele>493.911156</ele>
        <time>2022-07-12T15:30:52.820Z</time>
      </trkpt>
      <trkpt lat="48.15435" lon="6.43426">
        <ele>493.014472</ele>
        <time>2022-07-12T15:30:54.789Z</time>
      </trkpt>
      <trkpt lat="48.15439" lon="6.43447">
        <ele>492.027571</ele>
        <time>2022-07-12T15:30:56.803Z</time>
      </trkpt>
      <trkpt lat="48.15443" lon="6.43466">
        <ele>491.157907</ele>
        <time>2022-07-12T15:30:58.803Z</time>
      </trkpt>
      <trkpt lat="48.15446" lon="6.43485">
        <ele>490.322654</ele>
        <time>2022-07-12T15:31:00.810Z</time>
      </trkpt>
      <trkpt lat="48.1545" lon="6.43505">
        <ele>489.386871</ele>
        <time>2022-07-12T15:31:02.807Z</time>
      </trkpt>
      <trkpt lat="48.15455" lon="6.43524">
        <ele>488.478212</ele>
        <time>2022-07-12T15:31:04.812Z</time>
      </trkpt>
      <trkpt lat="48.15462" lon="6.43539">
        <ele>487.713221</ele>
        <time>2022-07-12T15:31:06.820Z</time>
      </trkpt>
      <trkpt lat="48.15469" lon="6.43547">
        <ele>487.101282</ele>
        <time>2022-07-12T15:31:08.806Z</time>
      </trkpt>
      <trkpt lat="48.15476" lon="6.43556">
        <ele>486.505141</ele>
        <time>2022-07-12T15:31:11.819Z</time>
      </trkpt>
      <trkpt lat="48.15484" lon="6.43563">
        <ele>485.860743</ele>
        <time>2022-07-12T15:31:16.799Z</time>
      </trkpt>
      <trkpt lat="48.15494" lon="6.43562">
        <ele>485.245138</ele>
        <time>2022-07-12T15:31:21.811Z</time>
      </trkpt>
      <trkpt lat="48.15505" lon="6.43572">
        <ele>484.394322</ele>
        <time>2022-07-12T15:31:26.837Z</time>
      </trkpt>
      <trkpt lat="48.15511" lon="6.43583">
        <ele>483.779738</ele>
        <time>2022-07-12T15:31:28.814Z</time>
      </trkpt>
      <trkpt lat="48.15512" lon="6.43599">
        <ele>483.077541</ele>
        <time>2022-07-12T15:31:31.810Z</time>
      </trkpt>
      <trkpt lat="48.15512" lon="6.43613">
        <ele>482.089946</ele>
        <time>2022-07-12T15:31:34.817Z</time>
      </trkpt>
      <trkpt lat="48.15508" lon="6.43629">
        <ele>480.068901</ele>
        <time>2022-07-12T15:31:38.814Z</time>
      </trkpt>
      <trkpt lat="48.15504" lon="6.43643">
        <ele>478.218589</ele>
        <time>2022-07-12T15:31:47.819Z</time>
      </trkpt>
      <trkpt lat="48.15499" lon="6.43655">
        <ele>476.608306</ele>
        <time>2022-07-12T15:31:58.805Z</time>
      </trkpt>
      <trkpt lat="48.15505" lon="6.43667">
        <ele>474.831445</ele>
        <time>2022-07-12T15:32:02.813Z</time>
      </trkpt>
      <trkpt lat="48.1551" lon="6.43681">
        <ele>472.923472</ele>
        <time>2022-07-12T15:32:05.801Z</time>
      </trkpt>
      <trkpt lat="48.15516" lon="6.43696">
        <ele>470.738135</ele>
        <time>2022-07-12T15:32:08.833Z</time>
      </trkpt>
      <trkpt lat="48.15523" lon="6.43712">
        <ele>468.530184</ele>
        <time>2022-07-12T15:32:11.803Z</time>
      </trkpt>
      <trkpt lat="48.15512" lon="6.43718">
        <ele>466.527656</ele>
        <time>2022-07-12T15:32:19.805Z</time>
      </trkpt>
      <trkpt lat="48.15499" lon="6.43713">
        <ele>464.196253</ele>
        <time>2022-07-12T15:32:22.811Z</time>
      </trkpt>
      <trkpt lat="48.15489" lon="6.4371">
        <ele>462.319432</ele>
        <time>2022-07-12T15:32:25.804Z</time>
      </trkpt>
      <trkpt lat="48.15476" lon="6.4371">
        <ele>459.939708</ele>
        <time>2022-07-12T15:32:28.832Z</time>
      </trkpt>
      <trkpt lat="48.15466" lon="6.4371">
        <ele>458.239393</ele>
        <time>2022-07-12T15:32:30.821Z</time>
      </trkpt>
      <trkpt lat="48.15456" lon="6.4371">
        <ele>456.325146</ele>
        <time>2022-07-12T15:32:32.803Z</time>
      </trkpt>
      <trkpt lat="48.15444" lon="6.43716">
        <ele>454.143145</ele>
        <time>2022-07-12T15:32:34.811Z</time>
      </trkpt>
      <trkpt lat="48.15432" lon="6.43725">
        <ele>451.673599</ele>
        <time>2022-07-12T15:32:36.815Z</time>
      </trkpt>
      <trkpt lat="48.15419" lon="6.43734">
        <ele>449.849132</ele>
        <time>2022-07-12T15:32:38.823Z</time>
      </trkpt>
      <trkpt lat="48.15409" lon="6.43741">
        <ele>448.868805</ele>
        <time>2022-07-12T15:32:40.816Z</time>
      </trkpt>
      <trkpt lat="48.15397" lon="6.43753">
        <ele>447.615756</ele>
        <time>2022-07-12T15:32:42.789Z</time>
      </trkpt>
      <trkpt lat="48.15384" lon="6.43764">
        <ele>446.371918</ele>
        <time>2022-07-12T15:32:44.801Z</time>
      </trkpt>
      <trkpt lat="48.15373" lon="6.43773">
        <ele>445.2898</ele>
        <time>2022-07-12T15:32:46.822Z</time>
      </trkpt>
      <trkpt lat="48.1536" lon="6.43773">
        <ele>444.118692</ele>
        <time>2022-07-12T15:32:49.802Z</time>
      </trkpt>
      <trkpt lat="48.15355" lon="6.43761">
        <ele>443.295139</ele>
        <time>2022-07-12T15:32:51.805Z</time>
      </trkpt>
      <trkpt lat="48.15351" lon="6.43749">
        <ele>442.491641</ele>
        <time>2022-07-12T15:32:53.790Z</time>
      </trkpt>
      <trkpt lat="48.15345" lon="6.43734">
        <ele>441.486013</ele>
        <time>2022-07-12T15:32:55.807Z</time>
      </trkpt>
      <trkpt lat="48.15339" lon="6.43718">
        <ele>440.461922</ele>
        <time>2022-07-12T15:32:57.834Z</time>
      </trkpt>
      <trkpt lat="48.15336" lon="6.43701">
        <ele>439.391545</ele>
        <time>2022-07-12T15:32:59.803Z</time>
      </trkpt>
      <trkpt lat="48.15333" lon="6.43683">
        <ele>438.361659</ele>
        <time>2022-07-12T15:33:01.803Z</time>
      </trkpt>
      <trkpt lat="48.15331" lon="6.43665">
        <ele>437.27537</ele>
        <time>2022-07-12T15:33:03.807Z</time>
      </trkpt>
      <trkpt lat="48.1533" lon="6.43645">
        <ele>436.122336</ele>
        <time>2022-07-12T15:33:05.805Z</time>
      </trkpt>
      <trkpt lat="48.15329" lon="6.43622">
        <ele>434.879351</ele>
        <time>2022-07-12T15:33:07.802Z</time>
      </trkpt>
      <trkpt lat="48.15329" lon="6.436">
        <ele>434.806853</ele>
        <time>2022-07-12T15:33:09.821Z</time>
      </trkpt>
      <trkpt lat="48.1533" lon="6.43578">
        <ele>434.732009</ele>
        <time>2022-07-12T15:33:11.794Z</time>
      </trkpt>
      <trkpt lat="48.1533" lon="6.43555">
        <ele>434.655155</ele>
        <time>2022-07-12T15:33:13.798Z</time>
      </trkpt>
      <trkpt lat="48.15331" lon="6.4353">
        <ele>434.574628</ele>
        <time>2022-07-12T15:33:15.792Z</time>
      </trkpt>
      <trkpt lat="48.15333" lon="6.43505">
        <ele>434.488369</ele>
        <time>2022-07-12T15:33:17.810Z</time>
      </trkpt>
      <trkpt lat="48.15334" lon="6.43482">
        <ele>434.412355</ele>
        <time>2022-07-12T15:33:19.815Z</time>
      </trkpt>
      <trkpt lat="48.15332" lon="6.43458">
        <ele>434.331624</ele>
        <time>2022-07-12T15:33:21.822Z</time>
      </trkpt>
      <trkpt lat="48.15331" lon="6.43436">
        <ele>434.257858</ele>
        <time>2022-07-12T15:33:23.801Z</time>
      </trkpt>
      <trkpt lat="48.15328" lon="6.43415">
        <ele>434.188888</ele>
        <time>2022-07-12T15:33:25.792Z</time>
      </trkpt>
      <trkpt lat="48.15326" lon="6.43394">
        <ele>434.116481</ele>
        <time>2022-07-12T15:33:27.797Z</time>
      </trkpt>
      <trkpt lat="48.15323" lon="6.43373">
        <ele>434.045306</ele>
        <time>2022-07-12T15:33:29.782Z</time>
      </trkpt>
      <trkpt lat="48.15321" lon="6.4335">
        <ele>434.206345</ele>
        <time>2022-07-12T15:33:31.799Z</time>
      </trkpt>
      <trkpt lat="48.1532" lon="6.43328">
        <ele>435.068798</ele>
        <time>2022-07-12T15:33:33.790Z</time>
      </trkpt>
      <trkpt lat="48.15319" lon="6.43309">
        <ele>435.837159</ele>
        <time>2022-07-12T15:33:35.799Z</time>
      </trkpt>
      <trkpt lat="48.15318" lon="6.43291">
        <ele>436.533045</ele>
        <time>2022-07-12T15:33:37.791Z</time>
      </trkpt>
      <trkpt lat="48.15305" lon="6.43314">
        <ele>437.721558</ele>
        <time>2022-07-12T15:34:10.799Z</time>
      </trkpt>
      <trkpt lat="48.15298" lon="6.43324">
        <ele>438.259284</ele>
        <time>2022-07-12T15:34:13.796Z</time>
      </trkpt>
      <trkpt lat="48.15288" lon="6.43323">
        <ele>438.868696</ele>
        <time>2022-07-12T15:34:16.817Z</time>
      </trkpt>
      <trkpt lat="48.15278" lon="6.43319">
        <ele>439.48775</ele>
        <time>2022-07-12T15:34:20.809Z</time>
      </trkpt>
      <trkpt lat="48.15269" lon="6.43316">
        <ele>440.058915</ele>
        <time>2022-07-12T15:34:25.806Z</time>
      </trkpt>
      <trkpt lat="48.15258" lon="6.43314">
        <ele>440.701794</ele>
        <time>2022-07-12T15:34:31.803Z</time>
      </trkpt>
      <trkpt lat="48.1525" lon="6.43323">
        <ele>441.2774</ele>
        <time>2022-07-12T15:34:37.821Z</time>
      </trkpt>
      <trkpt lat="48.15248" lon="6.43336">
        <ele>441.814408</ele>
        <time>2022-07-12T15:34:40.805Z</time>
      </trkpt>
      <trkpt lat="48.15246" lon="6.43349">
        <ele>442.350692</ele>
        <time>2022-07-12T15:34:43.814Z</time>
      </trkpt>
      <trkpt lat="48.15246" lon="6.43363">
        <ele>442.900465</ele>
        <time>2022-07-12T15:34:46.815Z</time>
      </trkpt>
      <trkpt lat="48.1524" lon="6.43373">
        <ele>443.437196</ele>
        <time>2022-07-12T15:34:50.807Z</time>
      </trkpt>
      <trkpt lat="48.1523" lon="6.43372">
        <ele>444.029874</ele>
        <time>2022-07-12T15:34:56.813Z</time>
      </trkpt>
      <trkpt lat="48.1522" lon="6.43375">
        <ele>444.610874</ele>
        <time>2022-07-12T15:35:01.818Z</time>
      </trkpt>
      <trkpt lat="48.15211" lon="6.43374">
        <ele>445.087421</ele>
        <time>2022-07-12T15:35:05.810Z</time>
      </trkpt>
      <trkpt lat="48.152" lon="6.43375">
        <ele>445.642672</ele>
        <time>2022-07-12T15:35:10.812Z</time>
      </trkpt>
      <trkpt lat="48.1519" lon="6.43376">
        <ele>446.153102</ele>
        <time>2022-07-12T15:35:15.813Z</time>
      </trkpt>
      <trkpt lat="48.15178" lon="6.43378">
        <ele>446.731949</ele>
        <time>2022-07-12T15:35:20.808Z</time>
      </trkpt>
      <trkpt lat="48.15168" lon="6.43379">
        <ele>447.257611</ele>
        <time>2022-07-12T15:35:25.804Z</time>
      </trkpt>
      <trkpt lat="48.15158" lon="6.43379">
        <ele>447.78212</ele>
        <time>2022-07-12T15:35:30.798Z</time>
      </trkpt>
      <trkpt lat="48.15148" lon="6.4338">
        <ele>448.281289</ele>
        <time>2022-07-12T15:35:34.819Z</time>
      </trkpt>
      <trkpt lat="48.15139" lon="6.43382">
        <ele>448.76614</ele>
        <time>2022-07-12T15:35:37.804Z</time>
      </trkpt>
      <trkpt lat="48.15125" lon="6.43383">
        <ele>449.464744</ele>
        <time>2022-07-12T15:35:40.798Z</time>
      </trkpt>
      <trkpt lat="48.15112" lon="6.43385">
        <ele>450.098315</ele>
        <time>2022-07-12T15:35:43.812Z</time>
      </trkpt>
      <trkpt lat="48.151" lon="6.43387">
        <ele>450.743685</ele>
        <time>2022-07-12T15:35:46.812Z</time>
      </trkpt>
      <trkpt lat="48.15091" lon="6.43395">
        <ele>451.289539</ele>
        <time>2022-07-12T15:35:50.806Z</time>
      </trkpt>
      <trkpt lat="48.15083" lon="6.43404">
        <ele>451.779457</ele>
        <time>2022-07-12T15:35:54.805Z</time>
      </trkpt>
      <trkpt lat="48.15086" lon="6.43419">
        <ele>452.301265</ele>
        <time>2022-07-12T15:35:58.809Z</time>
      </trkpt>
      <trkpt lat="48.15092" lon="6.43431">
        <ele>452.799048</ele>
        <time>2022-07-12T15:36:01.791Z</time>
      </trkpt>
      <trkpt lat="48.15098" lon="6.4344">
        <ele>453.263105</ele>
        <time>2022-07-12T15:36:03.805Z</time>
      </trkpt>
      <trkpt lat="48.15108" lon="6.4345">
        <ele>453.739921</ele>
        <time>2022-07-12T15:36:05.795Z</time>
      </trkpt>
      <trkpt lat="48.15118" lon="6.4346">
        <ele>453.382165</ele>
        <time>2022-07-12T15:36:07.807Z</time>
      </trkpt>
      <trkpt lat="48.15126" lon="6.43471">
        <ele>453.063851</ele>
        <time>2022-07-12T15:36:09.791Z</time>
      </trkpt>
      <trkpt lat="48.15133" lon="6.4348">
        <ele>452.777255</ele>
        <time>2022-07-12T15:36:11.809Z</time>
      </trkpt>
      <trkpt lat="48.15145" lon="6.43491">
        <ele>452.361075</ele>
        <time>2022-07-12T15:36:13.801Z</time>
      </trkpt>
      <trkpt lat="48.15157" lon="6.43502">
        <ele>451.955789</ele>
        <time>2022-07-12T15:36:15.820Z</time>
      </trkpt>
      <trkpt lat="48.15164" lon="6.43517">
        <ele>451.583464</ele>
        <time>2022-07-12T15:36:17.800Z</time>
      </trkpt>
      <trkpt lat="48.15172" lon="6.43535">
        <ele>451.173292</ele>
        <time>2022-07-12T15:36:19.798Z</time>
      </trkpt>
      <trkpt lat="48.15177" lon="6.43554">
        <ele>450.775563</ele>
        <time>2022-07-12T15:36:21.824Z</time>
      </trkpt>
      <trkpt lat="48.15181" lon="6.4357">
        <ele>450.417737</ele>
        <time>2022-07-12T15:36:23.808Z</time>
      </trkpt>
      <trkpt lat="48.15183" lon="6.43585">
        <ele>450.111439</ele>
        <time>2022-07-12T15:36:25.803Z</time>
      </trkpt>
      <trkpt lat="48.1518" lon="6.43601">
        <ele>449.794602</ele>
        <time>2022-07-12T15:36:27.811Z</time>
      </trkpt>
      <trkpt lat="48.15177" lon="6.43617">
        <ele>449.472405</ele>
        <time>2022-07-12T15:36:29.803Z</time>
      </trkpt>
      <trkpt lat="48.1517" lon="6.43635">
        <ele>449.047095</ele>
        <time>2022-07-12T15:36:31.808Z</time>
      </trkpt>
      <trkpt lat="48.15159" lon="6.4365">
        <ele>448.607069</ele>
        <time>2022-07-12T15:36:33.802Z</time>
      </trkpt>
      <trkpt lat="48.1515" lon="6.43662">
        <ele>448.328586</ele>
        <time>2022-07-12T15:36:35.808Z</time>
      </trkpt>
      <trkpt lat="48.15144" lon="6.43675">
        <ele>448.124901</ele>
        <time>2022-07-12T15:36:37.802Z</time>
      </trkpt>
      <trkpt lat="48.15138" lon="6.43696">
        <ele>447.845582</ele>
        <time>2022-07-12T15:36:39.810Z</time>
      </trkpt>
      <trkpt lat="48.15136" lon="6.43716">
        <ele>447.59807</ele>
        <time>2022-07-12T15:36:41.810Z</time>
      </trkpt>
      <trkpt lat="48.15139" lon="6.43737">
        <ele>447.330982</ele>
        <time>2022-07-12T15:36:43.795Z</time>
      </trkpt>
      <trkpt lat="48.15142" lon="6.43754">
        <ele>447.111375</ele>
        <time>2022-07-12T15:36:45.795Z</time>
      </trkpt>
      <trkpt lat="48.15142" lon="6.43772">
        <ele>446.893458</ele>
        <time>2022-07-12T15:36:47.803Z</time>
      </trkpt>
      <trkpt lat="48.15137" lon="6.43786">
        <ele>446.688902</ele>
        <time>2022-07-12T15:36:49.808Z</time>
      </trkpt>
      <trkpt lat="48.15131" lon="6.43797">
        <ele>446.508209</ele>
        <time>2022-07-12T15:36:51.830Z</time>
      </trkpt>
      <trkpt lat="48.15123" lon="6.43809">
        <ele>446.30333</ele>
        <time>2022-07-12T15:36:53.827Z</time>
      </trkpt>
      <trkpt lat="48.15114" lon="6.4382">
        <ele>446.096134</ele>
        <time>2022-07-12T15:36:55.805Z</time>
      </trkpt>
      <trkpt lat="48.15105" lon="6.43831">
        <ele>445.878923</ele>
        <time>2022-07-12T15:36:57.813Z</time>
      </trkpt>
      <trkpt lat="48.15097" lon="6.43841">
        <ele>445.692961</ele>
        <time>2022-07-12T15:36:59.792Z</time>
      </trkpt>
      <trkpt lat="48.1509" lon="6.43852">
        <ele>445.492419</ele>
        <time>2022-07-12T15:37:02.806Z</time>
      </trkpt>
      <trkpt lat="48.151" lon="6.4385">
        <ele>445.306003</ele>
        <time>2022-07-12T15:37:08.807Z</time>
      </trkpt>
      <trkpt lat="48.1511" lon="6.43848">
        <ele>445.117247</ele>
        <time>2022-07-12T15:37:10.831Z</time>
      </trkpt>
      <trkpt lat="48.1512" lon="6.43847">
        <ele>444.492644</ele>
        <time>2022-07-12T15:37:12.826Z</time>
      </trkpt>
      <trkpt lat="48.1513" lon="6.43846">
        <ele>443.888152</ele>
        <time>2022-07-12T15:37:14.811Z</time>
      </trkpt>
      <trkpt lat="48.15142" lon="6.43845">
        <ele>443.155406</ele>
        <time>2022-07-12T15:37:17.808Z</time>
      </trkpt>
      <trkpt lat="48.15154" lon="6.43841">
        <ele>442.348146</ele>
        <time>2022-07-12T15:37:20.808Z</time>
      </trkpt>
      <trkpt lat="48.15164" lon="6.43836">
        <ele>441.71689</ele>
        <time>2022-07-12T15:37:22.799Z</time>
      </trkpt>
      <trkpt lat="48.15173" lon="6.43838">
        <ele>441.145369</ele>
        <time>2022-07-12T15:37:25.810Z</time>
      </trkpt>
      <trkpt lat="48.15172" lon="6.43856">
        <ele>440.398571</ele>
        <time>2022-07-12T15:37:29.802Z</time>
      </trkpt>
      <trkpt lat="48.15164" lon="6.43869">
        <ele>439.629225</ele>
        <time>2022-07-12T15:37:31.796Z</time>
      </trkpt>
      <trkpt lat="48.15154" lon="6.4388">
        <ele>438.889923</ele>
        <time>2022-07-12T15:37:33.814Z</time>
      </trkpt>
      <trkpt lat="48.15146" lon="6.43886">
        <ele>438.327951</ele>
        <time>2022-07-12T15:37:35.804Z</time>
      </trkpt>
      <trkpt lat="48.15139" lon="6.43897">
        <ele>437.73672</ele>
        <time>2022-07-12T15:37:38.794Z</time>
      </trkpt>
      <trkpt lat="48.15133" lon="6.43916">
        <ele>436.877359</ele>
        <time>2022-07-12T15:37:41.809Z</time>
      </trkpt>
      <trkpt lat="48.15129" lon="6.43932">
        <ele>436.168135</ele>
        <time>2022-07-12T15:37:43.802Z</time>
      </trkpt>
      <trkpt lat="48.15127" lon="6.43947">
        <ele>435.549587</ele>
        <time>2022-07-12T15:37:45.805Z</time>
      </trkpt>
      <trkpt lat="48.15126" lon="6.43963">
        <ele>434.886727</ele>
        <time>2022-07-12T15:37:48.803Z</time>
      </trkpt>
      <trkpt lat="48.15126" lon="6.43978">
        <ele>434.286495</ele>
        <time>2022-07-12T15:37:51.817Z</time>
      </trkpt>
      <trkpt lat="48.15118" lon="6.43985">
        <ele>434.158364</ele>
        <time>2022-07-12T15:37:54.798Z</time>
      </trkpt>
      <trkpt lat="48.15109" lon="6.43991">
        <ele>434.35243</ele>
        <time>2022-07-12T15:37:57.817Z</time>
      </trkpt>
      <trkpt lat="48.151" lon="6.43992">
        <ele>434.534026</ele>
        <time>2022-07-12T15:38:00.807Z</time>
      </trkpt>
      <trkpt lat="48.15088" lon="6.43993">
        <ele>434.763057</ele>
        <time>2022-07-12T15:38:02.810Z</time>
      </trkpt>
      <trkpt lat="48.15076" lon="6.43993">
        <ele>434.993123</ele>
        <time>2022-07-12T15:38:04.816Z</time>
      </trkpt>
      <trkpt lat="48.15065" lon="6.43996">
        <ele>435.222824</ele>
        <time>2022-07-12T15:38:06.795Z</time>
      </trkpt>
      <trkpt lat="48.15055" lon="6.44003">
        <ele>435.420469</ele>
        <time>2022-07-12T15:38:08.801Z</time>
      </trkpt>
      <trkpt lat="48.15047" lon="6.44016">
        <ele>435.664092</ele>
        <time>2022-07-12T15:38:11.814Z</time>
      </trkpt>
      <trkpt lat="48.15045" lon="6.44033">
        <ele>435.891514</ele>
        <time>2022-07-12T15:38:15.806Z</time>
      </trkpt>
      <trkpt lat="48.15044" lon="6.4405">
        <ele>436.112627</ele>
        <time>2022-07-12T15:38:18.814Z</time>
      </trkpt>
      <trkpt lat="48.15042" lon="6.44066">
        <ele>436.318972</ele>
        <time>2022-07-12T15:38:23.828Z</time>
      </trkpt>
      <trkpt lat="48.15044" lon="6.4408">
        <ele>436.512805</ele>
        <time>2022-07-12T15:38:32.809Z</time>
      </trkpt>
      <trkpt lat="48.15046" lon="6.44098">
        <ele>436.746788</ele>
        <time>2022-07-12T15:38:36.803Z</time>
      </trkpt>
      <trkpt lat="48.15047" lon="6.44113">
        <ele>436.947152</ele>
        <time>2022-07-12T15:38:39.820Z</time>
      </trkpt>
      <trkpt lat="48.15047" lon="6.44129">
        <ele>437.154281</ele>
        <time>2022-07-12T15:38:43.824Z</time>
      </trkpt>
      <trkpt lat="48.1505" lon="6.44144">
        <ele>437.348954</ele>
        <time>2022-07-12T15:38:46.810Z</time>
      </trkpt>
      <trkpt lat="48.15054" lon="6.44161">
        <ele>437.523524</ele>
        <time>2022-07-12T15:38:49.797Z</time>
      </trkpt>
      <trkpt lat="48.15058" lon="6.44179">
        <ele>437.207837</ele>
        <time>2022-07-12T15:38:52.808Z</time>
      </trkpt>
      <trkpt lat="48.15063" lon="6.44191">
        <ele>436.976902</ele>
        <time>2022-07-12T15:38:54.805Z</time>
      </trkpt>
      <trkpt lat="48.15069" lon="6.44203">
        <ele>436.740016</ele>
        <time>2022-07-12T15:38:56.799Z</time>
      </trkpt>
      <trkpt lat="48.15077" lon="6.44214">
        <ele>436.466832</ele>
        <time>2022-07-12T15:38:58.806Z</time>
      </trkpt>
      <trkpt lat="48.15084" lon="6.44228">
        <ele>436.171606</ele>
        <time>2022-07-12T15:39:00.803Z</time>
      </trkpt>
      <trkpt lat="48.1509" lon="6.44243">
        <ele>435.880162</ele>
        <time>2022-07-12T15:39:02.810Z</time>
      </trkpt>
      <trkpt lat="48.15097" lon="6.44262">
        <ele>435.534043</ele>
        <time>2022-07-12T15:39:05.802Z</time>
      </trkpt>
      <trkpt lat="48.15094" lon="6.44283">
        <ele>435.172891</ele>
        <time>2022-07-12T15:39:08.791Z</time>
      </trkpt>
      <trkpt lat="48.15089" lon="6.44297">
        <ele>434.90221</ele>
        <time>2022-07-12T15:39:10.809Z</time>
      </trkpt>
      <trkpt lat="48.15084" lon="6.44311">
        <ele>434.659196</ele>
        <time>2022-07-12T15:39:12.802Z</time>
      </trkpt>
      <trkpt lat="48.1508" lon="6.44326">
        <ele>434.390731</ele>
        <time>2022-07-12T15:39:14.800Z</time>
      </trkpt>
      <trkpt lat="48.15075" lon="6.44339">
        <ele>434.141804</ele>
        <time>2022-07-12T15:39:16.811Z</time>
      </trkpt>
      <trkpt lat="48.15069" lon="6.44351">
        <ele>433.894297</ele>
        <time>2022-07-12T15:39:18.802Z</time>
      </trkpt>
      <trkpt lat="48.1506" lon="6.44357">
        <ele>433.660383</ele>
        <time>2022-07-12T15:39:20.838Z</time>
      </trkpt>
      <trkpt lat="48.15051" lon="6.44362">
        <ele>433.426557</ele>
        <time>2022-07-12T15:39:22.801Z</time>
      </trkpt>
      <trkpt lat="48.15041" lon="6.44366">
        <ele>433.163497</ele>
        <time>2022-07-12T15:39:25.827Z</time>
      </trkpt>
      <trkpt lat="48.15031" lon="6.44368">
        <ele>433.130648</ele>
        <time>2022-07-12T15:39:27.828Z</time>
      </trkpt>
      <trkpt lat="48.15022" lon="6.44365">
        <ele>433.136186</ele>
        <time>2022-07-12T15:39:30.828Z</time>
      </trkpt>
      <trkpt lat="48.15016" lon="6.44354">
        <ele>433.14204</ele>
        <time>2022-07-12T15:39:33.815Z</time>
      </trkpt>
      <trkpt lat="48.15008" lon="6.4434">
        <ele>433.149624</ele>
        <time>2022-07-12T15:39:37.842Z</time>
      </trkpt>
      <trkpt lat="48.15002" lon="6.44325">
        <ele>433.156617</ele>
        <time>2022-07-12T15:39:40.801Z</time>
      </trkpt>
      <trkpt lat="48.15" lon="6.4431">
        <ele>433.163027</ele>
        <time>2022-07-12T15:39:44.807Z</time>
      </trkpt>
      <trkpt lat="48.14998" lon="6.44292">
        <ele>433.170323</ele>
        <time>2022-07-12T15:39:48.797Z</time>
      </trkpt>
      <trkpt lat="48.14992" lon="6.44277">
        <ele>433.17759</ele>
        <time>2022-07-12T15:39:51.809Z</time>
      </trkpt>
      <trkpt lat="48.14987" lon="6.44266">
        <ele>433.18316</ele>
        <time>2022-07-12T15:39:54.799Z</time>
      </trkpt>
      <trkpt lat="48.14979" lon="6.44256">
        <ele>433.189747</ele>
        <time>2022-07-12T15:39:58.798Z</time>
      </trkpt>
      <trkpt lat="48.14974" lon="6.44243">
        <ele>433.195691</ele>
        <time>2022-07-12T15:40:00.878Z</time>
      </trkpt>
      <trkpt lat="48.14968" lon="6.4423">
        <ele>433.202175</ele>
        <time>2022-07-12T15:40:02.806Z</time>
      </trkpt>
      <trkpt lat="48.14963" lon="6.44215">
        <ele>433.208928</ele>
        <time>2022-07-12T15:40:04.802Z</time>
      </trkpt>
      <trkpt lat="48.14956" lon="6.44201">
        <ele>433.215956</ele>
        <time>2022-07-12T15:40:06.812Z</time>
      </trkpt>
      <trkpt lat="48.14952" lon="6.44184">
        <ele>433.22349</ele>
        <time>2022-07-12T15:40:09.859Z</time>
      </trkpt>
      <trkpt lat="48.14949" lon="6.44167">
        <ele>433.230519</ele>
        <time>2022-07-12T15:40:12.835Z</time>
      </trkpt>
      <trkpt lat="48.14946" lon="6.44151">
        <ele>433.241911</ele>
        <time>2022-07-12T15:40:15.805Z</time>
      </trkpt>
      <trkpt lat="48.14942" lon="6.44139">
        <ele>433.26311</ele>
        <time>2022-07-12T15:40:17.813Z</time>
      </trkpt>
      <trkpt lat="48.14939" lon="6.44125">
        <ele>433.286718</ele>
        <time>2022-07-12T15:40:19.805Z</time>
      </trkpt>
      <trkpt lat="48.14935" lon="6.44108">
        <ele>433.313864</ele>
        <time>2022-07-12T15:40:22.817Z</time>
      </trkpt>
      <trkpt lat="48.14932" lon="6.44093">
        <ele>433.338352</ele>
        <time>2022-07-12T15:40:25.813Z</time>
      </trkpt>
      <trkpt lat="48.14928" lon="6.44077">
        <ele>433.36602</ele>
        <time>2022-07-12T15:40:28.802Z</time>
      </trkpt>
      <trkpt lat="48.14925" lon="6.44063">
        <ele>433.388198</ele>
        <time>2022-07-12T15:40:30.802Z</time>
      </trkpt>
      <trkpt lat="48.14922" lon="6.4405">
        <ele>433.409639</ele>
        <time>2022-07-12T15:40:32.807Z</time>
      </trkpt>
      <trkpt lat="48.14917" lon="6.44032">
        <ele>433.439951</ele>
        <time>2022-07-12T15:40:35.811Z</time>
      </trkpt>
      <trkpt lat="48.14909" lon="6.44018">
        <ele>433.469675</ele>
        <time>2022-07-12T15:40:38.829Z</time>
      </trkpt>
      <trkpt lat="48.14903" lon="6.44006">
        <ele>433.49343</ele>
        <time>2022-07-12T15:40:40.816Z</time>
      </trkpt>
      <trkpt lat="48.14895" lon="6.43992">
        <ele>433.521116</ele>
        <time>2022-07-12T15:40:42.822Z</time>
      </trkpt>
      <trkpt lat="48.14888" lon="6.43978">
        <ele>433.549381</ele>
        <time>2022-07-12T15:40:44.804Z</time>
      </trkpt>
      <trkpt lat="48.14883" lon="6.43965">
        <ele>433.572964</ele>
        <time>2022-07-12T15:40:46.806Z</time>
      </trkpt>
      <trkpt lat="48.14875" lon="6.43949">
        <ele>433.604105</ele>
        <time>2022-07-12T15:40:48.820Z</time>
      </trkpt>
      <trkpt lat="48.14867" lon="6.43934">
        <ele>433.633258</ele>
        <time>2022-07-12T15:40:50.818Z</time>
      </trkpt>
      <trkpt lat="48.1486" lon="6.43919">
        <ele>433.662168</ele>
        <time>2022-07-12T15:40:52.812Z</time>
      </trkpt>
      <trkpt lat="48.14853" lon="6.43904">
        <ele>433.695407</ele>
        <time>2022-07-12T15:40:54.805Z</time>
      </trkpt>
      <trkpt lat="48.14846" lon="6.43892">
        <ele>433.722076</ele>
        <time>2022-07-12T15:40:56.814Z</time>
      </trkpt>
      <trkpt lat="48.1484" lon="6.43879">
        <ele>433.750427</ele>
        <time>2022-07-12T15:40:58.820Z</time>
      </trkpt>
      <trkpt lat="48.14834" lon="6.43868">
        <ele>433.77641</ele>
        <time>2022-07-12T15:41:00.801Z</time>
      </trkpt>
      <trkpt lat="48.1483" lon="6.43853">
        <ele>433.803549</ele>
        <time>2022-07-12T15:41:02.788Z</time>
      </trkpt>
      <trkpt lat="48.14828" lon="6.43839">
        <ele>433.829097</ele>
        <time>2022-07-12T15:41:04.810Z</time>
      </trkpt>
      <trkpt lat="48.14825" lon="6.43825">
        <ele>433.854711</ele>
        <time>2022-07-12T15:41:06.796Z</time>
      </trkpt>
      <trkpt lat="48.14823" lon="6.4381">
        <ele>433.882368</ele>
        <time>2022-07-12T15:41:08.794Z</time>
      </trkpt>
      <trkpt lat="48.14821" lon="6.43796">
        <ele>433.907118</ele>
        <time>2022-07-12T15:41:10.789Z</time>
      </trkpt>
      <trkpt lat="48.14819" lon="6.43781">
        <ele>433.932671</ele>
        <time>2022-07-12T15:41:12.805Z</time>
      </trkpt>
      <trkpt lat="48.14817" lon="6.43764">
        <ele>433.963071</ele>
        <time>2022-07-12T15:41:15.811Z</time>
      </trkpt>
      <trkpt lat="48.14818" lon="6.43745">
        <ele>433.996912</ele>
        <time>2022-07-12T15:41:18.826Z</time>
      </trkpt>
      <trkpt lat="48.14818" lon="6.4373">
        <ele>434.022723</ele>
        <time>2022-07-12T15:41:22.812Z</time>
      </trkpt>
      <trkpt lat="48.1482" lon="6.43716">
        <ele>434.048743</ele>
        <time>2022-07-12T15:41:26.807Z</time>
      </trkpt>
      <trkpt lat="48.14821" lon="6.43701">
        <ele>434.073796</ele>
        <time>2022-07-12T15:41:29.827Z</time>
      </trkpt>
      <trkpt lat="48.14824" lon="6.43684">
        <ele>434.104764</ele>
        <time>2022-07-12T15:41:33.798Z</time>
      </trkpt>
      <trkpt lat="48.14827" lon="6.43666">
        <ele>434.140607</ele>
        <time>2022-07-12T15:41:36.798Z</time>
      </trkpt>
      <trkpt lat="48.14832" lon="6.43647">
        <ele>434.186711</ele>
        <time>2022-07-12T15:41:38.803Z</time>
      </trkpt>
      <trkpt lat="48.1483" lon="6.43632">
        <ele>434.220172</ele>
        <time>2022-07-12T15:41:41.807Z</time>
      </trkpt>
      <trkpt lat="48.14821" lon="6.43625">
        <ele>434.255423</ele>
        <time>2022-07-12T15:41:44.812Z</time>
      </trkpt>
      <trkpt lat="48.14809" lon="6.43619">
        <ele>434.298818</ele>
        <time>2022-07-12T15:41:47.816Z</time>
      </trkpt>
      <trkpt lat="48.14798" lon="6.43614">
        <ele>434.338687</ele>
        <time>2022-07-12T15:41:50.813Z</time>
      </trkpt>
      <trkpt lat="48.14787" lon="6.43608">
        <ele>434.379356</ele>
        <time>2022-07-12T15:41:54.803Z</time>
      </trkpt>
      <trkpt lat="48.14776" lon="6.43602">
        <ele>434.417899</ele>
        <time>2022-07-12T15:41:57.799Z</time>
      </trkpt>
      <trkpt lat="48.14766" lon="6.43593">
        <ele>434.458232</ele>
        <time>2022-07-12T15:42:00.801Z</time>
      </trkpt>
      <trkpt lat="48.14757" lon="6.43585">
        <ele>434.492287</ele>
        <time>2022-07-12T15:42:02.819Z</time>
      </trkpt>
      <trkpt lat="48.14749" lon="6.43577">
        <ele>434.527523</ele>
        <time>2022-07-12T15:42:04.806Z</time>
      </trkpt>
      <trkpt lat="48.1474" lon="6.43568">
        <ele>434.56367</ele>
        <time>2022-07-12T15:42:06.816Z</time>
      </trkpt>
      <trkpt lat="48.14732" lon="6.43553">
        <ele>434.605867</ele>
        <time>2022-07-12T15:42:09.787Z</time>
      </trkpt>
      <trkpt lat="48.14731" lon="6.4354">
        <ele>434.636632</ele>
        <time>2022-07-12T15:42:11.808Z</time>
      </trkpt>
      <trkpt lat="48.14727" lon="6.43523">
        <ele>434.677701</ele>
        <time>2022-07-12T15:42:14.823Z</time>
      </trkpt>
      <trkpt lat="48.14725" lon="6.43505">
        <ele>434.718209</ele>
        <time>2022-07-12T15:42:17.786Z</time>
      </trkpt>
      <trkpt lat="48.14722" lon="6.43492">
        <ele>434.666214</ele>
        <time>2022-07-12T15:42:20.805Z</time>
      </trkpt>
      <trkpt lat="48.14716" lon="6.43478">
        <ele>434.311839</ele>
        <time>2022-07-12T15:42:23.817Z</time>
      </trkpt>
      <trkpt lat="48.14708" lon="6.4346">
        <ele>433.867562</ele>
        <time>2022-07-12T15:42:26.816Z</time>
      </trkpt>
      <trkpt lat="48.14702" lon="6.43446">
        <ele>433.493982</ele>
        <time>2022-07-12T15:42:28.809Z</time>
      </trkpt>
      <trkpt lat="48.14694" lon="6.43433">
        <ele>433.137364</ele>
        <time>2022-07-12T15:42:30.835Z</time>
      </trkpt>
      <trkpt lat="48.14687" lon="6.43417">
        <ele>432.728567</ele>
        <time>2022-07-12T15:42:32.793Z</time>
      </trkpt>
      <trkpt lat="48.14682" lon="6.434">
        <ele>432.341722</ele>
        <time>2022-07-12T15:42:34.792Z</time>
      </trkpt>
      <trkpt lat="48.14679" lon="6.43386">
        <ele>432.011711</ele>
        <time>2022-07-12T15:42:36.829Z</time>
      </trkpt>
      <trkpt lat="48.14677" lon="6.43368">
        <ele>431.637209</ele>
        <time>2022-07-12T15:42:38.803Z</time>
      </trkpt>
      <trkpt lat="48.14675" lon="6.4335">
        <ele>431.253789</ele>
        <time>2022-07-12T15:42:40.827Z</time>
      </trkpt>
      <trkpt lat="48.14675" lon="6.43333">
        <ele>430.889982</ele>
        <time>2022-07-12T15:42:42.818Z</time>
      </trkpt>
      <trkpt lat="48.14675" lon="6.43317">
        <ele>430.536596</ele>
        <time>2022-07-12T15:42:44.829Z</time>
      </trkpt>
      <trkpt lat="48.14675" lon="6.43302">
        <ele>430.232355</ele>
        <time>2022-07-12T15:42:46.816Z</time>
      </trkpt>
      <trkpt lat="48.14675" lon="6.43289">
        <ele>429.940617</ele>
        <time>2022-07-12T15:42:48.798Z</time>
      </trkpt>
      <trkpt lat="48.14672" lon="6.43274">
        <ele>429.602549</ele>
        <time>2022-07-12T15:42:51.802Z</time>
      </trkpt>
      <trkpt lat="48.1466" lon="6.43276">
        <ele>429.233878</ele>
        <time>2022-07-12T15:42:54.793Z</time>
      </trkpt>
      <trkpt lat="48.14649" lon="6.43285">
        <ele>428.774885</ele>
        <time>2022-07-12T15:42:57.809Z</time>
      </trkpt>
      <trkpt lat="48.14642" lon="6.43298">
        <ele>428.399402</ele>
        <time>2022-07-12T15:42:59.825Z</time>
      </trkpt>
      <trkpt lat="48.14638" lon="6.4331">
        <ele>428.067573</ele>
        <time>2022-07-12T15:43:01.826Z</time>
      </trkpt>
      <trkpt lat="48.14636" lon="6.43324">
        <ele>427.708698</ele>
        <time>2022-07-12T15:43:03.793Z</time>
      </trkpt>
      <trkpt lat="48.14633" lon="6.4334">
        <ele>427.299405</ele>
        <time>2022-07-12T15:43:05.831Z</time>
      </trkpt>
      <trkpt lat="48.14629" lon="6.43354">
        <ele>426.946635</ele>
        <time>2022-07-12T15:43:07.810Z</time>
      </trkpt>
      <trkpt lat="48.1462" lon="6.43363">
        <ele>426.562455</ele>
        <time>2022-07-12T15:43:10.818Z</time>
      </trkpt>
      <trkpt lat="48.14611" lon="6.4336">
        <ele>426.227368</ele>
        <time>2022-07-12T15:43:14.818Z</time>
      </trkpt>
      <trkpt lat="48.14599" lon="6.43357">
        <ele>425.790217</ele>
        <time>2022-07-12T15:43:17.795Z</time>
      </trkpt>
      <trkpt lat="48.14592" lon="6.4337">
        <ele>425.385547</ele>
        <time>2022-07-12T15:43:20.796Z</time>
      </trkpt>
      <trkpt lat="48.14591" lon="6.43388">
        <ele>424.937186</ele>
        <time>2022-07-12T15:43:23.807Z</time>
      </trkpt>
      <trkpt lat="48.14587" lon="6.43403">
        <ele>424.552831</ele>
        <time>2022-07-12T15:43:25.803Z</time>
      </trkpt>
      <trkpt lat="48.14584" lon="6.43418">
        <ele>424.178948</ele>
        <time>2022-07-12T15:43:27.804Z</time>
      </trkpt>
      <trkpt lat="48.14582" lon="6.43437">
        <ele>423.711248</ele>
        <time>2022-07-12T15:43:29.812Z</time>
      </trkpt>
      <trkpt lat="48.14582" lon="6.43455">
        <ele>423.259006</ele>
        <time>2022-07-12T15:43:31.798Z</time>
      </trkpt>
      <trkpt lat="48.14583" lon="6.43471">
        <ele>422.875381</ele>
        <time>2022-07-12T15:43:33.811Z</time>
      </trkpt>
      <trkpt lat="48.14586" lon="6.43489">
        <ele>422.551835</ele>
        <time>2022-07-12T15:43:35.838Z</time>
      </trkpt>
      <trkpt lat="48.14589" lon="6.43508">
        <ele>423.163574</ele>
        <time>2022-07-12T15:43:37.796Z</time>
      </trkpt>
      <trkpt lat="48.14592" lon="6.43528">
        <ele>423.766902</ele>
        <time>2022-07-12T15:43:39.820Z</time>
      </trkpt>
      <trkpt lat="48.14594" lon="6.43545">
        <ele>424.269733</ele>
        <time>2022-07-12T15:43:41.792Z</time>
      </trkpt>
      <trkpt lat="48.14595" lon="6.4356">
        <ele>424.72599</ele>
        <time>2022-07-12T15:43:43.813Z</time>
      </trkpt>
      <trkpt lat="48.14597" lon="6.43578">
        <ele>425.281705</ele>
        <time>2022-07-12T15:43:46.821Z</time>
      </trkpt>
      <trkpt lat="48.14598" lon="6.43598">
        <ele>425.852807</ele>
        <time>2022-07-12T15:43:49.815Z</time>
      </trkpt>
      <trkpt lat="48.14599" lon="6.43617">
        <ele>426.431531</ele>
        <time>2022-07-12T15:43:52.802Z</time>
      </trkpt>
      <trkpt lat="48.14599" lon="6.43635">
        <ele>426.974349</ele>
        <time>2022-07-12T15:43:55.822Z</time>
      </trkpt>
      <trkpt lat="48.14599" lon="6.43655">
        <ele>427.562196</ele>
        <time>2022-07-12T15:43:58.826Z</time>
      </trkpt>
      <trkpt lat="48.14594" lon="6.43674">
        <ele>428.15786</ele>
        <time>2022-07-12T15:44:01.811Z</time>
      </trkpt>
      <trkpt lat="48.14586" lon="6.43689">
        <ele>428.733441</ele>
        <time>2022-07-12T15:44:04.801Z</time>
      </trkpt>
      <trkpt lat="48.14578" lon="6.43701">
        <ele>429.237197</ele>
        <time>2022-07-12T15:44:07.798Z</time>
      </trkpt>
      <trkpt lat="48.1457" lon="6.43712">
        <ele>429.739485</ele>
        <time>2022-07-12T15:44:11.802Z</time>
      </trkpt>
      <trkpt lat="48.14563" lon="6.43723">
        <ele>430.176789</ele>
        <time>2022-07-12T15:44:14.814Z</time>
      </trkpt>
      <trkpt lat="48.14558" lon="6.43741">
        <ele>430.522468</ele>
        <time>2022-07-12T15:44:17.818Z</time>
      </trkpt>
      <trkpt lat="48.14553" lon="6.43759">
        <ele>430.511959</ele>
        <time>2022-07-12T15:44:20.806Z</time>
      </trkpt>
      <trkpt lat="48.14546" lon="6.4377">
        <ele>430.503527</ele>
        <time>2022-07-12T15:44:22.802Z</time>
      </trkpt>
      <trkpt lat="48.14538" lon="6.43779">
        <ele>430.495528</ele>
        <time>2022-07-12T15:44:24.801Z</time>
      </trkpt>
      <trkpt lat="48.14528" lon="6.43789">
        <ele>430.485397</ele>
        <time>2022-07-12T15:44:27.816Z</time>
      </trkpt>
      <trkpt lat="48.14519" lon="6.43795">
        <ele>430.477686</ele>
        <time>2022-07-12T15:44:29.811Z</time>
      </trkpt>
      <trkpt lat="48.14511" lon="6.43802">
        <ele>430.470191</ele>
        <time>2022-07-12T15:44:31.806Z</time>
      </trkpt>
      <trkpt lat="48.14501" lon="6.43808">
        <ele>430.461234</ele>
        <time>2022-07-12T15:44:33.802Z</time>
      </trkpt>
      <trkpt lat="48.14493" lon="6.43816">
        <ele>430.453438</ele>
        <time>2022-07-12T15:44:35.801Z</time>
      </trkpt>
      <trkpt lat="48.14484" lon="6.43822">
        <ele>430.444868</ele>
        <time>2022-07-12T15:44:37.798Z</time>
      </trkpt>
      <trkpt lat="48.14473" lon="6.43829">
        <ele>430.43545</ele>
        <time>2022-07-12T15:44:39.803Z</time>
      </trkpt>
      <trkpt lat="48.1446" lon="6.4384">
        <ele>430.423209</ele>
        <time>2022-07-12T15:44:41.818Z</time>
      </trkpt>
      <trkpt lat="48.1445" lon="6.43851">
        <ele>430.413058</ele>
        <time>2022-07-12T15:44:43.795Z</time>
      </trkpt>
      <trkpt lat="48.14441" lon="6.43863">
        <ele>430.403478</ele>
        <time>2022-07-12T15:44:45.794Z</time>
      </trkpt>
      <trkpt lat="48.14438" lon="6.43878">
        <ele>430.394999</ele>
        <time>2022-07-12T15:44:47.797Z</time>
      </trkpt>
      <trkpt lat="48.14436" lon="6.43893">
        <ele>430.386785</ele>
        <time>2022-07-12T15:44:49.801Z</time>
      </trkpt>
      <trkpt lat="48.14436" lon="6.43908">
        <ele>430.37409</ele>
        <time>2022-07-12T15:44:51.799Z</time>
      </trkpt>
      <trkpt lat="48.14439" lon="6.43925">
        <ele>430.334772</ele>
        <time>2022-07-12T15:44:53.822Z</time>
      </trkpt>
      <trkpt lat="48.14443" lon="6.43946">
        <ele>430.284495</ele>
        <time>2022-07-12T15:44:55.814Z</time>
      </trkpt>
      <trkpt lat="48.14451" lon="6.43963">
        <ele>430.236397</ele>
        <time>2022-07-12T15:44:57.811Z</time>
      </trkpt>
      <trkpt lat="48.14463" lon="6.43974">
        <ele>430.189372</ele>
        <time>2022-07-12T15:44:59.787Z</time>
      </trkpt>
      <trkpt lat="48.14476" lon="6.43976">
        <ele>430.144035</ele>
        <time>2022-07-12T15:45:01.806Z</time>
      </trkpt>
      <trkpt lat="48.14489" lon="6.43974">
        <ele>430.099434</ele>
        <time>2022-07-12T15:45:03.786Z</time>
      </trkpt>
      <trkpt lat="48.145" lon="6.43972">
        <ele>430.061766</ele>
        <time>2022-07-12T15:45:05.786Z</time>
      </trkpt>
      <trkpt lat="48.1451" lon="6.43971">
        <ele>430.025788</ele>
        <time>2022-07-12T15:45:07.801Z</time>
      </trkpt>
      <trkpt lat="48.14522" lon="6.43972">
        <ele>429.984359</ele>
        <time>2022-07-12T15:45:09.809Z</time>
      </trkpt>
      <trkpt lat="48.14534" lon="6.43978">
        <ele>429.941608</ele>
        <time>2022-07-12T15:45:11.821Z</time>
      </trkpt>
      <trkpt lat="48.14543" lon="6.4399">
        <ele>429.899212</ele>
        <time>2022-07-12T15:45:13.810Z</time>
      </trkpt>
      <trkpt lat="48.1455" lon="6.44005">
        <ele>429.857617</ele>
        <time>2022-07-12T15:45:15.803Z</time>
      </trkpt>
      <trkpt lat="48.14557" lon="6.44021">
        <ele>429.815247</ele>
        <time>2022-07-12T15:45:17.799Z</time>
      </trkpt>
      <trkpt lat="48.14563" lon="6.44036">
        <ele>429.775315</ele>
        <time>2022-07-12T15:45:19.795Z</time>
      </trkpt>
      <trkpt lat="48.14569" lon="6.44052">
        <ele>429.745869</ele>
        <time>2022-07-12T15:45:21.804Z</time>
      </trkpt>
      <trkpt lat="48.14572" lon="6.44069">
        <ele>429.720549</ele>
        <time>2022-07-12T15:45:23.804Z</time>
      </trkpt>
      <trkpt lat="48.14573" lon="6.44086">
        <ele>429.695407</ele>
        <time>2022-07-12T15:45:25.800Z</time>
      </trkpt>
      <trkpt lat="48.1457" lon="6.44103">
        <ele>429.670581</ele>
        <time>2022-07-12T15:45:27.818Z</time>
      </trkpt>
      <trkpt lat="48.14566" lon="6.44119">
        <ele>429.646532</ele>
        <time>2022-07-12T15:45:29.804Z</time>
      </trkpt>
      <trkpt lat="48.14563" lon="6.44133">
        <ele>429.625512</ele>
        <time>2022-07-12T15:45:31.811Z</time>
      </trkpt>
      <trkpt lat="48.14563" lon="6.44148">
        <ele>429.603933</ele>
        <time>2022-07-12T15:45:33.795Z</time>
      </trkpt>
      <trkpt lat="48.14564" lon="6.44167">
        <ele>429.578215</ele>
        <time>2022-07-12T15:45:35.809Z</time>
      </trkpt>
      <trkpt lat="48.14566" lon="6.44185">
        <ele>429.55175</ele>
        <time>2022-07-12T15:45:37.842Z</time>
      </trkpt>
      <trkpt lat="48.14568" lon="6.44204">
        <ele>429.523954</ele>
        <time>2022-07-12T15:45:39.813Z</time>
      </trkpt>
      <trkpt lat="48.14569" lon="6.44224">
        <ele>429.496206</ele>
        <time>2022-07-12T15:45:41.818Z</time>
      </trkpt>
      <trkpt lat="48.14568" lon="6.44243">
        <ele>429.468471</ele>
        <time>2022-07-12T15:45:43.819Z</time>
      </trkpt>
      <trkpt lat="48.14566" lon="6.44262">
        <ele>429.441284</ele>
        <time>2022-07-12T15:45:45.814Z</time>
      </trkpt>
      <trkpt lat="48.14564" lon="6.44281">
        <ele>429.414224</ele>
        <time>2022-07-12T15:45:47.824Z</time>
      </trkpt>
      <trkpt lat="48.14561" lon="6.44298">
        <ele>429.388848</ele>
        <time>2022-07-12T15:45:49.807Z</time>
      </trkpt>
      <trkpt lat="48.14557" lon="6.44315">
        <ele>429.430782</ele>
        <time>2022-07-12T15:45:51.803Z</time>
      </trkpt>
      <trkpt lat="48.14551" lon="6.44332">
        <ele>429.501915</ele>
        <time>2022-07-12T15:45:53.802Z</time>
      </trkpt>
      <trkpt lat="48.14547" lon="6.4435">
        <ele>429.574535</ele>
        <time>2022-07-12T15:45:55.812Z</time>
      </trkpt>
      <trkpt lat="48.14542" lon="6.44367">
        <ele>429.643579</ele>
        <time>2022-07-12T15:45:57.832Z</time>
      </trkpt>
      <trkpt lat="48.14536" lon="6.44384">
        <ele>429.717689</ele>
        <time>2022-07-12T15:45:59.813Z</time>
      </trkpt>
      <trkpt lat="48.14532" lon="6.44402">
        <ele>429.789101</ele>
        <time>2022-07-12T15:46:01.802Z</time>
      </trkpt>
      <trkpt lat="48.14527" lon="6.44421">
        <ele>429.864398</ele>
        <time>2022-07-12T15:46:03.803Z</time>
      </trkpt>
      <trkpt lat="48.14523" lon="6.4444">
        <ele>429.938949</ele>
        <time>2022-07-12T15:46:05.809Z</time>
      </trkpt>
      <trkpt lat="48.14521" lon="6.44457">
        <ele>430.005593</ele>
        <time>2022-07-12T15:46:07.790Z</time>
      </trkpt>
      <trkpt lat="48.14524" lon="6.44473">
        <ele>430.068176</ele>
        <time>2022-07-12T15:46:09.795Z</time>
      </trkpt>
      <trkpt lat="48.14532" lon="6.44487">
        <ele>430.140179</ele>
        <time>2022-07-12T15:46:11.797Z</time>
      </trkpt>
      <trkpt lat="48.14542" lon="6.44499">
        <ele>430.213909</ele>
        <time>2022-07-12T15:46:13.806Z</time>
      </trkpt>
      <trkpt lat="48.14552" lon="6.44512">
        <ele>430.288937</ele>
        <time>2022-07-12T15:46:15.803Z</time>
      </trkpt>
      <trkpt lat="48.14561" lon="6.44527">
        <ele>430.363269</ele>
        <time>2022-07-12T15:46:17.816Z</time>
      </trkpt>
      <trkpt lat="48.14569" lon="6.44542">
        <ele>430.427975</ele>
        <time>2022-07-12T15:46:19.807Z</time>
      </trkpt>
      <trkpt lat="48.14577" lon="6.44557">
        <ele>430.486531</ele>
        <time>2022-07-12T15:46:21.800Z</time>
      </trkpt>
      <trkpt lat="48.14584" lon="6.44572">
        <ele>430.543686</ele>
        <time>2022-07-12T15:46:23.793Z</time>
      </trkpt>
      <trkpt lat="48.14588" lon="6.4459">
        <ele>430.599903</ele>
        <time>2022-07-12T15:46:25.791Z</time>
      </trkpt>
      <trkpt lat="48.14584" lon="6.44608">
        <ele>430.660024</ele>
        <time>2022-07-12T15:46:27.806Z</time>
      </trkpt>
      <trkpt lat="48.14578" lon="6.44626">
        <ele>430.719506</ele>
        <time>2022-07-12T15:46:29.804Z</time>
      </trkpt>
      <trkpt lat="48.14569" lon="6.4464">
        <ele>430.779092</ele>
        <time>2022-07-12T15:46:31.801Z</time>
      </trkpt>
      <trkpt lat="48.14559" lon="6.44651">
        <ele>430.837877</ele>
        <time>2022-07-12T15:46:33.802Z</time>
      </trkpt>
      <trkpt lat="48.14551" lon="6.44666">
        <ele>430.895755</ele>
        <time>2022-07-12T15:46:35.803Z</time>
      </trkpt>
      <trkpt lat="48.14548" lon="6.44685">
        <ele>430.95618</ele>
        <time>2022-07-12T15:46:37.791Z</time>
      </trkpt>
      <trkpt lat="48.14548" lon="6.44704">
        <ele>431.013897</ele>
        <time>2022-07-12T15:46:39.800Z</time>
      </trkpt>
      <trkpt lat="48.1455" lon="6.44722">
        <ele>431.068116</ele>
        <time>2022-07-12T15:46:41.807Z</time>
      </trkpt>
      <trkpt lat="48.14551" lon="6.44741">
        <ele>431.129093</ele>
        <time>2022-07-12T15:46:43.800Z</time>
      </trkpt>
      <trkpt lat="48.1455" lon="6.44762">
        <ele>431.190887</ele>
        <time>2022-07-12T15:46:45.801Z</time>
      </trkpt>
      <trkpt lat="48.14547" lon="6.44781">
        <ele>430.964711</ele>
        <time>2022-07-12T15:46:47.802Z</time>
      </trkpt>
      <trkpt lat="48.14539" lon="6.44795">
        <ele>430.437208</ele>
        <time>2022-07-12T15:46:49.806Z</time>
      </trkpt>
      <trkpt lat="48.14528" lon="6.44807">
        <ele>429.877902</ele>
        <time>2022-07-12T15:46:51.799Z</time>
      </trkpt>
      <trkpt lat="48.14519" lon="6.44819">
        <ele>429.335218</ele>
        <time>2022-07-12T15:46:53.799Z</time>
      </trkpt>
      <trkpt lat="48.14516" lon="6.44839">
        <ele>428.768923</ele>
        <time>2022-07-12T15:46:55.804Z</time>
      </trkpt>
      <trkpt lat="48.14519" lon="6.44859">
        <ele>428.191458</ele>
        <time>2022-07-12T15:46:57.809Z</time>
      </trkpt>
      <trkpt lat="48.14527" lon="6.44871">
        <ele>427.684581</ele>
        <time>2022-07-12T15:46:59.797Z</time>
      </trkpt>
      <trkpt lat="48.14537" lon="6.44885">
        <ele>427.102065</ele>
        <time>2022-07-12T15:47:01.806Z</time>
      </trkpt>
      <trkpt lat="48.14548" lon="6.44896">
        <ele>426.559679</ele>
        <time>2022-07-12T15:47:03.805Z</time>
      </trkpt>
      <trkpt lat="48.14557" lon="6.44904">
        <ele>426.096007</ele>
        <time>2022-07-12T15:47:05.804Z</time>
      </trkpt>
      <trkpt lat="48.14568" lon="6.44903">
        <ele>425.661774</ele>
        <time>2022-07-12T15:47:07.805Z</time>
      </trkpt>
      <trkpt lat="48.14583" lon="6.44899">
        <ele>425.013534</ele>
        <time>2022-07-12T15:47:09.795Z</time>
      </trkpt>
      <trkpt lat="48.14601" lon="6.44895">
        <ele>424.242826</ele>
        <time>2022-07-12T15:47:11.805Z</time>
      </trkpt>
      <trkpt lat="48.1461" lon="6.44893">
        <ele>423.84241</ele>
        <time>2022-07-12T15:47:12.816Z</time>
      </trkpt>
      <trkpt lat="48.14619" lon="6.4489">
        <ele>423.330703</ele>
        <time>2022-07-12T15:47:13.800Z</time>
      </trkpt>
      <trkpt lat="48.14628" lon="6.44886">
        <ele>422.626238</ele>
        <time>2022-07-12T15:47:14.807Z</time>
      </trkpt>
      <trkpt lat="48.14636" lon="6.44877">
        <ele>421.929193</ele>
        <time>2022-07-12T15:47:15.837Z</time>
      </trkpt>
      <trkpt lat="48.14642" lon="6.44866">
        <ele>421.231574</ele>
        <time>2022-07-12T15:47:16.807Z</time>
      </trkpt>
      <trkpt lat="48.14648" lon="6.44854">
        <ele>420.508501</ele>
        <time>2022-07-12T15:47:17.816Z</time>
      </trkpt>
      <trkpt lat="48.14654" lon="6.44842">
        <ele>419.746789</ele>
        <time>2022-07-12T15:47:18.799Z</time>
      </trkpt>
      <trkpt lat="48.14661" lon="6.44829">
        <ele>418.943201</ele>
        <time>2022-07-12T15:47:19.810Z</time>
      </trkpt>
      <trkpt lat="48.14668" lon="6.44816">
        <ele>418.105954</ele>
        <time>2022-07-12T15:47:20.808Z</time>
      </trkpt>
      <trkpt lat="48.14676" lon="6.44802">
        <ele>417.250826</ele>
        <time>2022-07-12T15:47:21.830Z</time>
      </trkpt>
      <trkpt lat="48.14684" lon="6.44789">
        <ele>416.355689</ele>
        <time>2022-07-12T15:47:22.803Z</time>
      </trkpt>
      <trkpt lat="48.14693" lon="6.44776">
        <ele>415.47205</ele>
        <time>2022-07-12T15:47:23.793Z</time>
      </trkpt>
      <trkpt lat="48.14701" lon="6.44765">
        <ele>414.655641</ele>
        <time>2022-07-12T15:47:24.808Z</time>
      </trkpt>
      <trkpt lat="48.14709" lon="6.44756">
        <ele>413.943683</ele>
        <time>2022-07-12T15:47:25.803Z</time>
      </trkpt>
      <trkpt lat="48.14721" lon="6.44742">
        <ele>412.807437</ele>
        <time>2022-07-12T15:47:27.811Z</time>
      </trkpt>
      <trkpt lat="48.14733" lon="6.44739">
        <ele>411.908161</ele>
        <time>2022-07-12T15:47:29.832Z</time>
      </trkpt>
      <trkpt lat="48.14744" lon="6.44739">
        <ele>411.088073</ele>
        <time>2022-07-12T15:47:31.808Z</time>
      </trkpt>
      <trkpt lat="48.14754" lon="6.44744">
        <ele>410.396012</ele>
        <time>2022-07-12T15:47:33.804Z</time>
      </trkpt>
      <trkpt lat="48.14764" lon="6.44753">
        <ele>410.068191</ele>
        <time>2022-07-12T15:47:35.799Z</time>
      </trkpt>
      <trkpt lat="48.14776" lon="6.4476">
        <ele>409.711538</ele>
        <time>2022-07-12T15:47:37.810Z</time>
      </trkpt>
      <trkpt lat="48.14788" lon="6.44764">
        <ele>409.35916</ele>
        <time>2022-07-12T15:47:39.814Z</time>
      </trkpt>
      <trkpt lat="48.148" lon="6.44766">
        <ele>409.010573</ele>
        <time>2022-07-12T15:47:41.796Z</time>
      </trkpt>
      <trkpt lat="48.14813" lon="6.44768">
        <ele>408.67074</ele>
        <time>2022-07-12T15:47:43.814Z</time>
      </trkpt>
      <trkpt lat="48.14824" lon="6.4477">
        <ele>408.336661</ele>
        <time>2022-07-12T15:47:45.810Z</time>
      </trkpt>
      <trkpt lat="48.14837" lon="6.44773">
        <ele>407.990843</ele>
        <time>2022-07-12T15:47:47.805Z</time>
      </trkpt>
      <trkpt lat="48.1485" lon="6.44776">
        <ele>407.614427</ele>
        <time>2022-07-12T15:47:49.810Z</time>
      </trkpt>
      <trkpt lat="48.14864" lon="6.44781">
        <ele>407.222326</ele>
        <time>2022-07-12T15:47:51.817Z</time>
      </trkpt>
      <trkpt lat="48.14877" lon="6.44789">
        <ele>406.818</ele>
        <time>2022-07-12T15:47:53.819Z</time>
      </trkpt>
      <trkpt lat="48.1489" lon="6.448">
        <ele>406.404039</ele>
        <time>2022-07-12T15:47:55.819Z</time>
      </trkpt>
      <trkpt lat="48.14902" lon="6.44813">
        <ele>405.992984</ele>
        <time>2022-07-12T15:47:57.824Z</time>
      </trkpt>
      <trkpt lat="48.14914" lon="6.44825">
        <ele>405.589484</ele>
        <time>2022-07-12T15:47:59.798Z</time>
      </trkpt>
      <trkpt lat="48.14926" lon="6.44837">
        <ele>405.570231</ele>
        <time>2022-07-12T15:48:01.814Z</time>
      </trkpt>
      <trkpt lat="48.14937" lon="6.44848">
        <ele>405.892332</ele>
        <time>2022-07-12T15:48:03.832Z</time>
      </trkpt>
      <trkpt lat="48.14947" lon="6.44855">
        <ele>406.145745</ele>
        <time>2022-07-12T15:48:05.798Z</time>
      </trkpt>
      <trkpt lat="48.14959" lon="6.4485">
        <ele>406.428906</ele>
        <time>2022-07-12T15:48:08.816Z</time>
      </trkpt>
      <trkpt lat="48.14971" lon="6.44847">
        <ele>406.716557</ele>
        <time>2022-07-12T15:48:11.801Z</time>
      </trkpt>
      <trkpt lat="48.14982" lon="6.44848">
        <ele>406.976045</ele>
        <time>2022-07-12T15:48:13.810Z</time>
      </trkpt>
      <trkpt lat="48.14994" lon="6.44852">
        <ele>407.260063</ele>
        <time>2022-07-12T15:48:16.799Z</time>
      </trkpt>
      <trkpt lat="48.15003" lon="6.44866">
        <ele>407.556444</ele>
        <time>2022-07-12T15:48:19.795Z</time>
      </trkpt>
      <trkpt lat="48.15006" lon="6.44887">
        <ele>407.896021</ele>
        <time>2022-07-12T15:48:22.801Z</time>
      </trkpt>
      <trkpt lat="48.15004" lon="6.44901">
        <ele>408.117983</ele>
        <time>2022-07-12T15:48:24.793Z</time>
      </trkpt>
      <trkpt lat="48.14994" lon="6.44908">
        <ele>408.382626</ele>
        <time>2022-07-12T15:48:27.800Z</time>
      </trkpt>
      <trkpt lat="48.14984" lon="6.44913">
        <ele>408.628588</ele>
        <time>2022-07-12T15:48:30.816Z</time>
      </trkpt>
      <trkpt lat="48.14974" lon="6.44916">
        <ele>408.86239</ele>
        <time>2022-07-12T15:48:33.810Z</time>
      </trkpt>
      <trkpt lat="48.14962" lon="6.4492">
        <ele>409.135319</ele>
        <time>2022-07-12T15:48:36.808Z</time>
      </trkpt>
      <trkpt lat="48.14951" lon="6.44924">
        <ele>409.417055</ele>
        <time>2022-07-12T15:48:39.806Z</time>
      </trkpt>
      <trkpt lat="48.14939" lon="6.44927">
        <ele>409.771892</ele>
        <time>2022-07-12T15:48:42.814Z</time>
      </trkpt>
      <trkpt lat="48.14929" lon="6.44931">
        <ele>410.239668</ele>
        <time>2022-07-12T15:48:45.819Z</time>
      </trkpt>
      <trkpt lat="48.14919" lon="6.44934">
        <ele>410.693318</ele>
        <time>2022-07-12T15:48:48.799Z</time>
      </trkpt>
      <trkpt lat="48.1491" lon="6.44939">
        <ele>411.140928</ele>
        <time>2022-07-12T15:48:51.800Z</time>
      </trkpt>
      <trkpt lat="48.14902" lon="6.44945">
        <ele>411.567421</ele>
        <time>2022-07-12T15:48:54.810Z</time>
      </trkpt>
      <trkpt lat="48.14893" lon="6.44951">
        <ele>412.014758</ele>
        <time>2022-07-12T15:48:57.804Z</time>
      </trkpt>
      <trkpt lat="48.14883" lon="6.44958">
        <ele>412.507774</ele>
        <time>2022-07-12T15:49:00.810Z</time>
      </trkpt>
      <trkpt lat="48.14873" lon="6.44965">
        <ele>412.995288</ele>
        <time>2022-07-12T15:49:03.814Z</time>
      </trkpt>
      <trkpt lat="48.14863" lon="6.44973">
        <ele>413.506489</ele>
        <time>2022-07-12T15:49:06.827Z</time>
      </trkpt>
      <trkpt lat="48.14853" lon="6.4498">
        <ele>414.024236</ele>
        <time>2022-07-12T15:49:09.814Z</time>
      </trkpt>
      <trkpt lat="48.14843" lon="6.44989">
        <ele>414.552411</ele>
        <time>2022-07-12T15:49:12.799Z</time>
      </trkpt>
      <trkpt lat="48.14833" lon="6.44999">
        <ele>415.101743</ele>
        <time>2022-07-12T15:49:15.810Z</time>
      </trkpt>
      <trkpt lat="48.14823" lon="6.45011">
        <ele>415.670497</ele>
        <time>2022-07-12T15:49:18.808Z</time>
      </trkpt>
      <trkpt lat="48.14813" lon="6.45022">
        <ele>416.257518</ele>
        <time>2022-07-12T15:49:21.819Z</time>
      </trkpt>
      <trkpt lat="48.14802" lon="6.45035">
        <ele>416.86447</ele>
        <time>2022-07-12T15:49:24.816Z</time>
      </trkpt>
      <trkpt lat="48.14795" lon="6.45042">
        <ele>417.271616</ele>
        <time>2022-07-12T15:49:26.804Z</time>
      </trkpt>
      <trkpt lat="48.14788" lon="6.45052">
        <ele>417.688401</ele>
        <time>2022-07-12T15:49:28.801Z</time>
      </trkpt>
      <trkpt lat="48.14782" lon="6.45062">
        <ele>417.767241</ele>
        <time>2022-07-12T15:49:30.810Z</time>
      </trkpt>
      <trkpt lat="48.14777" lon="6.45074">
        <ele>417.767241</ele>
        <time>2022-07-12T15:49:32.818Z</time>
      </trkpt>
      <trkpt lat="48.14774" lon="6.45093">
        <ele>417.767241</ele>
        <time>2022-07-12T15:49:35.810Z</time>
      </trkpt>
      <trkpt lat="48.14773" lon="6.45107">
        <ele>417.767241</ele>
        <time>2022-07-12T15:49:37.809Z</time>
      </trkpt>
      <trkpt lat="48.14772" lon="6.4512">
        <ele>417.767241</ele>
        <time>2022-07-12T15:49:39.799Z</time>
      </trkpt>
      <trkpt lat="48.1477" lon="6.4514">
        <ele>417.767241</ele>
        <time>2022-07-12T15:49:42.806Z</time>
      </trkpt>
      <trkpt lat="48.14769" lon="6.45158">
        <ele>417.767241</ele>
        <time>2022-07-12T15:49:45.818Z</time>
      </trkpt>
      <trkpt lat="48.14778" lon="6.45167">
        <ele>417.767241</ele>
        <time>2022-07-12T15:49:48.825Z</time>
      </trkpt>
      <trkpt lat="48.14791" lon="6.45165">
        <ele>417.767241</ele>
        <time>2022-07-12T15:49:51.807Z</time>
      </trkpt>
      <trkpt lat="48.14802" lon="6.45162">
        <ele>417.767241</ele>
        <time>2022-07-12T15:49:54.822Z</time>
      </trkpt>
      <trkpt lat="48.14797" lon="6.45153">
        <ele>417.767241</ele>
        <time>2022-07-12T15:49:58.827Z</time>
      </trkpt>
    </trkseg>
  </trk>
</gpx>